<?xml version='1.0' encoding='UTF-8'?><gpx version="1.1" creator="JPX - https://github.com/jenetics/jpx" xmlns="http://www.topografix.com/GPX/1/1"><trk><trkseg><trkpt lat="48.872315682241705" lon="2.068157508824265"><ele>121.99999999999999</ele><time>2026-04-24T15:46:36Z</time></trkpt><trkpt lat="48.87227719240891" lon="2.068245507033865"><ele>122.0</ele><time>2026-04-24T15:46:40Z</time></trkpt><trkpt lat="48.87228753509208" lon="2.0683718254028163"><ele>122.0</ele><time>2026-04-24T15:46:42Z</time></trkpt><trkpt lat="48.87227341380595" lon="2.068485311684482"><ele>122.0</ele><time>2026-04-24T15:46:44Z</time></trkpt><trkpt lat="48.8722413902137" lon="2.0685939381240517"><ele>121.99999999999999</ele><time>2026-04-24T15:46:46Z</time></trkpt><trkpt lat="48.872237782918916" lon="2.0687135630842466"><ele>122.0</ele><time>2026-04-24T15:47:19.999Z</time></trkpt><trkpt lat="48.87216140041447" lon="2.068782691934149"><ele>121.0</ele><time>2026-04-24T15:47:22.999Z</time></trkpt><trkpt lat="48.87210683946346" lon="2.0688510617024387"><ele>119.99999999999999</ele><time>2026-04-24T15:47:24.999Z</time></trkpt><trkpt lat="48.872023877092936" lon="2.0689450668134333"><ele>118.99999999999999</ele><time>2026-04-24T15:47:26.999Z</time></trkpt><trkpt lat="48.87189355033075" lon="2.069001256765144"><ele>118.0</ele><time>2026-04-24T15:47:28.999Z</time></trkpt><trkpt lat="48.871790540868915" lon="2.069023867879427"><ele>117.0</ele><time>2026-04-24T15:47:29.999Z</time></trkpt><trkpt lat="48.87170031800627" lon="2.068968051627645"><ele>116.0</ele><time>2026-04-24T15:47:30.999Z</time></trkpt><trkpt lat="48.87162369306745" lon="2.0690063179091034"><ele>115.0</ele><time>2026-04-24T15:47:31.999Z</time></trkpt><trkpt lat="48.871552344705236" lon="2.06906190615711"><ele>114.0</ele><time>2026-04-24T15:47:32.999Z</time></trkpt><trkpt lat="48.87148395239815" lon="2.0691420716454294"><ele>113.0</ele><time>2026-04-24T15:47:33.999Z</time></trkpt><trkpt lat="48.87142392594947" lon="2.06924115137743"><ele>112.0</ele><time>2026-04-24T15:47:34.999Z</time></trkpt><trkpt lat="48.87136106275363" lon="2.06934749274428"><ele>111.0</ele><time>2026-04-24T15:47:35.999Z</time></trkpt><trkpt lat="48.87133991404472" lon="2.0695160795849366"><ele>110.6</ele><time>2026-04-24T15:47:36.999Z</time></trkpt><trkpt lat="48.87128101040181" lon="2.0696226070164334"><ele>110.19999999999999</ele><time>2026-04-24T15:47:37.999Z</time></trkpt><trkpt lat="48.87122073047924" lon="2.0697377524742673"><ele>109.80000000000001</ele><time>2026-04-24T15:47:38.999Z</time></trkpt><trkpt lat="48.87114419716092" lon="2.069860185970983"><ele>109.4</ele><time>2026-04-24T15:47:39.999Z</time></trkpt><trkpt lat="48.87109108604723" lon="2.069962286356681"><ele>109.0</ele><time>2026-04-24T15:47:40.999Z</time></trkpt><trkpt lat="48.87103786125376" lon="2.070065392173656"><ele>108.2</ele><time>2026-04-24T15:47:41.999Z</time></trkpt><trkpt lat="48.870970467093514" lon="2.0701959464870234"><ele>107.4</ele><time>2026-04-24T15:47:42.999Z</time></trkpt><trkpt lat="48.87090643787766" lon="2.0703209571715537"><ele>106.6</ele><time>2026-04-24T15:47:43.999Z</time></trkpt><trkpt lat="48.870835088966764" lon="2.070437630726901"><ele>105.8</ele><time>2026-04-24T15:47:44.999Z</time></trkpt><trkpt lat="48.870790002532665" lon="2.0705399629669388"><ele>105.0</ele><time>2026-04-24T15:47:45.999Z</time></trkpt><trkpt lat="48.87072616229611" lon="2.0706694446398113"><ele>104.16666666666667</ele><time>2026-04-24T15:47:46.998Z</time></trkpt><trkpt lat="48.870682533836465" lon="2.0707667334205984"><ele>103.33333333333334</ele><time>2026-04-24T15:47:47.998Z</time></trkpt><trkpt lat="48.87064834024017" lon="2.070858767476593"><ele>102.5</ele><time>2026-04-24T15:47:48.998Z</time></trkpt><trkpt lat="48.87060192640169" lon="2.0709585391416687"><ele>101.66666666666667</ele><time>2026-04-24T15:47:50.998Z</time></trkpt><trkpt lat="48.870538583229305" lon="2.0709768658955676"><ele>100.83333333333334</ele><time>2026-04-24T15:47:53.998Z</time></trkpt><trkpt lat="48.87051368691479" lon="2.0708882679250293"><ele>100.0</ele><time>2026-04-24T15:47:54.998Z</time></trkpt><trkpt lat="48.87045297318995" lon="2.0707540611595263"><ele>100.00000000000001</ele><time>2026-04-24T15:47:56.998Z</time></trkpt><trkpt lat="48.87040816625381" lon="2.0706741397951496"><ele>100.0</ele><time>2026-04-24T15:47:57.998Z</time></trkpt><trkpt lat="48.870362889490494" lon="2.0706029161323767"><ele>100.0</ele><time>2026-04-24T15:47:58.998Z</time></trkpt><trkpt lat="48.87027116072424" lon="2.0704870189882154"><ele>100.0</ele><time>2026-04-24T15:48:00.998Z</time></trkpt><trkpt lat="48.87018657645861" lon="2.070351210030457"><ele>100.00000000000001</ele><time>2026-04-24T15:48:02.998Z</time></trkpt><trkpt lat="48.87013068583709" lon="2.070285751774652"><ele>100.0</ele><time>2026-04-24T15:48:04Z</time></trkpt><trkpt lat="48.87002482148044" lon="2.0701630876095"><ele>99.8</ele><time>2026-04-24T15:48:06Z</time></trkpt><trkpt lat="48.86995457491097" lon="2.0701133447747124"><ele>99.6</ele><time>2026-04-24T15:48:07Z</time></trkpt><trkpt lat="48.869845249134436" lon="2.0699804887782345"><ele>99.4</ele><time>2026-04-24T15:48:09Z</time></trkpt><trkpt lat="48.8697983529714" lon="2.0699133012295086"><ele>99.2</ele><time>2026-04-24T15:48:10Z</time></trkpt><trkpt lat="48.869767299342506" lon="2.069823779933942"><ele>99.0</ele><time>2026-04-24T15:48:11Z</time></trkpt><trkpt lat="48.8697182467874" lon="2.0696870157965823"><ele>99.0</ele><time>2026-04-24T15:48:13Z</time></trkpt><trkpt lat="48.869663516643925" lon="2.0695831420036703"><ele>99.0</ele><time>2026-04-24T15:48:14Z</time></trkpt><trkpt lat="48.86963005246857" lon="2.0694753553023784"><ele>99.0</ele><time>2026-04-24T15:48:15Z</time></trkpt><trkpt lat="48.86958006113107" lon="2.069299600372484"><ele>99.0</ele><time>2026-04-24T15:48:17Z</time></trkpt><trkpt lat="48.86955388962518" lon="2.069175450022844"><ele>99.0</ele><time>2026-04-24T15:48:18Z</time></trkpt><trkpt lat="48.86952043140989" lon="2.0690894328972673"><ele>99.0</ele><time>2026-04-24T15:48:19Z</time></trkpt><trkpt lat="48.8694622263186" lon="2.0689845767494885"><ele>99.66666666666667</ele><time>2026-04-24T15:48:20Z</time></trkpt><trkpt lat="48.869394206095016" lon="2.06889024627939"><ele>100.33333333333334</ele><time>2026-04-24T15:48:21Z</time></trkpt><trkpt lat="48.86934498516554" lon="2.068775335204731"><ele>101.0</ele><time>2026-04-24T15:48:22Z</time></trkpt><trkpt lat="48.869317600405424" lon="2.068653578841504"><ele>101.66666666666667</ele><time>2026-04-24T15:48:23Z</time></trkpt><trkpt lat="48.86927905565616" lon="2.0685488944365042"><ele>102.33333333333334</ele><time>2026-04-24T15:48:24Z</time></trkpt><trkpt lat="48.86923820447721" lon="2.06845844911681"><ele>103.0</ele><time>2026-04-24T15:48:25Z</time></trkpt><trkpt lat="48.869178284263256" lon="2.0683826646566983"><ele>101.42857142857142</ele><time>2026-04-24T15:48:26Z</time></trkpt><trkpt lat="48.86917952142674" lon="2.0682631490753995"><ele>99.85714285714286</ele><time>2026-04-24T15:48:27Z</time></trkpt><trkpt lat="48.869161710448836" lon="2.0681628749928964"><ele>98.28571428571428</ele><time>2026-04-24T15:48:28Z</time></trkpt><trkpt lat="48.86914339839151" lon="2.068068935735647"><ele>96.71428571428571</ele><time>2026-04-24T15:48:29Z</time></trkpt><trkpt lat="48.86912165647096" lon="2.067965622323984"><ele>95.14285714285714</ele><time>2026-04-24T15:48:30Z</time></trkpt><trkpt lat="48.869087337122856" lon="2.067867813426153"><ele>93.57142857142857</ele><time>2026-04-24T15:48:31Z</time></trkpt><trkpt lat="48.869076551867394" lon="2.0677583664412627"><ele>92.0</ele><time>2026-04-24T15:48:32Z</time></trkpt><trkpt lat="48.86905729223112" lon="2.0676380254108357"><ele>92.0</ele><time>2026-04-24T15:48:33Z</time></trkpt><trkpt lat="48.86903355430967" lon="2.067527964871405"><ele>92.0</ele><time>2026-04-24T15:48:34Z</time></trkpt><trkpt lat="48.869012122262845" lon="2.0674244486989357"><ele>92.0</ele><time>2026-04-24T15:48:35Z</time></trkpt><trkpt lat="48.86899030867841" lon="2.067319336871563"><ele>92.0</ele><time>2026-04-24T15:48:36Z</time></trkpt><trkpt lat="48.868972891198965" lon="2.067222218861196"><ele>92.0</ele><time>2026-04-24T15:48:37Z</time></trkpt><trkpt lat="48.86894690202669" lon="2.0671188876687667"><ele>92.0</ele><time>2026-04-24T15:48:38Z</time></trkpt><trkpt lat="48.86892867065716" lon="2.067023320158993"><ele>92.0</ele><time>2026-04-24T15:48:39Z</time></trkpt><trkpt lat="48.86890607844997" lon="2.0669129595329383"><ele>92.28571428571429</ele><time>2026-04-24T15:48:40Z</time></trkpt><trkpt lat="48.8688818596854" lon="2.066813449397758"><ele>92.57142857142857</ele><time>2026-04-24T15:48:41Z</time></trkpt><trkpt lat="48.868865412516996" lon="2.0667071668678636"><ele>92.85714285714286</ele><time>2026-04-24T15:48:42Z</time></trkpt><trkpt lat="48.86885670567434" lon="2.066591835043314"><ele>93.14285714285714</ele><time>2026-04-24T15:48:43Z</time></trkpt><trkpt lat="48.868835096731765" lon="2.0665018678256755"><ele>93.42857142857142</ele><time>2026-04-24T15:48:44Z</time></trkpt><trkpt lat="48.868808173254365" lon="2.066380250498691"><ele>93.71428571428571</ele><time>2026-04-24T15:48:45Z</time></trkpt><trkpt lat="48.86879293048715" lon="2.0662681691954696"><ele>94.0</ele><time>2026-04-24T15:48:46Z</time></trkpt><trkpt lat="48.86877203383981" lon="2.0661597409154013"><ele>94.66666666666666</ele><time>2026-04-24T15:48:47Z</time></trkpt><trkpt lat="48.868728431734716" lon="2.0659940740940415"><ele>95.33333333333333</ele><time>2026-04-24T15:48:49Z</time></trkpt><trkpt lat="48.86871710318604" lon="2.0658949717209896"><ele>96.0</ele><time>2026-04-24T15:48:50Z</time></trkpt><trkpt lat="48.868705767288205" lon="2.065796246537642"><ele>96.66666666666666</ele><time>2026-04-24T15:48:51Z</time></trkpt><trkpt lat="48.86871228106904" lon="2.0656948741758896"><ele>97.33333333333333</ele><time>2026-04-24T15:48:52Z</time></trkpt><trkpt lat="48.868698727545734" lon="2.0655703337740583"><ele>98.0</ele><time>2026-04-24T15:48:53Z</time></trkpt><trkpt lat="48.868692603801044" lon="2.065466289455301"><ele>98.16666666666666</ele><time>2026-04-24T15:48:54Z</time></trkpt><trkpt lat="48.86868500647837" lon="2.0653344712092765"><ele>98.33333333333333</ele><time>2026-04-24T15:48:55Z</time></trkpt><trkpt lat="48.8686841752988" lon="2.0652153844533117"><ele>98.5</ele><time>2026-04-24T15:48:56Z</time></trkpt><trkpt lat="48.86866607589971" lon="2.0650986278514765"><ele>98.66666666666666</ele><time>2026-04-24T15:48:57Z</time></trkpt><trkpt lat="48.86865901378656" lon="2.0649871410486416"><ele>98.83333333333333</ele><time>2026-04-24T15:48:58Z</time></trkpt><trkpt lat="48.868651905480206" lon="2.0648801833663555"><ele>99.0</ele><time>2026-04-24T15:48:58.999Z</time></trkpt><trkpt lat="48.868658908568584" lon="2.064763023858338"><ele>99.33333333333333</ele><time>2026-04-24T15:48:59.999Z</time></trkpt><trkpt lat="48.868654848344924" lon="2.06466365667401"><ele>99.66666666666666</ele><time>2026-04-24T15:49:00.999Z</time></trkpt><trkpt lat="48.868635354005384" lon="2.06455443248924"><ele>100.0</ele><time>2026-04-24T15:49:01.999Z</time></trkpt><trkpt lat="48.86863705370165" lon="2.064437565977044"><ele>100.33333333333333</ele><time>2026-04-24T15:49:02.999Z</time></trkpt><trkpt lat="48.86862650138404" lon="2.0642486377852105"><ele>100.66666666666666</ele><time>2026-04-24T15:49:04.999Z</time></trkpt><trkpt lat="48.86863107527219" lon="2.064140671429584"><ele>101.0</ele><time>2026-04-24T15:49:05.999Z</time></trkpt><trkpt lat="48.86864203736675" lon="2.0640435590097304"><ele>101.16666666666666</ele><time>2026-04-24T15:49:06.999Z</time></trkpt><trkpt lat="48.868643593218295" lon="2.0639252158204986"><ele>101.33333333333333</ele><time>2026-04-24T15:49:07.999Z</time></trkpt><trkpt lat="48.868644926996645" lon="2.0638237642737614"><ele>101.5</ele><time>2026-04-24T15:49:08.999Z</time></trkpt><trkpt lat="48.86864724867087" lon="2.0636471706298845"><ele>101.66666666666666</ele><time>2026-04-24T15:49:10.999Z</time></trkpt><trkpt lat="48.86864813855508" lon="2.0635368199706696"><ele>101.83333333333333</ele><time>2026-04-24T15:49:11.999Z</time></trkpt><trkpt lat="48.86864987080626" lon="2.0633926670759886"><ele>102.0</ele><time>2026-04-24T15:49:13.999Z</time></trkpt><trkpt lat="48.86868550554777" lon="2.0632824650484967"><ele>101.83333333333333</ele><time>2026-04-24T15:50:50Z</time></trkpt><trkpt lat="48.868688457814095" lon="2.063181048502035"><ele>101.66666666666666</ele><time>2026-04-24T15:50:52Z</time></trkpt><trkpt lat="48.868708486663884" lon="2.0630776415955854"><ele>101.5</ele><time>2026-04-24T15:50:54Z</time></trkpt><trkpt lat="48.868740758562886" lon="2.0629604789657354"><ele>101.33333333333333</ele><time>2026-04-24T15:50:56Z</time></trkpt><trkpt lat="48.868766837698" lon="2.0628388944723524"><ele>101.16666666666666</ele><time>2026-04-24T15:50:58Z</time></trkpt><trkpt lat="48.86878813501402" lon="2.0627160805302296"><ele>101.0</ele><time>2026-04-24T15:51:00Z</time></trkpt><trkpt lat="48.868792259051276" lon="2.0625885559921597"><ele>100.99999999999999</ele><time>2026-04-24T15:51:04Z</time></trkpt><trkpt lat="48.86884405941846" lon="2.0624815018947698"><ele>101.0</ele><time>2026-04-24T15:51:06Z</time></trkpt><trkpt lat="48.868840928274956" lon="2.0623795161130447"><ele>101.0</ele><time>2026-04-24T15:51:08Z</time></trkpt><trkpt lat="48.86885187194016" lon="2.062273324654808"><ele>101.0</ele><time>2026-04-24T15:51:10Z</time></trkpt><trkpt lat="48.86886905958151" lon="2.0621595229075718"><ele>100.99999999999999</ele><time>2026-04-24T15:51:12Z</time></trkpt><trkpt lat="48.86886776755062" lon="2.062004973767586"><ele>101.0</ele><time>2026-04-24T15:51:14Z</time></trkpt><trkpt lat="48.868897236941464" lon="2.0618573727053726"><ele>100.8</ele><time>2026-04-24T15:51:16Z</time></trkpt><trkpt lat="48.86891126760577" lon="2.0616979734469107"><ele>100.6</ele><time>2026-04-24T15:51:18Z</time></trkpt><trkpt lat="48.86896251749731" lon="2.061560101388536"><ele>100.4</ele><time>2026-04-24T15:51:20Z</time></trkpt><trkpt lat="48.86899870492481" lon="2.0614132271244534"><ele>100.2</ele><time>2026-04-24T15:51:22Z</time></trkpt><trkpt lat="48.869026774644134" lon="2.0612460148854583"><ele>100.0</ele><time>2026-04-24T15:51:24Z</time></trkpt><trkpt lat="48.86904450480952" lon="2.061150754323638"><ele>100.4</ele><time>2026-04-24T15:51:25Z</time></trkpt><trkpt lat="48.869070221997006" lon="2.0610528886208668"><ele>100.8</ele><time>2026-04-24T15:51:26Z</time></trkpt><trkpt lat="48.86907801977505" lon="2.0609483877330166"><ele>101.19999999999999</ele><time>2026-04-24T15:51:26.999Z</time></trkpt><trkpt lat="48.86913980902838" lon="2.060782779706881"><ele>101.6</ele><time>2026-04-24T15:51:28.999Z</time></trkpt><trkpt lat="48.86918470746775" lon="2.06062250075071"><ele>102.0</ele><time>2026-04-24T15:51:30.999Z</time></trkpt><trkpt lat="48.86922071776764" lon="2.0604726320773326"><ele>103.0</ele><time>2026-04-24T15:51:32.999Z</time></trkpt><trkpt lat="48.86928154271364" lon="2.0603277094356804"><ele>104.0</ele><time>2026-04-24T15:51:34.999Z</time></trkpt><trkpt lat="48.86932770875727" lon="2.060178137690897"><ele>105.0</ele><time>2026-04-24T15:51:36.999Z</time></trkpt><trkpt lat="48.86937311255249" lon="2.060021197881668"><ele>106.0</ele><time>2026-04-24T15:51:38.999Z</time></trkpt><trkpt lat="48.86942438965045" lon="2.059839344896001"><ele>106.0</ele><time>2026-04-24T15:51:40.999Z</time></trkpt><trkpt lat="48.8694669196191" lon="2.059697483046906"><ele>106.0</ele><time>2026-04-24T15:51:42.999Z</time></trkpt><trkpt lat="48.86952323432511" lon="2.059555883519397"><ele>106.0</ele><time>2026-04-24T15:51:44.999Z</time></trkpt><trkpt lat="48.86957427094255" lon="2.059363723745407"><ele>106.0</ele><time>2026-04-24T15:51:46.999Z</time></trkpt><trkpt lat="48.8696056299427" lon="2.059232463784868"><ele>106.0</ele><time>2026-04-24T15:51:48.999Z</time></trkpt><trkpt lat="48.869626999417775" lon="2.0591358879333805"><ele>106.19999999999999</ele><time>2026-04-24T15:51:49.999Z</time></trkpt><trkpt lat="48.869664424316646" lon="2.058951342920874"><ele>106.39999999999999</ele><time>2026-04-24T15:51:51.999Z</time></trkpt><trkpt lat="48.869700508206506" lon="2.058756732515249"><ele>106.6</ele><time>2026-04-24T15:51:53.999Z</time></trkpt><trkpt lat="48.869701979498004" lon="2.0586537279103636"><ele>106.8</ele><time>2026-04-24T15:51:54.999Z</time></trkpt><trkpt lat="48.86973516799153" lon="2.0584974898524813"><ele>107.0</ele><time>2026-04-24T15:51:56.999Z</time></trkpt><trkpt lat="48.86973909168362" lon="2.0583860855586478"><ele>107.33333333333333</ele><time>2026-04-24T15:51:57.999Z</time></trkpt><trkpt lat="48.8697490048956" lon="2.0582719001540855"><ele>107.66666666666666</ele><time>2026-04-24T15:51:58.999Z</time></trkpt><trkpt lat="48.86974556205684" lon="2.0581727060956396"><ele>108.0</ele><time>2026-04-24T15:51:59.999Z</time></trkpt><trkpt lat="48.86976130713865" lon="2.0580748053144062"><ele>108.33333333333334</ele><time>2026-04-24T15:52:00.999Z</time></trkpt><trkpt lat="48.86975817166628" lon="2.0579659810387763"><ele>108.66666666666667</ele><time>2026-04-24T15:52:01.999Z</time></trkpt><trkpt lat="48.86975938383743" lon="2.0578007127793345"><ele>109.0</ele><time>2026-04-24T15:52:03.999Z</time></trkpt><trkpt lat="48.8697345573612" lon="2.0577118601568665"><ele>109.0</ele><time>2026-04-24T15:52:04.999Z</time></trkpt><trkpt lat="48.86969857536125" lon="2.057527442034374"><ele>109.0</ele><time>2026-04-24T15:52:06.999Z</time></trkpt><trkpt lat="48.869703983517944" lon="2.057428678586991"><ele>109.0</ele><time>2026-04-24T15:52:07.999Z</time></trkpt><trkpt lat="48.869693561306" lon="2.057291453275437"><ele>109.0</ele><time>2026-04-24T15:52:09.999Z</time></trkpt><trkpt lat="48.86968463088666" lon="2.0571423963970608"><ele>109.0</ele><time>2026-04-24T15:52:10.999Z</time></trkpt><trkpt lat="48.869668230961516" lon="2.0569814309937846"><ele>109.6</ele><time>2026-04-24T15:52:12.999Z</time></trkpt><trkpt lat="48.86962223962343" lon="2.056803859684013"><ele>110.2</ele><time>2026-04-24T15:52:14.999Z</time></trkpt><trkpt lat="48.869647681506834" lon="2.056650515731344"><ele>110.79999999999998</ele><time>2026-04-24T15:52:16.999Z</time></trkpt><trkpt lat="48.8696125087402" lon="2.0565024392802886"><ele>111.39999999999999</ele><time>2026-04-24T15:52:18.999Z</time></trkpt><trkpt lat="48.86957173524917" lon="2.056375743108755"><ele>112.0</ele><time>2026-04-24T15:52:20.999Z</time></trkpt><trkpt lat="48.86957325496478" lon="2.056275533125052"><ele>112.75</ele><time>2026-04-24T15:52:21.999Z</time></trkpt><trkpt lat="48.86955513133588" lon="2.056108408711649"><ele>113.5</ele><time>2026-04-24T15:52:23.999Z</time></trkpt><trkpt lat="48.8695272583328" lon="2.0558513819046698"><ele>114.25</ele><time>2026-04-24T15:52:30.999Z</time></trkpt><trkpt lat="48.869506788150055" lon="2.0556620332953806"><ele>115.0</ele><time>2026-04-24T15:52:32.999Z</time></trkpt><trkpt lat="48.86949450684807" lon="2.055545245033821"><ele>114.99999999999999</ele><time>2026-04-24T15:52:33.999Z</time></trkpt><trkpt lat="48.8694818632131" lon="2.0554250112454624"><ele>115.0</ele><time>2026-04-24T15:52:34.999Z</time></trkpt><trkpt lat="48.86947083925758" lon="2.0553188352143574"><ele>114.99999999999999</ele><time>2026-04-24T15:52:35.999Z</time></trkpt><trkpt lat="48.86946103039095" lon="2.0552111607603347"><ele>114.99999999999999</ele><time>2026-04-24T15:52:36.999Z</time></trkpt><trkpt lat="48.86945389714147" lon="2.055092183139819"><ele>115.0</ele><time>2026-04-24T15:52:37.999Z</time></trkpt><trkpt lat="48.8694461563332" lon="2.054980385963497"><ele>114.99999999999999</ele><time>2026-04-24T15:52:38.999Z</time></trkpt><trkpt lat="48.869439516026056" lon="2.0548822946053407"><ele>114.99999999999999</ele><time>2026-04-24T15:52:40Z</time></trkpt><trkpt lat="48.86942337851288" lon="2.0547636477458284"><ele>115.50000000000001</ele><time>2026-04-24T15:52:42Z</time></trkpt><trkpt lat="48.86941030391161" lon="2.0546470302515263"><ele>116.0</ele><time>2026-04-24T15:52:43Z</time></trkpt><trkpt lat="48.86939765880089" lon="2.0545342434870415"><ele>116.5</ele><time>2026-04-24T15:52:44Z</time></trkpt><trkpt lat="48.869366072431994" lon="2.0543745401083355"><ele>117.0</ele><time>2026-04-24T15:52:46Z</time></trkpt><trkpt lat="48.869358086352285" lon="2.054261592523778"><ele>117.50000000000001</ele><time>2026-04-24T15:52:47Z</time></trkpt><trkpt lat="48.869340872606074" lon="2.054164448501291"><ele>118.0</ele><time>2026-04-24T15:52:48Z</time></trkpt><trkpt lat="48.86931647415285" lon="2.053987247728548"><ele>118.2</ele><time>2026-04-24T15:52:50Z</time></trkpt><trkpt lat="48.869294170873715" lon="2.05383591916637"><ele>118.4</ele><time>2026-04-24T15:52:52Z</time></trkpt><trkpt lat="48.86925944283997" lon="2.0536773495189173"><ele>118.60000000000001</ele><time>2026-04-24T15:52:54Z</time></trkpt><trkpt lat="48.86923732656267" lon="2.0535481832300877"><ele>118.80000000000001</ele><time>2026-04-24T15:52:56Z</time></trkpt><trkpt lat="48.86924213075684" lon="2.05341595839014"><ele>119.0</ele><time>2026-04-24T15:52:58Z</time></trkpt><trkpt lat="48.869242210129805" lon="2.0532769653869583"><ele>119.33333333333333</ele><time>2026-04-24T15:53:00Z</time></trkpt><trkpt lat="48.86921861227293" lon="2.053179990960434"><ele>119.66666666666666</ele><time>2026-04-24T15:53:01Z</time></trkpt><trkpt lat="48.86919761500978" lon="2.0530869911027554"><ele>120.0</ele><time>2026-04-24T15:53:02Z</time></trkpt><trkpt lat="48.86914462010218" lon="2.052967377393032"><ele>120.33333333333334</ele><time>2026-04-24T15:53:04Z</time></trkpt><trkpt lat="48.86909864341613" lon="2.052797307561126"><ele>120.66666666666667</ele><time>2026-04-24T15:53:05Z</time></trkpt><trkpt lat="48.86904467224033" lon="2.0527450135319514"><ele>121.0</ele><time>2026-04-24T15:53:07Z</time></trkpt><trkpt lat="48.86895645047384" lon="2.052631829468509"><ele>121.0</ele><time>2026-04-24T15:53:09Z</time></trkpt><trkpt lat="48.86889023309403" lon="2.0525382379758508"><ele>121.0</ele><time>2026-04-24T15:53:11Z</time></trkpt><trkpt lat="48.868796249905074" lon="2.052456767384228"><ele>121.0</ele><time>2026-04-24T15:53:13Z</time></trkpt><trkpt lat="48.868713844241356" lon="2.0525202865366343"><ele>121.0</ele><time>2026-04-24T15:53:14Z</time></trkpt><trkpt lat="48.868658510166206" lon="2.0526595858509715"><ele>121.0</ele><time>2026-04-24T15:53:15Z</time></trkpt><trkpt lat="48.868585976389916" lon="2.052663890337192"><ele>121.00000000000001</ele><time>2026-04-24T15:53:16Z</time></trkpt><trkpt lat="48.8685270452081" lon="2.052698521731266"><ele>121.0</ele><time>2026-04-24T15:53:17Z</time></trkpt><trkpt lat="48.86842448467213" lon="2.0527237153669566"><ele>121.0</ele><time>2026-04-24T15:53:19Z</time></trkpt><trkpt lat="48.86836739283347" lon="2.0526736260411638"><ele>121.0</ele><time>2026-04-24T15:53:23Z</time></trkpt><trkpt lat="48.86828905652953" lon="2.052691917644235"><ele>121.00000000000001</ele><time>2026-04-24T15:53:28Z</time></trkpt><trkpt lat="48.86820109585917" lon="2.052686855447382"><ele>121.0</ele><time>2026-04-24T15:53:31Z</time></trkpt><trkpt lat="48.8681410179076" lon="2.052630380215068"><ele>122.25</ele><time>2026-04-24T15:53:33Z</time></trkpt><trkpt lat="48.86803407024662" lon="2.0525756842033465"><ele>123.5</ele><time>2026-04-24T15:53:35Z</time></trkpt><trkpt lat="48.86810364436374" lon="2.0523084169768415"><ele>124.75</ele><time>2026-04-24T15:53:37Z</time></trkpt><trkpt lat="48.868087692697124" lon="2.0522020106173264"><ele>126.0</ele><time>2026-04-24T15:53:40Z</time></trkpt><trkpt lat="48.868021738880664" lon="2.052088542833184"><ele>126.0</ele><time>2026-04-24T15:53:43.999Z</time></trkpt><trkpt lat="48.86795784105468" lon="2.0520051695287562"><ele>126.0</ele><time>2026-04-24T15:53:46.999Z</time></trkpt><trkpt lat="48.8679085899891" lon="2.0519357671165874"><ele>126.0</ele><time>2026-04-24T15:53:48.999Z</time></trkpt><trkpt lat="48.86789917974095" lon="2.051814001802957"><ele>126.0</ele><time>2026-04-24T15:53:50.999Z</time></trkpt><trkpt lat="48.867886392938125" lon="2.0516491532864807"><ele>126.0</ele><time>2026-04-24T15:53:52.999Z</time></trkpt><trkpt lat="48.86786884356564" lon="2.0515471635774922"><ele>126.0</ele><time>2026-04-24T15:53:53.999Z</time></trkpt><trkpt lat="48.8678384476394" lon="2.051438565312852"><ele>127.0</ele><time>2026-04-24T15:53:54.999Z</time></trkpt><trkpt lat="48.86773272702709" lon="2.0513403949009734"><ele>128.0</ele><time>2026-04-24T15:53:56.999Z</time></trkpt><trkpt lat="48.86766644738049" lon="2.0512966100931513"><ele>129.0</ele><time>2026-04-24T15:53:57.999Z</time></trkpt><trkpt lat="48.86760135666183" lon="2.051275750473757"><ele>130.0</ele><time>2026-04-24T15:53:58.999Z</time></trkpt><trkpt lat="48.86749914836098" lon="2.0511845496969374"><ele>131.0</ele><time>2026-04-24T15:54:00.999Z</time></trkpt><trkpt lat="48.8674114869721" lon="2.051134622102372"><ele>131.6</ele><time>2026-04-24T15:54:01.999Z</time></trkpt><trkpt lat="48.867368194686016" lon="2.050889803113667"><ele>132.2</ele><time>2026-04-24T15:54:02.999Z</time></trkpt><trkpt lat="48.86729178133832" lon="2.0508872330931935"><ele>132.8</ele><time>2026-04-24T15:54:07.999Z</time></trkpt><trkpt lat="48.86720326908328" lon="2.0508890629783934"><ele>133.4</ele><time>2026-04-24T15:54:11.999Z</time></trkpt><trkpt lat="48.86709791051846" lon="2.050893490018815"><ele>134.0</ele><time>2026-04-24T15:54:13.999Z</time></trkpt><trkpt lat="48.86698578273025" lon="2.0509007689882166"><ele>134.0</ele><time>2026-04-24T15:54:15.999Z</time></trkpt><trkpt lat="48.866879633037826" lon="2.05092330875958"><ele>134.0</ele><time>2026-04-24T15:54:17.999Z</time></trkpt><trkpt lat="48.86681747595808" lon="2.050945630436256"><ele>134.0</ele><time>2026-04-24T15:54:19.999Z</time></trkpt><trkpt lat="48.86674904363244" lon="2.0509377929700787"><ele>134.0</ele><time>2026-04-24T15:54:21.999Z</time></trkpt><trkpt lat="48.86674120575692" lon="2.0507560922709245"><ele>134.0</ele><time>2026-04-24T15:54:23.999Z</time></trkpt><trkpt lat="48.86675058801823" lon="2.050639598171901"><ele>134.0</ele><time>2026-04-24T15:54:25.999Z</time></trkpt><trkpt lat="48.8666944070015" lon="2.0505443122350644"><ele>135.4</ele><time>2026-04-24T15:54:31.999Z</time></trkpt><trkpt lat="48.866724509656414" lon="2.050390439422947"><ele>136.8</ele><time>2026-04-24T15:54:34.999Z</time></trkpt><trkpt lat="48.86676631876467" lon="2.0502415742147417"><ele>138.2</ele><time>2026-04-24T15:54:36.999Z</time></trkpt><trkpt lat="48.86679606862661" lon="2.0501461755023205"><ele>139.6</ele><time>2026-04-24T15:54:37.999Z</time></trkpt><trkpt lat="48.86686678828127" lon="2.049997519433078"><ele>141.0</ele><time>2026-04-24T15:54:39.999Z</time></trkpt><trkpt lat="48.86689753139898" lon="2.049851926676432"><ele>141.2</ele><time>2026-04-24T15:54:41.999Z</time></trkpt><trkpt lat="48.86688099337854" lon="2.0496646859303045"><ele>141.39999999999998</ele><time>2026-04-24T15:54:43.999Z</time></trkpt><trkpt lat="48.86683662245467" lon="2.049526046494492"><ele>141.6</ele><time>2026-04-24T15:54:44.999Z</time></trkpt><trkpt lat="48.86680741972174" lon="2.0494190394276184"><ele>141.79999999999998</ele><time>2026-04-24T15:54:46Z</time></trkpt><trkpt lat="48.86679056101951" lon="2.0493113195614385"><ele>142.0</ele><time>2026-04-24T15:54:47Z</time></trkpt><trkpt lat="48.86674520126724" lon="2.049147941441677"><ele>143.79999999999998</ele><time>2026-04-24T15:54:49Z</time></trkpt><trkpt lat="48.86672144751543" lon="2.0490057872088747"><ele>145.6</ele><time>2026-04-24T15:54:51Z</time></trkpt><trkpt lat="48.8666621041068" lon="2.0488579250621908"><ele>147.39999999999998</ele><time>2026-04-24T15:54:53Z</time></trkpt><trkpt lat="48.86662805771152" lon="2.0487052670729025"><ele>149.2</ele><time>2026-04-24T15:54:55Z</time></trkpt><trkpt lat="48.8665862001353" lon="2.0485444743788324"><ele>151.0</ele><time>2026-04-24T15:54:57Z</time></trkpt><trkpt lat="48.86654801984958" lon="2.0483969321745406"><ele>151.66666666666669</ele><time>2026-04-24T15:54:59Z</time></trkpt><trkpt lat="48.866519134135764" lon="2.0482847095452272"><ele>152.33333333333334</ele><time>2026-04-24T15:55:03Z</time></trkpt><trkpt lat="48.86649015445104" lon="2.0481721217789564"><ele>153.0</ele><time>2026-04-24T15:55:05Z</time></trkpt><trkpt lat="48.86646554677694" lon="2.048076519609638"><ele>153.66666666666666</ele><time>2026-04-24T15:55:07Z</time></trkpt><trkpt lat="48.866433551352735" lon="2.047952291916238"><ele>154.33333333333331</ele><time>2026-04-24T15:55:10Z</time></trkpt><trkpt lat="48.86639592621839" lon="2.0478068274081567"><ele>155.0</ele><time>2026-04-24T15:55:13Z</time></trkpt><trkpt lat="48.86630003219019" lon="2.04777279439055"><ele>155.0</ele><time>2026-04-24T15:55:15Z</time></trkpt><trkpt lat="48.86628684534813" lon="2.0476415351246775"><ele>155.0</ele><time>2026-04-24T15:55:17Z</time></trkpt><trkpt lat="48.86624283297971" lon="2.047556889867395"><ele>155.0</ele><time>2026-04-24T15:55:19Z</time></trkpt><trkpt lat="48.86618180228027" lon="2.0475075100685003"><ele>155.0</ele><time>2026-04-24T15:55:21Z</time></trkpt><trkpt lat="48.866173551897" lon="2.0474126322875668"><ele>155.0</ele><time>2026-04-24T15:55:23Z</time></trkpt><trkpt lat="48.866185387175456" lon="2.0472741100448775"><ele>155.0</ele><time>2026-04-24T15:55:25Z</time></trkpt><trkpt lat="48.86614853644814" lon="2.0471457035830873"><ele>155.83333333333331</ele><time>2026-04-24T15:55:28Z</time></trkpt><trkpt lat="48.866147479167424" lon="2.0470259958641073"><ele>156.66666666666666</ele><time>2026-04-24T15:55:31Z</time></trkpt><trkpt lat="48.86612306586077" lon="2.046902992520153"><ele>157.5</ele><time>2026-04-24T15:55:34Z</time></trkpt><trkpt lat="48.86610457721291" lon="2.0467968466848436"><ele>158.33333333333334</ele><time>2026-04-24T15:55:36Z</time></trkpt><trkpt lat="48.866058284743325" lon="2.0466956125790117"><ele>159.16666666666669</ele><time>2026-04-24T15:55:39Z</time></trkpt><trkpt lat="48.86599799317031" lon="2.046641939080824"><ele>160.0</ele><time>2026-04-24T15:55:41Z</time></trkpt><trkpt lat="48.8659581502688" lon="2.046506867999332"><ele>161.0</ele><time>2026-04-24T15:55:44Z</time></trkpt><trkpt lat="48.86588202468167" lon="2.0464340893569295"><ele>162.0</ele><time>2026-04-24T15:55:45.999Z</time></trkpt><trkpt lat="48.86588608572883" lon="2.0462827792868725"><ele>163.0</ele><time>2026-04-24T15:55:48.999Z</time></trkpt><trkpt lat="48.86591361343987" lon="2.046144747707524"><ele>164.0</ele><time>2026-04-24T15:55:50.999Z</time></trkpt><trkpt lat="48.86595663387171" lon="2.045938804514514"><ele>165.0</ele><time>2026-04-24T15:55:52.999Z</time></trkpt><trkpt lat="48.86592158828183" lon="2.0458175496345996"><ele>166.33333333333334</ele><time>2026-04-24T15:55:54.999Z</time></trkpt><trkpt lat="48.8658761934052" lon="2.0457059373591493"><ele>167.66666666666666</ele><time>2026-04-24T15:55:56.999Z</time></trkpt><trkpt lat="48.86582309439331" lon="2.0456282403815975"><ele>169.0</ele><time>2026-04-24T15:55:57.999Z</time></trkpt><trkpt lat="48.86578911888224" lon="2.0455295620110396"><ele>170.33333333333331</ele><time>2026-04-24T15:55:59.999Z</time></trkpt><trkpt lat="48.86573972374273" lon="2.045420286819329"><ele>171.66666666666666</ele><time>2026-04-24T15:56:01.999Z</time></trkpt><trkpt lat="48.86572866079773" lon="2.0452614831400577"><ele>173.0</ele><time>2026-04-24T15:56:04.999Z</time></trkpt><trkpt lat="48.86572520281" lon="2.0451046292458863"><ele>173.0</ele><time>2026-04-24T15:56:05.999Z</time></trkpt><trkpt lat="48.86574341637243" lon="2.0449785322079004"><ele>173.0</ele><time>2026-04-24T15:56:07.999Z</time></trkpt><trkpt lat="48.8657182305018" lon="2.044849997621198"><ele>173.0</ele><time>2026-04-24T15:56:09.999Z</time></trkpt><trkpt lat="48.86567419784337" lon="2.0447311926663034"><ele>173.0</ele><time>2026-04-24T15:56:12.999Z</time></trkpt><trkpt lat="48.865607752200845" lon="2.0446656663030804"><ele>173.0</ele><time>2026-04-24T15:56:13.999Z</time></trkpt><trkpt lat="48.86547362574045" lon="2.0445694714351066"><ele>173.2</ele><time>2026-04-24T15:56:15.999Z</time></trkpt><trkpt lat="48.86546998850515" lon="2.04443461136804"><ele>173.4</ele><time>2026-04-24T15:56:17.999Z</time></trkpt><trkpt lat="48.865473484664534" lon="2.0442795631155466"><ele>173.6</ele><time>2026-04-24T15:56:19.999Z</time></trkpt><trkpt lat="48.865396227824505" lon="2.044136125462716"><ele>173.79999999999998</ele><time>2026-04-24T15:56:22.999Z</time></trkpt><trkpt lat="48.8653472633845" lon="2.0440717752939075"><ele>174.0</ele><time>2026-04-24T15:56:24.999Z</time></trkpt><trkpt lat="48.865241253005316" lon="2.043985741897793"><ele>175.0</ele><time>2026-04-24T15:56:26.999Z</time></trkpt><trkpt lat="48.8652358369047" lon="2.043767040401751"><ele>176.0</ele><time>2026-04-24T15:56:28.999Z</time></trkpt><trkpt lat="48.86530101275395" lon="2.0435373008339743"><ele>177.0</ele><time>2026-04-24T15:56:29.999Z</time></trkpt><trkpt lat="48.865316362680545" lon="2.0433280581004625"><ele>178.0</ele><time>2026-04-24T15:56:30.999Z</time></trkpt><trkpt lat="48.86533592329719" lon="2.043223138210553"><ele>179.2</ele><time>2026-04-24T15:56:31.999Z</time></trkpt><trkpt lat="48.86532752216993" lon="2.0430482761736437"><ele>180.4</ele><time>2026-04-24T15:56:33.999Z</time></trkpt><trkpt lat="48.86528137383508" lon="2.0428185202028617"><ele>181.6</ele><time>2026-04-24T15:56:36.999Z</time></trkpt><trkpt lat="48.865278945123016" lon="2.042699645337691"><ele>182.79999999999998</ele><time>2026-04-24T15:56:38.999Z</time></trkpt><trkpt lat="48.86526726264703" lon="2.042573985166069"><ele>184.0</ele><time>2026-04-24T15:56:40.999Z</time></trkpt><trkpt lat="48.865269515269695" lon="2.0424165834269155"><ele>184.0</ele><time>2026-04-24T15:56:42.999Z</time></trkpt><trkpt lat="48.865285081803194" lon="2.042313876577924"><ele>184.0</ele><time>2026-04-24T15:56:44.999Z</time></trkpt><trkpt lat="48.8652703201359" lon="2.0422014337791774"><ele>184.0</ele><time>2026-04-24T15:56:46.999Z</time></trkpt><trkpt lat="48.86531126615273" lon="2.042092726533738"><ele>184.0</ele><time>2026-04-24T15:56:48.999Z</time></trkpt><trkpt lat="48.865311727295506" lon="2.04195395824601"><ele>184.0</ele><time>2026-04-24T15:56:50.999Z</time></trkpt><trkpt lat="48.865365624523555" lon="2.0418206917062234"><ele>184.0</ele><time>2026-04-24T15:56:54Z</time></trkpt><trkpt lat="48.8653710864649" lon="2.0416945302624465"><ele>184.16666666666669</ele><time>2026-04-24T15:56:56Z</time></trkpt><trkpt lat="48.86537892812335" lon="2.041555724921944"><ele>184.33333333333334</ele><time>2026-04-24T15:56:58Z</time></trkpt><trkpt lat="48.86541160879698" lon="2.0414319990208565"><ele>184.5</ele><time>2026-04-24T15:57:00Z</time></trkpt><trkpt lat="48.8654253137644" lon="2.04132228744586"><ele>184.66666666666666</ele><time>2026-04-24T15:57:01Z</time></trkpt><trkpt lat="48.86544520003555" lon="2.0412018351488648"><ele>184.83333333333331</ele><time>2026-04-24T15:57:03Z</time></trkpt><trkpt lat="48.86544238084298" lon="2.0410726743735923"><ele>185.0</ele><time>2026-04-24T15:57:05Z</time></trkpt><trkpt lat="48.86547669376809" lon="2.0409368398431487"><ele>185.0</ele><time>2026-04-24T15:57:07Z</time></trkpt><trkpt lat="48.86550848654464" lon="2.0408191930209463"><ele>185.0</ele><time>2026-04-24T15:57:09Z</time></trkpt><trkpt lat="48.86550283779357" lon="2.0406669054057853"><ele>185.0</ele><time>2026-04-24T15:57:11Z</time></trkpt><trkpt lat="48.865510197807446" lon="2.040554049224325"><ele>185.0</ele><time>2026-04-24T15:57:12Z</time></trkpt><trkpt lat="48.86554114553838" lon="2.0404547739774332"><ele>185.0</ele><time>2026-04-24T15:57:13Z</time></trkpt><trkpt lat="48.86557034748923" lon="2.0403503204699995"><ele>185.0</ele><time>2026-04-24T15:57:14Z</time></trkpt><trkpt lat="48.86568180368288" lon="2.0403599743666896"><ele>185.2</ele><time>2026-04-24T15:57:15Z</time></trkpt><trkpt lat="48.86576662578598" lon="2.0401931591644766"><ele>185.4</ele><time>2026-04-24T15:57:17Z</time></trkpt><trkpt lat="48.865825690783836" lon="2.0401086598719687"><ele>185.60000000000002</ele><time>2026-04-24T15:57:18Z</time></trkpt><trkpt lat="48.86587143680602" lon="2.0400254150093784"><ele>185.8</ele><time>2026-04-24T15:57:19Z</time></trkpt><trkpt lat="48.86594033734136" lon="2.0399306304482487"><ele>186.0</ele><time>2026-04-24T15:57:20Z</time></trkpt><trkpt lat="48.865990341592415" lon="2.03982223383063"><ele>186.0</ele><time>2026-04-24T15:57:21Z</time></trkpt><trkpt lat="48.86602281369344" lon="2.039726487748133"><ele>186.0</ele><time>2026-04-24T15:57:22Z</time></trkpt><trkpt lat="48.866067364270954" lon="2.0396345095464543"><ele>186.0</ele><time>2026-04-24T15:57:23Z</time></trkpt><trkpt lat="48.86611692730694" lon="2.0395622370193736"><ele>186.0</ele><time>2026-04-24T15:57:24Z</time></trkpt><trkpt lat="48.866172154755624" lon="2.039461268319459"><ele>186.0</ele><time>2026-04-24T15:57:25Z</time></trkpt><trkpt lat="48.86622621234303" lon="2.039362438439639"><ele>186.0</ele><time>2026-04-24T15:57:26Z</time></trkpt><trkpt lat="48.86628034746714" lon="2.0392621638088824"><ele>186.0</ele><time>2026-04-24T15:57:27Z</time></trkpt><trkpt lat="48.86634044082693" lon="2.0391504435371206"><ele>186.0</ele><time>2026-04-24T15:57:28Z</time></trkpt><trkpt lat="48.86639366925281" lon="2.0390506340650347"><ele>186.0</ele><time>2026-04-24T15:57:29Z</time></trkpt><trkpt lat="48.866432401351396" lon="2.038939604020213"><ele>186.0</ele><time>2026-04-24T15:57:30Z</time></trkpt><trkpt lat="48.86648884735117" lon="2.038833268537316"><ele>186.0</ele><time>2026-04-24T15:57:31Z</time></trkpt><trkpt lat="48.866550901473474" lon="2.0387529272590132"><ele>186.0</ele><time>2026-04-24T15:57:32Z</time></trkpt><trkpt lat="48.866598557675694" lon="2.03866269395701"><ele>185.83333333333334</ele><time>2026-04-24T15:57:33Z</time></trkpt><trkpt lat="48.866650101542554" lon="2.038565099709192"><ele>185.66666666666666</ele><time>2026-04-24T15:57:34Z</time></trkpt><trkpt lat="48.866703799054406" lon="2.0384634277414326"><ele>185.5</ele><time>2026-04-24T15:57:35Z</time></trkpt><trkpt lat="48.866749818056974" lon="2.0383762944456643"><ele>185.33333333333331</ele><time>2026-04-24T15:57:36Z</time></trkpt><trkpt lat="48.866796447615485" lon="2.038288005023218"><ele>185.16666666666666</ele><time>2026-04-24T15:57:37Z</time></trkpt><trkpt lat="48.86683950999562" lon="2.038206469803582"><ele>185.0</ele><time>2026-04-24T15:57:38Z</time></trkpt><trkpt lat="48.8668715055638" lon="2.038108371890163"><ele>185.0</ele><time>2026-04-24T15:57:39Z</time></trkpt><trkpt lat="48.86692132928702" lon="2.0380116582042205"><ele>185.0</ele><time>2026-04-24T15:57:40Z</time></trkpt><trkpt lat="48.86698576974644" lon="2.03792997873085"><ele>185.0</ele><time>2026-04-24T15:57:41Z</time></trkpt><trkpt lat="48.8670308253743" lon="2.037844903123119"><ele>185.0</ele><time>2026-04-24T15:57:42Z</time></trkpt><trkpt lat="48.867111763510124" lon="2.0376920728655747"><ele>185.0</ele><time>2026-04-24T15:57:44Z</time></trkpt><trkpt lat="48.86715646194717" lon="2.037607657418483"><ele>185.0</ele><time>2026-04-24T15:57:45Z</time></trkpt><trkpt lat="48.86719797334586" lon="2.037528205487803"><ele>184.33333333333331</ele><time>2026-04-24T15:57:46Z</time></trkpt><trkpt lat="48.86725464315041" lon="2.037419740711883"><ele>183.66666666666666</ele><time>2026-04-24T15:57:48Z</time></trkpt><trkpt lat="48.86729845650982" lon="2.037331367132648"><ele>183.0</ele><time>2026-04-24T15:57:50Z</time></trkpt><trkpt lat="48.86734585556562" lon="2.0372353372732754"><ele>182.33333333333334</ele><time>2026-04-24T15:57:53Z</time></trkpt><trkpt lat="48.86739340308177" lon="2.0371384036803915"><ele>181.66666666666669</ele><time>2026-04-24T15:57:55.999Z</time></trkpt><trkpt lat="48.867439136814006" lon="2.0370523434989822"><ele>181.0</ele><time>2026-04-24T15:57:58.999Z</time></trkpt><trkpt lat="48.86748476284247" lon="2.0369713998374053"><ele>181.0</ele><time>2026-04-24T15:58:00.999Z</time></trkpt><trkpt lat="48.86754380119577" lon="2.0368685718415303"><ele>181.0</ele><time>2026-04-24T15:58:02.999Z</time></trkpt><trkpt lat="48.86758636996763" lon="2.0367607386872346"><ele>181.0</ele><time>2026-04-24T15:58:06.999Z</time></trkpt><trkpt lat="48.86761110120949" lon="2.0366723005266336"><ele>181.0</ele><time>2026-04-24T15:58:12.999Z</time></trkpt><trkpt lat="48.867661070205486" lon="2.0365845875837154"><ele>181.0</ele><time>2026-04-24T15:58:17.999Z</time></trkpt><trkpt lat="48.867749702379804" lon="2.036517764355438"><ele>181.0</ele><time>2026-04-24T15:58:19.999Z</time></trkpt><trkpt lat="48.86784229216148" lon="2.0364252394806175"><ele>182.16666666666669</ele><time>2026-04-24T15:58:21.999Z</time></trkpt><trkpt lat="48.867919730698816" lon="2.0363285297030806"><ele>183.33333333333334</ele><time>2026-04-24T15:58:23.999Z</time></trkpt><trkpt lat="48.86788324719144" lon="2.036221141205487"><ele>184.5</ele><time>2026-04-24T15:58:24.999Z</time></trkpt><trkpt lat="48.86781222303315" lon="2.0361351636304517"><ele>185.66666666666666</ele><time>2026-04-24T15:58:25.999Z</time></trkpt><trkpt lat="48.86774445306997" lon="2.036082786378705"><ele>186.83333333333331</ele><time>2026-04-24T15:58:26.999Z</time></trkpt><trkpt lat="48.867677651487305" lon="2.03605832714271"><ele>188.0</ele><time>2026-04-24T15:58:27.999Z</time></trkpt><trkpt lat="48.867621424927705" lon="2.0359845604184503"><ele>187.66666666666666</ele><time>2026-04-24T15:58:28.999Z</time></trkpt><trkpt lat="48.86757001957076" lon="2.035892962759235"><ele>187.33333333333331</ele><time>2026-04-24T15:58:29.999Z</time></trkpt><trkpt lat="48.867527343977024" lon="2.0357964819924503"><ele>187.0</ele><time>2026-04-24T15:58:30.999Z</time></trkpt><trkpt lat="48.867477552070746" lon="2.0357087228209885"><ele>186.66666666666666</ele><time>2026-04-24T15:58:31.999Z</time></trkpt><trkpt lat="48.86742745125491" lon="2.0356200756485263"><ele>186.33333333333334</ele><time>2026-04-24T15:58:32.999Z</time></trkpt><trkpt lat="48.867378227685585" lon="2.035523996563772"><ele>186.0</ele><time>2026-04-24T15:58:33.999Z</time></trkpt><trkpt lat="48.86731425553724" lon="2.0354256011524274"><ele>186.0</ele><time>2026-04-24T15:58:34.999Z</time></trkpt><trkpt lat="48.867235450791604" lon="2.03533912319159"><ele>186.0</ele><time>2026-04-24T15:58:35.999Z</time></trkpt><trkpt lat="48.86716496154468" lon="2.0352360531249687"><ele>186.0</ele><time>2026-04-24T15:58:36.999Z</time></trkpt><trkpt lat="48.867121929056495" lon="2.035097142340299"><ele>186.0</ele><time>2026-04-24T15:58:37.999Z</time></trkpt><trkpt lat="48.86705456507798" lon="2.03497737138839"><ele>186.0</ele><time>2026-04-24T15:58:38.999Z</time></trkpt><trkpt lat="48.86697803069586" lon="2.0348518113915133"><ele>186.0</ele><time>2026-04-24T15:58:39.999Z</time></trkpt><trkpt lat="48.86690145319829" lon="2.0347292347473322"><ele>186.0</ele><time>2026-04-24T15:58:40.999Z</time></trkpt><trkpt lat="48.86682826106902" lon="2.0346141740845956"><ele>186.0</ele><time>2026-04-24T15:58:41.999Z</time></trkpt><trkpt lat="48.86676381519704" lon="2.034492987955683"><ele>186.0</ele><time>2026-04-24T15:58:42.999Z</time></trkpt><trkpt lat="48.86669602063995" lon="2.0343741647414766"><ele>186.0</ele><time>2026-04-24T15:58:43.999Z</time></trkpt><trkpt lat="48.86662877073296" lon="2.034259935287915"><ele>184.60000000000002</ele><time>2026-04-24T15:58:44.999Z</time></trkpt><trkpt lat="48.86656492044857" lon="2.0341545693654663"><ele>183.2</ele><time>2026-04-24T15:58:45.999Z</time></trkpt><trkpt lat="48.86649169697627" lon="2.0340427927843288"><ele>181.8</ele><time>2026-04-24T15:58:46.999Z</time></trkpt><trkpt lat="48.86643678746564" lon="2.0339084460749746"><ele>180.39999999999998</ele><time>2026-04-24T15:58:47.999Z</time></trkpt><trkpt lat="48.86634197984195" lon="2.0337973717664264"><ele>179.0</ele><time>2026-04-24T15:58:48.999Z</time></trkpt><trkpt lat="48.866262578326925" lon="2.033695342172271"><ele>178.6</ele><time>2026-04-24T15:58:49.999Z</time></trkpt><trkpt lat="48.86617513659328" lon="2.0335982580559206"><ele>178.2</ele><time>2026-04-24T15:58:50.999Z</time></trkpt><trkpt lat="48.86609666169087" lon="2.033520616927056"><ele>177.79999999999998</ele><time>2026-04-24T15:58:51.999Z</time></trkpt><trkpt lat="48.86601351135853" lon="2.0334477050012563"><ele>177.39999999999998</ele><time>2026-04-24T15:58:52.999Z</time></trkpt><trkpt lat="48.86592552920679" lon="2.0334020388265897"><ele>177.0</ele><time>2026-04-24T15:58:53.999Z</time></trkpt><trkpt lat="48.86587772715033" lon="2.0332103033745157"><ele>175.2</ele><time>2026-04-24T15:58:54.999Z</time></trkpt><trkpt lat="48.86581624007807" lon="2.0331214557464725"><ele>173.39999999999998</ele><time>2026-04-24T15:58:55.999Z</time></trkpt><trkpt lat="48.86578884764167" lon="2.0329661024929613"><ele>171.60000000000002</ele><time>2026-04-24T15:58:56.999Z</time></trkpt><trkpt lat="48.8657261875601" lon="2.0328514443414503"><ele>169.8</ele><time>2026-04-24T15:58:58Z</time></trkpt><trkpt lat="48.86566072408243" lon="2.0327194443969514"><ele>168.0</ele><time>2026-04-24T15:58:59Z</time></trkpt><trkpt lat="48.86560221541335" lon="2.032597570678324"><ele>168.2</ele><time>2026-04-24T15:59:00Z</time></trkpt><trkpt lat="48.86553932316623" lon="2.032470408367513"><ele>168.4</ele><time>2026-04-24T15:59:01Z</time></trkpt><trkpt lat="48.865464558520536" lon="2.032353506357313"><ele>168.6</ele><time>2026-04-24T15:59:02Z</time></trkpt><trkpt lat="48.865393181017026" lon="2.0322491452563063"><ele>168.79999999999998</ele><time>2026-04-24T15:59:03Z</time></trkpt><trkpt lat="48.86533638000836" lon="2.0321361065030996"><ele>169.0</ele><time>2026-04-24T15:59:04Z</time></trkpt><trkpt lat="48.86527105783317" lon="2.032035098870944"><ele>169.0</ele><time>2026-04-24T15:59:05Z</time></trkpt><trkpt lat="48.86519006611203" lon="2.0319484926647995"><ele>169.0</ele><time>2026-04-24T15:59:06Z</time></trkpt><trkpt lat="48.86511790690748" lon="2.031829950008509"><ele>169.0</ele><time>2026-04-24T15:59:07Z</time></trkpt><trkpt lat="48.86505005318837" lon="2.0317305302603654"><ele>169.0</ele><time>2026-04-24T15:59:08Z</time></trkpt><trkpt lat="48.86497731660995" lon="2.031616979007654"><ele>169.0</ele><time>2026-04-24T15:59:09Z</time></trkpt><trkpt lat="48.86490215881166" lon="2.031510862329558"><ele>168.2</ele><time>2026-04-24T15:59:10Z</time></trkpt><trkpt lat="48.86482239323649" lon="2.031421447808361"><ele>167.39999999999998</ele><time>2026-04-24T15:59:11Z</time></trkpt><trkpt lat="48.864747047105254" lon="2.03133227007148"><ele>166.6</ele><time>2026-04-24T15:59:12Z</time></trkpt><trkpt lat="48.86467067465905" lon="2.0312282694795196"><ele>165.8</ele><time>2026-04-24T15:59:13Z</time></trkpt><trkpt lat="48.86459529187564" lon="2.031122313599257"><ele>165.0</ele><time>2026-04-24T15:59:14Z</time></trkpt><trkpt lat="48.86452090533964" lon="2.0310162822810067"><ele>165.0</ele><time>2026-04-24T15:59:15Z</time></trkpt><trkpt lat="48.86445299414538" lon="2.030903962276909"><ele>165.0</ele><time>2026-04-24T15:59:16Z</time></trkpt><trkpt lat="48.864388923343704" lon="2.030794880893166"><ele>165.0</ele><time>2026-04-24T15:59:17Z</time></trkpt><trkpt lat="48.86432605406006" lon="2.030677150151484"><ele>165.0</ele><time>2026-04-24T15:59:18Z</time></trkpt><trkpt lat="48.86427573803292" lon="2.0305695900566207"><ele>165.0</ele><time>2026-04-24T15:59:19Z</time></trkpt><trkpt lat="48.864221548857756" lon="2.0304626483763535"><ele>163.33333333333334</ele><time>2026-04-24T15:59:20Z</time></trkpt><trkpt lat="48.86417533738958" lon="2.0303519241631776"><ele>161.66666666666666</ele><time>2026-04-24T15:59:21Z</time></trkpt><trkpt lat="48.8641278463987" lon="2.0302439587727674"><ele>160.0</ele><time>2026-04-24T15:59:22Z</time></trkpt><trkpt lat="48.864084008662104" lon="2.0301325802327184"><ele>158.33333333333331</ele><time>2026-04-24T15:59:23Z</time></trkpt><trkpt lat="48.86402225505579" lon="2.0300375037570033"><ele>156.66666666666666</ele><time>2026-04-24T15:59:24Z</time></trkpt><trkpt lat="48.8639720105035" lon="2.0299551457369054"><ele>155.0</ele><time>2026-04-24T15:59:25Z</time></trkpt><trkpt lat="48.86389863262154" lon="2.029794885245213"><ele>154.83333333333331</ele><time>2026-04-24T15:59:27Z</time></trkpt><trkpt lat="48.86382732117774" lon="2.0297088909298746"><ele>154.66666666666666</ele><time>2026-04-24T15:59:29Z</time></trkpt><trkpt lat="48.863769652639654" lon="2.029599738368378"><ele>154.5</ele><time>2026-04-24T15:59:31Z</time></trkpt><trkpt lat="48.863721157476746" lon="2.0294800979517595"><ele>154.33333333333334</ele><time>2026-04-24T15:59:33Z</time></trkpt><trkpt lat="48.86367885176636" lon="2.0293976031586918"><ele>154.16666666666669</ele><time>2026-04-24T15:59:35Z</time></trkpt><trkpt lat="48.86362105762084" lon="2.0293245787985987"><ele>154.0</ele><time>2026-04-24T15:59:38Z</time></trkpt><trkpt lat="48.86359056921447" lon="2.0292376533654486"><ele>153.0</ele><time>2026-04-24T15:59:43Z</time></trkpt><trkpt lat="48.86354373716532" lon="2.0291305977244516"><ele>152.0</ele><time>2026-04-24T16:00:00.999Z</time></trkpt><trkpt lat="48.86348442147095" lon="2.029020491739732"><ele>151.0</ele><time>2026-04-24T16:00:02.999Z</time></trkpt><trkpt lat="48.863426228688084" lon="2.0289508328996595"><ele>150.0</ele><time>2026-04-24T16:00:03.999Z</time></trkpt><trkpt lat="48.86334610987317" lon="2.028794407124451"><ele>149.0</ele><time>2026-04-24T16:00:05.999Z</time></trkpt><trkpt lat="48.86331042514923" lon="2.02869700390621"><ele>148.6</ele><time>2026-04-24T16:00:06.999Z</time></trkpt><trkpt lat="48.86325597421151" lon="2.0286343975557304"><ele>148.2</ele><time>2026-04-24T16:00:07.999Z</time></trkpt><trkpt lat="48.86323182924792" lon="2.0285147070785547"><ele>147.79999999999998</ele><time>2026-04-24T16:00:08.999Z</time></trkpt><trkpt lat="48.86316044100077" lon="2.028373222263574"><ele>147.4</ele><time>2026-04-24T16:00:09.999Z</time></trkpt><trkpt lat="48.86310145468212" lon="2.028256188359696"><ele>147.0</ele><time>2026-04-24T16:00:10.999Z</time></trkpt><trkpt lat="48.86303660764493" lon="2.0281274907460776"><ele>146.5</ele><time>2026-04-24T16:00:11.999Z</time></trkpt><trkpt lat="48.862970255184116" lon="2.0279958056820426"><ele>146.0</ele><time>2026-04-24T16:00:12.999Z</time></trkpt><trkpt lat="48.86291525413927" lon="2.0278866488419833"><ele>145.5</ele><time>2026-04-24T16:00:13.999Z</time></trkpt><trkpt lat="48.86286852845998" lon="2.027793914650142"><ele>145.0</ele><time>2026-04-24T16:00:14.999Z</time></trkpt><trkpt lat="48.86282538026773" lon="2.027708142551006"><ele>144.5</ele><time>2026-04-24T16:00:15.999Z</time></trkpt><trkpt lat="48.8627865592784" lon="2.0276309723043853"><ele>144.0</ele><time>2026-04-24T16:00:16.999Z</time></trkpt><trkpt lat="48.862746853124534" lon="2.027552042471027"><ele>144.16666666666666</ele><time>2026-04-24T16:00:17.999Z</time></trkpt><trkpt lat="48.862686661811786" lon="2.027470799436477"><ele>144.33333333333334</ele><time>2026-04-24T16:00:18.999Z</time></trkpt><trkpt lat="48.86264638208205" lon="2.0273875251983866"><ele>144.5</ele><time>2026-04-24T16:00:19.999Z</time></trkpt><trkpt lat="48.8626104736167" lon="2.027280941850899"><ele>144.66666666666669</ele><time>2026-04-24T16:00:20.999Z</time></trkpt><trkpt lat="48.86256497430917" lon="2.0271904964668734"><ele>144.83333333333334</ele><time>2026-04-24T16:00:21.999Z</time></trkpt><trkpt lat="48.862508124038555" lon="2.027077486382466"><ele>145.0</ele><time>2026-04-24T16:00:22.999Z</time></trkpt><trkpt lat="48.862453462511894" lon="2.0269688275894437"><ele>145.0</ele><time>2026-04-24T16:00:23.999Z</time></trkpt><trkpt lat="48.86239786401781" lon="2.026858306397294"><ele>145.0</ele><time>2026-04-24T16:00:24.999Z</time></trkpt><trkpt lat="48.86233377271755" lon="2.0267646114714992"><ele>145.0</ele><time>2026-04-24T16:00:25.999Z</time></trkpt><trkpt lat="48.862277279565454" lon="2.0266482367046788"><ele>145.0</ele><time>2026-04-24T16:00:26.999Z</time></trkpt><trkpt lat="48.86222623654122" lon="2.0265459110152317"><ele>145.0</ele><time>2026-04-24T16:00:27.999Z</time></trkpt><trkpt lat="48.86216179431816" lon="2.0264587743539413"><ele>145.0</ele><time>2026-04-24T16:00:28.999Z</time></trkpt><trkpt lat="48.862101797941605" lon="2.02633718281252"><ele>145.0</ele><time>2026-04-24T16:00:29.999Z</time></trkpt><trkpt lat="48.86204209496737" lon="2.026283451414444"><ele>145.0</ele><time>2026-04-24T16:00:30.999Z</time></trkpt><trkpt lat="48.86199304098849" lon="2.0261862688281775"><ele>145.0</ele><time>2026-04-24T16:00:31.999Z</time></trkpt><trkpt lat="48.86191712772187" lon="2.026080747928974"><ele>145.0</ele><time>2026-04-24T16:00:32.999Z</time></trkpt><trkpt lat="48.86185258626325" lon="2.0259977381247958"><ele>145.0</ele><time>2026-04-24T16:00:33.999Z</time></trkpt><trkpt lat="48.86178611544443" lon="2.025918502613171"><ele>145.0</ele><time>2026-04-24T16:00:34.999Z</time></trkpt><trkpt lat="48.86171291524724" lon="2.0258336898625933"><ele>144.66666666666669</ele><time>2026-04-24T16:00:35.999Z</time></trkpt><trkpt lat="48.861648163288585" lon="2.0257587776768298"><ele>144.33333333333334</ele><time>2026-04-24T16:00:36.999Z</time></trkpt><trkpt lat="48.861573306216094" lon="2.0256723434259727"><ele>144.0</ele><time>2026-04-24T16:00:37.999Z</time></trkpt><trkpt lat="48.86151437130483" lon="2.0256044415897394"><ele>143.66666666666666</ele><time>2026-04-24T16:00:38.999Z</time></trkpt><trkpt lat="48.861437621833154" lon="2.025516057988067"><ele>143.33333333333331</ele><time>2026-04-24T16:00:39.999Z</time></trkpt><trkpt lat="48.86136822022547" lon="2.0254361361484325"><ele>143.0</ele><time>2026-04-24T16:00:40.999Z</time></trkpt><trkpt lat="48.861289727418956" lon="2.0253458309339485"><ele>143.0</ele><time>2026-04-24T16:00:41.999Z</time></trkpt><trkpt lat="48.8612109993606" lon="2.02525564850231"><ele>143.0</ele><time>2026-04-24T16:00:42.999Z</time></trkpt><trkpt lat="48.861134657100216" lon="2.0251681990147636"><ele>143.0</ele><time>2026-04-24T16:00:43.999Z</time></trkpt><trkpt lat="48.86105482344943" lon="2.025076748983635"><ele>143.0</ele><time>2026-04-24T16:00:44.999Z</time></trkpt><trkpt lat="48.86098099276055" lon="2.024989546024987"><ele>143.0</ele><time>2026-04-24T16:00:45.999Z</time></trkpt><trkpt lat="48.86090216329678" lon="2.0248976900015676"><ele>142.8</ele><time>2026-04-24T16:00:46.999Z</time></trkpt><trkpt lat="48.86082019739616" lon="2.0248037326600703"><ele>142.60000000000002</ele><time>2026-04-24T16:00:47.999Z</time></trkpt><trkpt lat="48.860735132475575" lon="2.024706954761664"><ele>142.39999999999998</ele><time>2026-04-24T16:00:48.999Z</time></trkpt><trkpt lat="48.86065299240654" lon="2.024613504407467"><ele>142.2</ele><time>2026-04-24T16:00:49.999Z</time></trkpt><trkpt lat="48.86056257038585" lon="2.024511160621946"><ele>142.0</ele><time>2026-04-24T16:00:50.999Z</time></trkpt><trkpt lat="48.86047969583896" lon="2.0244426504472437"><ele>142.0</ele><time>2026-04-24T16:00:51.999Z</time></trkpt><trkpt lat="48.8604132345536" lon="2.0243558199497644"><ele>142.0</ele><time>2026-04-24T16:00:52.999Z</time></trkpt><trkpt lat="48.86032278113483" lon="2.0242454310592914"><ele>142.0</ele><time>2026-04-24T16:00:53.999Z</time></trkpt><trkpt lat="48.86024478816161" lon="2.0241478889145665"><ele>142.0</ele><time>2026-04-24T16:00:54.999Z</time></trkpt><trkpt lat="48.86016611548295" lon="2.024053641401372"><ele>142.0</ele><time>2026-04-24T16:00:55.999Z</time></trkpt><trkpt lat="48.8600974155331" lon="2.0239683207878887"><ele>141.79999999999998</ele><time>2026-04-24T16:00:56.999Z</time></trkpt><trkpt lat="48.85999795143611" lon="2.023900315575322"><ele>141.6</ele><time>2026-04-24T16:00:58.999Z</time></trkpt><trkpt lat="48.859913439111274" lon="2.0237754811185704"><ele>141.39999999999998</ele><time>2026-04-24T16:01:00.999Z</time></trkpt><trkpt lat="48.859860679194554" lon="2.0237157038361575"><ele>141.2</ele><time>2026-04-24T16:01:01.999Z</time></trkpt><trkpt lat="48.85976543256727" lon="2.023633678866864"><ele>141.0</ele><time>2026-04-24T16:01:04Z</time></trkpt><trkpt lat="48.85970905092077" lon="2.023561228690068"><ele>141.0</ele><time>2026-04-24T16:01:05Z</time></trkpt><trkpt lat="48.859667402608785" lon="2.0234840756153583"><ele>141.0</ele><time>2026-04-24T16:01:06Z</time></trkpt><trkpt lat="48.859616901024374" lon="2.0233975286475996"><ele>141.0</ele><time>2026-04-24T16:01:07Z</time></trkpt><trkpt lat="48.85954620183505" lon="2.023339016505202"><ele>141.0</ele><time>2026-04-24T16:01:08Z</time></trkpt><trkpt lat="48.859504388488446" lon="2.023255675456543"><ele>141.0</ele><time>2026-04-24T16:01:09Z</time></trkpt><trkpt lat="48.8594210539514" lon="2.02319385448941"><ele>141.0</ele><time>2026-04-24T16:01:10Z</time></trkpt><trkpt lat="48.859348381578776" lon="2.023105412395609"><ele>140.8</ele><time>2026-04-24T16:01:11Z</time></trkpt><trkpt lat="48.85922658691045" lon="2.0229814872002687"><ele>140.6</ele><time>2026-04-24T16:01:13Z</time></trkpt><trkpt lat="48.85915197394251" lon="2.0229024994245717"><ele>140.4</ele><time>2026-04-24T16:01:14Z</time></trkpt><trkpt lat="48.85908393083895" lon="2.02283793697291"><ele>140.2</ele><time>2026-04-24T16:01:15Z</time></trkpt><trkpt lat="48.8590158547121" lon="2.022773355656522"><ele>140.0</ele><time>2026-04-24T16:01:16Z</time></trkpt><trkpt lat="48.858944386866064" lon="2.0226687449602854"><ele>140.0</ele><time>2026-04-24T16:01:17Z</time></trkpt><trkpt lat="48.85887485380545" lon="2.0225959315594104"><ele>140.0</ele><time>2026-04-24T16:01:18Z</time></trkpt><trkpt lat="48.858799405667575" lon="2.0225457707219885"><ele>140.0</ele><time>2026-04-24T16:01:19Z</time></trkpt><trkpt lat="48.85872719511285" lon="2.0224774228964577"><ele>140.0</ele><time>2026-04-24T16:01:20Z</time></trkpt><trkpt lat="48.858671381009614" lon="2.022351892728986"><ele>140.0</ele><time>2026-04-24T16:01:21Z</time></trkpt><trkpt lat="48.85861260394597" lon="2.0222813035761833"><ele>140.0</ele><time>2026-04-24T16:01:22Z</time></trkpt><trkpt lat="48.85854128219022" lon="2.0222185978677967"><ele>140.0</ele><time>2026-04-24T16:01:23Z</time></trkpt><trkpt lat="48.858483549878436" lon="2.0221577068398466"><ele>140.0</ele><time>2026-04-24T16:01:24Z</time></trkpt><trkpt lat="48.85841468568285" lon="2.0220724261081995"><ele>140.0</ele><time>2026-04-24T16:01:25Z</time></trkpt><trkpt lat="48.85834162727207" lon="2.0219780119348796"><ele>140.0</ele><time>2026-04-24T16:01:26Z</time></trkpt><trkpt lat="48.858262329721676" lon="2.021914849219739"><ele>140.0</ele><time>2026-04-24T16:01:27Z</time></trkpt><trkpt lat="48.85818392346264" lon="2.021822883758082"><ele>140.0</ele><time>2026-04-24T16:01:28Z</time></trkpt><trkpt lat="48.85811291106648" lon="2.021751857056623"><ele>140.4</ele><time>2026-04-24T16:01:29Z</time></trkpt><trkpt lat="48.858055759046096" lon="2.0216573899197403"><ele>140.8</ele><time>2026-04-24T16:01:30Z</time></trkpt><trkpt lat="48.85793223613108" lon="2.021516654019393"><ele>141.2</ele><time>2026-04-24T16:01:32Z</time></trkpt><trkpt lat="48.857856469343766" lon="2.0214285149856415"><ele>141.6</ele><time>2026-04-24T16:01:33Z</time></trkpt><trkpt lat="48.857773285515286" lon="2.0213581526056457"><ele>142.0</ele><time>2026-04-24T16:01:34Z</time></trkpt><trkpt lat="48.85769416440448" lon="2.02125865442359"><ele>142.2</ele><time>2026-04-24T16:01:35Z</time></trkpt><trkpt lat="48.85761512699125" lon="2.021170123575503"><ele>142.39999999999998</ele><time>2026-04-24T16:01:36Z</time></trkpt><trkpt lat="48.8575281009972" lon="2.0210513452000836"><ele>142.60000000000002</ele><time>2026-04-24T16:01:37Z</time></trkpt><trkpt lat="48.85746207171138" lon="2.0209718298420185"><ele>142.8</ele><time>2026-04-24T16:01:38Z</time></trkpt><trkpt lat="48.85737117002747" lon="2.0209189737840307"><ele>143.0</ele><time>2026-04-24T16:01:39Z</time></trkpt><trkpt lat="48.85730285036247" lon="2.0208192326879773"><ele>143.20000000000002</ele><time>2026-04-24T16:01:40Z</time></trkpt><trkpt lat="48.8572309829549" lon="2.0207354933561694"><ele>143.4</ele><time>2026-04-24T16:01:41Z</time></trkpt><trkpt lat="48.857171884706226" lon="2.020637743991647"><ele>143.60000000000002</ele><time>2026-04-24T16:01:42Z</time></trkpt><trkpt lat="48.857094746766776" lon="2.0205401269964285"><ele>143.8</ele><time>2026-04-24T16:01:43Z</time></trkpt><trkpt lat="48.85702253009388" lon="2.020458391886322"><ele>144.0</ele><time>2026-04-24T16:01:44Z</time></trkpt><trkpt lat="48.85695503755021" lon="2.0203752917599935"><ele>144.0</ele><time>2026-04-24T16:01:45Z</time></trkpt><trkpt lat="48.85689858355549" lon="2.020292260979492"><ele>144.0</ele><time>2026-04-24T16:01:46Z</time></trkpt><trkpt lat="48.85681226352078" lon="2.02019622665243"><ele>144.0</ele><time>2026-04-24T16:01:47Z</time></trkpt><trkpt lat="48.85673797507219" lon="2.0201346546070127"><ele>144.0</ele><time>2026-04-24T16:01:48Z</time></trkpt><trkpt lat="48.85658261887725" lon="2.0201581993010924"><ele>144.0</ele><time>2026-04-24T16:01:49Z</time></trkpt><trkpt lat="48.85652674863133" lon="2.0200922550858365"><ele>143.83333333333334</ele><time>2026-04-24T16:01:50Z</time></trkpt><trkpt lat="48.85644969467934" lon="2.020016153468132"><ele>143.66666666666666</ele><time>2026-04-24T16:01:51Z</time></trkpt><trkpt lat="48.85638413633279" lon="2.0199129138384966"><ele>143.5</ele><time>2026-04-24T16:01:52Z</time></trkpt><trkpt lat="48.8563161217264" lon="2.019797982514018"><ele>143.33333333333331</ele><time>2026-04-24T16:01:53Z</time></trkpt><trkpt lat="48.85626439806213" lon="2.019742915278925"><ele>143.16666666666666</ele><time>2026-04-24T16:01:54Z</time></trkpt><trkpt lat="48.85620001846532" lon="2.0196548633940656"><ele>143.0</ele><time>2026-04-24T16:01:56Z</time></trkpt><trkpt lat="48.85615782698668" lon="2.019537093121931"><ele>142.85714285714283</ele><time>2026-04-24T16:01:59Z</time></trkpt><trkpt lat="48.856095640755505" lon="2.0195022184702465"><ele>142.71428571428572</ele><time>2026-04-24T16:02:03.999Z</time></trkpt><trkpt lat="48.8560503030839" lon="2.019427075603935"><ele>142.57142857142856</ele><time>2026-04-24T16:02:09.999Z</time></trkpt><trkpt lat="48.8559969878792" lon="2.0193608712529802"><ele>142.42857142857142</ele><time>2026-04-24T16:02:13.999Z</time></trkpt><trkpt lat="48.85594512287276" lon="2.0192763850123776"><ele>142.28571428571428</ele><time>2026-04-24T16:02:17.999Z</time></trkpt><trkpt lat="48.85588540733608" lon="2.0192155177620177"><ele>142.14285714285714</ele><time>2026-04-24T16:02:19.999Z</time></trkpt><trkpt lat="48.85583030749068" lon="2.019104447914418"><ele>142.0</ele><time>2026-04-24T16:02:21.999Z</time></trkpt><trkpt lat="48.85582485354246" lon="2.01893514109906"><ele>141.4</ele><time>2026-04-24T16:02:23.999Z</time></trkpt><trkpt lat="48.85583889622896" lon="2.0188225838163167"><ele>140.79999999999998</ele><time>2026-04-24T16:02:24.999Z</time></trkpt><trkpt lat="48.85588818294758" lon="2.0186856897006655"><ele>140.2</ele><time>2026-04-24T16:02:26.999Z</time></trkpt><trkpt lat="48.85591813066584" lon="2.018497710588717"><ele>139.6</ele><time>2026-04-24T16:02:28.999Z</time></trkpt><trkpt lat="48.85595313758684" lon="2.018404022339997"><ele>139.0</ele><time>2026-04-24T16:02:29.999Z</time></trkpt><trkpt lat="48.855980360897156" lon="2.0182183161691705"><ele>139.0</ele><time>2026-04-24T16:02:31.999Z</time></trkpt><trkpt lat="48.85600943247731" lon="2.0181300553778865"><ele>139.0</ele><time>2026-04-24T16:02:32.999Z</time></trkpt><trkpt lat="48.856051970700655" lon="2.017955886389153"><ele>139.0</ele><time>2026-04-24T16:02:34.999Z</time></trkpt><trkpt lat="48.85610594133288" lon="2.0177712812901385"><ele>139.0</ele><time>2026-04-24T16:02:36.999Z</time></trkpt><trkpt lat="48.85615304720965" lon="2.0176775871173875"><ele>139.0</ele><time>2026-04-24T16:02:37.999Z</time></trkpt><trkpt lat="48.85618360636032" lon="2.0175821306932247"><ele>139.0</ele><time>2026-04-24T16:02:38.999Z</time></trkpt><trkpt lat="48.85623736964971" lon="2.0175130072815866"><ele>139.0</ele><time>2026-04-24T16:02:39.999Z</time></trkpt><trkpt lat="48.856304888369486" lon="2.0174588992451445"><ele>139.0</ele><time>2026-04-24T16:02:40.999Z</time></trkpt><trkpt lat="48.856349222565726" lon="2.0173813305737234"><ele>139.0</ele><time>2026-04-24T16:02:41.999Z</time></trkpt><trkpt lat="48.85641924903191" lon="2.017309711472041"><ele>139.0</ele><time>2026-04-24T16:02:42.999Z</time></trkpt><trkpt lat="48.85646910027872" lon="2.0172494485919907"><ele>139.0</ele><time>2026-04-24T16:02:43.999Z</time></trkpt><trkpt lat="48.85652157933024" lon="2.0171704927398464"><ele>139.0</ele><time>2026-04-24T16:02:44.999Z</time></trkpt><trkpt lat="48.85657288214064" lon="2.017113258624527"><ele>139.0</ele><time>2026-04-24T16:02:45.999Z</time></trkpt><trkpt lat="48.856685284821815" lon="2.0169764057394337"><ele>139.0</ele><time>2026-04-24T16:02:47.999Z</time></trkpt><trkpt lat="48.856729576297" lon="2.016904445379661"><ele>139.0</ele><time>2026-04-24T16:02:48.999Z</time></trkpt><trkpt lat="48.85678373845788" lon="2.0168195454431315"><ele>139.0</ele><time>2026-04-24T16:02:49.999Z</time></trkpt><trkpt lat="48.85683409965672" lon="2.0167282642508004"><ele>139.0</ele><time>2026-04-24T16:02:50.999Z</time></trkpt><trkpt lat="48.85689805094669" lon="2.016588984048227"><ele>138.66666666666669</ele><time>2026-04-24T16:02:52.999Z</time></trkpt><trkpt lat="48.85693074584033" lon="2.016420762884858"><ele>138.33333333333334</ele><time>2026-04-24T16:02:54.999Z</time></trkpt><trkpt lat="48.85696333301443" lon="2.0163340465772874"><ele>138.0</ele><time>2026-04-24T16:02:55.999Z</time></trkpt><trkpt lat="48.856984327658566" lon="2.0162390372075936"><ele>137.66666666666666</ele><time>2026-04-24T16:02:56.999Z</time></trkpt><trkpt lat="48.85703058035252" lon="2.0160514684298683"><ele>137.33333333333331</ele><time>2026-04-24T16:02:58.999Z</time></trkpt><trkpt lat="48.85705634745753" lon="2.0159533620616754"><ele>137.0</ele><time>2026-04-24T16:02:59.999Z</time></trkpt><trkpt lat="48.857085046796044" lon="2.015847969666194"><ele>136.6</ele><time>2026-04-24T16:03:00.999Z</time></trkpt><trkpt lat="48.85710679179944" lon="2.015721124108941"><ele>136.2</ele><time>2026-04-24T16:03:01.999Z</time></trkpt><trkpt lat="48.857138475638536" lon="2.0155807600547244"><ele>135.8</ele><time>2026-04-24T16:03:02.999Z</time></trkpt><trkpt lat="48.85716324136118" lon="2.015433778842439"><ele>135.4</ele><time>2026-04-24T16:03:03.999Z</time></trkpt><trkpt lat="48.85719441301056" lon="2.0153145618175663"><ele>135.0</ele><time>2026-04-24T16:03:04.999Z</time></trkpt><trkpt lat="48.857231263444106" lon="2.015200442701976"><ele>135.0</ele><time>2026-04-24T16:03:05.999Z</time></trkpt><trkpt lat="48.8572657707855" lon="2.0150566448588694"><ele>135.0</ele><time>2026-04-24T16:03:06.999Z</time></trkpt><trkpt lat="48.85728985102595" lon="2.014950423171569"><ele>135.0</ele><time>2026-04-24T16:03:07.999Z</time></trkpt><trkpt lat="48.857333946499104" lon="2.0148204722375818"><ele>135.0</ele><time>2026-04-24T16:03:09Z</time></trkpt><trkpt lat="48.85735484052675" lon="2.014671224190915"><ele>135.0</ele><time>2026-04-24T16:03:10Z</time></trkpt><trkpt lat="48.85738828683288" lon="2.014527092490842"><ele>135.0</ele><time>2026-04-24T16:03:11Z</time></trkpt><trkpt lat="48.85740883982945" lon="2.0143624774328623"><ele>135.0</ele><time>2026-04-24T16:03:12Z</time></trkpt><trkpt lat="48.85743712738701" lon="2.014219209399689"><ele>135.0</ele><time>2026-04-24T16:03:13Z</time></trkpt><trkpt lat="48.85745673205584" lon="2.0140775355057365"><ele>135.0</ele><time>2026-04-24T16:03:14Z</time></trkpt><trkpt lat="48.85750340027344" lon="2.0139575373144414"><ele>135.0</ele><time>2026-04-24T16:03:15Z</time></trkpt><trkpt lat="48.85754000255519" lon="2.01384091382185"><ele>134.6</ele><time>2026-04-24T16:03:16Z</time></trkpt><trkpt lat="48.857580985348186" lon="2.013719104753253"><ele>134.2</ele><time>2026-04-24T16:03:17Z</time></trkpt><trkpt lat="48.8575932708053" lon="2.013567782437358"><ele>133.8</ele><time>2026-04-24T16:03:18Z</time></trkpt><trkpt lat="48.85761973845936" lon="2.0134443281115644"><ele>133.4</ele><time>2026-04-24T16:03:19Z</time></trkpt><trkpt lat="48.85766715902544" lon="2.0133055964855764"><ele>133.0</ele><time>2026-04-24T16:03:20Z</time></trkpt><trkpt lat="48.857686597228025" lon="2.013178449893792"><ele>132.20000000000002</ele><time>2026-04-24T16:03:21Z</time></trkpt><trkpt lat="48.85771160600215" lon="2.0130264667483644"><ele>131.4</ele><time>2026-04-24T16:03:22Z</time></trkpt><trkpt lat="48.857730096547975" lon="2.0128921818406447"><ele>130.60000000000002</ele><time>2026-04-24T16:03:23Z</time></trkpt><trkpt lat="48.85777267018225" lon="2.0127628773964794"><ele>129.8</ele><time>2026-04-24T16:03:24Z</time></trkpt><trkpt lat="48.85779988702418" lon="2.012626820968263"><ele>129.0</ele><time>2026-04-24T16:03:25Z</time></trkpt><trkpt lat="48.85783073350838" lon="2.012496424183302"><ele>128.66666666666666</ele><time>2026-04-24T16:03:26Z</time></trkpt><trkpt lat="48.85786346905605" lon="2.012374436081312"><ele>128.33333333333334</ele><time>2026-04-24T16:03:27Z</time></trkpt><trkpt lat="48.85788494936377" lon="2.0122376131889173"><ele>128.0</ele><time>2026-04-24T16:03:28Z</time></trkpt><trkpt lat="48.857922587364534" lon="2.0121281735952206"><ele>127.66666666666667</ele><time>2026-04-24T16:03:29Z</time></trkpt><trkpt lat="48.857953635713706" lon="2.0119958264572806"><ele>127.33333333333334</ele><time>2026-04-24T16:03:30Z</time></trkpt><trkpt lat="48.85798386807101" lon="2.0118577478515416"><ele>127.0</ele><time>2026-04-24T16:03:31Z</time></trkpt><trkpt lat="48.858011215242776" lon="2.0117318238012034"><ele>126.6</ele><time>2026-04-24T16:03:32Z</time></trkpt><trkpt lat="48.8580310217038" lon="2.011590875755908"><ele>126.19999999999999</ele><time>2026-04-24T16:03:33Z</time></trkpt><trkpt lat="48.85806069110634" lon="2.011472744725472"><ele>125.8</ele><time>2026-04-24T16:03:34Z</time></trkpt><trkpt lat="48.85810086053616" lon="2.0113341888657223"><ele>125.4</ele><time>2026-04-24T16:03:35Z</time></trkpt><trkpt lat="48.858123354133916" lon="2.0111891510680486"><ele>125.0</ele><time>2026-04-24T16:03:36Z</time></trkpt><trkpt lat="48.858155425784574" lon="2.0110471807258405"><ele>125.0</ele><time>2026-04-24T16:03:37Z</time></trkpt><trkpt lat="48.858192850976984" lon="2.0109257903389715"><ele>125.0</ele><time>2026-04-24T16:03:38Z</time></trkpt><trkpt lat="48.858219550475035" lon="2.010797047609634"><ele>125.0</ele><time>2026-04-24T16:03:39Z</time></trkpt><trkpt lat="48.85825345601121" lon="2.010642041083401"><ele>125.0</ele><time>2026-04-24T16:03:40Z</time></trkpt><trkpt lat="48.85828488487684" lon="2.0105027789530547"><ele>125.0</ele><time>2026-04-24T16:03:41Z</time></trkpt><trkpt lat="48.858330466970976" lon="2.0103666562414086"><ele>124.4</ele><time>2026-04-24T16:03:42Z</time></trkpt><trkpt lat="48.85836076489358" lon="2.0102196022458836"><ele>123.8</ele><time>2026-04-24T16:03:43Z</time></trkpt><trkpt lat="48.85839461123148" lon="2.0100645862681197"><ele>123.19999999999999</ele><time>2026-04-24T16:03:44Z</time></trkpt><trkpt lat="48.858425368937326" lon="2.0099267033349437"><ele>122.6</ele><time>2026-04-24T16:03:45Z</time></trkpt><trkpt lat="48.85846460740929" lon="2.009792113491361"><ele>122.0</ele><time>2026-04-24T16:03:46Z</time></trkpt><trkpt lat="48.858506709973696" lon="2.009633898039122"><ele>120.8</ele><time>2026-04-24T16:03:47Z</time></trkpt><trkpt lat="48.85855150930685" lon="2.0094974340263354"><ele>119.6</ele><time>2026-04-24T16:03:48Z</time></trkpt><trkpt lat="48.858585468168386" lon="2.009375251274464"><ele>118.39999999999999</ele><time>2026-04-24T16:03:49Z</time></trkpt><trkpt lat="48.858638889292784" lon="2.009254826560005"><ele>117.19999999999999</ele><time>2026-04-24T16:03:50Z</time></trkpt><trkpt lat="48.858679149163805" lon="2.0091417008686325"><ele>116.0</ele><time>2026-04-24T16:03:51Z</time></trkpt><trkpt lat="48.85871479737831" lon="2.009018305432592"><ele>115.99999999999999</ele><time>2026-04-24T16:03:52Z</time></trkpt><trkpt lat="48.85871945506622" lon="2.0088823722182196"><ele>116.0</ele><time>2026-04-24T16:03:53Z</time></trkpt><trkpt lat="48.8587449601279" lon="2.0087586326321736"><ele>116.0</ele><time>2026-04-24T16:03:54Z</time></trkpt><trkpt lat="48.858773124631796" lon="2.0086404075402915"><ele>116.0</ele><time>2026-04-24T16:03:55Z</time></trkpt><trkpt lat="48.85880774385498" lon="2.008518409477174"><ele>115.99999999999999</ele><time>2026-04-24T16:03:56Z</time></trkpt><trkpt lat="48.8588201320601" lon="2.0083890525728716"><ele>116.0</ele><time>2026-04-24T16:03:57Z</time></trkpt><trkpt lat="48.85885619826754" lon="2.008268734326136"><ele>115.66666666666666</ele><time>2026-04-24T16:03:58Z</time></trkpt><trkpt lat="48.85888594129233" lon="2.0081373504260625"><ele>115.33333333333333</ele><time>2026-04-24T16:03:59Z</time></trkpt><trkpt lat="48.85892354305968" lon="2.0080255092920885"><ele>115.0</ele><time>2026-04-24T16:04:00Z</time></trkpt><trkpt lat="48.85894342205828" lon="2.00790681888055"><ele>114.66666666666666</ele><time>2026-04-24T16:04:01Z</time></trkpt><trkpt lat="48.85897563561591" lon="2.0077873379989066"><ele>114.33333333333333</ele><time>2026-04-24T16:04:02Z</time></trkpt><trkpt lat="48.85899981311951" lon="2.007676176196778"><ele>114.0</ele><time>2026-04-24T16:04:03Z</time></trkpt><trkpt lat="48.8590298828742" lon="2.0075659909514267"><ele>114.0</ele><time>2026-04-24T16:04:04Z</time></trkpt><trkpt lat="48.85905159635837" lon="2.0074703376669567"><ele>113.99999999999999</ele><time>2026-04-24T16:04:05Z</time></trkpt><trkpt lat="48.859095695110106" lon="2.00736429045745"><ele>114.0</ele><time>2026-04-24T16:04:06.999Z</time></trkpt><trkpt lat="48.859093648910246" lon="2.007264384626058"><ele>114.0</ele><time>2026-04-24T16:04:08.999Z</time></trkpt><trkpt lat="48.85908790771424" lon="2.0071597752338253"><ele>113.99999999999999</ele><time>2026-04-24T16:04:10.999Z</time></trkpt><trkpt lat="48.859074247707504" lon="2.0070559832069295"><ele>114.0</ele><time>2026-04-24T16:04:13.999Z</time></trkpt><trkpt lat="48.85906846821973" lon="2.0069262986478495"><ele>114.0</ele><time>2026-04-24T16:04:15.999Z</time></trkpt><trkpt lat="48.85910826140865" lon="2.0068332232621975"><ele>114.0</ele><time>2026-04-24T16:04:17.999Z</time></trkpt><trkpt lat="48.85913033924704" lon="2.0067324377093447"><ele>114.0</ele><time>2026-04-24T16:04:19.999Z</time></trkpt><trkpt lat="48.85913417242878" lon="2.0066037944109967"><ele>114.0</ele><time>2026-04-24T16:04:21.999Z</time></trkpt><trkpt lat="48.85912707149938" lon="2.006366170882728"><ele>114.0</ele><time>2026-04-24T16:04:23.999Z</time></trkpt><trkpt lat="48.859169469685796" lon="2.0062306349364594"><ele>114.0</ele><time>2026-04-24T16:04:25.999Z</time></trkpt><trkpt lat="48.85921170937965" lon="2.0060679370564225"><ele>114.2</ele><time>2026-04-24T16:04:27.999Z</time></trkpt><trkpt lat="48.85923500369761" lon="2.005941262088945"><ele>114.4</ele><time>2026-04-24T16:04:29.999Z</time></trkpt><trkpt lat="48.85930526491301" lon="2.005867040702957"><ele>114.6</ele><time>2026-04-24T16:04:30.999Z</time></trkpt><trkpt lat="48.859345867372525" lon="2.0057154763246885"><ele>114.8</ele><time>2026-04-24T16:04:32.999Z</time></trkpt><trkpt lat="48.85938853058489" lon="2.0055670556018783"><ele>115.0</ele><time>2026-04-24T16:04:34.999Z</time></trkpt><trkpt lat="48.8594275956628" lon="2.0054314993709914"><ele>115.6</ele><time>2026-04-24T16:04:36.999Z</time></trkpt><trkpt lat="48.85947074535249" lon="2.0052831824722688"><ele>116.2</ele><time>2026-04-24T16:04:38.999Z</time></trkpt><trkpt lat="48.859507615153994" lon="2.00515645131173"><ele>116.80000000000001</ele><time>2026-04-24T16:04:40.999Z</time></trkpt><trkpt lat="48.85955065892382" lon="2.0050084985019807"><ele>117.4</ele><time>2026-04-24T16:04:42.999Z</time></trkpt><trkpt lat="48.85959002094835" lon="2.0048732008971935"><ele>118.0</ele><time>2026-04-24T16:04:44.999Z</time></trkpt><trkpt lat="48.859628098954026" lon="2.0047423167882568"><ele>118.4</ele><time>2026-04-24T16:04:46.999Z</time></trkpt><trkpt lat="48.859666661971424" lon="2.0046097655509527"><ele>118.80000000000001</ele><time>2026-04-24T16:04:48.999Z</time></trkpt><trkpt lat="48.85970352634093" lon="2.0044829923861993"><ele>119.2</ele><time>2026-04-24T16:04:50.999Z</time></trkpt><trkpt lat="48.85973882227487" lon="2.0043615706675895"><ele>119.6</ele><time>2026-04-24T16:04:52.999Z</time></trkpt><trkpt lat="48.859775465362155" lon="2.0042333437392816"><ele>120.0</ele><time>2026-04-24T16:04:54.999Z</time></trkpt><trkpt lat="48.85981142382086" lon="2.0041048391273457"><ele>120.4</ele><time>2026-04-24T16:04:56.999Z</time></trkpt><trkpt lat="48.85987174164593" lon="2.0039968401639743"><ele>120.8</ele><time>2026-04-24T16:04:58.999Z</time></trkpt><trkpt lat="48.859910919090865" lon="2.003870225087788"><ele>121.19999999999999</ele><time>2026-04-24T16:05:00.999Z</time></trkpt><trkpt lat="48.85995328484341" lon="2.0037387589689053"><ele>121.6</ele><time>2026-04-24T16:05:02.999Z</time></trkpt><trkpt lat="48.859987703130656" lon="2.003616419668716"><ele>122.0</ele><time>2026-04-24T16:05:04.999Z</time></trkpt><trkpt lat="48.860021768005446" lon="2.0034745381395256"><ele>122.0</ele><time>2026-04-24T16:05:06.999Z</time></trkpt><trkpt lat="48.86004293735227" lon="2.0033483876629052"><ele>121.99999999999999</ele><time>2026-04-24T16:05:08.999Z</time></trkpt><trkpt lat="48.86006114613245" lon="2.0031936477724317"><ele>121.99999999999999</ele><time>2026-04-24T16:05:10.999Z</time></trkpt><trkpt lat="48.86009907464178" lon="2.0030577024521836"><ele>122.0</ele><time>2026-04-24T16:05:12.999Z</time></trkpt><trkpt lat="48.8601277761968" lon="2.0029071341900924"><ele>122.0</ele><time>2026-04-24T16:05:15Z</time></trkpt><trkpt lat="48.8601520634145" lon="2.0027593594662987"><ele>123.19999999999999</ele><time>2026-04-24T16:05:17Z</time></trkpt><trkpt lat="48.86019911009323" lon="2.002594678818833"><ele>124.39999999999999</ele><time>2026-04-24T16:05:19Z</time></trkpt><trkpt lat="48.86023878049035" lon="2.0024570718877226"><ele>125.60000000000001</ele><time>2026-04-24T16:05:21Z</time></trkpt><trkpt lat="48.86024365249607" lon="2.002296616780891"><ele>126.80000000000001</ele><time>2026-04-24T16:05:23Z</time></trkpt><trkpt lat="48.86028212120395" lon="2.0021499736795607"><ele>128.0</ele><time>2026-04-24T16:05:25Z</time></trkpt><trkpt lat="48.860323420371174" lon="2.0019926910088435"><ele>128.20000000000002</ele><time>2026-04-24T16:05:27Z</time></trkpt><trkpt lat="48.86035076349969" lon="2.0018507287157887"><ele>128.4</ele><time>2026-04-24T16:05:29Z</time></trkpt><trkpt lat="48.860398347404754" lon="2.0016990158457295"><ele>128.60000000000002</ele><time>2026-04-24T16:05:31Z</time></trkpt><trkpt lat="48.860424481832986" lon="2.001542585284216"><ele>128.8</ele><time>2026-04-24T16:05:33Z</time></trkpt><trkpt lat="48.86045039876404" lon="2.0013895533697474"><ele>129.0</ele><time>2026-04-24T16:05:35Z</time></trkpt><trkpt lat="48.86048432285661" lon="2.001291925414252"><ele>129.2</ele><time>2026-04-24T16:05:39Z</time></trkpt><trkpt lat="48.86053013117075" lon="2.0011436428821856"><ele>129.4</ele><time>2026-04-24T16:05:42Z</time></trkpt><trkpt lat="48.86056913970334" lon="2.0010306771969333"><ele>129.6</ele><time>2026-04-24T16:05:43Z</time></trkpt><trkpt lat="48.86059042476057" lon="2.000916471432221"><ele>129.8</ele><time>2026-04-24T16:05:44Z</time></trkpt><trkpt lat="48.860619729703416" lon="2.00080842193645"><ele>130.0</ele><time>2026-04-24T16:05:45Z</time></trkpt><trkpt lat="48.860655540985505" lon="2.0006371863116637"><ele>130.0</ele><time>2026-04-24T16:05:47Z</time></trkpt><trkpt lat="48.86068092298686" lon="2.0005493542800914"><ele>130.0</ele><time>2026-04-24T16:05:48Z</time></trkpt><trkpt lat="48.860698439098066" lon="2.0004517658194163"><ele>130.0</ele><time>2026-04-24T16:05:51Z</time></trkpt><trkpt lat="48.860727033765045" lon="2.000327819623079"><ele>130.0</ele><time>2026-04-24T16:05:54Z</time></trkpt><trkpt lat="48.86075013215912" lon="2.000227385761922"><ele>130.0</ele><time>2026-04-24T16:05:56Z</time></trkpt><trkpt lat="48.860787150272564" lon="2.000127288612223"><ele>130.0</ele><time>2026-04-24T16:05:58Z</time></trkpt><trkpt lat="48.860825948261486" lon="1.9998970595581673"><ele>130.0</ele><time>2026-04-24T16:06:01Z</time></trkpt><trkpt lat="48.86085873015725" lon="1.9997540744109623"><ele>130.0</ele><time>2026-04-24T16:06:02Z</time></trkpt><trkpt lat="48.86088400015782" lon="1.9996437366378121"><ele>130.0</ele><time>2026-04-24T16:06:03Z</time></trkpt><trkpt lat="48.86090981063444" lon="1.9995310668398463"><ele>130.0</ele><time>2026-04-24T16:06:04Z</time></trkpt><trkpt lat="48.860934112027245" lon="1.9994251220318295"><ele>130.0</ele><time>2026-04-24T16:06:05Z</time></trkpt><trkpt lat="48.86096246760859" lon="1.9993015025644734"><ele>130.0</ele><time>2026-04-24T16:06:06Z</time></trkpt><trkpt lat="48.86098634234098" lon="1.99919769025669"><ele>129.83333333333334</ele><time>2026-04-24T16:06:07Z</time></trkpt><trkpt lat="48.861009961924324" lon="1.9990954868687496"><ele>129.66666666666669</ele><time>2026-04-24T16:06:08Z</time></trkpt><trkpt lat="48.86103802951065" lon="1.998974036823773"><ele>129.5</ele><time>2026-04-24T16:06:09Z</time></trkpt><trkpt lat="48.86106378278627" lon="1.9988626010903594"><ele>129.33333333333334</ele><time>2026-04-24T16:06:10Z</time></trkpt><trkpt lat="48.86109182094955" lon="1.9987412781496552"><ele>129.16666666666666</ele><time>2026-04-24T16:06:11Z</time></trkpt><trkpt lat="48.86112258260581" lon="1.9986081707358447"><ele>129.0</ele><time>2026-04-24T16:06:12Z</time></trkpt><trkpt lat="48.8611533176703" lon="1.998475178365172"><ele>129.0</ele><time>2026-04-24T16:06:12.999Z</time></trkpt><trkpt lat="48.86118190732743" lon="1.998351469359988"><ele>129.0</ele><time>2026-04-24T16:06:13.999Z</time></trkpt><trkpt lat="48.86121353493555" lon="1.9982146148960898"><ele>129.0</ele><time>2026-04-24T16:06:14.999Z</time></trkpt><trkpt lat="48.861245310176486" lon="1.9980771215357906"><ele>129.0</ele><time>2026-04-24T16:06:15.999Z</time></trkpt><trkpt lat="48.861282694619575" lon="1.9979509712189985"><ele>129.0</ele><time>2026-04-24T16:06:16.999Z</time></trkpt><trkpt lat="48.86129900635592" lon="1.9978430881644325"><ele>129.0</ele><time>2026-04-24T16:06:17.999Z</time></trkpt><trkpt lat="48.861345331158994" lon="1.997698341931415"><ele>128.4</ele><time>2026-04-24T16:06:18.999Z</time></trkpt><trkpt lat="48.86136438526674" lon="1.9975579895742939"><ele>127.80000000000001</ele><time>2026-04-24T16:06:19.999Z</time></trkpt><trkpt lat="48.86139291078531" lon="1.9974335981064362"><ele>127.19999999999999</ele><time>2026-04-24T16:06:20.999Z</time></trkpt><trkpt lat="48.86142612828044" lon="1.9972887460254658"><ele>126.6</ele><time>2026-04-24T16:06:21.999Z</time></trkpt><trkpt lat="48.86145368802687" lon="1.9971685207706584"><ele>126.0</ele><time>2026-04-24T16:06:22.999Z</time></trkpt><trkpt lat="48.861485383788896" lon="1.9970297664875811"><ele>125.4</ele><time>2026-04-24T16:06:23.999Z</time></trkpt><trkpt lat="48.861516217883704" lon="1.9968947845726488"><ele>124.8</ele><time>2026-04-24T16:06:24.999Z</time></trkpt><trkpt lat="48.86154927855986" lon="1.9967500556998794"><ele>124.20000000000002</ele><time>2026-04-24T16:06:25.999Z</time></trkpt><trkpt lat="48.86158040765491" lon="1.9966137820854726"><ele>123.60000000000001</ele><time>2026-04-24T16:06:26.999Z</time></trkpt><trkpt lat="48.86160956519729" lon="1.9964861396178981"><ele>123.0</ele><time>2026-04-24T16:06:27.999Z</time></trkpt><trkpt lat="48.861641048369805" lon="1.9963483159499613"><ele>122.4</ele><time>2026-04-24T16:06:28.999Z</time></trkpt><trkpt lat="48.86167485002327" lon="1.9962003434408153"><ele>121.80000000000001</ele><time>2026-04-24T16:06:29.999Z</time></trkpt><trkpt lat="48.8617097296204" lon="1.9960476514024625"><ele>121.2</ele><time>2026-04-24T16:06:30.999Z</time></trkpt><trkpt lat="48.86173901593554" lon="1.9959194451646287"><ele>120.6</ele><time>2026-04-24T16:06:31.999Z</time></trkpt><trkpt lat="48.8617692334012" lon="1.9957871627164032"><ele>120.0</ele><time>2026-04-24T16:06:32.999Z</time></trkpt><trkpt lat="48.861798325329346" lon="1.9956598074604208"><ele>119.6</ele><time>2026-04-24T16:06:33.999Z</time></trkpt><trkpt lat="48.861826969409464" lon="1.9955344128018153"><ele>119.2</ele><time>2026-04-24T16:06:34.999Z</time></trkpt><trkpt lat="48.8618573951344" lon="1.9954012181081129"><ele>118.80000000000001</ele><time>2026-04-24T16:06:35.999Z</time></trkpt><trkpt lat="48.861890080829035" lon="1.9952581305349988"><ele>118.4</ele><time>2026-04-24T16:06:36.999Z</time></trkpt><trkpt lat="48.86191891815644" lon="1.9951328587223285"><ele>118.0</ele><time>2026-04-24T16:06:37.999Z</time></trkpt><trkpt lat="48.86195157660385" lon="1.994992583484061"><ele>117.80000000000001</ele><time>2026-04-24T16:06:38.999Z</time></trkpt><trkpt lat="48.86198321069279" lon="1.9948567077359138"><ele>117.60000000000001</ele><time>2026-04-24T16:06:39.999Z</time></trkpt><trkpt lat="48.862017326437694" lon="1.9947101728806707"><ele>117.39999999999999</ele><time>2026-04-24T16:06:40.999Z</time></trkpt><trkpt lat="48.86205226262686" lon="1.994560114533234"><ele>117.19999999999999</ele><time>2026-04-24T16:06:41.999Z</time></trkpt><trkpt lat="48.86208807242466" lon="1.994406303228108"><ele>117.0</ele><time>2026-04-24T16:06:42.999Z</time></trkpt><trkpt lat="48.862124829690345" lon="1.9942484224283492"><ele>116.6</ele><time>2026-04-24T16:06:43.999Z</time></trkpt><trkpt lat="48.862159960175546" lon="1.9940975286869034"><ele>116.19999999999999</ele><time>2026-04-24T16:06:44.999Z</time></trkpt><trkpt lat="48.862206173840065" lon="1.9939727882605969"><ele>115.8</ele><time>2026-04-24T16:06:45.999Z</time></trkpt><trkpt lat="48.862225821249815" lon="1.99381408369886"><ele>115.4</ele><time>2026-04-24T16:06:46.999Z</time></trkpt><trkpt lat="48.86227409063811" lon="1.9936654105861797"><ele>115.0</ele><time>2026-04-24T16:06:47.999Z</time></trkpt><trkpt lat="48.86229478816068" lon="1.9935142903885368"><ele>115.0</ele><time>2026-04-24T16:06:48.999Z</time></trkpt><trkpt lat="48.86234024060577" lon="1.9933652075180823"><ele>115.0</ele><time>2026-04-24T16:06:49.999Z</time></trkpt><trkpt lat="48.86237109874208" lon="1.9932000325835943"><ele>115.0</ele><time>2026-04-24T16:06:50.999Z</time></trkpt><trkpt lat="48.86240540946853" lon="1.993036688640684"><ele>115.0</ele><time>2026-04-24T16:06:51.999Z</time></trkpt><trkpt lat="48.862442698802575" lon="1.9928737704742918"><ele>115.0</ele><time>2026-04-24T16:06:52.999Z</time></trkpt><trkpt lat="48.86247291923058" lon="1.992709896257074"><ele>114.5</ele><time>2026-04-24T16:06:53.999Z</time></trkpt><trkpt lat="48.862507458671644" lon="1.9925528857459354"><ele>114.0</ele><time>2026-04-24T16:06:54.999Z</time></trkpt><trkpt lat="48.86254751019218" lon="1.9923790731452042"><ele>113.5</ele><time>2026-04-24T16:06:55.999Z</time></trkpt><trkpt lat="48.86257756834385" lon="1.992203593952338"><ele>113.0</ele><time>2026-04-24T16:06:56.999Z</time></trkpt><trkpt lat="48.862619273184116" lon="1.9920418814657612"><ele>113.0</ele><time>2026-04-24T16:06:57.999Z</time></trkpt><trkpt lat="48.862666072141" lon="1.9918611479024317"><ele>113.0</ele><time>2026-04-24T16:06:58.999Z</time></trkpt><trkpt lat="48.86269599099073" lon="1.9916883275197206"><ele>113.0</ele><time>2026-04-24T16:06:59.999Z</time></trkpt><trkpt lat="48.86273636891362" lon="1.9915411071214715"><ele>113.0</ele><time>2026-04-24T16:07:00.999Z</time></trkpt><trkpt lat="48.86277293422557" lon="1.9913801044720174"><ele>113.0</ele><time>2026-04-24T16:07:01.999Z</time></trkpt><trkpt lat="48.862801752651905" lon="1.9912291701613212"><ele>113.00000000000001</ele><time>2026-04-24T16:07:02.999Z</time></trkpt><trkpt lat="48.86283682011569" lon="1.991107480964071"><ele>113.00000000000001</ele><time>2026-04-24T16:07:03.999Z</time></trkpt><trkpt lat="48.86286876243124" lon="1.99097454629315"><ele>113.0</ele><time>2026-04-24T16:07:04.999Z</time></trkpt><trkpt lat="48.86290903818463" lon="1.9908260932732598"><ele>113.0</ele><time>2026-04-24T16:07:05.999Z</time></trkpt><trkpt lat="48.862950651522766" lon="1.9906919760264952"><ele>113.60000000000001</ele><time>2026-04-24T16:07:06.999Z</time></trkpt><trkpt lat="48.862983575648656" lon="1.990561468436107"><ele>114.20000000000002</ele><time>2026-04-24T16:07:07.999Z</time></trkpt><trkpt lat="48.86301553912819" lon="1.990437975248503"><ele>114.8</ele><time>2026-04-24T16:07:08.999Z</time></trkpt><trkpt lat="48.86303872891418" lon="1.990305320917263"><ele>115.4</ele><time>2026-04-24T16:07:09.999Z</time></trkpt><trkpt lat="48.86307479897043" lon="1.9901832315955947"><ele>116.0</ele><time>2026-04-24T16:07:10.999Z</time></trkpt><trkpt lat="48.86309932514551" lon="1.9900334003032771"><ele>116.33333333333333</ele><time>2026-04-24T16:07:11.999Z</time></trkpt><trkpt lat="48.86313506998396" lon="1.9899332853037364"><ele>116.66666666666666</ele><time>2026-04-24T16:07:12.999Z</time></trkpt><trkpt lat="48.86315724171714" lon="1.9898226391875642"><ele>117.0</ele><time>2026-04-24T16:07:13.999Z</time></trkpt><trkpt lat="48.86317438385004" lon="1.9897256956939051"><ele>117.33333333333334</ele><time>2026-04-24T16:07:14.999Z</time></trkpt><trkpt lat="48.8632094720637" lon="1.989611901079891"><ele>117.66666666666667</ele><time>2026-04-24T16:07:15.999Z</time></trkpt><trkpt lat="48.86325221858403" lon="1.9894287082671442"><ele>118.0</ele><time>2026-04-24T16:07:17.999Z</time></trkpt><trkpt lat="48.86327426248184" lon="1.9893375981102033"><ele>118.0</ele><time>2026-04-24T16:07:18.999Z</time></trkpt><trkpt lat="48.86328632482554" lon="1.989240926477657"><ele>118.00000000000001</ele><time>2026-04-24T16:07:19.999Z</time></trkpt><trkpt lat="48.86332474753689" lon="1.9890722841604225"><ele>118.00000000000001</ele><time>2026-04-24T16:07:22Z</time></trkpt><trkpt lat="48.86337242121329" lon="1.9889247804078989"><ele>118.0</ele><time>2026-04-24T16:07:24Z</time></trkpt><trkpt lat="48.86339589533861" lon="1.988759386007408"><ele>118.0</ele><time>2026-04-24T16:07:26Z</time></trkpt><trkpt lat="48.86343285809852" lon="1.9885974794312178"><ele>118.16666666666667</ele><time>2026-04-24T16:07:28Z</time></trkpt><trkpt lat="48.86347251301493" lon="1.988423751147211"><ele>118.33333333333334</ele><time>2026-04-24T16:07:30Z</time></trkpt><trkpt lat="48.86349344923387" lon="1.9883320255471408"><ele>118.5</ele><time>2026-04-24T16:07:31Z</time></trkpt><trkpt lat="48.86351510059743" lon="1.988237166659697"><ele>118.66666666666666</ele><time>2026-04-24T16:07:32Z</time></trkpt><trkpt lat="48.863535878593176" lon="1.9881461343746298"><ele>118.83333333333333</ele><time>2026-04-24T16:07:33Z</time></trkpt><trkpt lat="48.863559939944615" lon="1.9880407170062662"><ele>119.0</ele><time>2026-04-24T16:07:34Z</time></trkpt><trkpt lat="48.86358281057669" lon="1.9879407464140908"><ele>119.0</ele><time>2026-04-24T16:07:35Z</time></trkpt><trkpt lat="48.86360793438213" lon="1.9878309273235388"><ele>119.0</ele><time>2026-04-24T16:07:36Z</time></trkpt><trkpt lat="48.863630374334114" lon="1.9877328393950382"><ele>119.0</ele><time>2026-04-24T16:07:37Z</time></trkpt><trkpt lat="48.86365169178142" lon="1.9876396582479712"><ele>119.0</ele><time>2026-04-24T16:07:38Z</time></trkpt><trkpt lat="48.863674139254464" lon="1.9875416446888876"><ele>119.0</ele><time>2026-04-24T16:07:39Z</time></trkpt><trkpt lat="48.86369737185807" lon="1.9874418963738538"><ele>119.0</ele><time>2026-04-24T16:07:40Z</time></trkpt><trkpt lat="48.86372002207317" lon="1.9873446485158215"><ele>119.0</ele><time>2026-04-24T16:07:41Z</time></trkpt><trkpt lat="48.863760512686824" lon="1.9871708036863474"><ele>119.0</ele><time>2026-04-24T16:07:43Z</time></trkpt><trkpt lat="48.863786204349005" lon="1.9870604973532333"><ele>119.0</ele><time>2026-04-24T16:07:44Z</time></trkpt><trkpt lat="48.863810348624455" lon="1.9869568348606723"><ele>119.0</ele><time>2026-04-24T16:07:45Z</time></trkpt><trkpt lat="48.86383420920507" lon="1.9868543903156954"><ele>119.0</ele><time>2026-04-24T16:07:46Z</time></trkpt><trkpt lat="48.86385542515469" lon="1.9867633004638214"><ele>119.0</ele><time>2026-04-24T16:07:47Z</time></trkpt><trkpt lat="48.863877724723416" lon="1.9866675581018067"><ele>119.0</ele><time>2026-04-24T16:07:48Z</time></trkpt><trkpt lat="48.8639111332242" lon="1.986568747948691"><ele>119.0</ele><time>2026-04-24T16:07:49Z</time></trkpt><trkpt lat="48.86392856676597" lon="1.986469342165308"><ele>118.99999999999999</ele><time>2026-04-24T16:07:50Z</time></trkpt><trkpt lat="48.863955030125965" lon="1.986373974250142"><ele>119.0</ele><time>2026-04-24T16:07:51Z</time></trkpt><trkpt lat="48.86397875819215" lon="1.9862805966468018"><ele>119.0</ele><time>2026-04-24T16:07:52Z</time></trkpt><trkpt lat="48.86402414634108" lon="1.9860859914465416"><ele>119.0</ele><time>2026-04-24T16:07:54Z</time></trkpt><trkpt lat="48.864036100698684" lon="1.9859878380110378"><ele>118.99999999999999</ele><time>2026-04-24T16:07:55Z</time></trkpt><trkpt lat="48.86405859204411" lon="1.9858915872645484"><ele>119.0</ele><time>2026-04-24T16:07:56Z</time></trkpt><trkpt lat="48.86409647924378" lon="1.9858043785776427"><ele>118.83333333333333</ele><time>2026-04-24T16:07:57Z</time></trkpt><trkpt lat="48.86411802046004" lon="1.9857001015088653"><ele>118.66666666666666</ele><time>2026-04-24T16:07:58Z</time></trkpt><trkpt lat="48.864132986622955" lon="1.9855013245371058"><ele>118.5</ele><time>2026-04-24T16:08:00Z</time></trkpt><trkpt lat="48.864158542315444" lon="1.9854097823720527"><ele>118.33333333333334</ele><time>2026-04-24T16:08:01Z</time></trkpt><trkpt lat="48.86418603298495" lon="1.9853200936027497"><ele>118.16666666666667</ele><time>2026-04-24T16:08:02Z</time></trkpt><trkpt lat="48.864229073475364" lon="1.9851572755234963"><ele>118.0</ele><time>2026-04-24T16:08:04Z</time></trkpt><trkpt lat="48.864265070628576" lon="1.9849880497652224"><ele>118.60000000000001</ele><time>2026-04-24T16:08:06Z</time></trkpt><trkpt lat="48.86430471739495" lon="1.9848291712755488"><ele>119.20000000000002</ele><time>2026-04-24T16:08:08Z</time></trkpt><trkpt lat="48.86433647247962" lon="1.9846727002511988"><ele>119.8</ele><time>2026-04-24T16:08:10Z</time></trkpt><trkpt lat="48.86437787467838" lon="1.9845318173559576"><ele>120.4</ele><time>2026-04-24T16:08:12Z</time></trkpt><trkpt lat="48.864412308279775" lon="1.9843626729740529"><ele>121.0</ele><time>2026-04-24T16:08:14Z</time></trkpt><trkpt lat="48.86445415387184" lon="1.9841947356996767"><ele>121.19999999999999</ele><time>2026-04-24T16:08:16Z</time></trkpt><trkpt lat="48.86449098212451" lon="1.984027630918054"><ele>121.39999999999999</ele><time>2026-04-24T16:08:17.999Z</time></trkpt><trkpt lat="48.86453071013486" lon="1.9838699770793684"><ele>121.6</ele><time>2026-04-24T16:08:19.999Z</time></trkpt><trkpt lat="48.86456412704033" lon="1.9837259733457768"><ele>121.8</ele><time>2026-04-24T16:08:21.999Z</time></trkpt><trkpt lat="48.864603657988376" lon="1.9835639922311568"><ele>122.0</ele><time>2026-04-24T16:08:23.999Z</time></trkpt><trkpt lat="48.86462193583794" lon="1.9834706771827937"><ele>122.16666666666666</ele><time>2026-04-24T16:08:24.999Z</time></trkpt><trkpt lat="48.86466980465944" lon="1.9832999059166254"><ele>122.33333333333333</ele><time>2026-04-24T16:08:26.999Z</time></trkpt><trkpt lat="48.86470361996411" lon="1.9831156031379482"><ele>122.5</ele><time>2026-04-24T16:08:28.999Z</time></trkpt><trkpt lat="48.86472213509164" lon="1.9830172263471741"><ele>122.66666666666666</ele><time>2026-04-24T16:08:29.999Z</time></trkpt><trkpt lat="48.86474197634534" lon="1.9829194766967795"><ele>122.83333333333333</ele><time>2026-04-24T16:08:30.999Z</time></trkpt><trkpt lat="48.86476578855955" lon="1.9828246017681421"><ele>123.0</ele><time>2026-04-24T16:08:31.999Z</time></trkpt><trkpt lat="48.86479235794521" lon="1.9827259569027753"><ele>123.00000000000001</ele><time>2026-04-24T16:08:32.999Z</time></trkpt><trkpt lat="48.86481890577815" lon="1.9826284112988677"><ele>123.0</ele><time>2026-04-24T16:08:33.999Z</time></trkpt><trkpt lat="48.864844269298956" lon="1.982530666342367"><ele>123.00000000000001</ele><time>2026-04-24T16:08:34.999Z</time></trkpt><trkpt lat="48.864862645983635" lon="1.9824287904883033"><ele>123.00000000000001</ele><time>2026-04-24T16:08:35.999Z</time></trkpt><trkpt lat="48.864885164770556" lon="1.9823258582305812"><ele>123.0</ele><time>2026-04-24T16:08:36.999Z</time></trkpt><trkpt lat="48.864903518361" lon="1.9822323836111244"><ele>123.00000000000001</ele><time>2026-04-24T16:08:37.999Z</time></trkpt><trkpt lat="48.86492649325026" lon="1.9821240074816042"><ele>123.00000000000001</ele><time>2026-04-24T16:08:38.999Z</time></trkpt><trkpt lat="48.864951159147566" lon="1.9820081308977084"><ele>122.66666666666667</ele><time>2026-04-24T16:08:39.999Z</time></trkpt><trkpt lat="48.86498029748645" lon="1.9818909846923585"><ele>122.33333333333334</ele><time>2026-04-24T16:08:40.999Z</time></trkpt><trkpt lat="48.86499490767413" lon="1.981775745406389"><ele>122.0</ele><time>2026-04-24T16:08:41.999Z</time></trkpt><trkpt lat="48.86501308440754" lon="1.9816547654721264"><ele>121.66666666666667</ele><time>2026-04-24T16:08:42.999Z</time></trkpt><trkpt lat="48.86503009745887" lon="1.9815317224180709"><ele>121.33333333333334</ele><time>2026-04-24T16:08:43.999Z</time></trkpt><trkpt lat="48.86503724689267" lon="1.981417171165017"><ele>121.0</ele><time>2026-04-24T16:08:44.999Z</time></trkpt><trkpt lat="48.86506184834649" lon="1.9812952318126111"><ele>120.66666666666667</ele><time>2026-04-24T16:08:45.999Z</time></trkpt><trkpt lat="48.86508297117201" lon="1.9811722462861863"><ele>120.33333333333334</ele><time>2026-04-24T16:08:46.999Z</time></trkpt><trkpt lat="48.865094024601085" lon="1.9810458077969648"><ele>120.0</ele><time>2026-04-24T16:08:47.999Z</time></trkpt><trkpt lat="48.865116906668746" lon="1.980908323107427"><ele>119.66666666666666</ele><time>2026-04-24T16:08:48.999Z</time></trkpt><trkpt lat="48.86513235857456" lon="1.9807755913113712"><ele>119.33333333333333</ele><time>2026-04-24T16:08:49.999Z</time></trkpt><trkpt lat="48.86514948328816" lon="1.980652343031605"><ele>119.0</ele><time>2026-04-24T16:08:50.999Z</time></trkpt><trkpt lat="48.86517081559447" lon="1.9805234043524491"><ele>118.99999999999999</ele><time>2026-04-24T16:08:51.999Z</time></trkpt><trkpt lat="48.86518956328393" lon="1.9803904692848662"><ele>119.0</ele><time>2026-04-24T16:08:52.999Z</time></trkpt><trkpt lat="48.86520924742677" lon="1.980260574404015"><ele>119.0</ele><time>2026-04-24T16:08:53.999Z</time></trkpt><trkpt lat="48.8652293062999" lon="1.9801371010721456"><ele>119.0</ele><time>2026-04-24T16:08:54.999Z</time></trkpt><trkpt lat="48.865243081712116" lon="1.980022940524842"><ele>118.99999999999999</ele><time>2026-04-24T16:08:55.999Z</time></trkpt><trkpt lat="48.86526262236495" lon="1.9799274736849004"><ele>119.0</ele><time>2026-04-24T16:08:56.999Z</time></trkpt><trkpt lat="48.86527545102397" lon="1.9798268541437654"><ele>118.66666666666666</ele><time>2026-04-24T16:08:57.999Z</time></trkpt><trkpt lat="48.86529752976609" lon="1.9797194886171938"><ele>118.33333333333333</ele><time>2026-04-24T16:08:58.999Z</time></trkpt><trkpt lat="48.8653105075398" lon="1.97960637425981"><ele>118.0</ele><time>2026-04-24T16:08:59.999Z</time></trkpt><trkpt lat="48.865329057655075" lon="1.9794885220022997"><ele>117.66666666666666</ele><time>2026-04-24T16:09:00.999Z</time></trkpt><trkpt lat="48.86535338031602" lon="1.9793652941916045"><ele>117.33333333333333</ele><time>2026-04-24T16:09:01.999Z</time></trkpt><trkpt lat="48.865365331458726" lon="1.979238314446006"><ele>117.0</ele><time>2026-04-24T16:09:02.999Z</time></trkpt><trkpt lat="48.865391733480635" lon="1.9791138676457796"><ele>116.5</ele><time>2026-04-24T16:09:03.999Z</time></trkpt><trkpt lat="48.86540651606368" lon="1.9789928227899913"><ele>116.0</ele><time>2026-04-24T16:09:04.999Z</time></trkpt><trkpt lat="48.8654172778486" lon="1.978865316647327"><ele>115.5</ele><time>2026-04-24T16:09:05.999Z</time></trkpt><trkpt lat="48.86542859934999" lon="1.978728631584109"><ele>115.0</ele><time>2026-04-24T16:09:06.999Z</time></trkpt><trkpt lat="48.86544357980594" lon="1.9786047131704303"><ele>114.5</ele><time>2026-04-24T16:09:07.999Z</time></trkpt><trkpt lat="48.86546802290282" lon="1.978479295128567"><ele>114.0</ele><time>2026-04-24T16:09:08.999Z</time></trkpt><trkpt lat="48.865489697026426" lon="1.9783541576960557"><ele>114.0</ele><time>2026-04-24T16:09:09.999Z</time></trkpt><trkpt lat="48.8655071353224" lon="1.9782415735135188"><ele>114.0</ele><time>2026-04-24T16:09:10.999Z</time></trkpt><trkpt lat="48.865523878383506" lon="1.9781360652617461"><ele>114.0</ele><time>2026-04-24T16:09:11.999Z</time></trkpt><trkpt lat="48.86554604653507" lon="1.9780308806878943"><ele>114.0</ele><time>2026-04-24T16:09:12.999Z</time></trkpt><trkpt lat="48.865569407859326" lon="1.9779194691917399"><ele>114.0</ele><time>2026-04-24T16:09:13.999Z</time></trkpt><trkpt lat="48.86558181814905" lon="1.9778042065044539"><ele>114.0</ele><time>2026-04-24T16:09:14.999Z</time></trkpt><trkpt lat="48.865592847673526" lon="1.9776822812056045"><ele>114.0</ele><time>2026-04-24T16:09:15.999Z</time></trkpt><trkpt lat="48.86561066317987" lon="1.9775610309443494"><ele>114.0</ele><time>2026-04-24T16:09:16.999Z</time></trkpt><trkpt lat="48.86563144069733" lon="1.9774459984846493"><ele>114.0</ele><time>2026-04-24T16:09:17.999Z</time></trkpt><trkpt lat="48.86564675050735" lon="1.9773210084795931"><ele>114.0</ele><time>2026-04-24T16:09:18.999Z</time></trkpt><trkpt lat="48.86566186883834" lon="1.9772081420983276"><ele>114.0</ele><time>2026-04-24T16:09:19.999Z</time></trkpt><trkpt lat="48.86568242273632" lon="1.9770879934365513"><ele>114.0</ele><time>2026-04-24T16:09:20.999Z</time></trkpt><trkpt lat="48.86569880667098" lon="1.9769631761154307"><ele>114.0</ele><time>2026-04-24T16:09:21.999Z</time></trkpt><trkpt lat="48.865719846952494" lon="1.9768531940914336"><ele>113.99999999999999</ele><time>2026-04-24T16:09:22.999Z</time></trkpt><trkpt lat="48.865740074796705" lon="1.9767498477989296"><ele>114.0</ele><time>2026-04-24T16:09:23.999Z</time></trkpt><trkpt lat="48.8657609412551" lon="1.9766430968107922"><ele>114.0</ele><time>2026-04-24T16:09:24.999Z</time></trkpt><trkpt lat="48.865770714848146" lon="1.976530418838795"><ele>113.99999999999999</ele><time>2026-04-24T16:09:25.999Z</time></trkpt><trkpt lat="48.86578641126886" lon="1.97641887799517"><ele>114.0</ele><time>2026-04-24T16:09:27Z</time></trkpt><trkpt lat="48.86580409051833" lon="1.976310897572135"><ele>114.0</ele><time>2026-04-24T16:09:28Z</time></trkpt><trkpt lat="48.865826280630706" lon="1.9762136529155059"><ele>114.2</ele><time>2026-04-24T16:09:29Z</time></trkpt><trkpt lat="48.86584703068061" lon="1.9761171507920452"><ele>114.4</ele><time>2026-04-24T16:09:30Z</time></trkpt><trkpt lat="48.86586443592508" lon="1.9759193569406048"><ele>114.6</ele><time>2026-04-24T16:09:32Z</time></trkpt><trkpt lat="48.86589116562301" lon="1.9757386258894567"><ele>114.8</ele><time>2026-04-24T16:09:34Z</time></trkpt><trkpt lat="48.86591823342016" lon="1.9755717552153595"><ele>115.0</ele><time>2026-04-24T16:09:36Z</time></trkpt><trkpt lat="48.865938791845025" lon="1.9754049372473703"><ele>115.6</ele><time>2026-04-24T16:09:38Z</time></trkpt><trkpt lat="48.86595675343744" lon="1.9752441680551909"><ele>116.2</ele><time>2026-04-24T16:09:40Z</time></trkpt><trkpt lat="48.86597922430585" lon="1.9750944189179855"><ele>116.80000000000001</ele><time>2026-04-24T16:09:42Z</time></trkpt><trkpt lat="48.86600539388673" lon="1.974932009578251"><ele>117.4</ele><time>2026-04-24T16:09:44Z</time></trkpt><trkpt lat="48.86602408418025" lon="1.974766699009347"><ele>118.0</ele><time>2026-04-24T16:09:46Z</time></trkpt><trkpt lat="48.866043021903614" lon="1.9746128184591691"><ele>118.4</ele><time>2026-04-24T16:09:48Z</time></trkpt><trkpt lat="48.8660663695596" lon="1.9744488617940283"><ele>118.80000000000001</ele><time>2026-04-24T16:09:50Z</time></trkpt><trkpt lat="48.866090634757825" lon="1.9742824933967407"><ele>119.2</ele><time>2026-04-24T16:09:52Z</time></trkpt><trkpt lat="48.86610780021386" lon="1.9741143836974857"><ele>119.6</ele><time>2026-04-24T16:09:54Z</time></trkpt><trkpt lat="48.866130294813175" lon="1.9739560158198322"><ele>120.0</ele><time>2026-04-24T16:09:56Z</time></trkpt><trkpt lat="48.8661576184993" lon="1.9737976352799929"><ele>120.5</ele><time>2026-04-24T16:09:58Z</time></trkpt><trkpt lat="48.86618329179985" lon="1.9736279583313905"><ele>121.0</ele><time>2026-04-24T16:10:00Z</time></trkpt><trkpt lat="48.86620982503933" lon="1.9734607834753606"><ele>121.5</ele><time>2026-04-24T16:10:02Z</time></trkpt><trkpt lat="48.86623048997038" lon="1.9732875334935756"><ele>122.0</ele><time>2026-04-24T16:10:04Z</time></trkpt><trkpt lat="48.866260277894376" lon="1.973121657408564"><ele>122.6</ele><time>2026-04-24T16:10:06Z</time></trkpt><trkpt lat="48.866283477104986" lon="1.9729547872060555"><ele>123.19999999999999</ele><time>2026-04-24T16:10:08Z</time></trkpt><trkpt lat="48.866305321592314" lon="1.9727897632247289"><ele>123.8</ele><time>2026-04-24T16:10:10Z</time></trkpt><trkpt lat="48.86633023066629" lon="1.9726252759628473"><ele>124.4</ele><time>2026-04-24T16:10:12Z</time></trkpt><trkpt lat="48.866348329501605" lon="1.9724737565840664"><ele>125.0</ele><time>2026-04-24T16:10:14Z</time></trkpt><trkpt lat="48.866375805785786" lon="1.972356698728855"><ele>124.99999999999999</ele><time>2026-04-24T16:10:16Z</time></trkpt><trkpt lat="48.86636147810064" lon="1.9722324489194207"><ele>125.0</ele><time>2026-04-24T16:10:18Z</time></trkpt><trkpt lat="48.86636322051966" lon="1.9721190990566588"><ele>125.0</ele><time>2026-04-24T16:10:20Z</time></trkpt><trkpt lat="48.86638750492513" lon="1.9719687164567221"><ele>125.0</ele><time>2026-04-24T16:10:22Z</time></trkpt><trkpt lat="48.86641590514471" lon="1.971802385380477"><ele>124.99999999999999</ele><time>2026-04-24T16:10:23.999Z</time></trkpt><trkpt lat="48.86643250706779" lon="1.9717024059446442"><ele>125.0</ele><time>2026-04-24T16:10:24.999Z</time></trkpt><trkpt lat="48.86645128944816" lon="1.971610260389278"><ele>124.99999999999999</ele><time>2026-04-24T16:10:25.999Z</time></trkpt><trkpt lat="48.866484410331076" lon="1.9714187919399222"><ele>125.0</ele><time>2026-04-24T16:10:27.999Z</time></trkpt><trkpt lat="48.866497585837514" lon="1.971320985804198"><ele>125.0</ele><time>2026-04-24T16:10:28.999Z</time></trkpt><trkpt lat="48.86651082240633" lon="1.9712140786104326"><ele>125.0</ele><time>2026-04-24T16:10:29.999Z</time></trkpt><trkpt lat="48.86652776799791" lon="1.97110351172052"><ele>124.99999999999999</ele><time>2026-04-24T16:10:30.999Z</time></trkpt><trkpt lat="48.866544954145816" lon="1.9709880793337653"><ele>125.0</ele><time>2026-04-24T16:10:31.999Z</time></trkpt><trkpt lat="48.866562923428134" lon="1.970861383622305"><ele>125.16666666666666</ele><time>2026-04-24T16:10:32.999Z</time></trkpt><trkpt lat="48.86658311197692" lon="1.9707371384727523"><ele>125.33333333333333</ele><time>2026-04-24T16:10:33.999Z</time></trkpt><trkpt lat="48.86660140522112" lon="1.970607554604064"><ele>125.5</ele><time>2026-04-24T16:10:34.999Z</time></trkpt><trkpt lat="48.86662074918165" lon="1.9704827294334573"><ele>125.66666666666666</ele><time>2026-04-24T16:10:35.999Z</time></trkpt><trkpt lat="48.86664443297167" lon="1.9703528705358901"><ele>125.83333333333333</ele><time>2026-04-24T16:10:36.999Z</time></trkpt><trkpt lat="48.86666172225893" lon="1.970225454283288"><ele>126.0</ele><time>2026-04-24T16:10:37.999Z</time></trkpt><trkpt lat="48.86667799774287" lon="1.970099799273317"><ele>126.0</ele><time>2026-04-24T16:10:38.999Z</time></trkpt><trkpt lat="48.866692838502885" lon="1.9699696295900158"><ele>126.0</ele><time>2026-04-24T16:10:39.999Z</time></trkpt><trkpt lat="48.866707750175266" lon="1.9698508803111918"><ele>126.0</ele><time>2026-04-24T16:10:40.999Z</time></trkpt><trkpt lat="48.866728102523965" lon="1.969733164242629"><ele>126.0</ele><time>2026-04-24T16:10:41.999Z</time></trkpt><trkpt lat="48.86675112523346" lon="1.9696198047144917"><ele>126.0</ele><time>2026-04-24T16:10:42.999Z</time></trkpt><trkpt lat="48.866772253414126" lon="1.9695029205375136"><ele>126.0</ele><time>2026-04-24T16:10:43.999Z</time></trkpt><trkpt lat="48.86678926911889" lon="1.9693839310320735"><ele>126.33333333333333</ele><time>2026-04-24T16:10:44.999Z</time></trkpt><trkpt lat="48.866810428268586" lon="1.969266502621575"><ele>126.66666666666666</ele><time>2026-04-24T16:10:45.999Z</time></trkpt><trkpt lat="48.86682412989618" lon="1.9691514595371944"><ele>127.0</ele><time>2026-04-24T16:10:46.999Z</time></trkpt><trkpt lat="48.866835266417745" lon="1.9690344192625686"><ele>127.33333333333333</ele><time>2026-04-24T16:10:47.999Z</time></trkpt><trkpt lat="48.86685092773251" lon="1.9689191649666498"><ele>127.66666666666666</ele><time>2026-04-24T16:10:48.999Z</time></trkpt><trkpt lat="48.866869296371874" lon="1.9688053552132103"><ele>128.0</ele><time>2026-04-24T16:10:49.999Z</time></trkpt><trkpt lat="48.8668878431209" lon="1.9686896489886279"><ele>127.99999999999999</ele><time>2026-04-24T16:10:50.999Z</time></trkpt><trkpt lat="48.86690587978655" lon="1.9685826301375202"><ele>128.0</ele><time>2026-04-24T16:10:51.999Z</time></trkpt><trkpt lat="48.866924719205095" lon="1.9684694928037654"><ele>128.0</ele><time>2026-04-24T16:10:52.999Z</time></trkpt><trkpt lat="48.866945590524345" lon="1.9683569885020076"><ele>128.0</ele><time>2026-04-24T16:10:53.999Z</time></trkpt><trkpt lat="48.86696429847151" lon="1.9682493105244794"><ele>127.99999999999999</ele><time>2026-04-24T16:10:54.999Z</time></trkpt><trkpt lat="48.86698019800577" lon="1.9681360935054004"><ele>128.0</ele><time>2026-04-24T16:10:55.999Z</time></trkpt><trkpt lat="48.86699460324742" lon="1.9680208617980488"><ele>127.71428571428571</ele><time>2026-04-24T16:10:56.999Z</time></trkpt><trkpt lat="48.86700808383877" lon="1.9679071394139325"><ele>127.42857142857142</ele><time>2026-04-24T16:10:57.999Z</time></trkpt><trkpt lat="48.86702070316648" lon="1.9677973208350221"><ele>127.14285714285714</ele><time>2026-04-24T16:10:58.999Z</time></trkpt><trkpt lat="48.867038383826944" lon="1.9676828509872626"><ele>126.85714285714286</ele><time>2026-04-24T16:10:59.999Z</time></trkpt><trkpt lat="48.86705587828828" lon="1.9675783124896267"><ele>126.57142857142857</ele><time>2026-04-24T16:11:00.999Z</time></trkpt><trkpt lat="48.86706790853108" lon="1.9674656269287514"><ele>126.28571428571428</ele><time>2026-04-24T16:11:01.999Z</time></trkpt><trkpt lat="48.86708685865467" lon="1.9673574712004562"><ele>126.0</ele><time>2026-04-24T16:11:02.999Z</time></trkpt><trkpt lat="48.86710965603507" lon="1.9672431472414615"><ele>126.0</ele><time>2026-04-24T16:11:03.999Z</time></trkpt><trkpt lat="48.86713679059808" lon="1.9671385119160205"><ele>126.0</ele><time>2026-04-24T16:11:04.999Z</time></trkpt><trkpt lat="48.86717243898413" lon="1.9670340681686829"><ele>126.0</ele><time>2026-04-24T16:11:05.999Z</time></trkpt><trkpt lat="48.867207565690585" lon="1.9669408026561461"><ele>126.0</ele><time>2026-04-24T16:11:06.999Z</time></trkpt><trkpt lat="48.86724854457358" lon="1.9668466866117535"><ele>126.0</ele><time>2026-04-24T16:11:07.999Z</time></trkpt><trkpt lat="48.867287058195984" lon="1.9667493874907649"><ele>126.0</ele><time>2026-04-24T16:11:08.999Z</time></trkpt><trkpt lat="48.86733362872505" lon="1.9666581447990215"><ele>126.0</ele><time>2026-04-24T16:11:09.999Z</time></trkpt><trkpt lat="48.86737880867112" lon="1.9665650321355008"><ele>126.0</ele><time>2026-04-24T16:11:10.999Z</time></trkpt><trkpt lat="48.86742380736318" lon="1.966470182046398"><ele>126.0</ele><time>2026-04-24T16:11:11.999Z</time></trkpt><trkpt lat="48.867469587863205" lon="1.9663760908772787"><ele>126.0</ele><time>2026-04-24T16:11:12.999Z</time></trkpt><trkpt lat="48.86751328094811" lon="1.9662772577098222"><ele>126.0</ele><time>2026-04-24T16:11:13.999Z</time></trkpt><trkpt lat="48.86755999716069" lon="1.9661791801957675"><ele>126.0</ele><time>2026-04-24T16:11:14.999Z</time></trkpt><trkpt lat="48.867602023455674" lon="1.966077672746801"><ele>126.0</ele><time>2026-04-24T16:11:15.999Z</time></trkpt><trkpt lat="48.86764588512763" lon="1.9659827036712623"><ele>125.83333333333333</ele><time>2026-04-24T16:11:16.999Z</time></trkpt><trkpt lat="48.86769509495692" lon="1.965893034539984"><ele>125.66666666666666</ele><time>2026-04-24T16:11:17.999Z</time></trkpt><trkpt lat="48.867742667850244" lon="1.965799502376716"><ele>125.5</ele><time>2026-04-24T16:11:18.999Z</time></trkpt><trkpt lat="48.867789981194115" lon="1.9657087830547644"><ele>125.33333333333333</ele><time>2026-04-24T16:11:19.999Z</time></trkpt><trkpt lat="48.8678430345035" lon="1.965616573725066"><ele>125.16666666666666</ele><time>2026-04-24T16:11:20.999Z</time></trkpt><trkpt lat="48.867891996717944" lon="1.9655224512222529"><ele>125.0</ele><time>2026-04-24T16:11:21.999Z</time></trkpt><trkpt lat="48.867940573169186" lon="1.9654246247950102"><ele>124.99999999999999</ele><time>2026-04-24T16:11:22.999Z</time></trkpt><trkpt lat="48.86798599441123" lon="1.9653233040357934"><ele>125.0</ele><time>2026-04-24T16:11:23.999Z</time></trkpt><trkpt lat="48.868030598223285" lon="1.9652175107452037"><ele>125.0</ele><time>2026-04-24T16:11:24.999Z</time></trkpt><trkpt lat="48.86807695800181" lon="1.9651109283501536"><ele>125.0</ele><time>2026-04-24T16:11:25.999Z</time></trkpt><trkpt lat="48.868123843738566" lon="1.9650056410285766"><ele>124.99999999999999</ele><time>2026-04-24T16:11:26.999Z</time></trkpt><trkpt lat="48.86816769276728" lon="1.9648973974337824"><ele>125.0</ele><time>2026-04-24T16:11:27.999Z</time></trkpt><trkpt lat="48.86821512456538" lon="1.9647850496962886"><ele>124.66666666666666</ele><time>2026-04-24T16:11:28.999Z</time></trkpt><trkpt lat="48.86826081530994" lon="1.9646711883796506"><ele>124.33333333333333</ele><time>2026-04-24T16:11:29.999Z</time></trkpt><trkpt lat="48.868303232182576" lon="1.9645622317660443"><ele>124.0</ele><time>2026-04-24T16:11:30.999Z</time></trkpt><trkpt lat="48.86835127418746" lon="1.9644556227313912"><ele>123.66666666666666</ele><time>2026-04-24T16:11:31.999Z</time></trkpt><trkpt lat="48.86840046638172" lon="1.9643490225321845"><ele>123.33333333333333</ele><time>2026-04-24T16:11:33Z</time></trkpt><trkpt lat="48.868448593670955" lon="1.964243374295687"><ele>123.0</ele><time>2026-04-24T16:11:34Z</time></trkpt><trkpt lat="48.86849978974964" lon="1.9641411454982955"><ele>122.5</ele><time>2026-04-24T16:11:35Z</time></trkpt><trkpt lat="48.868549335289885" lon="1.9640336379185364"><ele>122.0</ele><time>2026-04-24T16:11:36Z</time></trkpt><trkpt lat="48.868601172834204" lon="1.9639259953013217"><ele>121.5</ele><time>2026-04-24T16:11:37Z</time></trkpt><trkpt lat="48.86864791122999" lon="1.9638202721847333"><ele>121.0</ele><time>2026-04-24T16:11:38Z</time></trkpt><trkpt lat="48.86869774810634" lon="1.9637133641308944"><ele>120.5</ele><time>2026-04-24T16:11:39Z</time></trkpt><trkpt lat="48.86874880440397" lon="1.9636094720023847"><ele>120.0</ele><time>2026-04-24T16:11:40Z</time></trkpt><trkpt lat="48.86880005614532" lon="1.9635178895765286"><ele>120.0</ele><time>2026-04-24T16:11:41Z</time></trkpt><trkpt lat="48.86886194147435" lon="1.963431931761529"><ele>120.0</ele><time>2026-04-24T16:11:42Z</time></trkpt><trkpt lat="48.8689318362851" lon="1.9633577711640227"><ele>120.0</ele><time>2026-04-24T16:11:43Z</time></trkpt><trkpt lat="48.8690000964916" lon="1.963281752544841"><ele>120.0</ele><time>2026-04-24T16:11:44Z</time></trkpt><trkpt lat="48.869056697670416" lon="1.9631909626209754"><ele>120.0</ele><time>2026-04-24T16:11:45Z</time></trkpt><trkpt lat="48.869085692790975" lon="1.9630706214516034"><ele>120.0</ele><time>2026-04-24T16:11:46Z</time></trkpt><trkpt lat="48.86909894567157" lon="1.9629394972011842"><ele>119.66666666666667</ele><time>2026-04-24T16:11:47Z</time></trkpt><trkpt lat="48.86911530592581" lon="1.9628154347231397"><ele>119.33333333333334</ele><time>2026-04-24T16:11:48Z</time></trkpt><trkpt lat="48.869154415677386" lon="1.962702695594807"><ele>119.0</ele><time>2026-04-24T16:11:49Z</time></trkpt><trkpt lat="48.86920931790741" lon="1.9626031652839595"><ele>118.66666666666667</ele><time>2026-04-24T16:11:50Z</time></trkpt><trkpt lat="48.86926208923757" lon="1.9625009362822734"><ele>118.33333333333334</ele><time>2026-04-24T16:11:51Z</time></trkpt><trkpt lat="48.869311577103474" lon="1.9623918006494803"><ele>118.0</ele><time>2026-04-24T16:11:52Z</time></trkpt><trkpt lat="48.86936255302346" lon="1.962284412803146"><ele>117.66666666666667</ele><time>2026-04-24T16:11:53Z</time></trkpt><trkpt lat="48.8694104403297" lon="1.9621742803732425"><ele>117.33333333333334</ele><time>2026-04-24T16:11:54Z</time></trkpt><trkpt lat="48.869459949749505" lon="1.9620632891639176"><ele>117.0</ele><time>2026-04-24T16:11:55Z</time></trkpt><trkpt lat="48.86951244234302" lon="1.9619500821942024"><ele>116.66666666666666</ele><time>2026-04-24T16:11:56Z</time></trkpt><trkpt lat="48.86955893368839" lon="1.9618395988791482"><ele>116.33333333333333</ele><time>2026-04-24T16:11:57Z</time></trkpt><trkpt lat="48.869607567313594" lon="1.9617244973153853"><ele>116.0</ele><time>2026-04-24T16:11:58Z</time></trkpt><trkpt lat="48.86965454041151" lon="1.9616157710121442"><ele>115.99999999999999</ele><time>2026-04-24T16:11:59Z</time></trkpt><trkpt lat="48.86970465480369" lon="1.9615034053355243"><ele>116.0</ele><time>2026-04-24T16:12:00Z</time></trkpt><trkpt lat="48.86975580937022" lon="1.9613964772439738"><ele>116.0</ele><time>2026-04-24T16:12:01Z</time></trkpt><trkpt lat="48.86980911792033" lon="1.9612893925370776"><ele>116.0</ele><time>2026-04-24T16:12:02Z</time></trkpt><trkpt lat="48.869861332861234" lon="1.9611851362920616"><ele>115.99999999999999</ele><time>2026-04-24T16:12:03Z</time></trkpt><trkpt lat="48.869913404783276" lon="1.9610760902627498"><ele>116.0</ele><time>2026-04-24T16:12:04Z</time></trkpt><trkpt lat="48.86996618105641" lon="1.9609652787792802"><ele>115.99999999999999</ele><time>2026-04-24T16:12:05Z</time></trkpt><trkpt lat="48.87001511767742" lon="1.96085554092923"><ele>116.0</ele><time>2026-04-24T16:12:06Z</time></trkpt><trkpt lat="48.87006697780567" lon="1.9607420417742691"><ele>116.0</ele><time>2026-04-24T16:12:07Z</time></trkpt><trkpt lat="48.870112638279004" lon="1.9606292805990684"><ele>116.0</ele><time>2026-04-24T16:12:08Z</time></trkpt><trkpt lat="48.87016623030303" lon="1.9605201686144849"><ele>115.99999999999999</ele><time>2026-04-24T16:12:09Z</time></trkpt><trkpt lat="48.87021932001442" lon="1.9604124361231992"><ele>116.0</ele><time>2026-04-24T16:12:10Z</time></trkpt><trkpt lat="48.87026828898856" lon="1.960306409342529"><ele>115.83333333333333</ele><time>2026-04-24T16:12:11Z</time></trkpt><trkpt lat="48.870318350721774" lon="1.9601955479222912"><ele>115.66666666666666</ele><time>2026-04-24T16:12:12Z</time></trkpt><trkpt lat="48.87036565278148" lon="1.9600832716504664"><ele>115.5</ele><time>2026-04-24T16:12:13Z</time></trkpt><trkpt lat="48.87041656108944" lon="1.9599719310899981"><ele>115.33333333333334</ele><time>2026-04-24T16:12:14Z</time></trkpt><trkpt lat="48.870470384964925" lon="1.9598633177765057"><ele>115.16666666666667</ele><time>2026-04-24T16:12:15Z</time></trkpt><trkpt lat="48.870520857985774" lon="1.9597548937139824"><ele>115.0</ele><time>2026-04-24T16:12:16Z</time></trkpt><trkpt lat="48.870570680448104" lon="1.9596456791481272"><ele>115.00000000000001</ele><time>2026-04-24T16:12:17Z</time></trkpt><trkpt lat="48.870621559851486" lon="1.95953414176557"><ele>115.0</ele><time>2026-04-24T16:12:18Z</time></trkpt><trkpt lat="48.870669557389384" lon="1.959425447567362"><ele>115.0</ele><time>2026-04-24T16:12:19Z</time></trkpt><trkpt lat="48.87072458555022" lon="1.9593109885960294"><ele>115.0</ele><time>2026-04-24T16:12:20Z</time></trkpt><trkpt lat="48.87078011382292" lon="1.9592031330467168"><ele>115.00000000000001</ele><time>2026-04-24T16:12:21Z</time></trkpt><trkpt lat="48.87082806758976" lon="1.9590895160721706"><ele>115.0</ele><time>2026-04-24T16:12:22Z</time></trkpt><trkpt lat="48.87087714789479" lon="1.958972096299957"><ele>115.0</ele><time>2026-04-24T16:12:23Z</time></trkpt><trkpt lat="48.87093049780287" lon="1.9588570495401036"><ele>115.0</ele><time>2026-04-24T16:12:24Z</time></trkpt><trkpt lat="48.870984721202504" lon="1.9587466216412368"><ele>115.0</ele><time>2026-04-24T16:12:25Z</time></trkpt><trkpt lat="48.871036714325996" lon="1.9586340550872456"><ele>115.0</ele><time>2026-04-24T16:12:26Z</time></trkpt><trkpt lat="48.871086092048785" lon="1.9585219929538253"><ele>115.0</ele><time>2026-04-24T16:12:27Z</time></trkpt><trkpt lat="48.87113718790062" lon="1.9584135610154354"><ele>115.00000000000001</ele><time>2026-04-24T16:12:28Z</time></trkpt><trkpt lat="48.8711909853591" lon="1.9583023448294192"><ele>115.0</ele><time>2026-04-24T16:12:29Z</time></trkpt><trkpt lat="48.871242772668694" lon="1.9581995692475929"><ele>115.0</ele><time>2026-04-24T16:12:29.999Z</time></trkpt><trkpt lat="48.87129050492024" lon="1.9580956785024606"><ele>115.0</ele><time>2026-04-24T16:12:30.999Z</time></trkpt><trkpt lat="48.87133602358267" lon="1.9579889453678532"><ele>115.00000000000001</ele><time>2026-04-24T16:12:31.999Z</time></trkpt><trkpt lat="48.871387039238385" lon="1.9578839892062092"><ele>115.0</ele><time>2026-04-24T16:12:32.999Z</time></trkpt><trkpt lat="48.8714324473411" lon="1.9577830846155921"><ele>115.00000000000001</ele><time>2026-04-24T16:12:33.999Z</time></trkpt><trkpt lat="48.87148728882903" lon="1.9576785412935236"><ele>115.0</ele><time>2026-04-24T16:12:34.999Z</time></trkpt><trkpt lat="48.871530284528596" lon="1.9575760092175871"><ele>115.0</ele><time>2026-04-24T16:12:35.999Z</time></trkpt><trkpt lat="48.87157941931376" lon="1.9574723097825628"><ele>115.0</ele><time>2026-04-24T16:12:36.999Z</time></trkpt><trkpt lat="48.871627323341094" lon="1.9573690743653787"><ele>115.00000000000001</ele><time>2026-04-24T16:12:37.999Z</time></trkpt><trkpt lat="48.8716760399087" lon="1.9572676046338902"><ele>115.0</ele><time>2026-04-24T16:12:38.999Z</time></trkpt><trkpt lat="48.871724605273144" lon="1.9571650464002264"><ele>115.33333333333334</ele><time>2026-04-24T16:12:39.999Z</time></trkpt><trkpt lat="48.871769632156386" lon="1.957068527458314"><ele>115.66666666666667</ele><time>2026-04-24T16:12:40.999Z</time></trkpt><trkpt lat="48.871814397340906" lon="1.9569657099271616"><ele>116.0</ele><time>2026-04-24T16:12:41.999Z</time></trkpt><trkpt lat="48.871858950510926" lon="1.9568679261990438"><ele>116.33333333333334</ele><time>2026-04-24T16:12:42.999Z</time></trkpt><trkpt lat="48.87190220625968" lon="1.956770481075128"><ele>116.66666666666667</ele><time>2026-04-24T16:12:43.999Z</time></trkpt><trkpt lat="48.87194942729447" lon="1.9566757578430678"><ele>117.0</ele><time>2026-04-24T16:12:44.999Z</time></trkpt><trkpt lat="48.87199601177218" lon="1.9565750317976023"><ele>117.16666666666667</ele><time>2026-04-24T16:12:45.999Z</time></trkpt><trkpt lat="48.87204323993724" lon="1.9564759175910893"><ele>117.33333333333334</ele><time>2026-04-24T16:12:46.999Z</time></trkpt><trkpt lat="48.87209096732633" lon="1.9563760832096433"><ele>117.5</ele><time>2026-04-24T16:12:47.999Z</time></trkpt><trkpt lat="48.872137581038736" lon="1.9562739146272314"><ele>117.66666666666667</ele><time>2026-04-24T16:12:48.999Z</time></trkpt><trkpt lat="48.872185597000794" lon="1.95617335896608"><ele>117.83333333333334</ele><time>2026-04-24T16:12:49.999Z</time></trkpt><trkpt lat="48.872233555498966" lon="1.9560717264216796"><ele>118.0</ele><time>2026-04-24T16:12:50.999Z</time></trkpt><trkpt lat="48.8722770849893" lon="1.9559697781677678"><ele>118.00000000000001</ele><time>2026-04-24T16:12:51.999Z</time></trkpt><trkpt lat="48.872330376401436" lon="1.9558644404532548"><ele>118.0</ele><time>2026-04-24T16:12:52.999Z</time></trkpt><trkpt lat="48.872373867894225" lon="1.9557598257181203"><ele>118.0</ele><time>2026-04-24T16:12:53.999Z</time></trkpt><trkpt lat="48.87242222457316" lon="1.9556559791142385"><ele>118.0</ele><time>2026-04-24T16:12:54.999Z</time></trkpt><trkpt lat="48.87247017140509" lon="1.9555551152007027"><ele>118.00000000000001</ele><time>2026-04-24T16:12:55.999Z</time></trkpt><trkpt lat="48.87251572683124" lon="1.955454551395781"><ele>118.0</ele><time>2026-04-24T16:12:56.999Z</time></trkpt><trkpt lat="48.87256213921911" lon="1.9553497461996259"><ele>118.00000000000001</ele><time>2026-04-24T16:12:57.999Z</time></trkpt><trkpt lat="48.872610625408534" lon="1.955248990470912"><ele>118.0</ele><time>2026-04-24T16:12:58.999Z</time></trkpt><trkpt lat="48.87265705913789" lon="1.9551451232419574"><ele>118.0</ele><time>2026-04-24T16:12:59.999Z</time></trkpt><trkpt lat="48.87271132280229" lon="1.9550394244660425"><ele>118.0</ele><time>2026-04-24T16:13:00.999Z</time></trkpt><trkpt lat="48.87275791703196" lon="1.954933307842398"><ele>118.00000000000001</ele><time>2026-04-24T16:13:01.999Z</time></trkpt><trkpt lat="48.872805678896846" lon="1.9548249659391865"><ele>118.0</ele><time>2026-04-24T16:13:02.999Z</time></trkpt><trkpt lat="48.872854074791874" lon="1.9547184850339"><ele>117.83333333333334</ele><time>2026-04-24T16:13:03.999Z</time></trkpt><trkpt lat="48.872900199838696" lon="1.954614110270118"><ele>117.66666666666667</ele><time>2026-04-24T16:13:04.999Z</time></trkpt><trkpt lat="48.872948980496346" lon="1.954509510645633"><ele>117.5</ele><time>2026-04-24T16:13:05.999Z</time></trkpt><trkpt lat="48.87299713318548" lon="1.9544069333547751"><ele>117.33333333333334</ele><time>2026-04-24T16:13:06.999Z</time></trkpt><trkpt lat="48.873045145176825" lon="1.9543054293970064"><ele>117.16666666666667</ele><time>2026-04-24T16:13:07.999Z</time></trkpt><trkpt lat="48.87309389149994" lon="1.9542055731032772"><ele>117.0</ele><time>2026-04-24T16:13:08.999Z</time></trkpt><trkpt lat="48.87313743232268" lon="1.954103498140317"><ele>117.0</ele><time>2026-04-24T16:13:09.999Z</time></trkpt><trkpt lat="48.87318361450349" lon="1.9540014407549327"><ele>117.0</ele><time>2026-04-24T16:13:10.999Z</time></trkpt><trkpt lat="48.873230528142244" lon="1.953900003249156"><ele>117.0</ele><time>2026-04-24T16:13:11.999Z</time></trkpt><trkpt lat="48.87327787206759" lon="1.9538030232299637"><ele>117.0</ele><time>2026-04-24T16:13:12.999Z</time></trkpt><trkpt lat="48.87332652288222" lon="1.953704605551555"><ele>117.0</ele><time>2026-04-24T16:13:13.999Z</time></trkpt><trkpt lat="48.87337217333566" lon="1.9536039846605864"><ele>117.0</ele><time>2026-04-24T16:13:14.999Z</time></trkpt><trkpt lat="48.873419591953905" lon="1.953504867655029"><ele>117.33333333333333</ele><time>2026-04-24T16:13:15.999Z</time></trkpt><trkpt lat="48.87346707354731" lon="1.9534029487643108"><ele>117.66666666666666</ele><time>2026-04-24T16:13:16.999Z</time></trkpt><trkpt lat="48.873511928063124" lon="1.9533033801720456"><ele>118.0</ele><time>2026-04-24T16:13:17.999Z</time></trkpt><trkpt lat="48.873557746852924" lon="1.9532040180621022"><ele>118.33333333333333</ele><time>2026-04-24T16:13:18.999Z</time></trkpt><trkpt lat="48.873603156513234" lon="1.9531097276949356"><ele>118.66666666666666</ele><time>2026-04-24T16:13:19.999Z</time></trkpt><trkpt lat="48.87365006588898" lon="1.9530122835241945"><ele>119.0</ele><time>2026-04-24T16:13:20.999Z</time></trkpt><trkpt lat="48.87369638716524" lon="1.9529189743388131"><ele>118.99999999999999</ele><time>2026-04-24T16:13:21.999Z</time></trkpt><trkpt lat="48.873734823399666" lon="1.952824205280161"><ele>119.0</ele><time>2026-04-24T16:13:22.999Z</time></trkpt><trkpt lat="48.87378336990519" lon="1.952724461565247"><ele>119.0</ele><time>2026-04-24T16:13:23.999Z</time></trkpt><trkpt lat="48.87382751139091" lon="1.9526284855454032"><ele>119.0</ele><time>2026-04-24T16:13:24.999Z</time></trkpt><trkpt lat="48.87386696624379" lon="1.9525336957025459"><ele>118.99999999999999</ele><time>2026-04-24T16:13:25.999Z</time></trkpt><trkpt lat="48.873917055612466" lon="1.9524308415308804"><ele>119.0</ele><time>2026-04-24T16:13:26.999Z</time></trkpt><trkpt lat="48.87396291558206" lon="1.9523310767706874"><ele>118.99999999999999</ele><time>2026-04-24T16:13:27.999Z</time></trkpt><trkpt lat="48.87401042673044" lon="1.952231771498224"><ele>119.0</ele><time>2026-04-24T16:13:28.999Z</time></trkpt><trkpt lat="48.87405778951216" lon="1.9521312406464455"><ele>119.0</ele><time>2026-04-24T16:13:29.999Z</time></trkpt><trkpt lat="48.874100842493576" lon="1.9520326646350235"><ele>119.0</ele><time>2026-04-24T16:13:30.999Z</time></trkpt><trkpt lat="48.874149967535665" lon="1.9519351380393815"><ele>118.99999999999999</ele><time>2026-04-24T16:13:31.999Z</time></trkpt><trkpt lat="48.87419960688541" lon="1.9518369403631295"><ele>119.0</ele><time>2026-04-24T16:13:32.999Z</time></trkpt><trkpt lat="48.8742451041172" lon="1.9517372815505323"><ele>119.16666666666666</ele><time>2026-04-24T16:13:33.999Z</time></trkpt><trkpt lat="48.87428795189176" lon="1.951642964195444"><ele>119.33333333333333</ele><time>2026-04-24T16:13:34.999Z</time></trkpt><trkpt lat="48.87433616755595" lon="1.9515421231122576"><ele>119.5</ele><time>2026-04-24T16:13:35.999Z</time></trkpt><trkpt lat="48.87438067330866" lon="1.9514455503934698"><ele>119.66666666666666</ele><time>2026-04-24T16:13:36.999Z</time></trkpt><trkpt lat="48.874424470732045" lon="1.9513468647222512"><ele>119.83333333333333</ele><time>2026-04-24T16:13:37.999Z</time></trkpt><trkpt lat="48.87447034698849" lon="1.9512465412303577"><ele>120.0</ele><time>2026-04-24T16:13:39Z</time></trkpt><trkpt lat="48.87451517744931" lon="1.9511476384155262"><ele>120.0</ele><time>2026-04-24T16:13:40Z</time></trkpt><trkpt lat="48.874557263483595" lon="1.9510463993300273"><ele>120.0</ele><time>2026-04-24T16:13:41Z</time></trkpt><trkpt lat="48.874606966654696" lon="1.9509505494114496"><ele>120.0</ele><time>2026-04-24T16:13:42Z</time></trkpt><trkpt lat="48.87465702840529" lon="1.950854255106089"><ele>120.0</ele><time>2026-04-24T16:13:43Z</time></trkpt><trkpt lat="48.87470275733275" lon="1.9507558371696945"><ele>120.0</ele><time>2026-04-24T16:13:44Z</time></trkpt><trkpt lat="48.87474657989365" lon="1.950657562266584"><ele>120.0</ele><time>2026-04-24T16:13:45Z</time></trkpt><trkpt lat="48.87479102383406" lon="1.9505560387528609"><ele>119.66666666666667</ele><time>2026-04-24T16:13:46Z</time></trkpt><trkpt lat="48.874838862893974" lon="1.9504507412595307"><ele>119.33333333333334</ele><time>2026-04-24T16:13:47Z</time></trkpt><trkpt lat="48.87488721036132" lon="1.9503493727429009"><ele>119.0</ele><time>2026-04-24T16:13:48Z</time></trkpt><trkpt lat="48.874932319898846" lon="1.9502504731292476"><ele>118.66666666666667</ele><time>2026-04-24T16:13:49Z</time></trkpt><trkpt lat="48.874979194673436" lon="1.950151231080793"><ele>118.33333333333334</ele><time>2026-04-24T16:13:50Z</time></trkpt><trkpt lat="48.87502456779918" lon="1.9500499599483105"><ele>118.0</ele><time>2026-04-24T16:13:51Z</time></trkpt><trkpt lat="48.87507341005916" lon="1.9499482992648194"><ele>117.83333333333334</ele><time>2026-04-24T16:13:52Z</time></trkpt><trkpt lat="48.87512429573006" lon="1.9498425248106481"><ele>117.66666666666667</ele><time>2026-04-24T16:13:53Z</time></trkpt><trkpt lat="48.87517271019935" lon="1.949736740547754"><ele>117.5</ele><time>2026-04-24T16:13:54Z</time></trkpt><trkpt lat="48.875217756116946" lon="1.9496347997083143"><ele>117.33333333333334</ele><time>2026-04-24T16:13:55Z</time></trkpt><trkpt lat="48.87526711705094" lon="1.9495301200148696"><ele>117.16666666666667</ele><time>2026-04-24T16:13:56Z</time></trkpt><trkpt lat="48.875315494065916" lon="1.9494221625497807"><ele>117.0</ele><time>2026-04-24T16:13:57Z</time></trkpt><trkpt lat="48.875365742262574" lon="1.9493168315954803"><ele>116.83333333333333</ele><time>2026-04-24T16:13:58Z</time></trkpt><trkpt lat="48.87541402312603" lon="1.9492074314134225"><ele>116.66666666666666</ele><time>2026-04-24T16:13:59Z</time></trkpt><trkpt lat="48.87546385997614" lon="1.949101023872923"><ele>116.5</ele><time>2026-04-24T16:14:00Z</time></trkpt><trkpt lat="48.87551327089339" lon="1.9489886348262033"><ele>116.33333333333333</ele><time>2026-04-24T16:14:01Z</time></trkpt><trkpt lat="48.875564830145635" lon="1.9488791109618147"><ele>116.16666666666666</ele><time>2026-04-24T16:14:02Z</time></trkpt><trkpt lat="48.875614801380344" lon="1.9487642679350683"><ele>116.0</ele><time>2026-04-24T16:14:03Z</time></trkpt><trkpt lat="48.875670694346056" lon="1.9486470889354905"><ele>116.0</ele><time>2026-04-24T16:14:04Z</time></trkpt><trkpt lat="48.87572470777708" lon="1.9485311311109244"><ele>116.0</ele><time>2026-04-24T16:14:05Z</time></trkpt><trkpt lat="48.8757786599646" lon="1.9484213836846973"><ele>116.0</ele><time>2026-04-24T16:14:06Z</time></trkpt><trkpt lat="48.875833902239656" lon="1.9483020732124816"><ele>116.0</ele><time>2026-04-24T16:14:07Z</time></trkpt><trkpt lat="48.87589255657721" lon="1.9481833009098146"><ele>116.0</ele><time>2026-04-24T16:14:08Z</time></trkpt><trkpt lat="48.87594994337539" lon="1.9480583997797245"><ele>115.0</ele><time>2026-04-24T16:14:09Z</time></trkpt><trkpt lat="48.87600972207051" lon="1.9479313212652858"><ele>114.0</ele><time>2026-04-24T16:14:10Z</time></trkpt><trkpt lat="48.87606385959596" lon="1.9478056771718395"><ele>113.0</ele><time>2026-04-24T16:14:11Z</time></trkpt><trkpt lat="48.876122618855725" lon="1.9476774540264885"><ele>112.0</ele><time>2026-04-24T16:14:12Z</time></trkpt><trkpt lat="48.876185635566586" lon="1.9475451343553174"><ele>111.0</ele><time>2026-04-24T16:14:13Z</time></trkpt><trkpt lat="48.87624720151088" lon="1.9474127982334344"><ele>111.0</ele><time>2026-04-24T16:14:14Z</time></trkpt><trkpt lat="48.87630882768623" lon="1.9472795677764176"><ele>111.0</ele><time>2026-04-24T16:14:15Z</time></trkpt><trkpt lat="48.87636410168367" lon="1.9471457027680208"><ele>111.0</ele><time>2026-04-24T16:14:16Z</time></trkpt><trkpt lat="48.876424263390355" lon="1.9470080637818692"><ele>111.0</ele><time>2026-04-24T16:14:17Z</time></trkpt><trkpt lat="48.87648768991003" lon="1.9468742865829136"><ele>111.0</ele><time>2026-04-24T16:14:18Z</time></trkpt><trkpt lat="48.87654736321721" lon="1.9467454349215787"><ele>110.8</ele><time>2026-04-24T16:14:19Z</time></trkpt><trkpt lat="48.876607297950635" lon="1.9466178495249895"><ele>110.6</ele><time>2026-04-24T16:14:20Z</time></trkpt><trkpt lat="48.8766667517153" lon="1.94649190253398"><ele>110.4</ele><time>2026-04-24T16:14:21Z</time></trkpt><trkpt lat="48.87672639828633" lon="1.9463646547116316"><ele>110.2</ele><time>2026-04-24T16:14:22Z</time></trkpt><trkpt lat="48.87678242256274" lon="1.9462419812346459"><ele>110.0</ele><time>2026-04-24T16:14:23Z</time></trkpt><trkpt lat="48.87683642732458" lon="1.946115194670168"><ele>110.8</ele><time>2026-04-24T16:14:24Z</time></trkpt><trkpt lat="48.8768950194923" lon="1.945995360197992"><ele>111.6</ele><time>2026-04-24T16:14:25Z</time></trkpt><trkpt lat="48.8769501618459" lon="1.9458742653413803"><ele>112.4</ele><time>2026-04-24T16:14:26Z</time></trkpt><trkpt lat="48.877005810897295" lon="1.945758884439074"><ele>113.2</ele><time>2026-04-24T16:14:27Z</time></trkpt><trkpt lat="48.87706564235387" lon="1.9456465255743143"><ele>114.0</ele><time>2026-04-24T16:14:28Z</time></trkpt><trkpt lat="48.877122655726" lon="1.9455331285358428"><ele>114.0</ele><time>2026-04-24T16:14:29Z</time></trkpt><trkpt lat="48.87717951037502" lon="1.9454233529226928"><ele>114.0</ele><time>2026-04-24T16:14:30Z</time></trkpt><trkpt lat="48.87723191325464" lon="1.9453167523653805"><ele>114.0</ele><time>2026-04-24T16:14:31Z</time></trkpt><trkpt lat="48.87728519465708" lon="1.9452048808823084"><ele>114.0</ele><time>2026-04-24T16:14:32Z</time></trkpt><trkpt lat="48.87733502857093" lon="1.9451044276647582"><ele>114.0</ele><time>2026-04-24T16:14:33Z</time></trkpt><trkpt lat="48.87738811576201" lon="1.9449951640971093"><ele>114.0</ele><time>2026-04-24T16:14:34Z</time></trkpt><trkpt lat="48.8774381684156" lon="1.9448871823850316"><ele>114.0</ele><time>2026-04-24T16:14:35Z</time></trkpt><trkpt lat="48.87748481567684" lon="1.9447850894400587"><ele>114.0</ele><time>2026-04-24T16:14:36Z</time></trkpt><trkpt lat="48.87753073050415" lon="1.9446786080726473"><ele>114.0</ele><time>2026-04-24T16:14:37Z</time></trkpt><trkpt lat="48.87758192249442" lon="1.9445743319430993"><ele>114.0</ele><time>2026-04-24T16:14:38Z</time></trkpt><trkpt lat="48.877631185113415" lon="1.9444735587321265"><ele>114.0</ele><time>2026-04-24T16:14:39Z</time></trkpt><trkpt lat="48.877681953193665" lon="1.944365917758776"><ele>114.0</ele><time>2026-04-24T16:14:40Z</time></trkpt><trkpt lat="48.8777311486064" lon="1.9442585165357071"><ele>114.0</ele><time>2026-04-24T16:14:40.999Z</time></trkpt><trkpt lat="48.87777806626027" lon="1.9441476971583547"><ele>114.0</ele><time>2026-04-24T16:14:41.999Z</time></trkpt><trkpt lat="48.87782724659579" lon="1.9440380480054398"><ele>114.0</ele><time>2026-04-24T16:14:42.999Z</time></trkpt><trkpt lat="48.87787754046477" lon="1.9439326459477844"><ele>114.0</ele><time>2026-04-24T16:14:43.999Z</time></trkpt><trkpt lat="48.87792449220221" lon="1.9438322023301458"><ele>114.0</ele><time>2026-04-24T16:14:44.999Z</time></trkpt><trkpt lat="48.877973503297405" lon="1.9437288400500483"><ele>114.0</ele><time>2026-04-24T16:14:45.999Z</time></trkpt><trkpt lat="48.87802070214642" lon="1.9436221032928245"><ele>114.0</ele><time>2026-04-24T16:14:46.999Z</time></trkpt><trkpt lat="48.87806807994817" lon="1.9435144004840905"><ele>114.0</ele><time>2026-04-24T16:14:47.999Z</time></trkpt><trkpt lat="48.87811248337433" lon="1.943402274520364"><ele>114.0</ele><time>2026-04-24T16:14:48.999Z</time></trkpt><trkpt lat="48.87815885200466" lon="1.9432979701762794"><ele>114.0</ele><time>2026-04-24T16:14:49.999Z</time></trkpt><trkpt lat="48.87820761973895" lon="1.9431855908241826"><ele>114.0</ele><time>2026-04-24T16:14:50.999Z</time></trkpt><trkpt lat="48.87825745269095" lon="1.9430719952600353"><ele>114.0</ele><time>2026-04-24T16:14:51.999Z</time></trkpt><trkpt lat="48.878305926467704" lon="1.9429559057884798"><ele>114.0</ele><time>2026-04-24T16:14:52.999Z</time></trkpt><trkpt lat="48.87835988084744" lon="1.9428371131573852"><ele>114.0</ele><time>2026-04-24T16:14:53.999Z</time></trkpt><trkpt lat="48.878415893768135" lon="1.9427185821235529"><ele>114.0</ele><time>2026-04-24T16:14:54.999Z</time></trkpt><trkpt lat="48.87847245295229" lon="1.9425945145600012"><ele>114.0</ele><time>2026-04-24T16:14:55.999Z</time></trkpt><trkpt lat="48.87853020753706" lon="1.9424704368996448"><ele>114.0</ele><time>2026-04-24T16:14:56.999Z</time></trkpt><trkpt lat="48.8785869651645" lon="1.942341550368383"><ele>114.0</ele><time>2026-04-24T16:14:57.999Z</time></trkpt><trkpt lat="48.87864310215128" lon="1.9422249202549855"><ele>114.0</ele><time>2026-04-24T16:14:58.999Z</time></trkpt><trkpt lat="48.87870154124949" lon="1.9420876354486738"><ele>114.0</ele><time>2026-04-24T16:14:59.999Z</time></trkpt><trkpt lat="48.87875856527102" lon="1.9419626021821754"><ele>114.0</ele><time>2026-04-24T16:15:00.999Z</time></trkpt><trkpt lat="48.87881698207595" lon="1.9418440281119256"><ele>114.0</ele><time>2026-04-24T16:15:01.999Z</time></trkpt><trkpt lat="48.878874684365826" lon="1.9417236156187228"><ele>113.83333333333333</ele><time>2026-04-24T16:15:02.999Z</time></trkpt><trkpt lat="48.87893131791969" lon="1.941605934592903"><ele>113.66666666666666</ele><time>2026-04-24T16:15:03.999Z</time></trkpt><trkpt lat="48.878980287980774" lon="1.9414929727382195"><ele>113.5</ele><time>2026-04-24T16:15:04.999Z</time></trkpt><trkpt lat="48.879028884486964" lon="1.9413832436873728"><ele>113.33333333333333</ele><time>2026-04-24T16:15:05.999Z</time></trkpt><trkpt lat="48.879079620808945" lon="1.941281076368981"><ele>113.16666666666666</ele><time>2026-04-24T16:15:06.999Z</time></trkpt><trkpt lat="48.879128149410974" lon="1.9411777657752465"><ele>113.0</ele><time>2026-04-24T16:15:07.999Z</time></trkpt><trkpt lat="48.87917560140492" lon="1.9410773330632636"><ele>112.99999999999999</ele><time>2026-04-24T16:15:08.999Z</time></trkpt><trkpt lat="48.87921868915441" lon="1.9409783346266472"><ele>113.0</ele><time>2026-04-24T16:15:09.999Z</time></trkpt><trkpt lat="48.87926467828772" lon="1.9408750528805863"><ele>113.0</ele><time>2026-04-24T16:15:10.999Z</time></trkpt><trkpt lat="48.87930883779391" lon="1.9407752867073782"><ele>113.0</ele><time>2026-04-24T16:15:11.999Z</time></trkpt><trkpt lat="48.87935857061221" lon="1.940675596281979"><ele>112.99999999999999</ele><time>2026-04-24T16:15:12.999Z</time></trkpt><trkpt lat="48.87940381318828" lon="1.9405744622107"><ele>113.0</ele><time>2026-04-24T16:15:13.999Z</time></trkpt><trkpt lat="48.87944848355001" lon="1.9404755027522633"><ele>114.16666666666666</ele><time>2026-04-24T16:15:14.999Z</time></trkpt><trkpt lat="48.87949233880318" lon="1.940375468859836"><ele>115.33333333333333</ele><time>2026-04-24T16:15:15.999Z</time></trkpt><trkpt lat="48.87953735887675" lon="1.9402781368210886"><ele>116.5</ele><time>2026-04-24T16:15:16.999Z</time></trkpt><trkpt lat="48.87957869862344" lon="1.9401810740111054"><ele>117.66666666666666</ele><time>2026-04-24T16:15:17.999Z</time></trkpt><trkpt lat="48.87962496883802" lon="1.9400853345562983"><ele>118.83333333333333</ele><time>2026-04-24T16:15:18.999Z</time></trkpt><trkpt lat="48.87967228424463" lon="1.9399896470099427"><ele>120.0</ele><time>2026-04-24T16:15:19.999Z</time></trkpt><trkpt lat="48.87971912014273" lon="1.9398934041640103"><ele>120.16666666666667</ele><time>2026-04-24T16:15:20.999Z</time></trkpt><trkpt lat="48.87976149939515" lon="1.939799271195778"><ele>120.33333333333334</ele><time>2026-04-24T16:15:21.999Z</time></trkpt><trkpt lat="48.87980502365471" lon="1.93970535241484"><ele>120.5</ele><time>2026-04-24T16:15:22.999Z</time></trkpt><trkpt lat="48.8798473847351" lon="1.9396106046495702"><ele>120.66666666666667</ele><time>2026-04-24T16:15:23.999Z</time></trkpt><trkpt lat="48.87989351381391" lon="1.939509082130537"><ele>120.83333333333334</ele><time>2026-04-24T16:15:24.999Z</time></trkpt><trkpt lat="48.87993668515012" lon="1.9394165407398085"><ele>121.0</ele><time>2026-04-24T16:15:25.999Z</time></trkpt><trkpt lat="48.87998221874869" lon="1.9393252373682521"><ele>121.00000000000001</ele><time>2026-04-24T16:15:26.999Z</time></trkpt><trkpt lat="48.88002558142033" lon="1.9392305970008203"><ele>121.0</ele><time>2026-04-24T16:15:27.999Z</time></trkpt><trkpt lat="48.88006898032612" lon="1.9391371788278464"><ele>121.0</ele><time>2026-04-24T16:15:28.999Z</time></trkpt><trkpt lat="48.88011099865153" lon="1.9390465704121256"><ele>121.0</ele><time>2026-04-24T16:15:29.999Z</time></trkpt><trkpt lat="48.880153727327745" lon="1.938950957778882"><ele>121.00000000000001</ele><time>2026-04-24T16:15:30.999Z</time></trkpt><trkpt lat="48.88019556993853" lon="1.9388551289185527"><ele>121.0</ele><time>2026-04-24T16:15:31.999Z</time></trkpt><trkpt lat="48.880239287921086" lon="1.9387642808783037"><ele>121.66666666666667</ele><time>2026-04-24T16:15:32.999Z</time></trkpt><trkpt lat="48.880282631042476" lon="1.9386666898243514"><ele>122.33333333333334</ele><time>2026-04-24T16:15:33.999Z</time></trkpt><trkpt lat="48.88032900415054" lon="1.938574561052417"><ele>123.0</ele><time>2026-04-24T16:15:34.999Z</time></trkpt><trkpt lat="48.88037243067193" lon="1.9384815192115463"><ele>123.66666666666666</ele><time>2026-04-24T16:15:35.999Z</time></trkpt><trkpt lat="48.880406604833844" lon="1.9383850717827376"><ele>124.33333333333333</ele><time>2026-04-24T16:15:36.999Z</time></trkpt><trkpt lat="48.88045785913893" lon="1.9382872744029653"><ele>125.0</ele><time>2026-04-24T16:15:37.999Z</time></trkpt><trkpt lat="48.88050044086523" lon="1.938197485135418"><ele>125.16666666666666</ele><time>2026-04-24T16:15:38.999Z</time></trkpt><trkpt lat="48.88054858016555" lon="1.9381075636210594"><ele>125.33333333333333</ele><time>2026-04-24T16:15:39.999Z</time></trkpt><trkpt lat="48.880593645568474" lon="1.9380102155035726"><ele>125.5</ele><time>2026-04-24T16:15:40.999Z</time></trkpt><trkpt lat="48.880630044961514" lon="1.9379151304664093"><ele>125.66666666666666</ele><time>2026-04-24T16:15:41.999Z</time></trkpt><trkpt lat="48.88067843884436" lon="1.937806597999109"><ele>125.83333333333333</ele><time>2026-04-24T16:15:42.999Z</time></trkpt><trkpt lat="48.88072270146632" lon="1.9377149009633414"><ele>126.0</ele><time>2026-04-24T16:15:43.999Z</time></trkpt><trkpt lat="48.88076733869875" lon="1.9376159351148197"><ele>126.16666666666667</ele><time>2026-04-24T16:15:45Z</time></trkpt><trkpt lat="48.880814389260586" lon="1.9375176655623598"><ele>126.33333333333334</ele><time>2026-04-24T16:15:46Z</time></trkpt><trkpt lat="48.88086194795264" lon="1.9374217545964094"><ele>126.5</ele><time>2026-04-24T16:15:47Z</time></trkpt><trkpt lat="48.88090794989932" lon="1.9373234397510697"><ele>126.66666666666667</ele><time>2026-04-24T16:15:48Z</time></trkpt><trkpt lat="48.88095263348819" lon="1.937221744479696"><ele>126.83333333333334</ele><time>2026-04-24T16:15:49Z</time></trkpt><trkpt lat="48.880998683585474" lon="1.9371207435869275"><ele>127.0</ele><time>2026-04-24T16:15:50Z</time></trkpt><trkpt lat="48.881047424375225" lon="1.9370166093531886"><ele>127.00000000000001</ele><time>2026-04-24T16:15:51Z</time></trkpt><trkpt lat="48.88109896240008" lon="1.9369145191463968"><ele>127.0</ele><time>2026-04-24T16:15:52Z</time></trkpt><trkpt lat="48.88114584914235" lon="1.9368058384042872"><ele>127.0</ele><time>2026-04-24T16:15:53Z</time></trkpt><trkpt lat="48.88119500355596" lon="1.936696075446215"><ele>127.0</ele><time>2026-04-24T16:15:54Z</time></trkpt><trkpt lat="48.88124648574031" lon="1.9365865864389356"><ele>127.00000000000001</ele><time>2026-04-24T16:15:55Z</time></trkpt><trkpt lat="48.88129554713492" lon="1.9364764368032423"><ele>127.0</ele><time>2026-04-24T16:15:56Z</time></trkpt><trkpt lat="48.88134762028482" lon="1.9363677416537561"><ele>127.00000000000001</ele><time>2026-04-24T16:15:57Z</time></trkpt><trkpt lat="48.8813994253984" lon="1.9362559795466776"><ele>127.0</ele><time>2026-04-24T16:15:58Z</time></trkpt><trkpt lat="48.88145060223582" lon="1.936145750863238"><ele>127.0</ele><time>2026-04-24T16:15:59Z</time></trkpt><trkpt lat="48.88149702583216" lon="1.9360365313061054"><ele>127.0</ele><time>2026-04-24T16:16:00Z</time></trkpt><trkpt lat="48.8815454494522" lon="1.9359257168701112"><ele>127.00000000000001</ele><time>2026-04-24T16:16:01Z</time></trkpt><trkpt lat="48.88159728515984" lon="1.9358174164392483"><ele>127.0</ele><time>2026-04-24T16:16:02Z</time></trkpt><trkpt lat="48.881648401866364" lon="1.9357079584460095"><ele>126.83333333333334</ele><time>2026-04-24T16:16:03Z</time></trkpt><trkpt lat="48.88169879944116" lon="1.9355999613955692"><ele>126.66666666666667</ele><time>2026-04-24T16:16:04Z</time></trkpt><trkpt lat="48.88174929725127" lon="1.9354896145095402"><ele>126.5</ele><time>2026-04-24T16:16:05Z</time></trkpt><trkpt lat="48.88179932650105" lon="1.93537973590562"><ele>126.33333333333334</ele><time>2026-04-24T16:16:06Z</time></trkpt><trkpt lat="48.88185130808975" lon="1.9352682219978765"><ele>126.16666666666667</ele><time>2026-04-24T16:16:07Z</time></trkpt><trkpt lat="48.88190140793392" lon="1.9351582916907533"><ele>126.0</ele><time>2026-04-24T16:16:08Z</time></trkpt><trkpt lat="48.8819548588981" lon="1.9350484741760565"><ele>125.4</ele><time>2026-04-24T16:16:09Z</time></trkpt><trkpt lat="48.882008603604476" lon="1.9349380320842289"><ele>124.8</ele><time>2026-04-24T16:16:10Z</time></trkpt><trkpt lat="48.8820605590252" lon="1.9348228693380245"><ele>124.20000000000002</ele><time>2026-04-24T16:16:11Z</time></trkpt><trkpt lat="48.88211119507522" lon="1.9347107308081766"><ele>123.60000000000001</ele><time>2026-04-24T16:16:12Z</time></trkpt><trkpt lat="48.882162972718504" lon="1.9345957570645709"><ele>123.0</ele><time>2026-04-24T16:16:13Z</time></trkpt><trkpt lat="48.88221751477493" lon="1.9344835483564682"><ele>123.0</ele><time>2026-04-24T16:16:14Z</time></trkpt><trkpt lat="48.88226947091227" lon="1.9343713463456085"><ele>123.00000000000001</ele><time>2026-04-24T16:16:15Z</time></trkpt><trkpt lat="48.882322023881756" lon="1.9342572662152264"><ele>123.00000000000001</ele><time>2026-04-24T16:16:16Z</time></trkpt><trkpt lat="48.88237529254465" lon="1.934142549952584"><ele>123.0</ele><time>2026-04-24T16:16:17Z</time></trkpt><trkpt lat="48.882428182726265" lon="1.9340286200341847"><ele>123.0</ele><time>2026-04-24T16:16:18Z</time></trkpt><trkpt lat="48.88248173253711" lon="1.9339128373437828"><ele>122.80000000000001</ele><time>2026-04-24T16:16:19Z</time></trkpt><trkpt lat="48.882536600264956" lon="1.9337943447306343"><ele>122.60000000000001</ele><time>2026-04-24T16:16:20Z</time></trkpt><trkpt lat="48.8825897715501" lon="1.9336771150031429"><ele>122.39999999999999</ele><time>2026-04-24T16:16:21Z</time></trkpt><trkpt lat="48.88264583836925" lon="1.9335558222142573"><ele>122.19999999999999</ele><time>2026-04-24T16:16:22Z</time></trkpt><trkpt lat="48.88270308840307" lon="1.9334353199226986"><ele>122.0</ele><time>2026-04-24T16:16:23Z</time></trkpt><trkpt lat="48.88275835765925" lon="1.9333136774086415"><ele>121.19999999999999</ele><time>2026-04-24T16:16:24Z</time></trkpt><trkpt lat="48.8828132934506" lon="1.9331918573434417"><ele>120.39999999999999</ele><time>2026-04-24T16:16:25Z</time></trkpt><trkpt lat="48.882872923810304" lon="1.9330671677380813"><ele>119.60000000000001</ele><time>2026-04-24T16:16:26Z</time></trkpt><trkpt lat="48.88293086105824" lon="1.932938310703701"><ele>118.80000000000001</ele><time>2026-04-24T16:16:27Z</time></trkpt><trkpt lat="48.88299264903483" lon="1.9328053258022246"><ele>118.0</ele><time>2026-04-24T16:16:28Z</time></trkpt><trkpt lat="48.88305411315538" lon="1.9326689168847986"><ele>117.60000000000001</ele><time>2026-04-24T16:16:29Z</time></trkpt><trkpt lat="48.8831142523102" lon="1.9325335688498249"><ele>117.20000000000002</ele><time>2026-04-24T16:16:30Z</time></trkpt><trkpt lat="48.883176672481966" lon="1.932397627380773"><ele>116.8</ele><time>2026-04-24T16:16:31Z</time></trkpt><trkpt lat="48.883238342549845" lon="1.9322627274178836"><ele>116.4</ele><time>2026-04-24T16:16:32Z</time></trkpt><trkpt lat="48.88329945227749" lon="1.9321264535172413"><ele>116.0</ele><time>2026-04-24T16:16:33Z</time></trkpt><trkpt lat="48.883364441022664" lon="1.9319939264018773"><ele>116.19999999999999</ele><time>2026-04-24T16:16:34Z</time></trkpt><trkpt lat="48.88343213017296" lon="1.931865502691949"><ele>116.39999999999999</ele><time>2026-04-24T16:16:35Z</time></trkpt><trkpt lat="48.883497847729004" lon="1.931738784809637"><ele>116.6</ele><time>2026-04-24T16:16:36Z</time></trkpt><trkpt lat="48.88355889750247" lon="1.9316128977357514"><ele>116.8</ele><time>2026-04-24T16:16:37Z</time></trkpt><trkpt lat="48.883620630931894" lon="1.931483864192346"><ele>117.0</ele><time>2026-04-24T16:16:38Z</time></trkpt><trkpt lat="48.883683655744" lon="1.9313630076015453"><ele>117.19999999999999</ele><time>2026-04-24T16:16:39Z</time></trkpt><trkpt lat="48.88374741335327" lon="1.9312507947813393"><ele>117.39999999999999</ele><time>2026-04-24T16:16:40Z</time></trkpt><trkpt lat="48.88380167111978" lon="1.9311371792083512"><ele>117.60000000000001</ele><time>2026-04-24T16:16:41Z</time></trkpt><trkpt lat="48.88385164751948" lon="1.9310195056088506"><ele>117.80000000000001</ele><time>2026-04-24T16:16:42Z</time></trkpt><trkpt lat="48.88390777395832" lon="1.9309191396914254"><ele>118.0</ele><time>2026-04-24T16:16:43Z</time></trkpt><trkpt lat="48.88395448383044" lon="1.9308148469206858"><ele>118.33333333333334</ele><time>2026-04-24T16:16:43.999Z</time></trkpt><trkpt lat="48.8840021502783" lon="1.9307078468314283"><ele>118.66666666666667</ele><time>2026-04-24T16:16:44.999Z</time></trkpt><trkpt lat="48.88404994143718" lon="1.9306022370497595"><ele>119.0</ele><time>2026-04-24T16:16:45.999Z</time></trkpt><trkpt lat="48.884097054578355" lon="1.9304952102790471"><ele>119.33333333333334</ele><time>2026-04-24T16:16:46.999Z</time></trkpt><trkpt lat="48.88414419185989" lon="1.9303889441745257"><ele>119.66666666666667</ele><time>2026-04-24T16:16:47.999Z</time></trkpt><trkpt lat="48.88418825320661" lon="1.9302822656511482"><ele>120.0</ele><time>2026-04-24T16:16:48.999Z</time></trkpt><trkpt lat="48.884232321655695" lon="1.9301787148646405"><ele>119.5</ele><time>2026-04-24T16:16:49.999Z</time></trkpt><trkpt lat="48.884274902185346" lon="1.9300723712318506"><ele>119.0</ele><time>2026-04-24T16:16:50.999Z</time></trkpt><trkpt lat="48.884320301193554" lon="1.9299672384558866"><ele>118.5</ele><time>2026-04-24T16:16:51.999Z</time></trkpt><trkpt lat="48.88436992303364" lon="1.9298595286888258"><ele>118.0</ele><time>2026-04-24T16:16:52.999Z</time></trkpt><trkpt lat="48.88441764575088" lon="1.9297477197309065"><ele>117.5</ele><time>2026-04-24T16:16:53.999Z</time></trkpt><trkpt lat="48.88446498655877" lon="1.9296344930988487"><ele>117.0</ele><time>2026-04-24T16:16:54.999Z</time></trkpt><trkpt lat="48.88451330010473" lon="1.9295169501894966"><ele>116.8</ele><time>2026-04-24T16:16:55.999Z</time></trkpt><trkpt lat="48.884565343365644" lon="1.929401210448132"><ele>116.6</ele><time>2026-04-24T16:16:56.999Z</time></trkpt><trkpt lat="48.88461615065469" lon="1.9292787955162254"><ele>116.39999999999999</ele><time>2026-04-24T16:16:57.999Z</time></trkpt><trkpt lat="48.884672435196286" lon="1.929158481676357"><ele>116.19999999999999</ele><time>2026-04-24T16:16:58.999Z</time></trkpt><trkpt lat="48.88472675715146" lon="1.9290418580521587"><ele>116.0</ele><time>2026-04-24T16:16:59.999Z</time></trkpt><trkpt lat="48.88478147757132" lon="1.928916421751674"><ele>115.8</ele><time>2026-04-24T16:17:00.999Z</time></trkpt><trkpt lat="48.884841844552426" lon="1.9287949683603605"><ele>115.6</ele><time>2026-04-24T16:17:01.999Z</time></trkpt><trkpt lat="48.88489328839655" lon="1.9286725736259807"><ele>115.4</ele><time>2026-04-24T16:17:02.999Z</time></trkpt><trkpt lat="48.884949405628745" lon="1.9285511745778452"><ele>115.2</ele><time>2026-04-24T16:17:03.999Z</time></trkpt><trkpt lat="48.8850040175169" lon="1.9284326626273072"><ele>115.0</ele><time>2026-04-24T16:17:04.999Z</time></trkpt><trkpt lat="48.88505696772848" lon="1.9283156347784414"><ele>115.00000000000001</ele><time>2026-04-24T16:17:05.999Z</time></trkpt><trkpt lat="48.885109347454254" lon="1.928202999021292"><ele>115.0</ele><time>2026-04-24T16:17:06.999Z</time></trkpt><trkpt lat="48.885163453001276" lon="1.9280954858474062"><ele>115.0</ele><time>2026-04-24T16:17:07.999Z</time></trkpt><trkpt lat="48.885214688845885" lon="1.9279865296755718"><ele>115.0</ele><time>2026-04-24T16:17:08.999Z</time></trkpt><trkpt lat="48.88526101398672" lon="1.927878853550742"><ele>115.00000000000001</ele><time>2026-04-24T16:17:09.999Z</time></trkpt><trkpt lat="48.88530902825914" lon="1.9277755898856501"><ele>115.0</ele><time>2026-04-24T16:17:10.999Z</time></trkpt><trkpt lat="48.88535456793769" lon="1.9276726996868438"><ele>115.00000000000001</ele><time>2026-04-24T16:17:11.999Z</time></trkpt><trkpt lat="48.88540180412728" lon="1.9275725883110568"><ele>115.0</ele><time>2026-04-24T16:17:12.999Z</time></trkpt><trkpt lat="48.88544334020466" lon="1.927477549501695"><ele>115.0</ele><time>2026-04-24T16:17:13.999Z</time></trkpt><trkpt lat="48.885489336090316" lon="1.9273767588794737"><ele>115.0</ele><time>2026-04-24T16:17:14.999Z</time></trkpt><trkpt lat="48.88553345358401" lon="1.9272824304454295"><ele>115.00000000000001</ele><time>2026-04-24T16:17:15.999Z</time></trkpt><trkpt lat="48.88557549764818" lon="1.9271906448965694"><ele>115.0</ele><time>2026-04-24T16:17:16.999Z</time></trkpt><trkpt lat="48.885617784403784" lon="1.9271022386334147"><ele>115.28571428571428</ele><time>2026-04-24T16:17:17.999Z</time></trkpt><trkpt lat="48.885661698226606" lon="1.927008200655499"><ele>115.57142857142857</ele><time>2026-04-24T16:17:18.999Z</time></trkpt><trkpt lat="48.885706159021446" lon="1.9269134397409449"><ele>115.85714285714286</ele><time>2026-04-24T16:17:19.999Z</time></trkpt><trkpt lat="48.88574774142273" lon="1.9268230045961652"><ele>116.14285714285714</ele><time>2026-04-24T16:17:20.999Z</time></trkpt><trkpt lat="48.88579110996009" lon="1.9267313457479434"><ele>116.42857142857144</ele><time>2026-04-24T16:17:21.999Z</time></trkpt><trkpt lat="48.88583286865887" lon="1.9266439318191841"><ele>116.71428571428572</ele><time>2026-04-24T16:17:22.999Z</time></trkpt><trkpt lat="48.885869689166974" lon="1.926558930388331"><ele>117.0</ele><time>2026-04-24T16:17:23.999Z</time></trkpt><trkpt lat="48.88591032678719" lon="1.9264761803289137"><ele>117.66666666666667</ele><time>2026-04-24T16:17:24.999Z</time></trkpt><trkpt lat="48.88594929274129" lon="1.9263903906035817"><ele>118.33333333333334</ele><time>2026-04-24T16:17:25.999Z</time></trkpt><trkpt lat="48.88599201825412" lon="1.9263067831287208"><ele>119.0</ele><time>2026-04-24T16:17:26.999Z</time></trkpt><trkpt lat="48.88603104301036" lon="1.926223456204395"><ele>119.66666666666667</ele><time>2026-04-24T16:17:27.999Z</time></trkpt><trkpt lat="48.88606938488311" lon="1.9261381080198317"><ele>120.33333333333334</ele><time>2026-04-24T16:17:28.999Z</time></trkpt><trkpt lat="48.886103757800285" lon="1.9260564026572995"><ele>121.0</ele><time>2026-04-24T16:17:29.999Z</time></trkpt><trkpt lat="48.88616213538801" lon="1.9259035743782629"><ele>121.14285714285714</ele><time>2026-04-24T16:17:31.999Z</time></trkpt><trkpt lat="48.886199260913415" lon="1.9258000416551404"><ele>121.28571428571428</ele><time>2026-04-24T16:17:33.999Z</time></trkpt><trkpt lat="48.8862250340808" lon="1.9257092849818649"><ele>121.42857142857142</ele><time>2026-04-24T16:17:35.999Z</time></trkpt><trkpt lat="48.8862483798035" lon="1.9256151254717309"><ele>121.57142857142856</ele><time>2026-04-24T16:17:37.999Z</time></trkpt><trkpt lat="48.88627235813783" lon="1.9255251565213998"><ele>121.71428571428571</ele><time>2026-04-24T16:17:39.999Z</time></trkpt><trkpt lat="48.88629513745435" lon="1.9254240921301748"><ele>121.85714285714283</ele><time>2026-04-24T16:17:41.999Z</time></trkpt><trkpt lat="48.88631510420086" lon="1.9252823753437087"><ele>121.99999999999999</ele><time>2026-04-24T16:17:43.999Z</time></trkpt><trkpt lat="48.88632226439127" lon="1.9251096624955584"><ele>121.39999999999999</ele><time>2026-04-24T16:17:45.999Z</time></trkpt><trkpt lat="48.88633130763249" lon="1.9249221586674647"><ele>120.79999999999998</ele><time>2026-04-24T16:17:47.999Z</time></trkpt><trkpt lat="48.88633561323112" lon="1.9248236546972572"><ele>120.2</ele><time>2026-04-24T16:17:48.999Z</time></trkpt><trkpt lat="48.88634186405835" lon="1.924647708992857"><ele>119.6</ele><time>2026-04-24T16:17:51Z</time></trkpt><trkpt lat="48.88635277493021" lon="1.9244874238730372"><ele>119.0</ele><time>2026-04-24T16:17:53Z</time></trkpt><trkpt lat="48.88635546134829" lon="1.9243676506845238"><ele>118.99999999999999</ele><time>2026-04-24T16:17:55Z</time></trkpt><trkpt lat="48.88635863673282" lon="1.924264499347275"><ele>119.0</ele><time>2026-04-24T16:17:57Z</time></trkpt><trkpt lat="48.886362366024954" lon="1.9241624977779888"><ele>119.0</ele><time>2026-04-24T16:17:59Z</time></trkpt><trkpt lat="48.886366428948165" lon="1.9240601037422453"><ele>119.0</ele><time>2026-04-24T16:18:02Z</time></trkpt><trkpt lat="48.88636968628812" lon="1.9238881477678924"><ele>118.99999999999999</ele><time>2026-04-24T16:18:40Z</time></trkpt><trkpt lat="48.886372757537345" lon="1.923733274040555"><ele>119.0</ele><time>2026-04-24T16:18:42Z</time></trkpt><trkpt lat="48.8863798737531" lon="1.9235472603304864"><ele>118.71428571428572</ele><time>2026-04-24T16:18:44Z</time></trkpt><trkpt lat="48.88638826525079" lon="1.92344590744097"><ele>118.42857142857143</ele><time>2026-04-24T16:18:45Z</time></trkpt><trkpt lat="48.886396357093886" lon="1.9233458643951158"><ele>118.14285714285714</ele><time>2026-04-24T16:18:46Z</time></trkpt><trkpt lat="48.88640595577237" lon="1.923242623352947"><ele>117.85714285714286</ele><time>2026-04-24T16:18:46.999Z</time></trkpt><trkpt lat="48.88640861870583" lon="1.9231352672471447"><ele>117.57142857142858</ele><time>2026-04-24T16:18:47.999Z</time></trkpt><trkpt lat="48.88640814578533" lon="1.9230199081671429"><ele>117.28571428571429</ele><time>2026-04-24T16:18:48.999Z</time></trkpt><trkpt lat="48.88640368431659" lon="1.9229030721173612"><ele>117.0</ele><time>2026-04-24T16:18:49.999Z</time></trkpt><trkpt lat="48.88640558386037" lon="1.9227863366380087"><ele>117.0</ele><time>2026-04-24T16:18:50.999Z</time></trkpt><trkpt lat="48.88641026034398" lon="1.9226664686763701"><ele>117.0</ele><time>2026-04-24T16:18:51.999Z</time></trkpt><trkpt lat="48.88641621380598" lon="1.9225460985813285"><ele>117.0</ele><time>2026-04-24T16:18:52.999Z</time></trkpt><trkpt lat="48.8864225160693" lon="1.9224253610338493"><ele>117.0</ele><time>2026-04-24T16:18:53.999Z</time></trkpt><trkpt lat="48.8864264305753" lon="1.9222965533439333"><ele>117.0</ele><time>2026-04-24T16:18:54.999Z</time></trkpt><trkpt lat="48.88643100265468" lon="1.922167371758188"><ele>117.0</ele><time>2026-04-24T16:18:55.999Z</time></trkpt><trkpt lat="48.886434438551845" lon="1.9220370106609086"><ele>117.16666666666667</ele><time>2026-04-24T16:18:56.999Z</time></trkpt><trkpt lat="48.88643765684061" lon="1.9219052974745494"><ele>117.33333333333334</ele><time>2026-04-24T16:18:57.999Z</time></trkpt><trkpt lat="48.88644025128543" lon="1.921772500163509"><ele>117.5</ele><time>2026-04-24T16:18:58.999Z</time></trkpt><trkpt lat="48.88644634588197" lon="1.921641502988188"><ele>117.66666666666667</ele><time>2026-04-24T16:18:59.999Z</time></trkpt><trkpt lat="48.88645102158027" lon="1.9215028697565404"><ele>117.83333333333334</ele><time>2026-04-24T16:19:00.999Z</time></trkpt><trkpt lat="48.88645685627308" lon="1.9213685385447163"><ele>118.0</ele><time>2026-04-24T16:19:01.999Z</time></trkpt><trkpt lat="48.88646154949574" lon="1.9212377191302497"><ele>118.00000000000001</ele><time>2026-04-24T16:19:02.999Z</time></trkpt><trkpt lat="48.886467239204755" lon="1.9211015928101995"><ele>118.0</ele><time>2026-04-24T16:19:03.999Z</time></trkpt><trkpt lat="48.886469707392145" lon="1.9209712174065"><ele>118.0</ele><time>2026-04-24T16:19:04.999Z</time></trkpt><trkpt lat="48.88647377823542" lon="1.9208409984170192"><ele>118.0</ele><time>2026-04-24T16:19:05.999Z</time></trkpt><trkpt lat="48.88648027887516" lon="1.9207174316744873"><ele>118.00000000000001</ele><time>2026-04-24T16:19:06.999Z</time></trkpt><trkpt lat="48.88648448989219" lon="1.9205923111846834"><ele>118.0</ele><time>2026-04-24T16:19:07.999Z</time></trkpt><trkpt lat="48.88648876707084" lon="1.9204684163469006"><ele>117.83333333333334</ele><time>2026-04-24T16:19:08.999Z</time></trkpt><trkpt lat="48.88649588026464" lon="1.9203483064604308"><ele>117.66666666666667</ele><time>2026-04-24T16:19:09.999Z</time></trkpt><trkpt lat="48.88650028044972" lon="1.9202293946035383"><ele>117.5</ele><time>2026-04-24T16:19:10.999Z</time></trkpt><trkpt lat="48.8865088602645" lon="1.9201109889793317"><ele>117.33333333333334</ele><time>2026-04-24T16:19:11.999Z</time></trkpt><trkpt lat="48.886516240324404" lon="1.9199958085648834"><ele>117.16666666666667</ele><time>2026-04-24T16:19:12.999Z</time></trkpt><trkpt lat="48.8865207759073" lon="1.9198799511966482"><ele>117.0</ele><time>2026-04-24T16:19:13.999Z</time></trkpt><trkpt lat="48.88652506955496" lon="1.919766104909992"><ele>117.28571428571429</ele><time>2026-04-24T16:19:14.999Z</time></trkpt><trkpt lat="48.886526266217764" lon="1.9196554032769895"><ele>117.57142857142858</ele><time>2026-04-24T16:19:15.999Z</time></trkpt><trkpt lat="48.88652857729266" lon="1.9195422773379194"><ele>117.85714285714286</ele><time>2026-04-24T16:19:16.999Z</time></trkpt><trkpt lat="48.886533360989915" lon="1.919431104684822"><ele>118.14285714285714</ele><time>2026-04-24T16:19:17.999Z</time></trkpt><trkpt lat="48.88653613064499" lon="1.9193201666345552"><ele>118.42857142857143</ele><time>2026-04-24T16:19:18.999Z</time></trkpt><trkpt lat="48.886532321936386" lon="1.9192130012684778"><ele>118.71428571428572</ele><time>2026-04-24T16:19:19.999Z</time></trkpt><trkpt lat="48.88652835232589" lon="1.919102901804393"><ele>119.0</ele><time>2026-04-24T16:19:20.999Z</time></trkpt><trkpt lat="48.8865325436286" lon="1.9189915866544944"><ele>119.0</ele><time>2026-04-24T16:19:21.999Z</time></trkpt><trkpt lat="48.88653898392688" lon="1.9188828897581582"><ele>119.0</ele><time>2026-04-24T16:19:22.999Z</time></trkpt><trkpt lat="48.886542171964685" lon="1.9187737721791718"><ele>119.0</ele><time>2026-04-24T16:19:23.999Z</time></trkpt><trkpt lat="48.886545551903524" lon="1.918664065368301"><ele>119.0</ele><time>2026-04-24T16:19:24.999Z</time></trkpt><trkpt lat="48.88654833380361" lon="1.9185568175495704"><ele>119.0</ele><time>2026-04-24T16:19:25.999Z</time></trkpt><trkpt lat="48.886553166624736" lon="1.9184481026441116"><ele>119.0</ele><time>2026-04-24T16:19:26.999Z</time></trkpt><trkpt lat="48.88655811594054" lon="1.9183392751576618"><ele>119.0</ele><time>2026-04-24T16:19:27.999Z</time></trkpt><trkpt lat="48.88655878134468" lon="1.9182332317654083"><ele>119.14285714285714</ele><time>2026-04-24T16:19:28.999Z</time></trkpt><trkpt lat="48.88656110074867" lon="1.9181247799182"><ele>119.28571428571428</ele><time>2026-04-24T16:19:29.999Z</time></trkpt><trkpt lat="48.886564574161454" lon="1.9180171877066954"><ele>119.42857142857143</ele><time>2026-04-24T16:19:30.999Z</time></trkpt><trkpt lat="48.886572070229505" lon="1.9179129765773997"><ele>119.57142857142857</ele><time>2026-04-24T16:19:31.999Z</time></trkpt><trkpt lat="48.88657491905463" lon="1.9178085366666304"><ele>119.71428571428571</ele><time>2026-04-24T16:19:32.999Z</time></trkpt><trkpt lat="48.886578109901144" lon="1.9177041678961497"><ele>119.85714285714286</ele><time>2026-04-24T16:19:33.999Z</time></trkpt><trkpt lat="48.8865810985816" lon="1.9175998121896742"><ele>120.0</ele><time>2026-04-24T16:19:34.999Z</time></trkpt><trkpt lat="48.886584994483556" lon="1.9174964100040757"><ele>120.42857142857143</ele><time>2026-04-24T16:19:35.999Z</time></trkpt><trkpt lat="48.88658834959258" lon="1.9173972406565916"><ele>120.85714285714286</ele><time>2026-04-24T16:19:36.999Z</time></trkpt><trkpt lat="48.88659356554993" lon="1.9172935645154336"><ele>121.28571428571429</ele><time>2026-04-24T16:19:37.999Z</time></trkpt><trkpt lat="48.88659641722987" lon="1.9171900306946208"><ele>121.71428571428572</ele><time>2026-04-24T16:19:38.999Z</time></trkpt><trkpt lat="48.88659959398836" lon="1.9170891738318157"><ele>122.14285714285714</ele><time>2026-04-24T16:19:39.999Z</time></trkpt><trkpt lat="48.886604366227296" lon="1.9169883571939779"><ele>122.57142857142858</ele><time>2026-04-24T16:19:40.999Z</time></trkpt><trkpt lat="48.88660608520753" lon="1.9168922681709533"><ele>123.00000000000001</ele><time>2026-04-24T16:19:41.999Z</time></trkpt><trkpt lat="48.88661260990686" lon="1.9167086242028875"><ele>123.25</ele><time>2026-04-24T16:19:43.999Z</time></trkpt><trkpt lat="48.886618953435416" lon="1.9165231895422954"><ele>123.5</ele><time>2026-04-24T16:19:45.999Z</time></trkpt><trkpt lat="48.88662414243718" lon="1.916344053598092"><ele>123.75</ele><time>2026-04-24T16:19:47.999Z</time></trkpt><trkpt lat="48.88663108017744" lon="1.9161618439975192"><ele>124.0</ele><time>2026-04-24T16:19:49.999Z</time></trkpt><trkpt lat="48.88663516778794" lon="1.9159727396631343"><ele>124.28571428571429</ele><time>2026-04-24T16:19:51.999Z</time></trkpt><trkpt lat="48.886637821513695" lon="1.9158732516408992"><ele>124.57142857142858</ele><time>2026-04-24T16:19:52.999Z</time></trkpt><trkpt lat="48.88663989167227" lon="1.915773818999237"><ele>124.85714285714286</ele><time>2026-04-24T16:19:53.999Z</time></trkpt><trkpt lat="48.88664493502228" lon="1.915675613586107"><ele>125.14285714285714</ele><time>2026-04-24T16:19:54.999Z</time></trkpt><trkpt lat="48.88665042695157" lon="1.9155712506226041"><ele>125.42857142857143</ele><time>2026-04-24T16:19:55.999Z</time></trkpt><trkpt lat="48.88665438797845" lon="1.9154631789668664"><ele>125.71428571428572</ele><time>2026-04-24T16:19:57Z</time></trkpt><trkpt lat="48.886661170749036" lon="1.9153590255998179"><ele>126.0</ele><time>2026-04-24T16:19:58Z</time></trkpt><trkpt lat="48.886669520670715" lon="1.9152594008340713"><ele>126.0</ele><time>2026-04-24T16:19:59Z</time></trkpt><trkpt lat="48.88668103321725" lon="1.9151568801255632"><ele>126.0</ele><time>2026-04-24T16:20:00Z</time></trkpt><trkpt lat="48.88668949957881" lon="1.915057215415429"><ele>126.0</ele><time>2026-04-24T16:20:01Z</time></trkpt><trkpt lat="48.88669340954522" lon="1.9148692420070657"><ele>126.0</ele><time>2026-04-24T16:20:03Z</time></trkpt><trkpt lat="48.88670107876023" lon="1.914683817114625"><ele>126.0</ele><time>2026-04-24T16:20:05Z</time></trkpt><trkpt lat="48.886704453467715" lon="1.9145877294429796"><ele>126.0</ele><time>2026-04-24T16:20:06Z</time></trkpt><trkpt lat="48.88670699005963" lon="1.9144088993766566"><ele>126.5</ele><time>2026-04-24T16:20:08Z</time></trkpt><trkpt lat="48.88671887848961" lon="1.914249410499047"><ele>127.0</ele><time>2026-04-24T16:20:10Z</time></trkpt><trkpt lat="48.88679977404177" lon="1.9141205574551305"><ele>127.5</ele><time>2026-04-24T16:20:12Z</time></trkpt><trkpt lat="48.88690655334786" lon="1.9140444808584987"><ele>128.0</ele><time>2026-04-24T16:20:14Z</time></trkpt><trkpt lat="48.887000451416824" lon="1.9139347635472976"><ele>128.5</ele><time>2026-04-24T16:20:16Z</time></trkpt><trkpt lat="48.887080719037776" lon="1.9138072392351746"><ele>129.0</ele><time>2026-04-24T16:20:18Z</time></trkpt><trkpt lat="48.88716553830739" lon="1.9136906140831285"><ele>129.5</ele><time>2026-04-24T16:20:20Z</time></trkpt><trkpt lat="48.88724973134903" lon="1.91357462809896"><ele>130.0</ele><time>2026-04-24T16:20:22Z</time></trkpt><trkpt lat="48.887328580412955" lon="1.9134499445097273"><ele>130.0</ele><time>2026-04-24T16:20:24Z</time></trkpt><trkpt lat="48.887398632722636" lon="1.9133279250305646"><ele>130.0</ele><time>2026-04-24T16:20:26Z</time></trkpt><trkpt lat="48.88746891401653" lon="1.9132104340289535"><ele>130.0</ele><time>2026-04-24T16:20:28Z</time></trkpt><trkpt lat="48.88754336819623" lon="1.913100135807664"><ele>130.0</ele><time>2026-04-24T16:20:30Z</time></trkpt><trkpt lat="48.88761409165195" lon="1.912974282014911"><ele>130.0</ele><time>2026-04-24T16:20:32Z</time></trkpt><trkpt lat="48.887681666225824" lon="1.9128575661337845"><ele>130.4</ele><time>2026-04-24T16:20:34Z</time></trkpt><trkpt lat="48.88775189762122" lon="1.91273976708226"><ele>130.8</ele><time>2026-04-24T16:20:36Z</time></trkpt><trkpt lat="48.88782125231247" lon="1.9126128845081622"><ele>131.2</ele><time>2026-04-24T16:20:38Z</time></trkpt><trkpt lat="48.88789501369169" lon="1.9125062715496244"><ele>131.6</ele><time>2026-04-24T16:20:40Z</time></trkpt><trkpt lat="48.8879606366389" lon="1.9123713655525525"><ele>132.0</ele><time>2026-04-24T16:20:42Z</time></trkpt><trkpt lat="48.88801603417104" lon="1.9122541993686608"><ele>132.0</ele><time>2026-04-24T16:20:44Z</time></trkpt><trkpt lat="48.88808176914976" lon="1.9121319822936886"><ele>132.0</ele><time>2026-04-24T16:20:46Z</time></trkpt><trkpt lat="48.888150846749234" lon="1.9119990754654448"><ele>132.0</ele><time>2026-04-24T16:20:48Z</time></trkpt><trkpt lat="48.888227932589615" lon="1.911857035076709"><ele>132.0</ele><time>2026-04-24T16:20:50Z</time></trkpt><trkpt lat="48.88830044556916" lon="1.9117119781106617"><ele>131.5</ele><time>2026-04-24T16:20:51.999Z</time></trkpt><trkpt lat="48.88838466076494" lon="1.911580588021973"><ele>131.0</ele><time>2026-04-24T16:20:53.999Z</time></trkpt><trkpt lat="48.88843118264088" lon="1.9115131754346697"><ele>130.5</ele><time>2026-04-24T16:20:54.999Z</time></trkpt><trkpt lat="48.88847982665327" lon="1.911449494413027"><ele>130.0</ele><time>2026-04-24T16:20:55.999Z</time></trkpt><trkpt lat="48.88857100735262" lon="1.911320576632044"><ele>129.5</ele><time>2026-04-24T16:20:57.999Z</time></trkpt><trkpt lat="48.888621956352566" lon="1.9112639222473362"><ele>129.0</ele><time>2026-04-24T16:20:58.999Z</time></trkpt><trkpt lat="48.88867893345008" lon="1.9112016715888602"><ele>128.85714285714283</ele><time>2026-04-24T16:20:59.999Z</time></trkpt><trkpt lat="48.888735785246" lon="1.9111351570336412"><ele>128.71428571428572</ele><time>2026-04-24T16:21:00.999Z</time></trkpt><trkpt lat="48.88878642115252" lon="1.9110596182268058"><ele>128.57142857142856</ele><time>2026-04-24T16:21:01.999Z</time></trkpt><trkpt lat="48.8888397059219" lon="1.910989889019861"><ele>128.42857142857142</ele><time>2026-04-24T16:21:02.999Z</time></trkpt><trkpt lat="48.888902687516676" lon="1.91092284878825"><ele>128.28571428571428</ele><time>2026-04-24T16:21:03.999Z</time></trkpt><trkpt lat="48.88896179743687" lon="1.9108542504922068"><ele>128.14285714285714</ele><time>2026-04-24T16:21:04.999Z</time></trkpt><trkpt lat="48.88902033214855" lon="1.91078584509881"><ele>128.0</ele><time>2026-04-24T16:21:05.999Z</time></trkpt><trkpt lat="48.88908665695015" lon="1.910722877154133"><ele>127.49999999999999</ele><time>2026-04-24T16:21:06.999Z</time></trkpt><trkpt lat="48.88915679306288" lon="1.910655347328207"><ele>127.0</ele><time>2026-04-24T16:21:07.999Z</time></trkpt><trkpt lat="48.88922568071137" lon="1.910597070761743"><ele>126.5</ele><time>2026-04-24T16:21:08.999Z</time></trkpt><trkpt lat="48.88929801136993" lon="1.9105381263579326"><ele>126.0</ele><time>2026-04-24T16:21:09.999Z</time></trkpt><trkpt lat="48.88936637409748" lon="1.91047718578465"><ele>125.49999999999999</ele><time>2026-04-24T16:21:10.999Z</time></trkpt><trkpt lat="48.889434056217084" lon="1.9104187724604051"><ele>125.0</ele><time>2026-04-24T16:21:11.999Z</time></trkpt><trkpt lat="48.889505142820596" lon="1.9103583540627487"><ele>124.83333333333333</ele><time>2026-04-24T16:21:12.999Z</time></trkpt><trkpt lat="48.88957457495701" lon="1.9103048153664808"><ele>124.66666666666666</ele><time>2026-04-24T16:21:13.999Z</time></trkpt><trkpt lat="48.889645316958365" lon="1.9102404345181296"><ele>124.5</ele><time>2026-04-24T16:21:14.999Z</time></trkpt><trkpt lat="48.88972046029528" lon="1.9101796283108237"><ele>124.33333333333334</ele><time>2026-04-24T16:21:15.999Z</time></trkpt><trkpt lat="48.889796499249364" lon="1.910116581935496"><ele>124.16666666666667</ele><time>2026-04-24T16:21:16.999Z</time></trkpt><trkpt lat="48.889875267043536" lon="1.9100578545386686"><ele>124.0</ele><time>2026-04-24T16:21:17.999Z</time></trkpt><trkpt lat="48.88995588344177" lon="1.9100015164277426"><ele>123.33333333333334</ele><time>2026-04-24T16:21:18.999Z</time></trkpt><trkpt lat="48.89003352136252" lon="1.9099397368415467"><ele>122.66666666666667</ele><time>2026-04-24T16:21:19.999Z</time></trkpt><trkpt lat="48.89010877354223" lon="1.9098753183531967"><ele>122.0</ele><time>2026-04-24T16:21:20.999Z</time></trkpt><trkpt lat="48.89018849127834" lon="1.9098119647273797"><ele>121.33333333333334</ele><time>2026-04-24T16:21:21.999Z</time></trkpt><trkpt lat="48.89026536497806" lon="1.9097526817587611"><ele>120.66666666666667</ele><time>2026-04-24T16:21:22.999Z</time></trkpt><trkpt lat="48.89034322039448" lon="1.9096917808685676"><ele>120.0</ele><time>2026-04-24T16:21:23.999Z</time></trkpt><trkpt lat="48.89042100707741" lon="1.9096314310515285"><ele>119.83333333333333</ele><time>2026-04-24T16:21:24.999Z</time></trkpt><trkpt lat="48.89049951266868" lon="1.9095712923812163"><ele>119.66666666666666</ele><time>2026-04-24T16:21:25.999Z</time></trkpt><trkpt lat="48.89057349262174" lon="1.9095063204394775"><ele>119.5</ele><time>2026-04-24T16:21:26.999Z</time></trkpt><trkpt lat="48.89065127807242" lon="1.909441536800755"><ele>119.33333333333333</ele><time>2026-04-24T16:21:27.999Z</time></trkpt><trkpt lat="48.89072814650946" lon="1.9093768818587011"><ele>119.16666666666666</ele><time>2026-04-24T16:21:28.999Z</time></trkpt><trkpt lat="48.890801818746475" lon="1.9093109750001391"><ele>119.0</ele><time>2026-04-24T16:21:29.999Z</time></trkpt><trkpt lat="48.89087682838208" lon="1.9092383124740928"><ele>118.49999999999999</ele><time>2026-04-24T16:21:30.999Z</time></trkpt><trkpt lat="48.89095038595628" lon="1.909167688797566"><ele>118.0</ele><time>2026-04-24T16:21:31.999Z</time></trkpt><trkpt lat="48.89102170982128" lon="1.9090946251147591"><ele>117.5</ele><time>2026-04-24T16:21:32.999Z</time></trkpt><trkpt lat="48.89108945571369" lon="1.909014557090366"><ele>117.0</ele><time>2026-04-24T16:21:33.999Z</time></trkpt><trkpt lat="48.89115888468082" lon="1.9089298702049793"><ele>116.49999999999999</ele><time>2026-04-24T16:21:34.999Z</time></trkpt><trkpt lat="48.89122552564739" lon="1.908842977826018"><ele>116.0</ele><time>2026-04-24T16:21:35.999Z</time></trkpt><trkpt lat="48.891293644658425" lon="1.9087533264344232"><ele>115.99999999999999</ele><time>2026-04-24T16:21:36.999Z</time></trkpt><trkpt lat="48.89135757284069" lon="1.9086625548321592"><ele>116.0</ele><time>2026-04-24T16:21:37.999Z</time></trkpt><trkpt lat="48.891418131058934" lon="1.908561999711019"><ele>116.0</ele><time>2026-04-24T16:21:38.999Z</time></trkpt><trkpt lat="48.891479296658545" lon="1.9084705022464372"><ele>116.0</ele><time>2026-04-24T16:21:39.999Z</time></trkpt><trkpt lat="48.89153661695559" lon="1.9083735330943974"><ele>115.99999999999999</ele><time>2026-04-24T16:21:40.999Z</time></trkpt><trkpt lat="48.89158810684659" lon="1.9082693838131326"><ele>116.0</ele><time>2026-04-24T16:21:41.999Z</time></trkpt><trkpt lat="48.891644359791485" lon="1.9081699133033134"><ele>115.66666666666666</ele><time>2026-04-24T16:21:42.999Z</time></trkpt><trkpt lat="48.891694809002836" lon="1.9080618230567141"><ele>115.33333333333333</ele><time>2026-04-24T16:21:43.999Z</time></trkpt><trkpt lat="48.89175075363545" lon="1.9079529770851145"><ele>115.0</ele><time>2026-04-24T16:21:44.999Z</time></trkpt><trkpt lat="48.891804507439666" lon="1.9078431352722438"><ele>114.66666666666666</ele><time>2026-04-24T16:21:45.999Z</time></trkpt><trkpt lat="48.89185630601131" lon="1.9077356256358449"><ele>114.33333333333333</ele><time>2026-04-24T16:21:46.999Z</time></trkpt><trkpt lat="48.89191386050456" lon="1.907629487654785"><ele>114.0</ele><time>2026-04-24T16:21:47.999Z</time></trkpt><trkpt lat="48.8919687295059" lon="1.907518217303065"><ele>113.4</ele><time>2026-04-24T16:21:48.999Z</time></trkpt><trkpt lat="48.892022349074146" lon="1.907408897739434"><ele>112.80000000000001</ele><time>2026-04-24T16:21:49.999Z</time></trkpt><trkpt lat="48.892076381083506" lon="1.9072996773020723"><ele>112.19999999999999</ele><time>2026-04-24T16:21:50.999Z</time></trkpt><trkpt lat="48.892135295090995" lon="1.9071942332859408"><ele>111.6</ele><time>2026-04-24T16:21:51.999Z</time></trkpt><trkpt lat="48.892191813517115" lon="1.9070893310447823"><ele>111.0</ele><time>2026-04-24T16:21:52.999Z</time></trkpt><trkpt lat="48.89224936228641" lon="1.9069823915922925"><ele>111.0</ele><time>2026-04-24T16:21:53.999Z</time></trkpt><trkpt lat="48.8923041040191" lon="1.9068720923430207"><ele>111.0</ele><time>2026-04-24T16:21:54.999Z</time></trkpt><trkpt lat="48.89236045413189" lon="1.9067623475705928"><ele>111.0</ele><time>2026-04-24T16:21:55.999Z</time></trkpt><trkpt lat="48.89241895133996" lon="1.9066576005175613"><ele>111.0</ele><time>2026-04-24T16:21:56.999Z</time></trkpt><trkpt lat="48.8924750085262" lon="1.9065469316144645"><ele>111.0</ele><time>2026-04-24T16:21:57.999Z</time></trkpt><trkpt lat="48.892530421302745" lon="1.9064371113497303"><ele>111.0</ele><time>2026-04-24T16:21:58.999Z</time></trkpt><trkpt lat="48.89258652032284" lon="1.9063280902688604"><ele>111.0</ele><time>2026-04-24T16:21:59.999Z</time></trkpt><trkpt lat="48.892639388624595" lon="1.9062148473703169"><ele>111.0</ele><time>2026-04-24T16:22:00.999Z</time></trkpt><trkpt lat="48.89269568981457" lon="1.9061145099286947"><ele>111.0</ele><time>2026-04-24T16:22:01.999Z</time></trkpt><trkpt lat="48.892751838124745" lon="1.9060078997560974"><ele>111.0</ele><time>2026-04-24T16:22:03Z</time></trkpt><trkpt lat="48.89280923199318" lon="1.9058945286634565"><ele>111.0</ele><time>2026-04-24T16:22:04Z</time></trkpt><trkpt lat="48.89286417158508" lon="1.9057889281428997"><ele>111.0</ele><time>2026-04-24T16:22:05Z</time></trkpt><trkpt lat="48.89291667020809" lon="1.9056766336357864"><ele>111.0</ele><time>2026-04-24T16:22:06Z</time></trkpt><trkpt lat="48.89297205381472" lon="1.905570126076239"><ele>111.0</ele><time>2026-04-24T16:22:07Z</time></trkpt><trkpt lat="48.89302851943007" lon="1.9054718604697833"><ele>111.0</ele><time>2026-04-24T16:22:08Z</time></trkpt><trkpt lat="48.89308300095363" lon="1.905362161550496"><ele>111.0</ele><time>2026-04-24T16:22:09Z</time></trkpt><trkpt lat="48.893136194885" lon="1.9052590128101872"><ele>111.0</ele><time>2026-04-24T16:22:10Z</time></trkpt><trkpt lat="48.89319252806667" lon="1.905154003720728"><ele>111.0</ele><time>2026-04-24T16:22:11Z</time></trkpt><trkpt lat="48.8932468083937" lon="1.9050508295093445"><ele>111.0</ele><time>2026-04-24T16:22:12Z</time></trkpt><trkpt lat="48.89329455291968" lon="1.904951846654392"><ele>111.0</ele><time>2026-04-24T16:22:13Z</time></trkpt><trkpt lat="48.89334745504434" lon="1.9048571556338703"><ele>111.0</ele><time>2026-04-24T16:22:14Z</time></trkpt><trkpt lat="48.893405346423485" lon="1.9047589649482888"><ele>111.0</ele><time>2026-04-24T16:22:15Z</time></trkpt><trkpt lat="48.89345838785124" lon="1.904654199700678"><ele>111.33333333333333</ele><time>2026-04-24T16:22:16Z</time></trkpt><trkpt lat="48.89349467268428" lon="1.904547709172675"><ele>111.66666666666666</ele><time>2026-04-24T16:22:17Z</time></trkpt><trkpt lat="48.89353800624377" lon="1.9044432800282907"><ele>112.0</ele><time>2026-04-24T16:22:18Z</time></trkpt><trkpt lat="48.89358401520215" lon="1.9043421631911819"><ele>112.33333333333333</ele><time>2026-04-24T16:22:19Z</time></trkpt><trkpt lat="48.89363150829993" lon="1.9042451191041165"><ele>112.66666666666666</ele><time>2026-04-24T16:22:20Z</time></trkpt><trkpt lat="48.89367216134705" lon="1.904156723165905"><ele>113.0</ele><time>2026-04-24T16:22:21Z</time></trkpt><trkpt lat="48.89371156038859" lon="1.9040791701894977"><ele>112.99999999999999</ele><time>2026-04-24T16:22:22Z</time></trkpt><trkpt lat="48.89375822023422" lon="1.9039936034777638"><ele>113.0</ele><time>2026-04-24T16:22:23Z</time></trkpt><trkpt lat="48.89379327385479" lon="1.9039130559545838"><ele>113.0</ele><time>2026-04-24T16:22:24Z</time></trkpt><trkpt lat="48.89382670439108" lon="1.903828706229136"><ele>113.0</ele><time>2026-04-24T16:22:25Z</time></trkpt><trkpt lat="48.893890893828576" lon="1.9036634474777807"><ele>112.99999999999999</ele><time>2026-04-24T16:22:27Z</time></trkpt><trkpt lat="48.893933629828446" lon="1.9035862771737366"><ele>113.0</ele><time>2026-04-24T16:22:28Z</time></trkpt><trkpt lat="48.89399618972921" lon="1.9034286129344615"><ele>113.2</ele><time>2026-04-24T16:22:30Z</time></trkpt><trkpt lat="48.89403312084483" lon="1.9033508062832227"><ele>113.4</ele><time>2026-04-24T16:22:31Z</time></trkpt><trkpt lat="48.89406934994951" lon="1.9032715722834803"><ele>113.60000000000001</ele><time>2026-04-24T16:22:32Z</time></trkpt><trkpt lat="48.89410910260678" lon="1.903191918840576"><ele>113.80000000000001</ele><time>2026-04-24T16:22:33Z</time></trkpt><trkpt lat="48.89417961465433" lon="1.9030288459848683"><ele>114.0</ele><time>2026-04-24T16:22:35Z</time></trkpt><trkpt lat="48.89424840136821" lon="1.9028544891088428"><ele>114.16666666666667</ele><time>2026-04-24T16:22:37Z</time></trkpt><trkpt lat="48.8942839492764" lon="1.9027713740087648"><ele>114.33333333333334</ele><time>2026-04-24T16:22:38Z</time></trkpt><trkpt lat="48.894315146680526" lon="1.902684331079311"><ele>114.5</ele><time>2026-04-24T16:22:39Z</time></trkpt><trkpt lat="48.89434990662077" lon="1.902595748530666"><ele>114.66666666666667</ele><time>2026-04-24T16:22:40Z</time></trkpt><trkpt lat="48.89438250182774" lon="1.90250680221995"><ele>114.83333333333334</ele><time>2026-04-24T16:22:41Z</time></trkpt><trkpt lat="48.894450779042906" lon="1.9023266977863327"><ele>115.0</ele><time>2026-04-24T16:22:43Z</time></trkpt><trkpt lat="48.894477605655936" lon="1.9022265241368388"><ele>114.99999999999999</ele><time>2026-04-24T16:22:44Z</time></trkpt><trkpt lat="48.89450925763753" lon="1.9021276985540125"><ele>115.0</ele><time>2026-04-24T16:22:45Z</time></trkpt><trkpt lat="48.894542811845376" lon="1.9020275383433733"><ele>114.99999999999999</ele><time>2026-04-24T16:22:46Z</time></trkpt><trkpt lat="48.894584450677364" lon="1.901941173626595"><ele>114.99999999999999</ele><time>2026-04-24T16:22:47Z</time></trkpt><trkpt lat="48.8946296269711" lon="1.9018488080510028"><ele>115.0</ele><time>2026-04-24T16:22:48Z</time></trkpt><trkpt lat="48.894674294734884" lon="1.901756128569849"><ele>114.99999999999999</ele><time>2026-04-24T16:22:49Z</time></trkpt><trkpt lat="48.89471066630153" lon="1.901665954402166"><ele>114.99999999999999</ele><time>2026-04-24T16:22:50Z</time></trkpt><trkpt lat="48.894752057092504" lon="1.9015775970637545"><ele>114.85714285714283</ele><time>2026-04-24T16:22:51Z</time></trkpt><trkpt lat="48.894797656087874" lon="1.9014931603339216"><ele>114.71428571428571</ele><time>2026-04-24T16:22:52Z</time></trkpt><trkpt lat="48.89484625563216" lon="1.9014089201383348"><ele>114.57142857142856</ele><time>2026-04-24T16:22:53Z</time></trkpt><trkpt lat="48.89488842526359" lon="1.9013219214208612"><ele>114.42857142857142</ele><time>2026-04-24T16:22:54Z</time></trkpt><trkpt lat="48.89493675874202" lon="1.9012328461127515"><ele>114.28571428571428</ele><time>2026-04-24T16:22:55Z</time></trkpt><trkpt lat="48.89498042303705" lon="1.9011443898229954"><ele>114.14285714285714</ele><time>2026-04-24T16:22:56Z</time></trkpt><trkpt lat="48.89503088037768" lon="1.9010540829869302"><ele>114.0</ele><time>2026-04-24T16:22:57Z</time></trkpt><trkpt lat="48.8950784153231" lon="1.9009658497801143"><ele>113.66666666666667</ele><time>2026-04-24T16:22:58Z</time></trkpt><trkpt lat="48.89512201251569" lon="1.9008729423890864"><ele>113.33333333333334</ele><time>2026-04-24T16:22:59Z</time></trkpt><trkpt lat="48.895167184189404" lon="1.9007845908796945"><ele>113.0</ele><time>2026-04-24T16:23:00Z</time></trkpt><trkpt lat="48.89521544813246" lon="1.9006980070548185"><ele>112.66666666666667</ele><time>2026-04-24T16:23:01Z</time></trkpt><trkpt lat="48.89526050063165" lon="1.9006069830683543"><ele>112.33333333333334</ele><time>2026-04-24T16:23:02Z</time></trkpt><trkpt lat="48.89530859583317" lon="1.900517077292404"><ele>112.0</ele><time>2026-04-24T16:23:03Z</time></trkpt><trkpt lat="48.895358929585775" lon="1.9004264952891061"><ele>112.00000000000001</ele><time>2026-04-24T16:23:03.999Z</time></trkpt><trkpt lat="48.89540603642347" lon="1.9003410474547215"><ele>112.0</ele><time>2026-04-24T16:23:04.999Z</time></trkpt><trkpt lat="48.89545607509736" lon="1.9002515076460205"><ele>112.0</ele><time>2026-04-24T16:23:05.999Z</time></trkpt><trkpt lat="48.89550591607239" lon="1.9001620063326092"><ele>112.0</ele><time>2026-04-24T16:23:06.999Z</time></trkpt><trkpt lat="48.89555588711434" lon="1.9000701936157423"><ele>112.00000000000001</ele><time>2026-04-24T16:23:07.999Z</time></trkpt><trkpt lat="48.895602485603575" lon="1.8999825749618002"><ele>112.0</ele><time>2026-04-24T16:23:08.999Z</time></trkpt><trkpt lat="48.89565117940651" lon="1.899895477436485"><ele>111.85714285714286</ele><time>2026-04-24T16:23:09.999Z</time></trkpt><trkpt lat="48.895698902268755" lon="1.8998112416668858"><ele>111.71428571428572</ele><time>2026-04-24T16:23:10.999Z</time></trkpt><trkpt lat="48.89574790936307" lon="1.8997211513355892"><ele>111.57142857142857</ele><time>2026-04-24T16:23:11.999Z</time></trkpt><trkpt lat="48.89578726261494" lon="1.8996332883782419"><ele>111.42857142857143</ele><time>2026-04-24T16:23:12.999Z</time></trkpt><trkpt lat="48.89582778837892" lon="1.8995397025591625"><ele>111.28571428571429</ele><time>2026-04-24T16:23:13.999Z</time></trkpt><trkpt lat="48.8958703122608" lon="1.899458842483218"><ele>111.14285714285714</ele><time>2026-04-24T16:23:14.999Z</time></trkpt><trkpt lat="48.89591542281861" lon="1.89937895860375"><ele>111.0</ele><time>2026-04-24T16:23:15.999Z</time></trkpt><trkpt lat="48.89596050085127" lon="1.8993034762569072"><ele>111.42857142857142</ele><time>2026-04-24T16:23:16.999Z</time></trkpt><trkpt lat="48.89599895729376" lon="1.8992226100684406"><ele>111.85714285714286</ele><time>2026-04-24T16:23:17.999Z</time></trkpt><trkpt lat="48.896043039503134" lon="1.8991454841225786"><ele>112.28571428571428</ele><time>2026-04-24T16:23:18.999Z</time></trkpt><trkpt lat="48.896080785372355" lon="1.8990676859277609"><ele>112.71428571428571</ele><time>2026-04-24T16:23:19.999Z</time></trkpt><trkpt lat="48.89612290473241" lon="1.898990187324846"><ele>113.14285714285714</ele><time>2026-04-24T16:23:20.999Z</time></trkpt><trkpt lat="48.89616523158075" lon="1.8989142281663152"><ele>113.57142857142857</ele><time>2026-04-24T16:23:21.999Z</time></trkpt><trkpt lat="48.89620351630406" lon="1.8988295009278886"><ele>114.0</ele><time>2026-04-24T16:23:22.999Z</time></trkpt><trkpt lat="48.896242364640976" lon="1.8987476053116867"><ele>114.0</ele><time>2026-04-24T16:23:23.999Z</time></trkpt><trkpt lat="48.89628323097068" lon="1.898667008033166"><ele>113.99999999999999</ele><time>2026-04-24T16:23:24.999Z</time></trkpt><trkpt lat="48.896326504981424" lon="1.8985897990292675"><ele>114.0</ele><time>2026-04-24T16:23:25.999Z</time></trkpt><trkpt lat="48.89637568090674" lon="1.898524278978507"><ele>114.0</ele><time>2026-04-24T16:23:26.999Z</time></trkpt><trkpt lat="48.896421357568556" lon="1.898442642992224"><ele>113.99999999999999</ele><time>2026-04-24T16:23:27.999Z</time></trkpt><trkpt lat="48.89646568803766" lon="1.8983610957468786"><ele>114.0</ele><time>2026-04-24T16:23:28.999Z</time></trkpt><trkpt lat="48.896507157338974" lon="1.898279090059186"><ele>114.0</ele><time>2026-04-24T16:23:29.999Z</time></trkpt><trkpt lat="48.89654807991976" lon="1.8981881460664027"><ele>113.71428571428571</ele><time>2026-04-24T16:23:30.999Z</time></trkpt><trkpt lat="48.89657966245234" lon="1.8980910243796565"><ele>113.42857142857142</ele><time>2026-04-24T16:23:31.999Z</time></trkpt><trkpt lat="48.89662451801183" lon="1.898012331544107"><ele>113.14285714285714</ele><time>2026-04-24T16:23:32.999Z</time></trkpt><trkpt lat="48.89666949914919" lon="1.897935561532758"><ele>112.85714285714286</ele><time>2026-04-24T16:23:33.999Z</time></trkpt><trkpt lat="48.896717913684334" lon="1.8978605288385029"><ele>112.57142857142857</ele><time>2026-04-24T16:23:34.999Z</time></trkpt><trkpt lat="48.896768120604314" lon="1.8977852264664803"><ele>112.28571428571428</ele><time>2026-04-24T16:23:35.999Z</time></trkpt><trkpt lat="48.8968090341238" lon="1.8977070675000003"><ele>112.0</ele><time>2026-04-24T16:23:36.999Z</time></trkpt><trkpt lat="48.89684834274516" lon="1.8976233864433063"><ele>112.14285714285714</ele><time>2026-04-24T16:23:37.999Z</time></trkpt><trkpt lat="48.89688980925852" lon="1.8975437934446897"><ele>112.28571428571428</ele><time>2026-04-24T16:23:38.999Z</time></trkpt><trkpt lat="48.89693471899391" lon="1.897472556137229"><ele>112.42857142857143</ele><time>2026-04-24T16:23:39.999Z</time></trkpt><trkpt lat="48.89698012965473" lon="1.8973972905550742"><ele>112.57142857142857</ele><time>2026-04-24T16:23:40.999Z</time></trkpt><trkpt lat="48.89702381581081" lon="1.8973129963605406"><ele>112.71428571428571</ele><time>2026-04-24T16:23:41.999Z</time></trkpt><trkpt lat="48.89706818658195" lon="1.8972324562777734"><ele>112.85714285714286</ele><time>2026-04-24T16:23:42.999Z</time></trkpt><trkpt lat="48.897113068685854" lon="1.8971455903973222"><ele>113.0</ele><time>2026-04-24T16:23:43.999Z</time></trkpt><trkpt lat="48.89715693519386" lon="1.897062896015095"><ele>113.0</ele><time>2026-04-24T16:23:44.999Z</time></trkpt><trkpt lat="48.897204005077846" lon="1.8969715731804762"><ele>113.0</ele><time>2026-04-24T16:23:45.999Z</time></trkpt><trkpt lat="48.897249967048936" lon="1.8968950765751647"><ele>113.0</ele><time>2026-04-24T16:23:46.999Z</time></trkpt><trkpt lat="48.89729281754898" lon="1.896806031732825"><ele>113.0</ele><time>2026-04-24T16:23:47.999Z</time></trkpt><trkpt lat="48.89733855609114" lon="1.896724897313659"><ele>113.0</ele><time>2026-04-24T16:23:48.999Z</time></trkpt><trkpt lat="48.897384853984924" lon="1.896637843572133"><ele>113.0</ele><time>2026-04-24T16:23:49.999Z</time></trkpt><trkpt lat="48.89742820860447" lon="1.8965519637305235"><ele>113.0</ele><time>2026-04-24T16:23:50.999Z</time></trkpt><trkpt lat="48.897471433208096" lon="1.8964655417971654"><ele>112.83333333333333</ele><time>2026-04-24T16:23:51.999Z</time></trkpt><trkpt lat="48.89752097656841" lon="1.896382818602779"><ele>112.66666666666666</ele><time>2026-04-24T16:23:52.999Z</time></trkpt><trkpt lat="48.89757333521636" lon="1.8962952539603108"><ele>112.5</ele><time>2026-04-24T16:23:53.999Z</time></trkpt><trkpt lat="48.89762629611053" lon="1.8961972598535097"><ele>112.33333333333334</ele><time>2026-04-24T16:23:54.999Z</time></trkpt><trkpt lat="48.8976811905469" lon="1.8960941270198253"><ele>112.16666666666667</ele><time>2026-04-24T16:23:55.999Z</time></trkpt><trkpt lat="48.89774465479116" lon="1.8959885781708992"><ele>112.0</ele><time>2026-04-24T16:23:56.999Z</time></trkpt><trkpt lat="48.89781317858939" lon="1.8958937805326377"><ele>111.39999999999999</ele><time>2026-04-24T16:23:57.999Z</time></trkpt><trkpt lat="48.89788438148451" lon="1.8958015731422164"><ele>110.79999999999998</ele><time>2026-04-24T16:23:58.999Z</time></trkpt><trkpt lat="48.8979593222286" lon="1.8957006798754226"><ele>110.2</ele><time>2026-04-24T16:23:59.999Z</time></trkpt><trkpt lat="48.89803197492873" lon="1.8956015106940398"><ele>109.6</ele><time>2026-04-24T16:24:00.999Z</time></trkpt><trkpt lat="48.8981081495656" lon="1.8955006181568417"><ele>109.0</ele><time>2026-04-24T16:24:01.999Z</time></trkpt><trkpt lat="48.89818325871996" lon="1.8953964635989329"><ele>109.0</ele><time>2026-04-24T16:24:02.999Z</time></trkpt><trkpt lat="48.89825923365946" lon="1.8952865446772273"><ele>109.0</ele><time>2026-04-24T16:24:03.999Z</time></trkpt><trkpt lat="48.898337158809255" lon="1.8951786385167113"><ele>109.0</ele><time>2026-04-24T16:24:04.999Z</time></trkpt><trkpt lat="48.89841301792589" lon="1.8950762441435298"><ele>109.0</ele><time>2026-04-24T16:24:05.999Z</time></trkpt><trkpt lat="48.89848801981265" lon="1.8949632466668669"><ele>109.0</ele><time>2026-04-24T16:24:06.999Z</time></trkpt><trkpt lat="48.898560086891216" lon="1.8948532038228776"><ele>109.2</ele><time>2026-04-24T16:24:07.999Z</time></trkpt><trkpt lat="48.89863240455643" lon="1.8947515422056127"><ele>109.4</ele><time>2026-04-24T16:24:09Z</time></trkpt><trkpt lat="48.89869842654524" lon="1.8946545611832046"><ele>109.6</ele><time>2026-04-24T16:24:10Z</time></trkpt><trkpt lat="48.89876354494771" lon="1.8945565488138212"><ele>109.8</ele><time>2026-04-24T16:24:11Z</time></trkpt><trkpt lat="48.89882531860586" lon="1.8944631981603386"><ele>110.0</ele><time>2026-04-24T16:24:12Z</time></trkpt><trkpt lat="48.89888458269046" lon="1.8943777457758795"><ele>109.99999999999999</ele><time>2026-04-24T16:24:13Z</time></trkpt><trkpt lat="48.89893517939182" lon="1.8942930542717848"><ele>110.0</ele><time>2026-04-24T16:24:14Z</time></trkpt><trkpt lat="48.8989873862933" lon="1.894211702809616"><ele>110.0</ele><time>2026-04-24T16:24:15Z</time></trkpt><trkpt lat="48.89904034846831" lon="1.8941385161519533"><ele>110.0</ele><time>2026-04-24T16:24:16Z</time></trkpt><trkpt lat="48.899095096821064" lon="1.8940706034697319"><ele>110.0</ele><time>2026-04-24T16:24:17Z</time></trkpt><trkpt lat="48.899143945806756" lon="1.8940007775414163"><ele>109.99999999999999</ele><time>2026-04-24T16:24:18Z</time></trkpt><trkpt lat="48.89919214445361" lon="1.8939358146074772"><ele>110.0</ele><time>2026-04-24T16:24:19Z</time></trkpt><trkpt lat="48.89923784366887" lon="1.8938691951632385"><ele>110.8</ele><time>2026-04-24T16:24:20Z</time></trkpt><trkpt lat="48.89932990923405" lon="1.8937505133938837"><ele>111.6</ele><time>2026-04-24T16:24:22Z</time></trkpt><trkpt lat="48.8994145187274" lon="1.8936373259910726"><ele>112.4</ele><time>2026-04-24T16:24:24Z</time></trkpt><trkpt lat="48.899493955304585" lon="1.8935298383340438"><ele>113.2</ele><time>2026-04-24T16:24:26Z</time></trkpt><trkpt lat="48.89957334680139" lon="1.8934209240065445"><ele>114.0</ele><time>2026-04-24T16:24:28Z</time></trkpt><trkpt lat="48.89964591417732" lon="1.8933153266829057"><ele>114.0</ele><time>2026-04-24T16:24:30Z</time></trkpt><trkpt lat="48.89973638939875" lon="1.8931937202348297"><ele>114.0</ele><time>2026-04-24T16:24:33Z</time></trkpt><trkpt lat="48.899857043203966" lon="1.893059161871644"><ele>114.0</ele><time>2026-04-24T16:24:35Z</time></trkpt><trkpt lat="48.89994477653562" lon="1.8929329676208149"><ele>114.0</ele><time>2026-04-24T16:24:37Z</time></trkpt><trkpt lat="48.90004022717192" lon="1.8928087177119777"><ele>114.0</ele><time>2026-04-24T16:24:39Z</time></trkpt><trkpt lat="48.90013435039427" lon="1.8926841488269883"><ele>114.0</ele><time>2026-04-24T16:24:41Z</time></trkpt><trkpt lat="48.90023042158358" lon="1.8925445836479486"><ele>114.0</ele><time>2026-04-24T16:24:43Z</time></trkpt><trkpt lat="48.9003250397255" lon="1.8924203501826562"><ele>114.0</ele><time>2026-04-24T16:24:45Z</time></trkpt><trkpt lat="48.900421398838446" lon="1.8922847708740074"><ele>114.0</ele><time>2026-04-24T16:24:47Z</time></trkpt><trkpt lat="48.90047188183789" lon="1.8922027465032634"><ele>113.99999999999999</ele><time>2026-04-24T16:24:48Z</time></trkpt><trkpt lat="48.900526393429224" lon="1.8921308085487158"><ele>114.0</ele><time>2026-04-24T16:24:49Z</time></trkpt><trkpt lat="48.900571339127374" lon="1.8920622241286833"><ele>114.0</ele><time>2026-04-24T16:24:50Z</time></trkpt><trkpt lat="48.900625425561515" lon="1.8919945422564983"><ele>113.99999999999999</ele><time>2026-04-24T16:24:51Z</time></trkpt><trkpt lat="48.9006742911468" lon="1.891915040069521"><ele>114.0</ele><time>2026-04-24T16:24:52Z</time></trkpt><trkpt lat="48.90072680589235" lon="1.891845053215959"><ele>114.0</ele><time>2026-04-24T16:24:53Z</time></trkpt><trkpt lat="48.9007721554262" lon="1.8917708100017163"><ele>113.66666666666667</ele><time>2026-04-24T16:24:54Z</time></trkpt><trkpt lat="48.90082223818675" lon="1.8916960927427535"><ele>113.33333333333334</ele><time>2026-04-24T16:24:55Z</time></trkpt><trkpt lat="48.900867208240314" lon="1.8915912459549233"><ele>113.0</ele><time>2026-04-24T16:24:56Z</time></trkpt><trkpt lat="48.90092075134348" lon="1.8915081351231757"><ele>112.66666666666667</ele><time>2026-04-24T16:24:57Z</time></trkpt><trkpt lat="48.90099732699094" lon="1.8914398748694996"><ele>112.33333333333334</ele><time>2026-04-24T16:24:58Z</time></trkpt><trkpt lat="48.901070619177965" lon="1.891365430702809"><ele>112.0</ele><time>2026-04-24T16:24:59Z</time></trkpt><trkpt lat="48.901146471158334" lon="1.8912945648878532"><ele>111.8</ele><time>2026-04-24T16:25:00Z</time></trkpt><trkpt lat="48.90122158737793" lon="1.8912115840265538"><ele>111.6</ele><time>2026-04-24T16:25:01Z</time></trkpt><trkpt lat="48.90129101934899" lon="1.8911281183174058"><ele>111.39999999999999</ele><time>2026-04-24T16:25:02Z</time></trkpt><trkpt lat="48.901370610423065" lon="1.8910485262612318"><ele>111.19999999999999</ele><time>2026-04-24T16:25:03Z</time></trkpt><trkpt lat="48.90145303004638" lon="1.890958682055272"><ele>111.0</ele><time>2026-04-24T16:25:04Z</time></trkpt><trkpt lat="48.90153348157237" lon="1.8908639440782715"><ele>110.0</ele><time>2026-04-24T16:25:05Z</time></trkpt><trkpt lat="48.901620069800785" lon="1.8907787753068135"><ele>109.0</ele><time>2026-04-24T16:25:06Z</time></trkpt><trkpt lat="48.90170381861209" lon="1.890683791264634"><ele>108.0</ele><time>2026-04-24T16:25:06.999Z</time></trkpt><trkpt lat="48.901793446537035" lon="1.8905824977506236"><ele>107.0</ele><time>2026-04-24T16:25:07.999Z</time></trkpt><trkpt lat="48.90188154066332" lon="1.890483475231696"><ele>106.0</ele><time>2026-04-24T16:25:08.999Z</time></trkpt><trkpt lat="48.90197085100191" lon="1.8903842745618442"><ele>106.0</ele><time>2026-04-24T16:25:09.999Z</time></trkpt><trkpt lat="48.902054686215116" lon="1.8902722948401494"><ele>106.0</ele><time>2026-04-24T16:25:10.999Z</time></trkpt><trkpt lat="48.90212490405129" lon="1.8901558216221428"><ele>106.0</ele><time>2026-04-24T16:25:11.999Z</time></trkpt><trkpt lat="48.90219455333555" lon="1.8900236363048408"><ele>106.0</ele><time>2026-04-24T16:25:12.999Z</time></trkpt><trkpt lat="48.90225809672174" lon="1.8898759144363295"><ele>106.0</ele><time>2026-04-24T16:25:13.999Z</time></trkpt><trkpt lat="48.90231317394648" lon="1.8897209887458437"><ele>105.25</ele><time>2026-04-24T16:25:14.999Z</time></trkpt><trkpt lat="48.90236597964804" lon="1.8895556437521532"><ele>104.5</ele><time>2026-04-24T16:25:15.999Z</time></trkpt><trkpt lat="48.902406085247115" lon="1.889383539084843"><ele>103.75</ele><time>2026-04-24T16:25:16.999Z</time></trkpt><trkpt lat="48.90243326768091" lon="1.8892109763058658"><ele>103.0</ele><time>2026-04-24T16:25:17.999Z</time></trkpt><trkpt lat="48.90245692986094" lon="1.8890385265197018"><ele>103.0</ele><time>2026-04-24T16:25:18.999Z</time></trkpt><trkpt lat="48.90246552159611" lon="1.8888669558422813"><ele>103.0</ele><time>2026-04-24T16:25:19.999Z</time></trkpt><trkpt lat="48.90246987144314" lon="1.8886986650185893"><ele>103.0</ele><time>2026-04-24T16:25:20.999Z</time></trkpt><trkpt lat="48.90247119491549" lon="1.8885443878161388"><ele>103.0</ele><time>2026-04-24T16:25:21.999Z</time></trkpt><trkpt lat="48.90247444578661" lon="1.8883971632330243"><ele>103.0</ele><time>2026-04-24T16:25:22.999Z</time></trkpt><trkpt lat="48.90248608842469" lon="1.8882587628206107"><ele>103.66666666666667</ele><time>2026-04-24T16:25:23.999Z</time></trkpt><trkpt lat="48.9024963792729" lon="1.8881259999178939"><ele>104.33333333333334</ele><time>2026-04-24T16:25:24.999Z</time></trkpt><trkpt lat="48.90250921964825" lon="1.8880100066764032"><ele>105.0</ele><time>2026-04-24T16:25:25.999Z</time></trkpt><trkpt lat="48.90252959675595" lon="1.8879078549168145"><ele>105.66666666666666</ele><time>2026-04-24T16:25:26.999Z</time></trkpt><trkpt lat="48.90255651942996" lon="1.887809667888409"><ele>106.33333333333333</ele><time>2026-04-24T16:25:27.999Z</time></trkpt><trkpt lat="48.90259384618304" lon="1.8877153706434495"><ele>107.0</ele><time>2026-04-24T16:25:28.999Z</time></trkpt><trkpt lat="48.90265578793454" lon="1.887567889828832"><ele>108.19999999999999</ele><time>2026-04-24T16:25:30.999Z</time></trkpt><trkpt lat="48.90270656929721" lon="1.8874338338037697"><ele>109.39999999999999</ele><time>2026-04-24T16:25:32.999Z</time></trkpt><trkpt lat="48.902768739624" lon="1.8873031064098205"><ele>110.60000000000001</ele><time>2026-04-24T16:25:34.999Z</time></trkpt><trkpt lat="48.90283135319173" lon="1.8871727293984673"><ele>111.80000000000001</ele><time>2026-04-24T16:25:36.999Z</time></trkpt><trkpt lat="48.9028904128622" lon="1.887041419362165"><ele>113.0</ele><time>2026-04-24T16:25:38.999Z</time></trkpt><trkpt lat="48.90295303799201" lon="1.886908720511802"><ele>113.0</ele><time>2026-04-24T16:25:40.999Z</time></trkpt><trkpt lat="48.90302350525568" lon="1.886777383581265"><ele>113.00000000000001</ele><time>2026-04-24T16:25:42.999Z</time></trkpt><trkpt lat="48.90306737780211" lon="1.8866871860579368"><ele>113.00000000000001</ele><time>2026-04-24T16:25:44.999Z</time></trkpt><trkpt lat="48.903128085105195" lon="1.8865670272898905"><ele>113.0</ele><time>2026-04-24T16:25:46.999Z</time></trkpt><trkpt lat="48.903184085610356" lon="1.8864674230698455"><ele>113.0</ele><time>2026-04-24T16:25:48.999Z</time></trkpt><trkpt lat="48.90324072665272" lon="1.886380238257701"><ele>112.75</ele><time>2026-04-24T16:25:51.999Z</time></trkpt><trkpt lat="48.90329819228952" lon="1.8863182655391293"><ele>112.5</ele><time>2026-04-24T16:25:53.999Z</time></trkpt><trkpt lat="48.90336986342159" lon="1.886219649342007"><ele>112.25</ele><time>2026-04-24T16:25:55.999Z</time></trkpt><trkpt lat="48.903418108561084" lon="1.886083000903342"><ele>112.0</ele><time>2026-04-24T16:25:57.999Z</time></trkpt><trkpt lat="48.903554678329385" lon="1.8857884956729631"><ele>112.6</ele><time>2026-04-24T16:25:59.999Z</time></trkpt><trkpt lat="48.90359970378567" lon="1.8856423693830067"><ele>113.19999999999999</ele><time>2026-04-24T16:26:01.999Z</time></trkpt><trkpt lat="48.90365267817515" lon="1.8854913216285614"><ele>113.8</ele><time>2026-04-24T16:26:03.999Z</time></trkpt><trkpt lat="48.90369905324108" lon="1.8853445391314057"><ele>114.4</ele><time>2026-04-24T16:26:05.999Z</time></trkpt><trkpt lat="48.90374923531797" lon="1.8851990137453998"><ele>115.0</ele><time>2026-04-24T16:26:07.999Z</time></trkpt><trkpt lat="48.903808259137406" lon="1.8850716368975524"><ele>115.0</ele><time>2026-04-24T16:26:09.999Z</time></trkpt><trkpt lat="48.90385893110931" lon="1.8849380206401485"><ele>115.0</ele><time>2026-04-24T16:26:11.999Z</time></trkpt><trkpt lat="48.9039119416927" lon="1.8848013506603638"><ele>115.0</ele><time>2026-04-24T16:26:13.999Z</time></trkpt><trkpt lat="48.90396139956194" lon="1.884660502209914"><ele>115.0</ele><time>2026-04-24T16:26:16Z</time></trkpt><trkpt lat="48.90403285650139" lon="1.8845216836333647"><ele>115.0</ele><time>2026-04-24T16:26:18Z</time></trkpt><trkpt lat="48.90408039843385" lon="1.8843757876380662"><ele>114.6</ele><time>2026-04-24T16:26:20Z</time></trkpt><trkpt lat="48.904133703918276" lon="1.8842472877752983"><ele>114.2</ele><time>2026-04-24T16:26:22Z</time></trkpt><trkpt lat="48.90418369258034" lon="1.8841390744329813"><ele>113.80000000000001</ele><time>2026-04-24T16:26:24Z</time></trkpt><trkpt lat="48.90423957675888" lon="1.8839993272568227"><ele>113.4</ele><time>2026-04-24T16:26:26Z</time></trkpt><trkpt lat="48.904299244579846" lon="1.8838629555328679"><ele>113.0</ele><time>2026-04-24T16:26:28Z</time></trkpt><trkpt lat="48.90435918748573" lon="1.883723283560029"><ele>114.2</ele><time>2026-04-24T16:26:30Z</time></trkpt><trkpt lat="48.90440987121741" lon="1.8835703600084595"><ele>115.4</ele><time>2026-04-24T16:26:32Z</time></trkpt><trkpt lat="48.90447155054861" lon="1.883446794623397"><ele>116.60000000000001</ele><time>2026-04-24T16:26:34Z</time></trkpt><trkpt lat="48.90452663294012" lon="1.8833178338917194"><ele>117.80000000000001</ele><time>2026-04-24T16:26:36Z</time></trkpt><trkpt lat="48.90458488765302" lon="1.8831928408884944"><ele>119.0</ele><time>2026-04-24T16:26:38Z</time></trkpt><trkpt lat="48.90463545078914" lon="1.8830843269468465"><ele>118.99999999999999</ele><time>2026-04-24T16:26:40Z</time></trkpt><trkpt lat="48.904716665101894" lon="1.883023683810189"><ele>119.0</ele><time>2026-04-24T16:26:42Z</time></trkpt><trkpt lat="48.904787835378734" lon="1.8830967824703864"><ele>119.0</ele><time>2026-04-24T16:26:44Z</time></trkpt><trkpt lat="48.90483384537814" lon="1.8831682337805946"><ele>119.0</ele><time>2026-04-24T16:26:46Z</time></trkpt><trkpt lat="48.904903982708" lon="1.883225488137237"><ele>118.99999999999999</ele><time>2026-04-24T16:26:48Z</time></trkpt><trkpt lat="48.90497420052053" lon="1.8833021591291146"><ele>119.0</ele><time>2026-04-24T16:26:50Z</time></trkpt><trkpt lat="48.905041461532406" lon="1.883360697915856"><ele>119.83333333333333</ele><time>2026-04-24T16:26:52Z</time></trkpt><trkpt lat="48.90511549258506" lon="1.8834273538243673"><ele>120.66666666666666</ele><time>2026-04-24T16:26:54Z</time></trkpt><trkpt lat="48.90519768865116" lon="1.883510563005367"><ele>121.5</ele><time>2026-04-24T16:26:56Z</time></trkpt><trkpt lat="48.905277479338395" lon="1.8835810353079805"><ele>122.33333333333334</ele><time>2026-04-24T16:26:58Z</time></trkpt><trkpt lat="48.90534653116099" lon="1.8836358576480094"><ele>123.16666666666667</ele><time>2026-04-24T16:27:00Z</time></trkpt><trkpt lat="48.90542189693286" lon="1.8837159300780084"><ele>124.0</ele><time>2026-04-24T16:27:02Z</time></trkpt><trkpt lat="48.90550793577311" lon="1.8837857773734592"><ele>124.33333333333334</ele><time>2026-04-24T16:27:04Z</time></trkpt><trkpt lat="48.90558006073873" lon="1.8838525920060238"><ele>124.66666666666667</ele><time>2026-04-24T16:27:06Z</time></trkpt><trkpt lat="48.9056523264664" lon="1.8839210113438332"><ele>125.0</ele><time>2026-04-24T16:27:08Z</time></trkpt><trkpt lat="48.9057249973907" lon="1.883988265225512"><ele>125.33333333333334</ele><time>2026-04-24T16:27:10Z</time></trkpt><trkpt lat="48.90579715077513" lon="1.8840569445333355"><ele>125.66666666666667</ele><time>2026-04-24T16:27:11.999Z</time></trkpt><trkpt lat="48.90585608119753" lon="1.8841133335107743"><ele>126.0</ele><time>2026-04-24T16:27:13.999Z</time></trkpt><trkpt lat="48.90594717829389" lon="1.884166335265175"><ele>127.5</ele><time>2026-04-24T16:27:16.999Z</time></trkpt><trkpt lat="48.906014774822395" lon="1.8842317548501004"><ele>129.0</ele><time>2026-04-24T16:27:18.999Z</time></trkpt><trkpt lat="48.9060849031063" lon="1.884315503570777"><ele>130.5</ele><time>2026-04-24T16:27:20.999Z</time></trkpt><trkpt lat="48.906158020926185" lon="1.8843842614657529"><ele>132.0</ele><time>2026-04-24T16:27:22.999Z</time></trkpt><trkpt lat="48.90623584749206" lon="1.8844551923934458"><ele>133.5</ele><time>2026-04-24T16:27:24.999Z</time></trkpt><trkpt lat="48.906309039052516" lon="1.884526038561332"><ele>135.0</ele><time>2026-04-24T16:27:26.999Z</time></trkpt><trkpt lat="48.906384989948094" lon="1.8845951384049158"><ele>135.0</ele><time>2026-04-24T16:27:28.999Z</time></trkpt><trkpt lat="48.90643899489794" lon="1.8846509617323537"><ele>135.0</ele><time>2026-04-24T16:27:31.999Z</time></trkpt><trkpt lat="48.90651743018049" lon="1.8847281489193457"><ele>135.0</ele><time>2026-04-24T16:27:34.999Z</time></trkpt><trkpt lat="48.9065719134494" lon="1.884776320362118"><ele>135.0</ele><time>2026-04-24T16:27:36.999Z</time></trkpt><trkpt lat="48.90664221829856" lon="1.8848261166879459"><ele>135.0</ele><time>2026-04-24T16:27:38.999Z</time></trkpt><trkpt lat="48.90669672918152" lon="1.884899758125982"><ele>135.0</ele><time>2026-04-24T16:27:40.999Z</time></trkpt><trkpt lat="48.90676523255632" lon="1.8849340458684063"><ele>135.0</ele><time>2026-04-24T16:27:42.999Z</time></trkpt><trkpt lat="48.90683663922459" lon="1.8849190634472606"><ele>135.0</ele><time>2026-04-24T16:27:44.999Z</time></trkpt><trkpt lat="48.906824061816565" lon="1.8847971036029896"><ele>135.0</ele><time>2026-04-24T16:27:48.999Z</time></trkpt><trkpt lat="48.906768745812855" lon="1.8846667068926104"><ele>135.0</ele><time>2026-04-24T16:27:50.999Z</time></trkpt><trkpt lat="48.906721541437" lon="1.8845351320510606"><ele>135.0</ele><time>2026-04-24T16:27:52.999Z</time></trkpt><trkpt lat="48.906674421145006" lon="1.8843720536884063"><ele>135.0</ele><time>2026-04-24T16:27:54.999Z</time></trkpt><trkpt lat="48.906627074659646" lon="1.884186281052539"><ele>135.0</ele><time>2026-04-24T16:27:56.999Z</time></trkpt><trkpt lat="48.90660108367547" lon="1.8840968687784363"><ele>135.0</ele><time>2026-04-24T16:27:57.999Z</time></trkpt><trkpt lat="48.906580568034755" lon="1.8839961225527262"><ele>135.0</ele><time>2026-04-24T16:27:58.999Z</time></trkpt><trkpt lat="48.90656403382232" lon="1.8838933292249813"><ele>135.0</ele><time>2026-04-24T16:27:59.999Z</time></trkpt><trkpt lat="48.906552621083335" lon="1.8837865517815358"><ele>135.0</ele><time>2026-04-24T16:28:00.999Z</time></trkpt><trkpt lat="48.90654720270767" lon="1.8836657327492345"><ele>135.0</ele><time>2026-04-24T16:28:01.999Z</time></trkpt><trkpt lat="48.906547825281606" lon="1.8835447124862528"><ele>135.0</ele><time>2026-04-24T16:28:02.999Z</time></trkpt><trkpt lat="48.90655674437371" lon="1.8834122422740205"><ele>134.0</ele><time>2026-04-24T16:28:03.999Z</time></trkpt><trkpt lat="48.90657120673648" lon="1.8832852915921732"><ele>133.0</ele><time>2026-04-24T16:28:04.999Z</time></trkpt><trkpt lat="48.90658946659054" lon="1.8831515554272047"><ele>132.0</ele><time>2026-04-24T16:28:05.999Z</time></trkpt><trkpt lat="48.90661297569861" lon="1.8830176084973718"><ele>131.0</ele><time>2026-04-24T16:28:06.999Z</time></trkpt><trkpt lat="48.906636595218835" lon="1.8828775038321124"><ele>130.0</ele><time>2026-04-24T16:28:07.999Z</time></trkpt><trkpt lat="48.9066654218386" lon="1.8827328428221666"><ele>130.0</ele><time>2026-04-24T16:28:08.999Z</time></trkpt><trkpt lat="48.906693287216186" lon="1.8825906403927097"><ele>130.0</ele><time>2026-04-24T16:28:09.999Z</time></trkpt><trkpt lat="48.90672184668132" lon="1.8824401872753378"><ele>130.0</ele><time>2026-04-24T16:28:10.999Z</time></trkpt><trkpt lat="48.90674133603723" lon="1.8822916093407187"><ele>130.0</ele><time>2026-04-24T16:28:11.999Z</time></trkpt><trkpt lat="48.90676620545358" lon="1.8821406565556686"><ele>130.0</ele><time>2026-04-24T16:28:12.999Z</time></trkpt><trkpt lat="48.906790149732835" lon="1.8819802595130168"><ele>130.6</ele><time>2026-04-24T16:28:13.999Z</time></trkpt><trkpt lat="48.90681968536736" lon="1.8818215941554648"><ele>131.2</ele><time>2026-04-24T16:28:14.999Z</time></trkpt><trkpt lat="48.90684752277181" lon="1.881658507247365"><ele>131.8</ele><time>2026-04-24T16:28:15.999Z</time></trkpt><trkpt lat="48.906872163883605" lon="1.8814918669514387"><ele>132.4</ele><time>2026-04-24T16:28:16.999Z</time></trkpt><trkpt lat="48.9068999115786" lon="1.8813255646688514"><ele>133.0</ele><time>2026-04-24T16:28:17.999Z</time></trkpt><trkpt lat="48.90692393204808" lon="1.881158009282956"><ele>133.0</ele><time>2026-04-24T16:28:18.999Z</time></trkpt><trkpt lat="48.906944479707896" lon="1.8809927185021438"><ele>133.0</ele><time>2026-04-24T16:28:19.999Z</time></trkpt><trkpt lat="48.9069708755309" lon="1.8808279960037924"><ele>133.0</ele><time>2026-04-24T16:28:21Z</time></trkpt><trkpt lat="48.90699272039848" lon="1.880660607143579"><ele>133.0</ele><time>2026-04-24T16:28:22Z</time></trkpt><trkpt lat="48.90701978079123" lon="1.8804972637030883"><ele>133.0</ele><time>2026-04-24T16:28:23Z</time></trkpt><trkpt lat="48.90704078055564" lon="1.88032971822627"><ele>132.8</ele><time>2026-04-24T16:28:24Z</time></trkpt><trkpt lat="48.90705900725454" lon="1.8801688353540236"><ele>132.60000000000002</ele><time>2026-04-24T16:28:25Z</time></trkpt><trkpt lat="48.907068876005916" lon="1.880011045089765"><ele>132.39999999999998</ele><time>2026-04-24T16:28:26Z</time></trkpt><trkpt lat="48.90707020388868" lon="1.8798542987632065"><ele>132.2</ele><time>2026-04-24T16:28:27Z</time></trkpt><trkpt lat="48.90706152273567" lon="1.8796999116555941"><ele>132.0</ele><time>2026-04-24T16:28:28Z</time></trkpt><trkpt lat="48.907052325379745" lon="1.8795459770578793"><ele>131.79999999999998</ele><time>2026-04-24T16:28:29Z</time></trkpt><trkpt lat="48.907035907180855" lon="1.8793963365827784"><ele>131.6</ele><time>2026-04-24T16:28:30Z</time></trkpt><trkpt lat="48.90702204536949" lon="1.879247994415848"><ele>131.39999999999998</ele><time>2026-04-24T16:28:31Z</time></trkpt><trkpt lat="48.90701152429451" lon="1.8790996022671178"><ele>131.2</ele><time>2026-04-24T16:28:32Z</time></trkpt><trkpt lat="48.906997461922394" lon="1.8789523988305687"><ele>131.0</ele><time>2026-04-24T16:28:33Z</time></trkpt><trkpt lat="48.90698340489099" lon="1.8788097750294623"><ele>131.0</ele><time>2026-04-24T16:28:34Z</time></trkpt><trkpt lat="48.90697198445081" lon="1.8786692637374367"><ele>131.0</ele><time>2026-04-24T16:28:35Z</time></trkpt><trkpt lat="48.90695809039791" lon="1.8785301671177637"><ele>131.0</ele><time>2026-04-24T16:28:36Z</time></trkpt><trkpt lat="48.90694665469521" lon="1.8783877274750944"><ele>131.0</ele><time>2026-04-24T16:28:37Z</time></trkpt><trkpt lat="48.906926090913586" lon="1.8782467448926712"><ele>131.0</ele><time>2026-04-24T16:28:38Z</time></trkpt><trkpt lat="48.90691245308173" lon="1.8781043940646602"><ele>131.0</ele><time>2026-04-24T16:28:39Z</time></trkpt><trkpt lat="48.90689963128436" lon="1.87796187006924"><ele>131.0</ele><time>2026-04-24T16:28:40Z</time></trkpt><trkpt lat="48.906893326465436" lon="1.8778176522692442"><ele>131.0</ele><time>2026-04-24T16:28:41Z</time></trkpt><trkpt lat="48.906885816015055" lon="1.8776728322768603"><ele>131.0</ele><time>2026-04-24T16:28:42Z</time></trkpt><trkpt lat="48.90686939276753" lon="1.8775246159886951"><ele>131.0</ele><time>2026-04-24T16:28:43Z</time></trkpt><trkpt lat="48.90685327250566" lon="1.8773794077804384"><ele>131.0</ele><time>2026-04-24T16:28:44Z</time></trkpt><trkpt lat="48.9068422636075" lon="1.8772341228614355"><ele>131.0</ele><time>2026-04-24T16:28:45Z</time></trkpt><trkpt lat="48.90683043607755" lon="1.8770821477360347"><ele>131.0</ele><time>2026-04-24T16:28:46Z</time></trkpt><trkpt lat="48.906818574677814" lon="1.8769341665429837"><ele>131.0</ele><time>2026-04-24T16:28:47Z</time></trkpt><trkpt lat="48.90680474661852" lon="1.8767870857182618"><ele>131.0</ele><time>2026-04-24T16:28:48Z</time></trkpt><trkpt lat="48.9067910227053" lon="1.8766448323577414"><ele>130.4</ele><time>2026-04-24T16:28:49Z</time></trkpt><trkpt lat="48.90677748648337" lon="1.8764931733801298"><ele>129.8</ele><time>2026-04-24T16:28:50Z</time></trkpt><trkpt lat="48.90676296364036" lon="1.8763472963320802"><ele>129.20000000000002</ele><time>2026-04-24T16:28:51Z</time></trkpt><trkpt lat="48.906752991124414" lon="1.8761940237264534"><ele>128.6</ele><time>2026-04-24T16:28:52Z</time></trkpt><trkpt lat="48.906741884543855" lon="1.876044582993977"><ele>128.0</ele><time>2026-04-24T16:28:53Z</time></trkpt><trkpt lat="48.906730482948156" lon="1.8758918824763493"><ele>126.60000000000001</ele><time>2026-04-24T16:28:54Z</time></trkpt><trkpt lat="48.90671894237935" lon="1.8757404462040204"><ele>125.20000000000002</ele><time>2026-04-24T16:28:55Z</time></trkpt><trkpt lat="48.90670706532507" lon="1.8755881075526633"><ele>123.8</ele><time>2026-04-24T16:28:56Z</time></trkpt><trkpt lat="48.9066921294784" lon="1.875432301008949"><ele>122.4</ele><time>2026-04-24T16:28:57Z</time></trkpt><trkpt lat="48.90667794568257" lon="1.8752809497947325"><ele>121.0</ele><time>2026-04-24T16:28:58Z</time></trkpt><trkpt lat="48.90665747487095" lon="1.8751227407242976"><ele>120.8</ele><time>2026-04-24T16:28:59Z</time></trkpt><trkpt lat="48.90663811994954" lon="1.8749722424870403"><ele>120.6</ele><time>2026-04-24T16:29:00Z</time></trkpt><trkpt lat="48.906616218096374" lon="1.8748199704862398"><ele>120.4</ele><time>2026-04-24T16:29:01Z</time></trkpt><trkpt lat="48.90659058849649" lon="1.8746659482604284"><ele>120.2</ele><time>2026-04-24T16:29:02Z</time></trkpt><trkpt lat="48.90656804588887" lon="1.874508745661248"><ele>120.0</ele><time>2026-04-24T16:29:03Z</time></trkpt><trkpt lat="48.90654573801925" lon="1.8743507251499754"><ele>119.6</ele><time>2026-04-24T16:29:04Z</time></trkpt><trkpt lat="48.906523796483725" lon="1.8741921794216438"><ele>119.2</ele><time>2026-04-24T16:29:05Z</time></trkpt><trkpt lat="48.90649852947568" lon="1.874040485820936"><ele>118.80000000000001</ele><time>2026-04-24T16:29:06Z</time></trkpt><trkpt lat="48.90647084393025" lon="1.8738867565650803"><ele>118.4</ele><time>2026-04-24T16:29:07Z</time></trkpt><trkpt lat="48.90644564842195" lon="1.8737325678813805"><ele>118.0</ele><time>2026-04-24T16:29:08Z</time></trkpt><trkpt lat="48.90642193920676" lon="1.873581161130531"><ele>117.60000000000001</ele><time>2026-04-24T16:29:09Z</time></trkpt><trkpt lat="48.90639846524522" lon="1.873424668409417"><ele>117.20000000000002</ele><time>2026-04-24T16:29:10Z</time></trkpt><trkpt lat="48.906378324991394" lon="1.873270511079071"><ele>116.8</ele><time>2026-04-24T16:29:11Z</time></trkpt><trkpt lat="48.906358929141255" lon="1.8731103302865781"><ele>116.4</ele><time>2026-04-24T16:29:12Z</time></trkpt><trkpt lat="48.90634281761963" lon="1.8729541614064547"><ele>116.0</ele><time>2026-04-24T16:29:13Z</time></trkpt><trkpt lat="48.906329453863144" lon="1.8727995052545183"><ele>116.0</ele><time>2026-04-24T16:29:14Z</time></trkpt><trkpt lat="48.90631657060382" lon="1.8726472810108854"><ele>116.0</ele><time>2026-04-24T16:29:15Z</time></trkpt><trkpt lat="48.906308304158784" lon="1.8725007827629525"><ele>116.0</ele><time>2026-04-24T16:29:16Z</time></trkpt><trkpt lat="48.90631284945409" lon="1.8723507285122598"><ele>116.0</ele><time>2026-04-24T16:29:16.999Z</time></trkpt><trkpt lat="48.90631538218179" lon="1.8722044479336326"><ele>116.0</ele><time>2026-04-24T16:29:17.999Z</time></trkpt><trkpt lat="48.90631367684633" lon="1.8720503464833746"><ele>115.6</ele><time>2026-04-24T16:29:18.999Z</time></trkpt><trkpt lat="48.90631663881416" lon="1.871897589484588"><ele>115.19999999999999</ele><time>2026-04-24T16:29:19.999Z</time></trkpt><trkpt lat="48.90632115463309" lon="1.8717451731516825"><ele>114.80000000000001</ele><time>2026-04-24T16:29:20.999Z</time></trkpt><trkpt lat="48.90632725332231" lon="1.871595577098059"><ele>114.4</ele><time>2026-04-24T16:29:21.999Z</time></trkpt><trkpt lat="48.906336045813156" lon="1.8714473015348527"><ele>114.0</ele><time>2026-04-24T16:29:22.999Z</time></trkpt><trkpt lat="48.90633461558388" lon="1.871290697241127"><ele>113.4</ele><time>2026-04-24T16:29:23.999Z</time></trkpt><trkpt lat="48.906337490722294" lon="1.8711382852146798"><ele>112.80000000000001</ele><time>2026-04-24T16:29:24.999Z</time></trkpt><trkpt lat="48.906335902312414" lon="1.8709901114070793"><ele>112.19999999999999</ele><time>2026-04-24T16:29:25.999Z</time></trkpt><trkpt lat="48.90634007236291" lon="1.8708441549155832"><ele>111.6</ele><time>2026-04-24T16:29:26.999Z</time></trkpt><trkpt lat="48.90634522225839" lon="1.8706981570111687"><ele>111.0</ele><time>2026-04-24T16:29:27.999Z</time></trkpt><trkpt lat="48.90634974046253" lon="1.8705514597781308"><ele>110.8</ele><time>2026-04-24T16:29:28.999Z</time></trkpt><trkpt lat="48.906353953013635" lon="1.8704060285764086"><ele>110.6</ele><time>2026-04-24T16:29:29.999Z</time></trkpt><trkpt lat="48.906352739928124" lon="1.8702600625137253"><ele>110.4</ele><time>2026-04-24T16:29:30.999Z</time></trkpt><trkpt lat="48.90634645759089" lon="1.8701208336712973"><ele>110.2</ele><time>2026-04-24T16:29:31.999Z</time></trkpt><trkpt lat="48.90633435304484" lon="1.8699797409747856"><ele>110.0</ele><time>2026-04-24T16:29:32.999Z</time></trkpt><trkpt lat="48.90632021524773" lon="1.8698468120917127"><ele>109.83333333333333</ele><time>2026-04-24T16:29:33.999Z</time></trkpt><trkpt lat="48.90630751847188" lon="1.8697138625562089"><ele>109.66666666666666</ele><time>2026-04-24T16:29:34.999Z</time></trkpt><trkpt lat="48.906287776902154" lon="1.8695938703205137"><ele>109.5</ele><time>2026-04-24T16:29:35.999Z</time></trkpt><trkpt lat="48.90627776704996" lon="1.869464004675205"><ele>109.33333333333334</ele><time>2026-04-24T16:29:36.999Z</time></trkpt><trkpt lat="48.90626379972771" lon="1.8693393253546147"><ele>109.16666666666667</ele><time>2026-04-24T16:29:37.999Z</time></trkpt><trkpt lat="48.90625493080217" lon="1.8692206468582644"><ele>109.0</ele><time>2026-04-24T16:29:38.999Z</time></trkpt><trkpt lat="48.90625080920386" lon="1.869096361897905"><ele>108.80000000000001</ele><time>2026-04-24T16:29:39.999Z</time></trkpt><trkpt lat="48.90625154893197" lon="1.868985591545934"><ele>108.60000000000001</ele><time>2026-04-24T16:29:40.999Z</time></trkpt><trkpt lat="48.906270889603555" lon="1.868894361245967"><ele>108.4</ele><time>2026-04-24T16:29:41.999Z</time></trkpt><trkpt lat="48.90636699865777" lon="1.8688164621785128"><ele>108.2</ele><time>2026-04-24T16:29:43.999Z</time></trkpt><trkpt lat="48.906473264513124" lon="1.8688315941755158"><ele>108.0</ele><time>2026-04-24T16:29:45.999Z</time></trkpt><trkpt lat="48.90657417355849" lon="1.868827388798348"><ele>108.0</ele><time>2026-04-24T16:29:47.999Z</time></trkpt><trkpt lat="48.90667908416692" lon="1.8688006256336624"><ele>108.00000000000001</ele><time>2026-04-24T16:29:49.999Z</time></trkpt><trkpt lat="48.90678993636524" lon="1.8687669244751388"><ele>108.00000000000001</ele><time>2026-04-24T16:29:51.999Z</time></trkpt><trkpt lat="48.90690312344359" lon="1.868728715932345"><ele>108.0</ele><time>2026-04-24T16:29:53.999Z</time></trkpt><trkpt lat="48.907015099158876" lon="1.8687067295322626"><ele>108.0</ele><time>2026-04-24T16:29:55.999Z</time></trkpt><trkpt lat="48.90712895789899" lon="1.868673369423363"><ele>108.5</ele><time>2026-04-24T16:29:57.999Z</time></trkpt><trkpt lat="48.90724126733413" lon="1.868630731491239"><ele>109.0</ele><time>2026-04-24T16:29:59.999Z</time></trkpt><trkpt lat="48.90734813942208" lon="1.8685652377267843"><ele>109.5</ele><time>2026-04-24T16:30:01.999Z</time></trkpt><trkpt lat="48.90746061354051" lon="1.8684960404279616"><ele>110.0</ele><time>2026-04-24T16:30:03.999Z</time></trkpt><trkpt lat="48.907576494367554" lon="1.8684199460849067"><ele>110.2</ele><time>2026-04-24T16:30:05.999Z</time></trkpt><trkpt lat="48.90768772725446" lon="1.8683422149843611"><ele>110.4</ele><time>2026-04-24T16:30:07.999Z</time></trkpt><trkpt lat="48.90780531450711" lon="1.8682776906931864"><ele>110.6</ele><time>2026-04-24T16:30:09.999Z</time></trkpt><trkpt lat="48.90786855657035" lon="1.868246897050638"><ele>110.8</ele><time>2026-04-24T16:30:10.999Z</time></trkpt><trkpt lat="48.90798933068031" lon="1.8681895317422343"><ele>111.0</ele><time>2026-04-24T16:30:12.999Z</time></trkpt><trkpt lat="48.908102696146976" lon="1.8681204471470607"><ele>111.0</ele><time>2026-04-24T16:30:14.999Z</time></trkpt><trkpt lat="48.90821421991369" lon="1.868065587207645"><ele>111.0</ele><time>2026-04-24T16:30:16.999Z</time></trkpt><trkpt lat="48.90839017141593" lon="1.8680244956186496"><ele>111.0</ele><time>2026-04-24T16:30:19.999Z</time></trkpt><trkpt lat="48.90849852188522" lon="1.867980147165907"><ele>111.0</ele><time>2026-04-24T16:30:21.999Z</time></trkpt><trkpt lat="48.90862405850665" lon="1.8679546167206218"><ele>111.0</ele><time>2026-04-24T16:30:23.999Z</time></trkpt><trkpt lat="48.90877775602915" lon="1.8679304412457438"><ele>111.0</ele><time>2026-04-24T16:30:27Z</time></trkpt><trkpt lat="48.908876005897376" lon="1.8679137556778262"><ele>111.0</ele><time>2026-04-24T16:30:29Z</time></trkpt><trkpt lat="48.908969668520136" lon="1.86791769792975"><ele>111.0</ele><time>2026-04-24T16:30:31Z</time></trkpt><trkpt lat="48.90908199606358" lon="1.867934357489653"><ele>111.0</ele><time>2026-04-24T16:30:33Z</time></trkpt><trkpt lat="48.90918981161529" lon="1.8679484015294818"><ele>111.0</ele><time>2026-04-24T16:30:35Z</time></trkpt><trkpt lat="48.90927993429684" lon="1.8679768963680448"><ele>111.0</ele><time>2026-04-24T16:30:37Z</time></trkpt><trkpt lat="48.90938222454293" lon="1.8680073041637193"><ele>111.0</ele><time>2026-04-24T16:30:39Z</time></trkpt><trkpt lat="48.90947991446454" lon="1.8680618265779796"><ele>111.0</ele><time>2026-04-24T16:30:41Z</time></trkpt><trkpt lat="48.90959427364769" lon="1.8680903774723907"><ele>110.8</ele><time>2026-04-24T16:30:43Z</time></trkpt><trkpt lat="48.90969477357068" lon="1.8681448241598522"><ele>110.6</ele><time>2026-04-24T16:30:45Z</time></trkpt><trkpt lat="48.909803004818635" lon="1.8681783375529015"><ele>110.4</ele><time>2026-04-24T16:30:47Z</time></trkpt><trkpt lat="48.90989441060611" lon="1.868254238857197"><ele>110.2</ele><time>2026-04-24T16:30:49Z</time></trkpt><trkpt lat="48.909982652101455" lon="1.8683109626253391"><ele>110.0</ele><time>2026-04-24T16:30:51Z</time></trkpt><trkpt lat="48.91008473883145" lon="1.8683701693685926"><ele>108.99999999999999</ele><time>2026-04-24T16:30:53Z</time></trkpt><trkpt lat="48.91018789248148" lon="1.8684173700676596"><ele>108.0</ele><time>2026-04-24T16:30:55Z</time></trkpt><trkpt lat="48.91025113130106" lon="1.8684100199671332"><ele>107.0</ele><time>2026-04-24T16:30:56Z</time></trkpt><trkpt lat="48.91035177396275" lon="1.868326378985337"><ele>106.0</ele><time>2026-04-24T16:30:58Z</time></trkpt><trkpt lat="48.910396692475935" lon="1.86825675111334"><ele>104.99999999999999</ele><time>2026-04-24T16:30:59Z</time></trkpt><trkpt lat="48.91044105870428" lon="1.868145049932363"><ele>104.0</ele><time>2026-04-24T16:31:00Z</time></trkpt><trkpt lat="48.91048185054366" lon="1.8679847092184714"><ele>104.0</ele><time>2026-04-24T16:31:02Z</time></trkpt><trkpt lat="48.91050883031251" lon="1.8678820935374025"><ele>104.0</ele><time>2026-04-24T16:31:03Z</time></trkpt><trkpt lat="48.91054078370354" lon="1.867794209596723"><ele>104.0</ele><time>2026-04-24T16:31:04Z</time></trkpt><trkpt lat="48.910566845213495" lon="1.8676804641146376"><ele>104.0</ele><time>2026-04-24T16:31:06Z</time></trkpt><trkpt lat="48.91057686797828" lon="1.8675822811498555"><ele>104.0</ele><time>2026-04-24T16:31:35.999Z</time></trkpt><trkpt lat="48.9106052630281" lon="1.8674763603123448"><ele>104.0</ele><time>2026-04-24T16:31:38.999Z</time></trkpt><trkpt lat="48.91064527349444" lon="1.8673707507342547"><ele>104.0</ele><time>2026-04-24T16:31:40.999Z</time></trkpt><trkpt lat="48.910694436792184" lon="1.8672103772244053"><ele>103.83333333333333</ele><time>2026-04-24T16:31:42.999Z</time></trkpt><trkpt lat="48.91072480417504" lon="1.867120051567157"><ele>103.66666666666666</ele><time>2026-04-24T16:31:43.999Z</time></trkpt><trkpt lat="48.91076150076101" lon="1.8670203913479142"><ele>103.5</ele><time>2026-04-24T16:31:44.999Z</time></trkpt><trkpt lat="48.91080035289223" lon="1.8669378703265613"><ele>103.33333333333334</ele><time>2026-04-24T16:31:45.999Z</time></trkpt><trkpt lat="48.910875531903855" lon="1.8668137916741534"><ele>103.16666666666667</ele><time>2026-04-24T16:31:47.999Z</time></trkpt><trkpt lat="48.91096966520045" lon="1.8667205486350318"><ele>103.0</ele><time>2026-04-24T16:31:49.999Z</time></trkpt><trkpt lat="48.91103562134968" lon="1.866669177142583"><ele>101.83333333333334</ele><time>2026-04-24T16:31:50.999Z</time></trkpt><trkpt lat="48.91110310151862" lon="1.8666288817036698"><ele>100.66666666666667</ele><time>2026-04-24T16:31:51.999Z</time></trkpt><trkpt lat="48.91118098925703" lon="1.8665945972600324"><ele>99.5</ele><time>2026-04-24T16:31:52.999Z</time></trkpt><trkpt lat="48.911259706022655" lon="1.8665476546195667"><ele>98.33333333333334</ele><time>2026-04-24T16:31:53.999Z</time></trkpt><trkpt lat="48.91134599296138" lon="1.8665049391355002"><ele>97.16666666666667</ele><time>2026-04-24T16:31:54.999Z</time></trkpt><trkpt lat="48.91143727909063" lon="1.8664684853224884"><ele>96.0</ele><time>2026-04-24T16:31:55.999Z</time></trkpt><trkpt lat="48.91153221354028" lon="1.866429950594215"><ele>96.0</ele><time>2026-04-24T16:31:56.999Z</time></trkpt><trkpt lat="48.91162072121922" lon="1.866398503365169"><ele>96.0</ele><time>2026-04-24T16:31:57.999Z</time></trkpt><trkpt lat="48.91169800686115" lon="1.8663613103283156"><ele>96.0</ele><time>2026-04-24T16:31:58.999Z</time></trkpt><trkpt lat="48.91175922617453" lon="1.8663367020266302"><ele>96.0</ele><time>2026-04-24T16:31:59.999Z</time></trkpt><trkpt lat="48.91184671806197" lon="1.8663147826271644"><ele>96.0</ele><time>2026-04-24T16:32:01.999Z</time></trkpt><trkpt lat="48.91190566600803" lon="1.8662805764561905"><ele>96.0</ele><time>2026-04-24T16:32:03.999Z</time></trkpt><trkpt lat="48.91187356443861" lon="1.8661800319726727"><ele>96.0</ele><time>2026-04-24T16:32:06.999Z</time></trkpt><trkpt lat="48.91179029947027" lon="1.866230999516685"><ele>96.0</ele><time>2026-04-24T16:32:08.999Z</time></trkpt><trkpt lat="48.91171849080242" lon="1.8663250259980675"><ele>96.0</ele><time>2026-04-24T16:32:10.999Z</time></trkpt><trkpt lat="48.91162632967568" lon="1.8663908419350967"><ele>96.0</ele><time>2026-04-24T16:32:12.999Z</time></trkpt><trkpt lat="48.911524180364836" lon="1.8664357124162951"><ele>96.0</ele><time>2026-04-24T16:32:14.999Z</time></trkpt><trkpt lat="48.91142702951397" lon="1.8664635631481903"><ele>96.0</ele><time>2026-04-24T16:32:16.999Z</time></trkpt><trkpt lat="48.91133680817024" lon="1.866506817511617"><ele>96.0</ele><time>2026-04-24T16:32:18.999Z</time></trkpt><trkpt lat="48.911241973796066" lon="1.8665534906226722"><ele>96.0</ele><time>2026-04-24T16:32:20.999Z</time></trkpt><trkpt lat="48.91115508728126" lon="1.866609592527585"><ele>96.0</ele><time>2026-04-24T16:32:22.999Z</time></trkpt><trkpt lat="48.91108759142888" lon="1.8666740244106053"><ele>96.0</ele><time>2026-04-24T16:32:25.999Z</time></trkpt><trkpt lat="48.91101982429472" lon="1.8667314987766086"><ele>96.0</ele><time>2026-04-24T16:32:28.999Z</time></trkpt><trkpt lat="48.91097878950434" lon="1.8668235253548462"><ele>96.28571428571428</ele><time>2026-04-24T16:32:30.999Z</time></trkpt><trkpt lat="48.91091290290058" lon="1.8669244544333736"><ele>96.57142857142857</ele><time>2026-04-24T16:32:33.999Z</time></trkpt><trkpt lat="48.91086684644648" lon="1.8670093228944884"><ele>96.85714285714286</ele><time>2026-04-24T16:32:35.999Z</time></trkpt><trkpt lat="48.9108258584098" lon="1.8670940883532976"><ele>97.14285714285714</ele><time>2026-04-24T16:32:37.999Z</time></trkpt><trkpt lat="48.910782036199414" lon="1.867180718247835"><ele>97.42857142857143</ele><time>2026-04-24T16:32:40Z</time></trkpt><trkpt lat="48.910724882771646" lon="1.8672502174972974"><ele>97.71428571428571</ele><time>2026-04-24T16:32:42Z</time></trkpt><trkpt lat="48.910683087377656" lon="1.867322207603446"><ele>98.0</ele><time>2026-04-24T16:32:44Z</time></trkpt><trkpt lat="48.91063950854962" lon="1.8674419153017703"><ele>98.83333333333333</ele><time>2026-04-24T16:32:47Z</time></trkpt><trkpt lat="48.91060657899495" lon="1.8675783269476893"><ele>99.66666666666666</ele><time>2026-04-24T16:32:50Z</time></trkpt><trkpt lat="48.910572475786104" lon="1.8676836348826562"><ele>100.5</ele><time>2026-04-24T16:32:52Z</time></trkpt><trkpt lat="48.910526086767035" lon="1.8678055368337116"><ele>101.33333333333334</ele><time>2026-04-24T16:32:54Z</time></trkpt><trkpt lat="48.91047941704623" lon="1.8678855994953825"><ele>102.16666666666667</ele><time>2026-04-24T16:32:56Z</time></trkpt><trkpt lat="48.91043773373196" lon="1.8679849939376434"><ele>103.0</ele><time>2026-04-24T16:32:58Z</time></trkpt><trkpt lat="48.9103883780013" lon="1.8680989069573308"><ele>103.2</ele><time>2026-04-24T16:33:00Z</time></trkpt><trkpt lat="48.91031027793491" lon="1.8682012113357258"><ele>103.4</ele><time>2026-04-24T16:33:02Z</time></trkpt><trkpt lat="48.910238496663794" lon="1.868248390179035"><ele>103.60000000000001</ele><time>2026-04-24T16:33:04Z</time></trkpt><trkpt lat="48.91016022570157" lon="1.868244870401926"><ele>103.80000000000001</ele><time>2026-04-24T16:33:06Z</time></trkpt><trkpt lat="48.910071194187594" lon="1.8682124003724447"><ele>104.0</ele><time>2026-04-24T16:33:08Z</time></trkpt><trkpt lat="48.90997661296257" lon="1.8681681838556017"><ele>105.5</ele><time>2026-04-24T16:33:10Z</time></trkpt><trkpt lat="48.909878697676675" lon="1.8681292645674625"><ele>107.0</ele><time>2026-04-24T16:33:11.999Z</time></trkpt><trkpt lat="48.90978068743149" lon="1.8680822400299408"><ele>108.5</ele><time>2026-04-24T16:33:13.999Z</time></trkpt><trkpt lat="48.90967597802572" lon="1.8680439185509332"><ele>110.0</ele><time>2026-04-24T16:33:15.999Z</time></trkpt><trkpt lat="48.90949467395699" lon="1.867993869019329"><ele>110.0</ele><time>2026-04-24T16:33:21.999Z</time></trkpt><trkpt lat="48.909412995529244" lon="1.8679786934069869"><ele>110.0</ele><time>2026-04-24T16:33:22.999Z</time></trkpt><trkpt lat="48.9092946022175" lon="1.8679559198797193"><ele>110.0</ele><time>2026-04-24T16:33:24.999Z</time></trkpt><trkpt lat="48.90918028858257" lon="1.8679244619291926"><ele>110.0</ele><time>2026-04-24T16:33:26.999Z</time></trkpt><trkpt lat="48.90905809148902" lon="1.8679033695404377"><ele>110.0</ele><time>2026-04-24T16:33:28.999Z</time></trkpt><trkpt lat="48.908934827439566" lon="1.867907726689135"><ele>110.2</ele><time>2026-04-24T16:33:30.999Z</time></trkpt><trkpt lat="48.90880787117132" lon="1.8679106748210628"><ele>110.4</ele><time>2026-04-24T16:33:32.999Z</time></trkpt><trkpt lat="48.90867884557004" lon="1.8679230115015268"><ele>110.6</ele><time>2026-04-24T16:33:34.999Z</time></trkpt><trkpt lat="48.90861331384994" lon="1.8679336349050528"><ele>110.8</ele><time>2026-04-24T16:33:35.999Z</time></trkpt><trkpt lat="48.908552308260646" lon="1.8679586959050565"><ele>111.0</ele><time>2026-04-24T16:33:36.999Z</time></trkpt><trkpt lat="48.90842789544987" lon="1.8679984919787844"><ele>111.0</ele><time>2026-04-24T16:33:38.999Z</time></trkpt><trkpt lat="48.90836417191575" lon="1.8680108060632725"><ele>111.0</ele><time>2026-04-24T16:33:39.999Z</time></trkpt><trkpt lat="48.9082928007385" lon="1.868037137275808"><ele>111.0</ele><time>2026-04-24T16:33:40.999Z</time></trkpt><trkpt lat="48.90822947689419" lon="1.8680651458241047"><ele>111.0</ele><time>2026-04-24T16:33:41.999Z</time></trkpt><trkpt lat="48.90816364628" lon="1.8681040148430281"><ele>111.0</ele><time>2026-04-24T16:33:42.999Z</time></trkpt><trkpt lat="48.90810391351895" lon="1.8681394277181196"><ele>111.0</ele><time>2026-04-24T16:33:43.999Z</time></trkpt><trkpt lat="48.90804145062303" lon="1.8681725682861652"><ele>111.0</ele><time>2026-04-24T16:33:44.999Z</time></trkpt><trkpt lat="48.90797283963806" lon="1.868185103664645"><ele>111.0</ele><time>2026-04-24T16:33:45.999Z</time></trkpt><trkpt lat="48.90790316588139" lon="1.8682166640644218"><ele>111.0</ele><time>2026-04-24T16:33:46.999Z</time></trkpt><trkpt lat="48.907836788194494" lon="1.868246315344326"><ele>111.0</ele><time>2026-04-24T16:33:47.999Z</time></trkpt><trkpt lat="48.907772092319696" lon="1.86827713451528"><ele>111.0</ele><time>2026-04-24T16:33:48.999Z</time></trkpt><trkpt lat="48.90770076648401" lon="1.868310878932138"><ele>111.0</ele><time>2026-04-24T16:33:49.999Z</time></trkpt><trkpt lat="48.90763659627448" lon="1.8683554024806333"><ele>111.0</ele><time>2026-04-24T16:33:50.999Z</time></trkpt><trkpt lat="48.907569819588886" lon="1.8684018615137183"><ele>111.0</ele><time>2026-04-24T16:33:51.999Z</time></trkpt><trkpt lat="48.907503720807576" lon="1.8684466314550763"><ele>110.8</ele><time>2026-04-24T16:33:52.999Z</time></trkpt><trkpt lat="48.90743983055472" lon="1.8684882625470518"><ele>110.6</ele><time>2026-04-24T16:33:53.999Z</time></trkpt><trkpt lat="48.90737234440158" lon="1.8685284946517655"><ele>110.4</ele><time>2026-04-24T16:33:54.999Z</time></trkpt><trkpt lat="48.90730567598705" lon="1.8685674167565658"><ele>110.2</ele><time>2026-04-24T16:33:55.999Z</time></trkpt><trkpt lat="48.90718130686485" lon="1.8686259589973964"><ele>110.0</ele><time>2026-04-24T16:33:57.999Z</time></trkpt><trkpt lat="48.907053749682255" lon="1.86867919681712"><ele>109.99999999999999</ele><time>2026-04-24T16:33:59.999Z</time></trkpt><trkpt lat="48.90698551190864" lon="1.8686959533982772"><ele>110.0</ele><time>2026-04-24T16:34:00.999Z</time></trkpt><trkpt lat="48.90691505698364" lon="1.868715590879419"><ele>110.0</ele><time>2026-04-24T16:34:01.999Z</time></trkpt><trkpt lat="48.906841386197236" lon="1.8687327641240745"><ele>110.0</ele><time>2026-04-24T16:34:02.999Z</time></trkpt><trkpt lat="48.90676954555615" lon="1.8687484924729416"><ele>110.0</ele><time>2026-04-24T16:34:03.999Z</time></trkpt><trkpt lat="48.906697761752596" lon="1.8687612526155413"><ele>109.99999999999999</ele><time>2026-04-24T16:34:04.999Z</time></trkpt><trkpt lat="48.90662919642863" lon="1.8687774903849947"><ele>110.0</ele><time>2026-04-24T16:34:05.999Z</time></trkpt><trkpt lat="48.90655736447944" lon="1.8687901521834334"><ele>109.66666666666666</ele><time>2026-04-24T16:34:06.999Z</time></trkpt><trkpt lat="48.90648661330927" lon="1.8688086269644"><ele>109.33333333333333</ele><time>2026-04-24T16:34:07.999Z</time></trkpt><trkpt lat="48.90641607984247" lon="1.8688296391777763"><ele>109.0</ele><time>2026-04-24T16:34:08.999Z</time></trkpt><trkpt lat="48.9063525703025" lon="1.8688517962773643"><ele>108.66666666666666</ele><time>2026-04-24T16:34:09.999Z</time></trkpt><trkpt lat="48.906290599436595" lon="1.8688887183570557"><ele>108.33333333333333</ele><time>2026-04-24T16:34:10.999Z</time></trkpt><trkpt lat="48.906211123472396" lon="1.8690422769104251"><ele>108.0</ele><time>2026-04-24T16:34:12.999Z</time></trkpt><trkpt lat="48.9061984274517" lon="1.869137793866452"><ele>108.0</ele><time>2026-04-24T16:34:13.999Z</time></trkpt><trkpt lat="48.906199453846675" lon="1.8692434071136135"><ele>108.00000000000001</ele><time>2026-04-24T16:34:14.999Z</time></trkpt><trkpt lat="48.9062115860487" lon="1.8693459695804828"><ele>108.00000000000001</ele><time>2026-04-24T16:34:15.999Z</time></trkpt><trkpt lat="48.906223933732335" lon="1.8694454056174994"><ele>108.0</ele><time>2026-04-24T16:34:16.999Z</time></trkpt><trkpt lat="48.906233526414766" lon="1.8696369642719932"><ele>108.0</ele><time>2026-04-24T16:34:18.999Z</time></trkpt><trkpt lat="48.906251106214434" lon="1.8698173595734144"><ele>108.16666666666667</ele><time>2026-04-24T16:34:20.999Z</time></trkpt><trkpt lat="48.906265646821616" lon="1.869917738639357"><ele>108.33333333333334</ele><time>2026-04-24T16:34:21.999Z</time></trkpt><trkpt lat="48.90628559402543" lon="1.8700994888133768"><ele>108.5</ele><time>2026-04-24T16:34:23.999Z</time></trkpt><trkpt lat="48.90629270795492" lon="1.8702795776719872"><ele>108.66666666666667</ele><time>2026-04-24T16:34:25.999Z</time></trkpt><trkpt lat="48.906304210891236" lon="1.870378283926645"><ele>108.83333333333334</ele><time>2026-04-24T16:34:26.999Z</time></trkpt><trkpt lat="48.906297825290096" lon="1.8704761319514869"><ele>109.0</ele><time>2026-04-24T16:34:27.999Z</time></trkpt><trkpt lat="48.906293222922486" lon="1.8705738936762246"><ele>109.2</ele><time>2026-04-24T16:34:28.999Z</time></trkpt><trkpt lat="48.90629173926054" lon="1.8706718765165726"><ele>109.4</ele><time>2026-04-24T16:34:29.999Z</time></trkpt><trkpt lat="48.9062835152027" lon="1.8708545912365415"><ele>109.6</ele><time>2026-04-24T16:34:31.999Z</time></trkpt><trkpt lat="48.90628177720778" lon="1.8710310576776887"><ele>109.8</ele><time>2026-04-24T16:34:33.999Z</time></trkpt><trkpt lat="48.90627922154636" lon="1.8712168641843174"><ele>110.0</ele><time>2026-04-24T16:34:35.999Z</time></trkpt><trkpt lat="48.906274775450854" lon="1.8713935154841803"><ele>110.2</ele><time>2026-04-24T16:34:37.999Z</time></trkpt><trkpt lat="48.90627353108979" lon="1.8715783773203951"><ele>110.4</ele><time>2026-04-24T16:34:40Z</time></trkpt><trkpt lat="48.906270690310066" lon="1.8717754086182592"><ele>110.6</ele><time>2026-04-24T16:34:42Z</time></trkpt><trkpt lat="48.906267406909144" lon="1.8718723085932143"><ele>110.8</ele><time>2026-04-24T16:34:43Z</time></trkpt><trkpt lat="48.90626975292926" lon="1.8719721011668526"><ele>111.0</ele><time>2026-04-24T16:34:44Z</time></trkpt><trkpt lat="48.90626817244864" lon="1.8721672669802343"><ele>111.5</ele><time>2026-04-24T16:34:46Z</time></trkpt><trkpt lat="48.906268983561766" lon="1.8722709756277431"><ele>112.0</ele><time>2026-04-24T16:34:47Z</time></trkpt><trkpt lat="48.906268595408" lon="1.8724693925130762"><ele>112.5</ele><time>2026-04-24T16:34:49Z</time></trkpt><trkpt lat="48.90627333484994" lon="1.87256709904899"><ele>113.0</ele><time>2026-04-24T16:34:50Z</time></trkpt><trkpt lat="48.906276198024436" lon="1.8726659429066832"><ele>113.5</ele><time>2026-04-24T16:34:51Z</time></trkpt><trkpt lat="48.90628003289298" lon="1.8727632616680525"><ele>114.0</ele><time>2026-04-24T16:34:52Z</time></trkpt><trkpt lat="48.90628962992904" lon="1.8728676642999595"><ele>114.28571428571428</ele><time>2026-04-24T16:34:53Z</time></trkpt><trkpt lat="48.906301505373285" lon="1.8729675837130133"><ele>114.57142857142856</ele><time>2026-04-24T16:34:54Z</time></trkpt><trkpt lat="48.906312939778395" lon="1.8730724713524123"><ele>114.85714285714286</ele><time>2026-04-24T16:34:55Z</time></trkpt><trkpt lat="48.906323988847184" lon="1.8731769757479677"><ele>115.14285714285714</ele><time>2026-04-24T16:34:56Z</time></trkpt><trkpt lat="48.906334512150764" lon="1.8732803849087794"><ele>115.42857142857143</ele><time>2026-04-24T16:34:57Z</time></trkpt><trkpt lat="48.9063422792765" lon="1.8733829634186503"><ele>115.71428571428572</ele><time>2026-04-24T16:34:58Z</time></trkpt><trkpt lat="48.906356675990935" lon="1.873477148731403"><ele>116.00000000000001</ele><time>2026-04-24T16:34:59Z</time></trkpt><trkpt lat="48.90637184760391" lon="1.8735729396025795"><ele>116.4</ele><time>2026-04-24T16:35:00Z</time></trkpt><trkpt lat="48.90638405154391" lon="1.8736686734257395"><ele>116.8</ele><time>2026-04-24T16:35:01Z</time></trkpt><trkpt lat="48.90641594196809" lon="1.8738498782790816"><ele>117.20000000000002</ele><time>2026-04-24T16:35:03Z</time></trkpt><trkpt lat="48.90644609662137" lon="1.8740305312349528"><ele>117.60000000000001</ele><time>2026-04-24T16:35:05Z</time></trkpt><trkpt lat="48.90647561649927" lon="1.8742057774610783"><ele>118.0</ele><time>2026-04-24T16:35:07Z</time></trkpt><trkpt lat="48.90650507970797" lon="1.8743798151397297"><ele>118.33333333333334</ele><time>2026-04-24T16:35:09Z</time></trkpt><trkpt lat="48.906531207361105" lon="1.8745585362638861"><ele>118.66666666666667</ele><time>2026-04-24T16:35:11Z</time></trkpt><trkpt lat="48.90654225330883" lon="1.874652898575923"><ele>119.0</ele><time>2026-04-24T16:35:12Z</time></trkpt><trkpt lat="48.90655648030693" lon="1.8747471713369985"><ele>119.33333333333334</ele><time>2026-04-24T16:35:13Z</time></trkpt><trkpt lat="48.90657579853831" lon="1.8748398432710656"><ele>119.66666666666667</ele><time>2026-04-24T16:35:14Z</time></trkpt><trkpt lat="48.90660271840231" lon="1.8750162720683041"><ele>120.0</ele><time>2026-04-24T16:35:16Z</time></trkpt><trkpt lat="48.90661764978526" lon="1.8751991682646854"><ele>120.2</ele><time>2026-04-24T16:35:18Z</time></trkpt><trkpt lat="48.906638349794925" lon="1.8753828090723024"><ele>120.4</ele><time>2026-04-24T16:35:20Z</time></trkpt><trkpt lat="48.906648363669824" lon="1.8754776745672013"><ele>120.6</ele><time>2026-04-24T16:35:21Z</time></trkpt><trkpt lat="48.906662465222645" lon="1.8756576762879507"><ele>120.8</ele><time>2026-04-24T16:35:23Z</time></trkpt><trkpt lat="48.906676132376944" lon="1.875832715049499"><ele>121.0</ele><time>2026-04-24T16:35:25Z</time></trkpt><trkpt lat="48.90668875986773" lon="1.8759855659706828"><ele>121.33333333333334</ele><time>2026-04-24T16:35:27Z</time></trkpt><trkpt lat="48.9067049480756" lon="1.876135862232783"><ele>121.66666666666667</ele><time>2026-04-24T16:35:29Z</time></trkpt><trkpt lat="48.90671480799891" lon="1.8762777493920912"><ele>122.0</ele><time>2026-04-24T16:35:31Z</time></trkpt><trkpt lat="48.906724679946585" lon="1.876400991126718"><ele>122.33333333333334</ele><time>2026-04-24T16:35:33Z</time></trkpt><trkpt lat="48.906733663129764" lon="1.8765227130967217"><ele>122.66666666666667</ele><time>2026-04-24T16:35:36Z</time></trkpt><trkpt lat="48.90673533926877" lon="1.8766273157124573"><ele>123.0</ele><time>2026-04-24T16:35:38Z</time></trkpt><trkpt lat="48.90674731818117" lon="1.8767297233062123"><ele>124.60000000000001</ele><time>2026-04-24T16:35:39.999Z</time></trkpt><trkpt lat="48.90675875660176" lon="1.8769184967025694"><ele>126.20000000000002</ele><time>2026-04-24T16:35:42.999Z</time></trkpt><trkpt lat="48.906779292585576" lon="1.8770623782072653"><ele>127.8</ele><time>2026-04-24T16:35:44.999Z</time></trkpt><trkpt lat="48.90679727082713" lon="1.8771968079423622"><ele>129.4</ele><time>2026-04-24T16:35:46.999Z</time></trkpt><trkpt lat="48.90680977513491" lon="1.877343978101805"><ele>131.0</ele><time>2026-04-24T16:35:48.999Z</time></trkpt><trkpt lat="48.90681765156518" lon="1.8774976855295669"><ele>131.0</ele><time>2026-04-24T16:35:50.999Z</time></trkpt><trkpt lat="48.90684075389022" lon="1.8776974601521124"><ele>131.0</ele><time>2026-04-24T16:35:53.999Z</time></trkpt><trkpt lat="48.90683117901027" lon="1.877815607694461"><ele>131.0</ele><time>2026-04-24T16:35:55.999Z</time></trkpt><trkpt lat="48.906884318544314" lon="1.8781592776293488"><ele>131.0</ele><time>2026-04-24T16:35:58.999Z</time></trkpt><trkpt lat="48.90689093063509" lon="1.8782964628630432"><ele>131.0</ele><time>2026-04-24T16:36:00.999Z</time></trkpt><trkpt lat="48.906902475228954" lon="1.8784229608377072"><ele>131.0</ele><time>2026-04-24T16:36:02.999Z</time></trkpt><trkpt lat="48.9069179486368" lon="1.878548251494989"><ele>131.0</ele><time>2026-04-24T16:36:04.999Z</time></trkpt><trkpt lat="48.90692683954688" lon="1.878678977892256"><ele>131.0</ele><time>2026-04-24T16:36:06.999Z</time></trkpt><trkpt lat="48.906936854197234" lon="1.8788178358425796"><ele>131.0</ele><time>2026-04-24T16:36:08.999Z</time></trkpt><trkpt lat="48.90696271555204" lon="1.8789713890435265"><ele>131.0</ele><time>2026-04-24T16:36:10.999Z</time></trkpt><trkpt lat="48.90697203906454" lon="1.8791330975931568"><ele>131.0</ele><time>2026-04-24T16:36:12.999Z</time></trkpt><trkpt lat="48.9069827949235" lon="1.8792924473458639"><ele>131.0</ele><time>2026-04-24T16:36:14.999Z</time></trkpt><trkpt lat="48.90701603743655" lon="1.8794502743803354"><ele>131.0</ele><time>2026-04-24T16:36:16.999Z</time></trkpt><trkpt lat="48.907030061033076" lon="1.8796206324935187"><ele>131.0</ele><time>2026-04-24T16:36:18.999Z</time></trkpt><trkpt lat="48.90703646833354" lon="1.8797910626650036"><ele>131.0</ele><time>2026-04-24T16:36:20.999Z</time></trkpt><trkpt lat="48.90703243137653" lon="1.879964233941625"><ele>131.0</ele><time>2026-04-24T16:36:22.999Z</time></trkpt><trkpt lat="48.90702848155267" lon="1.8801407121594245"><ele>131.0</ele><time>2026-04-24T16:36:24.999Z</time></trkpt><trkpt lat="48.90701550730935" lon="1.8803085536638937"><ele>131.0</ele><time>2026-04-24T16:36:26.999Z</time></trkpt><trkpt lat="48.90699603090739" lon="1.8804751013811867"><ele>131.2</ele><time>2026-04-24T16:36:28.999Z</time></trkpt><trkpt lat="48.906974211946604" lon="1.8806318556173822"><ele>131.39999999999998</ele><time>2026-04-24T16:36:30.999Z</time></trkpt><trkpt lat="48.90695078035953" lon="1.880777724243069"><ele>131.6</ele><time>2026-04-24T16:36:32.999Z</time></trkpt><trkpt lat="48.906940848206304" lon="1.8808868626211452"><ele>131.79999999999998</ele><time>2026-04-24T16:36:34.999Z</time></trkpt><trkpt lat="48.90693816204376" lon="1.8809863775632583"><ele>132.0</ele><time>2026-04-24T16:36:37.999Z</time></trkpt><trkpt lat="48.90687668495838" lon="1.8812146412122441"><ele>132.25</ele><time>2026-04-24T16:36:38.999Z</time></trkpt><trkpt lat="48.90685141093948" lon="1.8813818659505304"><ele>132.5</ele><time>2026-04-24T16:36:40.999Z</time></trkpt><trkpt lat="48.906827892123474" lon="1.8815468854131943"><ele>132.75</ele><time>2026-04-24T16:36:42.999Z</time></trkpt><trkpt lat="48.906800557791776" lon="1.8817157286019397"><ele>133.0</ele><time>2026-04-24T16:36:45Z</time></trkpt><trkpt lat="48.90677495588245" lon="1.8818883278393732"><ele>133.4</ele><time>2026-04-24T16:36:47Z</time></trkpt><trkpt lat="48.90675255539169" lon="1.8820443531470457"><ele>133.8</ele><time>2026-04-24T16:36:49Z</time></trkpt><trkpt lat="48.90672808163409" lon="1.8821969481245384"><ele>134.2</ele><time>2026-04-24T16:36:51Z</time></trkpt><trkpt lat="48.90671217976941" lon="1.8823817255502713"><ele>134.6</ele><time>2026-04-24T16:36:53Z</time></trkpt><trkpt lat="48.90669439461674" lon="1.8825268749503092"><ele>135.0</ele><time>2026-04-24T16:36:55Z</time></trkpt><trkpt lat="48.90664973782678" lon="1.8826582443428657"><ele>134.0</ele><time>2026-04-24T16:36:57Z</time></trkpt><trkpt lat="48.90662715638132" lon="1.8828093699459159"><ele>133.0</ele><time>2026-04-24T16:36:59Z</time></trkpt><trkpt lat="48.90661342304796" lon="1.8829657249484681"><ele>132.0</ele><time>2026-04-24T16:37:01Z</time></trkpt><trkpt lat="48.90658592373035" lon="1.8831062678529868"><ele>131.0</ele><time>2026-04-24T16:37:03Z</time></trkpt><trkpt lat="48.90656882776116" lon="1.8832476674603242"><ele>130.0</ele><time>2026-04-24T16:37:05Z</time></trkpt><trkpt lat="48.90656492382931" lon="1.8833869943994135"><ele>130.83333333333334</ele><time>2026-04-24T16:37:07Z</time></trkpt><trkpt lat="48.90655711266892" lon="1.8835264633086284"><ele>131.66666666666669</ele><time>2026-04-24T16:37:09Z</time></trkpt><trkpt lat="48.90655331931032" lon="1.8836526903896391"><ele>132.5</ele><time>2026-04-24T16:37:11Z</time></trkpt><trkpt lat="48.906559445372444" lon="1.8837733747852767"><ele>133.33333333333334</ele><time>2026-04-24T16:37:13Z</time></trkpt><trkpt lat="48.906571743597056" lon="1.8838675810217103"><ele>134.16666666666666</ele><time>2026-04-24T16:37:16Z</time></trkpt><trkpt lat="48.90659062221809" lon="1.8839891790467143"><ele>135.0</ele><time>2026-04-24T16:37:17Z</time></trkpt><trkpt lat="48.90660914665554" lon="1.884084761093059"><ele>135.0</ele><time>2026-04-24T16:37:18Z</time></trkpt><trkpt lat="48.90665739476779" lon="1.8842509006458286"><ele>135.0</ele><time>2026-04-24T16:37:20Z</time></trkpt><trkpt lat="48.906706975410344" lon="1.8843914164497055"><ele>135.0</ele><time>2026-04-24T16:37:22Z</time></trkpt><trkpt lat="48.906748994041564" lon="1.8845145148969367"><ele>135.0</ele><time>2026-04-24T16:37:25Z</time></trkpt><trkpt lat="48.90672750270261" lon="1.8846428421869248"><ele>135.0</ele><time>2026-04-24T16:37:27Z</time></trkpt><trkpt lat="48.906719721222224" lon="1.884742837155792"><ele>135.0</ele><time>2026-04-24T16:37:28Z</time></trkpt><trkpt lat="48.906608731678226" lon="1.8847764858358396"><ele>135.0</ele><time>2026-04-24T16:37:30Z</time></trkpt><trkpt lat="48.906546006352556" lon="1.884743874891348"><ele>135.0</ele><time>2026-04-24T16:37:31Z</time></trkpt><trkpt lat="48.90649484065157" lon="1.8846731785222355"><ele>135.0</ele><time>2026-04-24T16:37:32Z</time></trkpt><trkpt lat="48.90644712805448" lon="1.8846053400845602"><ele>135.0</ele><time>2026-04-24T16:37:33Z</time></trkpt><trkpt lat="48.90638691498446" lon="1.8845474834972236"><ele>135.0</ele><time>2026-04-24T16:37:34Z</time></trkpt><trkpt lat="48.90632195522206" lon="1.8844879007096196"><ele>135.0</ele><time>2026-04-24T16:37:35Z</time></trkpt><trkpt lat="48.9062553478138" lon="1.8844230113243878"><ele>135.0</ele><time>2026-04-24T16:37:36Z</time></trkpt><trkpt lat="48.90618947094257" lon="1.8843563921197812"><ele>135.0</ele><time>2026-04-24T16:37:37Z</time></trkpt><trkpt lat="48.906113450491674" lon="1.8843004279115796"><ele>135.0</ele><time>2026-04-24T16:37:38Z</time></trkpt><trkpt lat="48.90603131209292" lon="1.884231737611448"><ele>135.0</ele><time>2026-04-24T16:37:39Z</time></trkpt><trkpt lat="48.905958604738856" lon="1.8841595232374035"><ele>135.0</ele><time>2026-04-24T16:37:40Z</time></trkpt><trkpt lat="48.905883017495114" lon="1.884075793693116"><ele>133.2</ele><time>2026-04-24T16:37:41Z</time></trkpt><trkpt lat="48.90579453540708" lon="1.8840035321808277"><ele>131.4</ele><time>2026-04-24T16:37:42Z</time></trkpt><trkpt lat="48.905704995341765" lon="1.8839220636515812"><ele>129.6</ele><time>2026-04-24T16:37:43Z</time></trkpt><trkpt lat="48.905620730824246" lon="1.8838397963066307"><ele>127.8</ele><time>2026-04-24T16:37:44Z</time></trkpt><trkpt lat="48.905530581619146" lon="1.8837602443878887"><ele>126.0</ele><time>2026-04-24T16:37:45Z</time></trkpt><trkpt lat="48.90544437386144" lon="1.8836795903315948"><ele>126.0</ele><time>2026-04-24T16:37:46Z</time></trkpt><trkpt lat="48.90535334448006" lon="1.8835963524977852"><ele>126.0</ele><time>2026-04-24T16:37:47Z</time></trkpt><trkpt lat="48.90526933497393" lon="1.883513025426438"><ele>126.0</ele><time>2026-04-24T16:37:48Z</time></trkpt><trkpt lat="48.90519242419535" lon="1.883434924930709"><ele>126.0</ele><time>2026-04-24T16:37:49Z</time></trkpt><trkpt lat="48.90511456021333" lon="1.8833739356603787"><ele>126.0</ele><time>2026-04-24T16:37:50Z</time></trkpt><trkpt lat="48.905044358963096" lon="1.8833021094306295"><ele>124.83333333333333</ele><time>2026-04-24T16:37:51Z</time></trkpt><trkpt lat="48.904979337522285" lon="1.8832377693918414"><ele>123.66666666666666</ele><time>2026-04-24T16:37:52Z</time></trkpt><trkpt lat="48.904917911330024" lon="1.8831879399397011"><ele>122.5</ele><time>2026-04-24T16:37:53Z</time></trkpt><trkpt lat="48.90486438606918" lon="1.8831345656708625"><ele>121.33333333333333</ele><time>2026-04-24T16:37:54Z</time></trkpt><trkpt lat="48.904810555842076" lon="1.8830810745144926"><ele>120.16666666666666</ele><time>2026-04-24T16:37:54.999Z</time></trkpt><trkpt lat="48.90470536441404" lon="1.8830402946492426"><ele>119.0</ele><time>2026-04-24T16:37:56.999Z</time></trkpt><trkpt lat="48.90460525395218" lon="1.8831152323561653"><ele>119.0</ele><time>2026-04-24T16:37:58.999Z</time></trkpt><trkpt lat="48.90456116464126" lon="1.8831927291458115"><ele>119.0</ele><time>2026-04-24T16:37:59.999Z</time></trkpt><trkpt lat="48.904525891080716" lon="1.8832927377939597"><ele>119.0</ele><time>2026-04-24T16:38:00.999Z</time></trkpt><trkpt lat="48.90449036734961" lon="1.883381480246236"><ele>119.0</ele><time>2026-04-24T16:38:01.999Z</time></trkpt><trkpt lat="48.904454001513265" lon="1.8834689516292817"><ele>119.0</ele><time>2026-04-24T16:38:02.999Z</time></trkpt><trkpt lat="48.90442027333957" lon="1.883557828173339"><ele>119.0</ele><time>2026-04-24T16:38:03.999Z</time></trkpt><trkpt lat="48.90438377555385" lon="1.8836442561063635"><ele>119.0</ele><time>2026-04-24T16:38:04.999Z</time></trkpt><trkpt lat="48.90433670199707" lon="1.883732379357712"><ele>118.99999999999999</ele><time>2026-04-24T16:38:05.999Z</time></trkpt><trkpt lat="48.9043030976549" lon="1.8838194892871578"><ele>119.0</ele><time>2026-04-24T16:38:06.999Z</time></trkpt><trkpt lat="48.90426033368682" lon="1.8839235191875465"><ele>119.0</ele><time>2026-04-24T16:38:07.999Z</time></trkpt><trkpt lat="48.90421489307134" lon="1.8840276272584942"><ele>119.0</ele><time>2026-04-24T16:38:08.999Z</time></trkpt><trkpt lat="48.904165012924594" lon="1.8841369696990258"><ele>118.99999999999999</ele><time>2026-04-24T16:38:09.999Z</time></trkpt><trkpt lat="48.904118581149255" lon="1.8842463712333668"><ele>119.0</ele><time>2026-04-24T16:38:10.999Z</time></trkpt><trkpt lat="48.90407441376313" lon="1.8843612101513232"><ele>118.2</ele><time>2026-04-24T16:38:11.999Z</time></trkpt><trkpt lat="48.90401960476522" lon="1.8844835776461946"><ele>117.4</ele><time>2026-04-24T16:38:12.999Z</time></trkpt><trkpt lat="48.90396853051691" lon="1.8845998595941997"><ele>116.6</ele><time>2026-04-24T16:38:13.999Z</time></trkpt><trkpt lat="48.90390775556596" lon="1.8847221567139127"><ele>115.8</ele><time>2026-04-24T16:38:14.999Z</time></trkpt><trkpt lat="48.9038516869975" lon="1.8848520000035889"><ele>115.0</ele><time>2026-04-24T16:38:15.999Z</time></trkpt><trkpt lat="48.903797040464944" lon="1.884975368693851"><ele>115.4</ele><time>2026-04-24T16:38:16.999Z</time></trkpt><trkpt lat="48.90374517622491" lon="1.885102907083"><ele>115.8</ele><time>2026-04-24T16:38:17.999Z</time></trkpt><trkpt lat="48.90369774209794" lon="1.8852331763877905"><ele>116.19999999999999</ele><time>2026-04-24T16:38:18.999Z</time></trkpt><trkpt lat="48.90365378873447" lon="1.8853609590982001"><ele>116.6</ele><time>2026-04-24T16:38:19.999Z</time></trkpt><trkpt lat="48.90360733687776" lon="1.8854861139711037"><ele>117.0</ele><time>2026-04-24T16:38:20.999Z</time></trkpt><trkpt lat="48.90356311035742" lon="1.8856164390174648"><ele>117.0</ele><time>2026-04-24T16:38:21.999Z</time></trkpt><trkpt lat="48.90352325997989" lon="1.8857371940208283"><ele>117.0</ele><time>2026-04-24T16:38:22.999Z</time></trkpt><trkpt lat="48.903486975292836" lon="1.8858523941972596"><ele>117.0</ele><time>2026-04-24T16:38:23.999Z</time></trkpt><trkpt lat="48.903442180131734" lon="1.885963687778146"><ele>117.0</ele><time>2026-04-24T16:38:24.999Z</time></trkpt><trkpt lat="48.903403937428386" lon="1.886066299643293"><ele>117.0</ele><time>2026-04-24T16:38:25.999Z</time></trkpt><trkpt lat="48.9033556888563" lon="1.8861529108133395"><ele>117.0</ele><time>2026-04-24T16:38:26.999Z</time></trkpt><trkpt lat="48.90330304918308" lon="1.8862316365276928"><ele>116.42857142857143</ele><time>2026-04-24T16:38:27.999Z</time></trkpt><trkpt lat="48.90324908204021" lon="1.8863098947950625"><ele>115.85714285714286</ele><time>2026-04-24T16:38:28.999Z</time></trkpt><trkpt lat="48.90319690589207" lon="1.8863866712471322"><ele>115.28571428571429</ele><time>2026-04-24T16:38:29.999Z</time></trkpt><trkpt lat="48.90314451536242" lon="1.8864664989637614"><ele>114.71428571428572</ele><time>2026-04-24T16:38:30.999Z</time></trkpt><trkpt lat="48.90310179138369" lon="1.8865508575726553"><ele>114.14285714285714</ele><time>2026-04-24T16:38:31.999Z</time></trkpt><trkpt lat="48.903059097222496" lon="1.886647971531629"><ele>113.57142857142858</ele><time>2026-04-24T16:38:32.999Z</time></trkpt><trkpt lat="48.90301085295666" lon="1.886741866832962"><ele>113.0</ele><time>2026-04-24T16:38:33.999Z</time></trkpt><trkpt lat="48.902965819100935" lon="1.88683002559027"><ele>112.99999999999999</ele><time>2026-04-24T16:38:34.999Z</time></trkpt><trkpt lat="48.90292632173964" lon="1.8869249771342236"><ele>113.0</ele><time>2026-04-24T16:38:35.999Z</time></trkpt><trkpt lat="48.90288101711453" lon="1.8870279516680395"><ele>113.0</ele><time>2026-04-24T16:38:36.999Z</time></trkpt><trkpt lat="48.902833887550216" lon="1.8871256446934372"><ele>113.0</ele><time>2026-04-24T16:38:37.999Z</time></trkpt><trkpt lat="48.90278690753259" lon="1.8872210484566618"><ele>112.99999999999999</ele><time>2026-04-24T16:38:38.999Z</time></trkpt><trkpt lat="48.90273999820261" lon="1.8873205951267393"><ele>113.0</ele><time>2026-04-24T16:38:39.999Z</time></trkpt><trkpt lat="48.90268470107696" lon="1.8874237637264035"><ele>112.99999999999999</ele><time>2026-04-24T16:38:40.999Z</time></trkpt><trkpt lat="48.90263327726991" lon="1.8875303514300128"><ele>113.0</ele><time>2026-04-24T16:38:41.999Z</time></trkpt><trkpt lat="48.902593342584396" lon="1.8876393060216383"><ele>113.0</ele><time>2026-04-24T16:38:42.999Z</time></trkpt><trkpt lat="48.90254655225018" lon="1.8877560972072727"><ele>113.0</ele><time>2026-04-24T16:38:43.999Z</time></trkpt><trkpt lat="48.902511284708034" lon="1.8878768019671042"><ele>112.99999999999999</ele><time>2026-04-24T16:38:44.999Z</time></trkpt><trkpt lat="48.902487125688396" lon="1.888002223986"><ele>113.0</ele><time>2026-04-24T16:38:45.999Z</time></trkpt><trkpt lat="48.90246669750549" lon="1.88813759089488"><ele>111.80000000000001</ele><time>2026-04-24T16:38:46.999Z</time></trkpt><trkpt lat="48.902453004653744" lon="1.8882711294399703"><ele>110.60000000000001</ele><time>2026-04-24T16:38:47.999Z</time></trkpt><trkpt lat="48.9024412407476" lon="1.8884153540683957"><ele>109.39999999999999</ele><time>2026-04-24T16:38:48.999Z</time></trkpt><trkpt lat="48.90243508667558" lon="1.8885624935503904"><ele>108.19999999999999</ele><time>2026-04-24T16:38:49.999Z</time></trkpt><trkpt lat="48.90244027225342" lon="1.8887174172685173"><ele>107.0</ele><time>2026-04-24T16:38:51Z</time></trkpt><trkpt lat="48.9024388042669" lon="1.8888734968392085"><ele>106.19999999999999</ele><time>2026-04-24T16:38:52Z</time></trkpt><trkpt lat="48.902428478007074" lon="1.889029250649394"><ele>105.39999999999999</ele><time>2026-04-24T16:38:53Z</time></trkpt><trkpt lat="48.902419643579506" lon="1.8891876336911038"><ele>104.6</ele><time>2026-04-24T16:38:54Z</time></trkpt><trkpt lat="48.90239726578807" lon="1.889352603937985"><ele>103.80000000000001</ele><time>2026-04-24T16:38:55Z</time></trkpt><trkpt lat="48.902366294836156" lon="1.8895079591707549"><ele>103.0</ele><time>2026-04-24T16:38:56Z</time></trkpt><trkpt lat="48.902321972888515" lon="1.8896554256405396"><ele>102.80000000000001</ele><time>2026-04-24T16:38:57Z</time></trkpt><trkpt lat="48.902266821718" lon="1.8897951496120056"><ele>102.6</ele><time>2026-04-24T16:38:58Z</time></trkpt><trkpt lat="48.90222015207649" lon="1.8899241949335197"><ele>102.4</ele><time>2026-04-24T16:38:59Z</time></trkpt><trkpt lat="48.90216542034452" lon="1.8900494136925001"><ele>102.19999999999999</ele><time>2026-04-24T16:39:00Z</time></trkpt><trkpt lat="48.902103387933174" lon="1.8901578904526022"><ele>102.0</ele><time>2026-04-24T16:39:01Z</time></trkpt><trkpt lat="48.90204720718997" lon="1.890253142381418"><ele>102.66666666666667</ele><time>2026-04-24T16:39:02Z</time></trkpt><trkpt lat="48.901984653954514" lon="1.8903392808150972"><ele>103.33333333333334</ele><time>2026-04-24T16:39:03Z</time></trkpt><trkpt lat="48.901928391270204" lon="1.8904128787697452"><ele>104.0</ele><time>2026-04-24T16:39:04Z</time></trkpt><trkpt lat="48.90187177806164" lon="1.8904782062850891"><ele>104.66666666666667</ele><time>2026-04-24T16:39:05Z</time></trkpt><trkpt lat="48.90181751279128" lon="1.8905389844318643"><ele>105.33333333333334</ele><time>2026-04-24T16:39:06Z</time></trkpt><trkpt lat="48.901765673363236" lon="1.8905943229368403"><ele>106.0</ele><time>2026-04-24T16:39:07Z</time></trkpt><trkpt lat="48.9016629936618" lon="1.8906949369279076"><ele>106.0</ele><time>2026-04-24T16:39:09Z</time></trkpt><trkpt lat="48.90157280942141" lon="1.8908031316292204"><ele>106.0</ele><time>2026-04-24T16:39:11Z</time></trkpt><trkpt lat="48.90151405040761" lon="1.8908467086979759"><ele>106.0</ele><time>2026-04-24T16:39:12Z</time></trkpt><trkpt lat="48.901426487177154" lon="1.8909547595625562"><ele>106.0</ele><time>2026-04-24T16:39:14Z</time></trkpt><trkpt lat="48.90133659030806" lon="1.891055560171611"><ele>106.0</ele><time>2026-04-24T16:39:16Z</time></trkpt><trkpt lat="48.901243773601" lon="1.8911420614055097"><ele>106.83333333333334</ele><time>2026-04-24T16:39:18Z</time></trkpt><trkpt lat="48.901157944831404" lon="1.8912380193604204"><ele>107.66666666666667</ele><time>2026-04-24T16:39:20Z</time></trkpt><trkpt lat="48.901076509144616" lon="1.89132741487169"><ele>108.5</ele><time>2026-04-24T16:39:22Z</time></trkpt><trkpt lat="48.90102775650022" lon="1.8914053967266002"><ele>109.33333333333334</ele><time>2026-04-24T16:39:25Z</time></trkpt><trkpt lat="48.90097995596764" lon="1.8914894893900842"><ele>110.16666666666667</ele><time>2026-04-24T16:39:28Z</time></trkpt><trkpt lat="48.900931091087216" lon="1.8915847510018864"><ele>111.0</ele><time>2026-04-24T16:39:31Z</time></trkpt><trkpt lat="48.90084563470172" lon="1.8916948876506077"><ele>111.5</ele><time>2026-04-24T16:39:34Z</time></trkpt><trkpt lat="48.90079950536563" lon="1.891775177581447"><ele>112.0</ele><time>2026-04-24T16:39:36Z</time></trkpt><trkpt lat="48.900747826337565" lon="1.8918546941394008"><ele>112.5</ele><time>2026-04-24T16:39:38Z</time></trkpt><trkpt lat="48.90068534514418" lon="1.8919356374502"><ele>113.0</ele><time>2026-04-24T16:39:39Z</time></trkpt><trkpt lat="48.90059789811265" lon="1.8920454950225571"><ele>113.5</ele><time>2026-04-24T16:39:41Z</time></trkpt><trkpt lat="48.90053809913274" lon="1.8920977383826068"><ele>114.0</ele><time>2026-04-24T16:39:43Z</time></trkpt><trkpt lat="48.90048629510729" lon="1.8921920920256334"><ele>114.0</ele><time>2026-04-24T16:39:45Z</time></trkpt><trkpt lat="48.90043171684622" lon="1.8922738000313928"><ele>114.0</ele><time>2026-04-24T16:39:47Z</time></trkpt><trkpt lat="48.90037856672182" lon="1.8923672815151955"><ele>114.0</ele><time>2026-04-24T16:39:49Z</time></trkpt><trkpt lat="48.90032294598956" lon="1.892466982402364"><ele>114.0</ele><time>2026-04-24T16:39:51Z</time></trkpt><trkpt lat="48.90019540457971" lon="1.8926698106934732"><ele>114.0</ele><time>2026-04-24T16:39:55Z</time></trkpt><trkpt lat="48.90013567274293" lon="1.8927308741979894"><ele>114.0</ele><time>2026-04-24T16:39:56Z</time></trkpt><trkpt lat="48.90006247229891" lon="1.8928346563305813"><ele>114.0</ele><time>2026-04-24T16:39:58Z</time></trkpt><trkpt lat="48.90000338436104" lon="1.8928971475448926"><ele>114.0</ele><time>2026-04-24T16:39:59Z</time></trkpt><trkpt lat="48.89991546562384" lon="1.8929986946394581"><ele>114.0</ele><time>2026-04-24T16:40:01Z</time></trkpt><trkpt lat="48.89982280483567" lon="1.8930986561576073"><ele>114.0</ele><time>2026-04-24T16:40:02.999Z</time></trkpt><trkpt lat="48.899743931336594" lon="1.8932031853528368"><ele>114.0</ele><time>2026-04-24T16:40:04.999Z</time></trkpt><trkpt lat="48.899657923557065" lon="1.8932995193846993"><ele>114.0</ele><time>2026-04-24T16:40:06.999Z</time></trkpt><trkpt lat="48.89957291718009" lon="1.8934004853439181"><ele>114.0</ele><time>2026-04-24T16:40:08.999Z</time></trkpt><trkpt lat="48.89949595279844" lon="1.89351523322907"><ele>114.0</ele><time>2026-04-24T16:40:10.999Z</time></trkpt><trkpt lat="48.8994096491843" lon="1.893633087262975"><ele>114.0</ele><time>2026-04-24T16:40:12.999Z</time></trkpt><trkpt lat="48.89936049795047" lon="1.8937005814342531"><ele>114.16666666666667</ele><time>2026-04-24T16:40:13.999Z</time></trkpt><trkpt lat="48.89931124809212" lon="1.893766767990533"><ele>114.33333333333334</ele><time>2026-04-24T16:40:14.999Z</time></trkpt><trkpt lat="48.89925640343018" lon="1.8938395255508436"><ele>114.5</ele><time>2026-04-24T16:40:15.999Z</time></trkpt><trkpt lat="48.89920178579539" lon="1.8939097823739117"><ele>114.66666666666667</ele><time>2026-04-24T16:40:16.999Z</time></trkpt><trkpt lat="48.899140655684086" lon="1.8939878274448745"><ele>114.83333333333334</ele><time>2026-04-24T16:40:17.999Z</time></trkpt><trkpt lat="48.89908173470573" lon="1.8940756440881146"><ele>115.0</ele><time>2026-04-24T16:40:18.999Z</time></trkpt><trkpt lat="48.89901474219128" lon="1.8941729365646287"><ele>114.0</ele><time>2026-04-24T16:40:19.999Z</time></trkpt><trkpt lat="48.8989491914109" lon="1.8942702212494789"><ele>113.0</ele><time>2026-04-24T16:40:20.999Z</time></trkpt><trkpt lat="48.89887356961301" lon="1.8943747352032012"><ele>112.0</ele><time>2026-04-24T16:40:21.999Z</time></trkpt><trkpt lat="48.89880089783881" lon="1.8944835400960685"><ele>111.0</ele><time>2026-04-24T16:40:22.999Z</time></trkpt><trkpt lat="48.89872132411012" lon="1.8945958758314587"><ele>110.0</ele><time>2026-04-24T16:40:23.999Z</time></trkpt><trkpt lat="48.898640161834344" lon="1.8947070089816966"><ele>110.0</ele><time>2026-04-24T16:40:24.999Z</time></trkpt><trkpt lat="48.89855722026253" lon="1.8948212809162417"><ele>110.0</ele><time>2026-04-24T16:40:25.999Z</time></trkpt><trkpt lat="48.89847553504164" lon="1.894940378900728"><ele>110.0</ele><time>2026-04-24T16:40:26.999Z</time></trkpt><trkpt lat="48.89839191752791" lon="1.8950612602884034"><ele>110.0</ele><time>2026-04-24T16:40:27.999Z</time></trkpt><trkpt lat="48.89830628399061" lon="1.8951750770697444"><ele>109.8</ele><time>2026-04-24T16:40:28.999Z</time></trkpt><trkpt lat="48.898224773891904" lon="1.8952849846839332"><ele>109.6</ele><time>2026-04-24T16:40:29.999Z</time></trkpt><trkpt lat="48.89814700270583" lon="1.895398132227685"><ele>109.4</ele><time>2026-04-24T16:40:30.999Z</time></trkpt><trkpt lat="48.898074162316995" lon="1.895507846242224"><ele>109.2</ele><time>2026-04-24T16:40:31.999Z</time></trkpt><trkpt lat="48.89799818802018" lon="1.895604966541399"><ele>109.0</ele><time>2026-04-24T16:40:32.999Z</time></trkpt><trkpt lat="48.89793474063956" lon="1.895694593482677"><ele>109.00000000000001</ele><time>2026-04-24T16:40:33.999Z</time></trkpt><trkpt lat="48.89787562450162" lon="1.895779642272362"><ele>109.0</ele><time>2026-04-24T16:40:34.999Z</time></trkpt><trkpt lat="48.897818660578956" lon="1.895861941352514"><ele>109.0</ele><time>2026-04-24T16:40:35.999Z</time></trkpt><trkpt lat="48.89776477193762" lon="1.8959362111261622"><ele>109.0</ele><time>2026-04-24T16:40:36.999Z</time></trkpt><trkpt lat="48.89771753874245" lon="1.8960030072479919"><ele>109.00000000000001</ele><time>2026-04-24T16:40:37.999Z</time></trkpt><trkpt lat="48.89763140990415" lon="1.8961276059445444"><ele>109.0</ele><time>2026-04-24T16:40:39.999Z</time></trkpt><trkpt lat="48.89755611704383" lon="1.8962536450406764"><ele>109.6</ele><time>2026-04-24T16:40:41.999Z</time></trkpt><trkpt lat="48.897488122652376" lon="1.896375073290348"><ele>110.2</ele><time>2026-04-24T16:40:43.999Z</time></trkpt><trkpt lat="48.89742959363946" lon="1.896488369876332"><ele>110.79999999999998</ele><time>2026-04-24T16:40:45.999Z</time></trkpt><trkpt lat="48.897373582437474" lon="1.8966003164860927"><ele>111.39999999999999</ele><time>2026-04-24T16:40:47.999Z</time></trkpt><trkpt lat="48.89730966113547" lon="1.8967072373102727"><ele>112.0</ele><time>2026-04-24T16:40:49.999Z</time></trkpt><trkpt lat="48.897251992881536" lon="1.8968107202978997"><ele>112.19999999999999</ele><time>2026-04-24T16:40:51.999Z</time></trkpt><trkpt lat="48.897202793624785" lon="1.8969230579620124"><ele>112.39999999999999</ele><time>2026-04-24T16:40:53.999Z</time></trkpt><trkpt lat="48.89714802548619" lon="1.8970370920257231"><ele>112.60000000000001</ele><time>2026-04-24T16:40:55.999Z</time></trkpt><trkpt lat="48.89708874505116" lon="1.8971403455918228"><ele>112.80000000000001</ele><time>2026-04-24T16:40:58Z</time></trkpt><trkpt lat="48.89702771058795" lon="1.8972503000961731"><ele>113.0</ele><time>2026-04-24T16:41:00Z</time></trkpt><trkpt lat="48.89696571665561" lon="1.897361903343982"><ele>113.0</ele><time>2026-04-24T16:41:02Z</time></trkpt><trkpt lat="48.8969098801654" lon="1.8974820665424714"><ele>113.00000000000001</ele><time>2026-04-24T16:41:04Z</time></trkpt><trkpt lat="48.89685207542142" lon="1.8976043701172403"><ele>113.00000000000001</ele><time>2026-04-24T16:41:06Z</time></trkpt><trkpt lat="48.89677914337669" lon="1.8977170809754031"><ele>113.0</ele><time>2026-04-24T16:41:08Z</time></trkpt><trkpt lat="48.89671542790226" lon="1.8978436785171324"><ele>113.0</ele><time>2026-04-24T16:41:10Z</time></trkpt><trkpt lat="48.89665023520984" lon="1.8979770315060642"><ele>112.80000000000001</ele><time>2026-04-24T16:41:12Z</time></trkpt><trkpt lat="48.89657099336009" lon="1.8981186814165085"><ele>112.60000000000001</ele><time>2026-04-24T16:41:14Z</time></trkpt><trkpt lat="48.89649618478572" lon="1.8982642128411495"><ele>112.39999999999999</ele><time>2026-04-24T16:41:16Z</time></trkpt><trkpt lat="48.8964090740044" lon="1.898403805094791"><ele>112.19999999999999</ele><time>2026-04-24T16:41:18Z</time></trkpt><trkpt lat="48.89636484729935" lon="1.898486596430858"><ele>112.0</ele><time>2026-04-24T16:41:19Z</time></trkpt><trkpt lat="48.89631765945872" lon="1.8985726554128233"><ele>112.33333333333334</ele><time>2026-04-24T16:41:20Z</time></trkpt><trkpt lat="48.896275574099604" lon="1.8986709938986406"><ele>112.66666666666667</ele><time>2026-04-24T16:41:21Z</time></trkpt><trkpt lat="48.89622634736605" lon="1.898765019062371"><ele>113.0</ele><time>2026-04-24T16:41:22Z</time></trkpt><trkpt lat="48.896171554853275" lon="1.8988598473819456"><ele>113.33333333333334</ele><time>2026-04-24T16:41:23Z</time></trkpt><trkpt lat="48.896123412685434" lon="1.8989564383465958"><ele>113.66666666666667</ele><time>2026-04-24T16:41:24Z</time></trkpt><trkpt lat="48.8960716557924" lon="1.8990585746479138"><ele>114.0</ele><time>2026-04-24T16:41:25Z</time></trkpt><trkpt lat="48.89602076764229" lon="1.8991604814305094"><ele>114.4</ele><time>2026-04-24T16:41:26Z</time></trkpt><trkpt lat="48.89596852039559" lon="1.8992622227080063"><ele>114.80000000000001</ele><time>2026-04-24T16:41:27Z</time></trkpt><trkpt lat="48.89591111125103" lon="1.8993615379060353"><ele>115.19999999999999</ele><time>2026-04-24T16:41:28Z</time></trkpt><trkpt lat="48.89584884875206" lon="1.8994576016392395"><ele>115.6</ele><time>2026-04-24T16:41:29Z</time></trkpt><trkpt lat="48.895789977478486" lon="1.8995693249386882"><ele>116.0</ele><time>2026-04-24T16:41:30Z</time></trkpt><trkpt lat="48.89573122759934" lon="1.8996863782700537"><ele>115.19999999999999</ele><time>2026-04-24T16:41:31Z</time></trkpt><trkpt lat="48.89566600284932" lon="1.899802773106173"><ele>114.39999999999999</ele><time>2026-04-24T16:41:32Z</time></trkpt><trkpt lat="48.89560055251632" lon="1.8999204778358059"><ele>113.6</ele><time>2026-04-24T16:41:33Z</time></trkpt><trkpt lat="48.89553461073454" lon="1.9000437538401336"><ele>112.8</ele><time>2026-04-24T16:41:34Z</time></trkpt><trkpt lat="48.89546757928126" lon="1.9001643135189303"><ele>112.0</ele><time>2026-04-24T16:41:35Z</time></trkpt><trkpt lat="48.895401248138455" lon="1.900285615163791"><ele>112.0</ele><time>2026-04-24T16:41:36Z</time></trkpt><trkpt lat="48.89533808346243" lon="1.9004071795017894"><ele>111.99999999999999</ele><time>2026-04-24T16:41:37Z</time></trkpt><trkpt lat="48.89527527429198" lon="1.9005279944301157"><ele>111.99999999999999</ele><time>2026-04-24T16:41:38Z</time></trkpt><trkpt lat="48.89521292524233" lon="1.9006453232835394"><ele>112.0</ele><time>2026-04-24T16:41:39Z</time></trkpt><trkpt lat="48.895150805339284" lon="1.9007648844965446"><ele>112.0</ele><time>2026-04-24T16:41:40Z</time></trkpt><trkpt lat="48.89509227948844" lon="1.9008819382297044"><ele>112.39999999999999</ele><time>2026-04-24T16:41:41Z</time></trkpt><trkpt lat="48.89503368368466" lon="1.900995779078829"><ele>112.79999999999998</ele><time>2026-04-24T16:41:42Z</time></trkpt><trkpt lat="48.89497365539167" lon="1.9011044157586743"><ele>113.2</ele><time>2026-04-24T16:41:43Z</time></trkpt><trkpt lat="48.89491745052855" lon="1.9012162019304992"><ele>113.6</ele><time>2026-04-24T16:41:44Z</time></trkpt><trkpt lat="48.89485714268181" lon="1.9013231004541506"><ele>114.0</ele><time>2026-04-24T16:41:45Z</time></trkpt><trkpt lat="48.89480493454774" lon="1.901427062910131"><ele>114.0</ele><time>2026-04-24T16:41:46Z</time></trkpt><trkpt lat="48.89475960847377" lon="1.901527183494452"><ele>114.0</ele><time>2026-04-24T16:41:47Z</time></trkpt><trkpt lat="48.89471454296705" lon="1.9016271132663227"><ele>114.0</ele><time>2026-04-24T16:41:48Z</time></trkpt><trkpt lat="48.89467400054699" lon="1.9017256999422367"><ele>114.0</ele><time>2026-04-24T16:41:49Z</time></trkpt><trkpt lat="48.894625802944546" lon="1.9018117160459218"><ele>114.0</ele><time>2026-04-24T16:41:50Z</time></trkpt><trkpt lat="48.894585790608474" lon="1.9019011982589458"><ele>114.0</ele><time>2026-04-24T16:41:51Z</time></trkpt><trkpt lat="48.894536454345285" lon="1.9019890796964671"><ele>114.14285714285714</ele><time>2026-04-24T16:41:52Z</time></trkpt><trkpt lat="48.89448951230335" lon="1.902074973153803"><ele>114.28571428571428</ele><time>2026-04-24T16:41:53Z</time></trkpt><trkpt lat="48.894460492416485" lon="1.9021684668972125"><ele>114.42857142857142</ele><time>2026-04-24T16:41:54Z</time></trkpt><trkpt lat="48.894428183034144" lon="1.902265291650823"><ele>114.57142857142856</ele><time>2026-04-24T16:41:55Z</time></trkpt><trkpt lat="48.8943961914457" lon="1.9023626273886305"><ele>114.71428571428571</ele><time>2026-04-24T16:41:56Z</time></trkpt><trkpt lat="48.894364742971995" lon="1.9024606184161643"><ele>114.85714285714283</ele><time>2026-04-24T16:41:57Z</time></trkpt><trkpt lat="48.89433042602032" lon="1.902556126406783"><ele>114.99999999999999</ele><time>2026-04-24T16:41:58Z</time></trkpt><trkpt lat="48.89429557312009" lon="1.90264957046202"><ele>115.14285714285712</ele><time>2026-04-24T16:41:58.999Z</time></trkpt><trkpt lat="48.89426261768489" lon="1.9027429146660157"><ele>115.28571428571428</ele><time>2026-04-24T16:41:59.999Z</time></trkpt><trkpt lat="48.8942323972562" lon="1.9028359596614801"><ele>115.42857142857143</ele><time>2026-04-24T16:42:00.999Z</time></trkpt><trkpt lat="48.89419815294325" lon="1.9029250208911233"><ele>115.57142857142857</ele><time>2026-04-24T16:42:01.999Z</time></trkpt><trkpt lat="48.89416455473234" lon="1.9030151281418595"><ele>115.71428571428572</ele><time>2026-04-24T16:42:02.999Z</time></trkpt><trkpt lat="48.894124455767276" lon="1.9031006781658037"><ele>115.85714285714288</ele><time>2026-04-24T16:42:03.999Z</time></trkpt><trkpt lat="48.89408334971709" lon="1.9031839598932356"><ele>116.00000000000001</ele><time>2026-04-24T16:42:04.999Z</time></trkpt><trkpt lat="48.89404614072154" lon="1.9032758784653732"><ele>115.71428571428572</ele><time>2026-04-24T16:42:05.999Z</time></trkpt><trkpt lat="48.89401348096484" lon="1.9033688239496342"><ele>115.42857142857143</ele><time>2026-04-24T16:42:06.999Z</time></trkpt><trkpt lat="48.89398113289928" lon="1.903462919178734"><ele>115.14285714285714</ele><time>2026-04-24T16:42:07.999Z</time></trkpt><trkpt lat="48.893935539145374" lon="1.9035474462090785"><ele>114.85714285714286</ele><time>2026-04-24T16:42:08.999Z</time></trkpt><trkpt lat="48.89389073109623" lon="1.9036326991306045"><ele>114.57142857142856</ele><time>2026-04-24T16:42:09.999Z</time></trkpt><trkpt lat="48.89384835437652" lon="1.9037141051255766"><ele>114.28571428571428</ele><time>2026-04-24T16:42:10.999Z</time></trkpt><trkpt lat="48.89380619687551" lon="1.9038034824638275"><ele>114.0</ele><time>2026-04-24T16:42:11.999Z</time></trkpt><trkpt lat="48.893763569633386" lon="1.9038858627027564"><ele>113.83333333333333</ele><time>2026-04-24T16:42:12.999Z</time></trkpt><trkpt lat="48.89372073071565" lon="1.903979776127419"><ele>113.66666666666666</ele><time>2026-04-24T16:42:13.999Z</time></trkpt><trkpt lat="48.893678718364576" lon="1.9040727692297716"><ele>113.5</ele><time>2026-04-24T16:42:14.999Z</time></trkpt><trkpt lat="48.89363936335244" lon="1.904166843847413"><ele>113.33333333333333</ele><time>2026-04-24T16:42:15.999Z</time></trkpt><trkpt lat="48.89360116792294" lon="1.9042675381943528"><ele>113.16666666666666</ele><time>2026-04-24T16:42:16.999Z</time></trkpt><trkpt lat="48.893552738630184" lon="1.9043614260392157"><ele>113.0</ele><time>2026-04-24T16:42:17.999Z</time></trkpt><trkpt lat="48.89351017974613" lon="1.9044594703687077"><ele>113.0</ele><time>2026-04-24T16:42:18.999Z</time></trkpt><trkpt lat="48.89346447809685" lon="1.9045525187438306"><ele>113.0</ele><time>2026-04-24T16:42:19.999Z</time></trkpt><trkpt lat="48.8934222310363" lon="1.9046498630507698"><ele>113.0</ele><time>2026-04-24T16:42:20.999Z</time></trkpt><trkpt lat="48.89337802294542" lon="1.9047358833162706"><ele>113.0</ele><time>2026-04-24T16:42:21.999Z</time></trkpt><trkpt lat="48.89333887018653" lon="1.9048260400679808"><ele>113.0</ele><time>2026-04-24T16:42:22.999Z</time></trkpt><trkpt lat="48.89330173411724" lon="1.9049150110801436"><ele>113.0</ele><time>2026-04-24T16:42:23.999Z</time></trkpt><trkpt lat="48.89326613752744" lon="1.9049969730217484"><ele>113.0</ele><time>2026-04-24T16:42:24.999Z</time></trkpt><trkpt lat="48.89321936162893" lon="1.9050810268109872"><ele>112.71428571428572</ele><time>2026-04-24T16:42:25.999Z</time></trkpt><trkpt lat="48.89316579269887" lon="1.9051598288941844"><ele>112.42857142857142</ele><time>2026-04-24T16:42:26.999Z</time></trkpt><trkpt lat="48.89311702841542" lon="1.905244486386775"><ele>112.14285714285714</ele><time>2026-04-24T16:42:27.999Z</time></trkpt><trkpt lat="48.893074022794345" lon="1.9053231747894448"><ele>111.85714285714286</ele><time>2026-04-24T16:42:28.999Z</time></trkpt><trkpt lat="48.89303592173429" lon="1.9054127163729753"><ele>111.57142857142858</ele><time>2026-04-24T16:42:29.999Z</time></trkpt><trkpt lat="48.8929893504767" lon="1.9054892462750161"><ele>111.28571428571428</ele><time>2026-04-24T16:42:30.999Z</time></trkpt><trkpt lat="48.89295430820056" lon="1.9055724825282228"><ele>111.0</ele><time>2026-04-24T16:42:31.999Z</time></trkpt><trkpt lat="48.89288201148867" lon="1.9057172347665896"><ele>111.0</ele><time>2026-04-24T16:42:33.999Z</time></trkpt><trkpt lat="48.892840114751294" lon="1.905794486181619"><ele>111.0</ele><time>2026-04-24T16:42:34.999Z</time></trkpt><trkpt lat="48.89276092307218" lon="1.9059434803252977"><ele>111.0</ele><time>2026-04-24T16:42:36.999Z</time></trkpt><trkpt lat="48.89268625939755" lon="1.9060861287801376"><ele>111.0</ele><time>2026-04-24T16:42:38.999Z</time></trkpt><trkpt lat="48.89261897436796" lon="1.9062288404592929"><ele>111.0</ele><time>2026-04-24T16:42:40.999Z</time></trkpt><trkpt lat="48.89254715412445" lon="1.9063643885404082"><ele>111.0</ele><time>2026-04-24T16:42:42.999Z</time></trkpt><trkpt lat="48.892473345377006" lon="1.9064981833571006"><ele>111.0</ele><time>2026-04-24T16:42:44.999Z</time></trkpt><trkpt lat="48.89240495214983" lon="1.9066395283276152"><ele>111.0</ele><time>2026-04-24T16:42:46.999Z</time></trkpt><trkpt lat="48.89233130445943" lon="1.906778236487941"><ele>111.0</ele><time>2026-04-24T16:42:48.999Z</time></trkpt><trkpt lat="48.892258461065055" lon="1.9069139384844218"><ele>111.0</ele><time>2026-04-24T16:42:50.999Z</time></trkpt><trkpt lat="48.892186989511174" lon="1.907055096663869"><ele>111.0</ele><time>2026-04-24T16:42:52.999Z</time></trkpt><trkpt lat="48.89212295869624" lon="1.907190137881522"><ele>111.0</ele><time>2026-04-24T16:42:54.999Z</time></trkpt><trkpt lat="48.89205082161668" lon="1.9073105985525476"><ele>111.0</ele><time>2026-04-24T16:42:56.999Z</time></trkpt><trkpt lat="48.89199306924387" lon="1.907441200024296"><ele>111.0</ele><time>2026-04-24T16:42:58.999Z</time></trkpt><trkpt lat="48.89191582511167" lon="1.9075899308947994"><ele>111.19999999999999</ele><time>2026-04-24T16:43:01.999Z</time></trkpt><trkpt lat="48.89186926570678" lon="1.9076751571842236"><ele>111.39999999999999</ele><time>2026-04-24T16:43:03Z</time></trkpt><trkpt lat="48.89180338988955" lon="1.9078057338847136"><ele>111.6</ele><time>2026-04-24T16:43:05Z</time></trkpt><trkpt lat="48.89173960865235" lon="1.90793520319778"><ele>111.8</ele><time>2026-04-24T16:43:07Z</time></trkpt><trkpt lat="48.89166418260663" lon="1.9080770451755944"><ele>112.0</ele><time>2026-04-24T16:43:09Z</time></trkpt><trkpt lat="48.891628542719275" lon="1.9081620164574635"><ele>112.5</ele><time>2026-04-24T16:43:10Z</time></trkpt><trkpt lat="48.89155172590217" lon="1.9082975012428045"><ele>113.0</ele><time>2026-04-24T16:43:12Z</time></trkpt><trkpt lat="48.89147607412588" lon="1.9084338755250998"><ele>113.5</ele><time>2026-04-24T16:43:14Z</time></trkpt><trkpt lat="48.89139512667603" lon="1.908562654829141"><ele>114.0</ele><time>2026-04-24T16:43:16Z</time></trkpt><trkpt lat="48.891320695663424" lon="1.9086856857599046"><ele>114.4</ele><time>2026-04-24T16:43:18Z</time></trkpt><trkpt lat="48.89123628944389" lon="1.9087941174664504"><ele>114.80000000000001</ele><time>2026-04-24T16:43:20Z</time></trkpt><trkpt lat="48.8911468168311" lon="1.9089027502333018"><ele>115.19999999999999</ele><time>2026-04-24T16:43:22Z</time></trkpt><trkpt lat="48.891059723016156" lon="1.9090084790460085"><ele>115.6</ele><time>2026-04-24T16:43:24Z</time></trkpt><trkpt lat="48.89097189532021" lon="1.9091063275268527"><ele>116.0</ele><time>2026-04-24T16:43:26Z</time></trkpt><trkpt lat="48.89088958185681" lon="1.909201512389803"><ele>116.6</ele><time>2026-04-24T16:43:28Z</time></trkpt><trkpt lat="48.89080469988548" lon="1.9092860768513682"><ele>117.19999999999999</ele><time>2026-04-24T16:43:30Z</time></trkpt><trkpt lat="48.89071868003931" lon="1.9093674751114722"><ele>117.80000000000001</ele><time>2026-04-24T16:43:32Z</time></trkpt><trkpt lat="48.89062761582496" lon="1.9094350172953527"><ele>118.4</ele><time>2026-04-24T16:43:34Z</time></trkpt><trkpt lat="48.89055193190707" lon="1.9095052821724543"><ele>119.0</ele><time>2026-04-24T16:43:36Z</time></trkpt><trkpt lat="48.89047069165179" lon="1.9095725180320933"><ele>119.0</ele><time>2026-04-24T16:43:38Z</time></trkpt><trkpt lat="48.89038550879941" lon="1.9096469074338738"><ele>119.0</ele><time>2026-04-24T16:43:40Z</time></trkpt><trkpt lat="48.890314014013185" lon="1.9097264572929558"><ele>119.0</ele><time>2026-04-24T16:43:44Z</time></trkpt><trkpt lat="48.89023688635206" lon="1.9097990751128306"><ele>119.0</ele><time>2026-04-24T16:43:47Z</time></trkpt><trkpt lat="48.88995901871684" lon="1.9099797278433241"><ele>119.2</ele><time>2026-04-24T16:43:49Z</time></trkpt><trkpt lat="48.88986212989368" lon="1.9100568268549343"><ele>119.4</ele><time>2026-04-24T16:43:51Z</time></trkpt><trkpt lat="48.88976634387376" lon="1.910130860303284"><ele>119.6</ele><time>2026-04-24T16:43:53Z</time></trkpt><trkpt lat="48.88967028438185" lon="1.9101997834843878"><ele>119.8</ele><time>2026-04-24T16:43:55Z</time></trkpt><trkpt lat="48.88958840941177" lon="1.9102814630557916"><ele>120.0</ele><time>2026-04-24T16:43:57Z</time></trkpt><trkpt lat="48.889494469121246" lon="1.9103577426349891"><ele>120.8</ele><time>2026-04-24T16:43:59Z</time></trkpt><trkpt lat="48.88940390367003" lon="1.9104342071570668"><ele>121.6</ele><time>2026-04-24T16:44:00.999Z</time></trkpt><trkpt lat="48.8893088520489" lon="1.9105063374108866"><ele>122.4</ele><time>2026-04-24T16:44:02.999Z</time></trkpt><trkpt lat="48.88922109838274" lon="1.9105899889906017"><ele>123.2</ele><time>2026-04-24T16:44:04.999Z</time></trkpt><trkpt lat="48.88912551096419" lon="1.9106686009586582"><ele>124.0</ele><time>2026-04-24T16:44:06.999Z</time></trkpt><trkpt lat="48.889053152488245" lon="1.9107382124016599"><ele>124.2</ele><time>2026-04-24T16:44:08.999Z</time></trkpt><trkpt lat="48.88899498333549" lon="1.9108342303522154"><ele>124.4</ele><time>2026-04-24T16:44:10.999Z</time></trkpt><trkpt lat="48.888897803785966" lon="1.910933390640534"><ele>124.6</ele><time>2026-04-24T16:44:12.999Z</time></trkpt><trkpt lat="48.888809298210646" lon="1.9110342949760677"><ele>124.8</ele><time>2026-04-24T16:44:14.999Z</time></trkpt><trkpt lat="48.88872512113892" lon="1.911140659895869"><ele>125.0</ele><time>2026-04-24T16:44:16.999Z</time></trkpt><trkpt lat="48.88863735565201" lon="1.9112436041227714"><ele>125.6</ele><time>2026-04-24T16:44:18.999Z</time></trkpt><trkpt lat="48.888553636924364" lon="1.911339486693436"><ele>126.2</ele><time>2026-04-24T16:44:20.999Z</time></trkpt><trkpt lat="48.88849494552912" lon="1.9114499191065741"><ele>126.80000000000001</ele><time>2026-04-24T16:44:23.999Z</time></trkpt><trkpt lat="48.888379440227204" lon="1.9115741563834319"><ele>127.4</ele><time>2026-04-24T16:44:24.999Z</time></trkpt><trkpt lat="48.88830796333259" lon="1.9116828393428436"><ele>128.0</ele><time>2026-04-24T16:44:26.999Z</time></trkpt><trkpt lat="48.88823737698921" lon="1.9118102868376992"><ele>128.8</ele><time>2026-04-24T16:44:28.999Z</time></trkpt><trkpt lat="48.88817761226126" lon="1.9119497046062999"><ele>129.60000000000002</ele><time>2026-04-24T16:44:30.999Z</time></trkpt><trkpt lat="48.888104391304" lon="1.9120666873584093"><ele>130.39999999999998</ele><time>2026-04-24T16:44:32.999Z</time></trkpt><trkpt lat="48.88803304458227" lon="1.9121954566715131"><ele>131.2</ele><time>2026-04-24T16:44:34.999Z</time></trkpt><trkpt lat="48.887959810717874" lon="1.9123105549337867"><ele>132.0</ele><time>2026-04-24T16:44:36.999Z</time></trkpt><trkpt lat="48.88790327319068" lon="1.9124315586324503"><ele>132.0</ele><time>2026-04-24T16:44:38.999Z</time></trkpt><trkpt lat="48.887851690601366" lon="1.9125396759124975"><ele>132.0</ele><time>2026-04-24T16:44:40.999Z</time></trkpt><trkpt lat="48.88778832636044" lon="1.9126087655090576"><ele>132.0</ele><time>2026-04-24T16:44:42.999Z</time></trkpt><trkpt lat="48.88775069148804" lon="1.912718532995265"><ele>132.0</ele><time>2026-04-24T16:44:44.999Z</time></trkpt><trkpt lat="48.88771138840854" lon="1.912812181418833"><ele>132.0</ele><time>2026-04-24T16:44:46.999Z</time></trkpt><trkpt lat="48.88766457129643" lon="1.912877327214912"><ele>132.0</ele><time>2026-04-24T16:44:48.999Z</time></trkpt><trkpt lat="48.88761078530788" lon="1.9129571550539621"><ele>131.6</ele><time>2026-04-24T16:44:50.999Z</time></trkpt><trkpt lat="48.88755436129304" lon="1.9130632467978046"><ele>131.2</ele><time>2026-04-24T16:44:52.999Z</time></trkpt><trkpt lat="48.887492773660654" lon="1.913178657067095"><ele>130.8</ele><time>2026-04-24T16:44:54.999Z</time></trkpt><trkpt lat="48.88742329373573" lon="1.913287393014336"><ele>130.4</ele><time>2026-04-24T16:44:56.999Z</time></trkpt><trkpt lat="48.88735033599604" lon="1.9134044071365925"><ele>130.0</ele><time>2026-04-24T16:44:58.999Z</time></trkpt><trkpt lat="48.88727450064237" lon="1.9135171331056176"><ele>130.0</ele><time>2026-04-24T16:45:00.999Z</time></trkpt><trkpt lat="48.88720003533968" lon="1.9136302264509082"><ele>130.0</ele><time>2026-04-24T16:45:02.999Z</time></trkpt><trkpt lat="48.88712650421562" lon="1.9137404921345993"><ele>130.0</ele><time>2026-04-24T16:45:04.999Z</time></trkpt><trkpt lat="48.88705414016079" lon="1.913852088739871"><ele>130.0</ele><time>2026-04-24T16:45:06.999Z</time></trkpt><trkpt lat="48.886971357480036" lon="1.9139523116345492"><ele>130.0</ele><time>2026-04-24T16:45:09Z</time></trkpt><trkpt lat="48.88688336051007" lon="1.9140403948490596"><ele>130.0</ele><time>2026-04-24T16:45:11Z</time></trkpt><trkpt lat="48.88679812295811" lon="1.914085380083313"><ele>130.0</ele><time>2026-04-24T16:45:13Z</time></trkpt><trkpt lat="48.88673038208601" lon="1.914114990261857"><ele>130.0</ele><time>2026-04-24T16:45:16Z</time></trkpt><trkpt lat="48.886663646571634" lon="1.9141672040448907"><ele>130.0</ele><time>2026-04-24T16:45:32Z</time></trkpt><trkpt lat="48.88661352580849" lon="1.9143049893999413"><ele>130.0</ele><time>2026-04-24T16:45:35Z</time></trkpt><trkpt lat="48.88661031552093" lon="1.9144483873609075"><ele>130.0</ele><time>2026-04-24T16:45:37Z</time></trkpt><trkpt lat="48.886606530140895" lon="1.914596459832548"><ele>129.5</ele><time>2026-04-24T16:45:39Z</time></trkpt><trkpt lat="48.88659960891454" lon="1.9147691960443585"><ele>129.0</ele><time>2026-04-24T16:45:41Z</time></trkpt><trkpt lat="48.88659673763182" lon="1.914936732133509"><ele>128.5</ele><time>2026-04-24T16:45:43Z</time></trkpt><trkpt lat="48.88658188967556" lon="1.9151106370182613"><ele>128.0</ele><time>2026-04-24T16:45:45Z</time></trkpt><trkpt lat="48.88658321097492" lon="1.9152989185590417"><ele>127.66666666666666</ele><time>2026-04-24T16:45:47Z</time></trkpt><trkpt lat="48.88658701047635" lon="1.9154973251463256"><ele>127.33333333333333</ele><time>2026-04-24T16:45:49Z</time></trkpt><trkpt lat="48.88658872391418" lon="1.9156020292712106"><ele>127.0</ele><time>2026-04-24T16:45:50Z</time></trkpt><trkpt lat="48.88658317511842" lon="1.9157046036647674"><ele>126.66666666666666</ele><time>2026-04-24T16:45:51Z</time></trkpt><trkpt lat="48.88657788928924" lon="1.9158042681565737"><ele>126.33333333333333</ele><time>2026-04-24T16:45:52Z</time></trkpt><trkpt lat="48.88657820268545" lon="1.915913512633132"><ele>126.0</ele><time>2026-04-24T16:45:53Z</time></trkpt><trkpt lat="48.88657360467534" lon="1.9160203020452027"><ele>125.71428571428572</ele><time>2026-04-24T16:45:54Z</time></trkpt><trkpt lat="48.886570887292756" lon="1.9161348094876964"><ele>125.42857142857143</ele><time>2026-04-24T16:45:55Z</time></trkpt><trkpt lat="48.88656638908652" lon="1.9162357347646877"><ele>125.14285714285714</ele><time>2026-04-24T16:45:56Z</time></trkpt><trkpt lat="48.88656017624279" lon="1.9163493886082952"><ele>124.85714285714286</ele><time>2026-04-24T16:45:57Z</time></trkpt><trkpt lat="48.88655672507892" lon="1.9164587406715807"><ele>124.57142857142858</ele><time>2026-04-24T16:45:58Z</time></trkpt><trkpt lat="48.886553719431404" lon="1.9165718960056957"><ele>124.28571428571429</ele><time>2026-04-24T16:45:59Z</time></trkpt><trkpt lat="48.88654802865071" lon="1.9166865085662035"><ele>124.0</ele><time>2026-04-24T16:46:00Z</time></trkpt><trkpt lat="48.88654493862679" lon="1.9168037741160222"><ele>123.83333333333334</ele><time>2026-04-24T16:46:01Z</time></trkpt><trkpt lat="48.88654538121498" lon="1.9169228785060797"><ele>123.66666666666667</ele><time>2026-04-24T16:46:02Z</time></trkpt><trkpt lat="48.88654256357192" lon="1.9170474874801857"><ele>123.5</ele><time>2026-04-24T16:46:03Z</time></trkpt><trkpt lat="48.88654114343964" lon="1.9171697369433334"><ele>123.33333333333334</ele><time>2026-04-24T16:46:04Z</time></trkpt><trkpt lat="48.88653267239078" lon="1.9172962840774777"><ele>123.16666666666667</ele><time>2026-04-24T16:46:05Z</time></trkpt><trkpt lat="48.88653096218593" lon="1.9174198866848347"><ele>123.0</ele><time>2026-04-24T16:46:06Z</time></trkpt><trkpt lat="48.8865285170075" lon="1.9175452983347758"><ele>122.5</ele><time>2026-04-24T16:46:06.999Z</time></trkpt><trkpt lat="48.88652192359817" lon="1.9176725595358384"><ele>122.0</ele><time>2026-04-24T16:46:07.999Z</time></trkpt><trkpt lat="48.886516246272116" lon="1.917801816449322"><ele>121.5</ele><time>2026-04-24T16:46:08.999Z</time></trkpt><trkpt lat="48.8865134446574" lon="1.9179278696817084"><ele>121.0</ele><time>2026-04-24T16:46:09.999Z</time></trkpt><trkpt lat="48.886512205682415" lon="1.9180502218195483"><ele>120.5</ele><time>2026-04-24T16:46:10.999Z</time></trkpt><trkpt lat="48.88650411552015" lon="1.918192567656832"><ele>120.0</ele><time>2026-04-24T16:46:11.999Z</time></trkpt><trkpt lat="48.8865031227862" lon="1.9183115763269216"><ele>119.83333333333333</ele><time>2026-04-24T16:46:12.999Z</time></trkpt><trkpt lat="48.886498441203415" lon="1.9184399787743656"><ele>119.66666666666666</ele><time>2026-04-24T16:46:13.999Z</time></trkpt><trkpt lat="48.88649119192467" lon="1.918568836363931"><ele>119.5</ele><time>2026-04-24T16:46:14.999Z</time></trkpt><trkpt lat="48.88648564892694" lon="1.9186980223852108"><ele>119.33333333333333</ele><time>2026-04-24T16:46:15.999Z</time></trkpt><trkpt lat="48.88648174158876" lon="1.918826891612322"><ele>119.16666666666666</ele><time>2026-04-24T16:46:16.999Z</time></trkpt><trkpt lat="48.886474462646625" lon="1.9189570763728336"><ele>119.0</ele><time>2026-04-24T16:46:17.999Z</time></trkpt><trkpt lat="48.88647082387163" lon="1.919085851957017"><ele>118.99999999999999</ele><time>2026-04-24T16:46:18.999Z</time></trkpt><trkpt lat="48.88646722230565" lon="1.9192075572506677"><ele>119.0</ele><time>2026-04-24T16:46:19.999Z</time></trkpt><trkpt lat="48.886464544075515" lon="1.9193344173910278"><ele>119.0</ele><time>2026-04-24T16:46:20.999Z</time></trkpt><trkpt lat="48.88645667816151" lon="1.9194626614781976"><ele>119.0</ele><time>2026-04-24T16:46:21.999Z</time></trkpt><trkpt lat="48.88644606855921" lon="1.9195926869935784"><ele>118.99999999999999</ele><time>2026-04-24T16:46:22.999Z</time></trkpt><trkpt lat="48.88644149231407" lon="1.9197201170726548"><ele>119.0</ele><time>2026-04-24T16:46:23.999Z</time></trkpt><trkpt lat="48.886428725463475" lon="1.9198424820461724"><ele>118.99999999999999</ele><time>2026-04-24T16:46:24.999Z</time></trkpt><trkpt lat="48.88642941794619" lon="1.9199691626962467"><ele>119.0</ele><time>2026-04-24T16:46:25.999Z</time></trkpt><trkpt lat="48.88642594256632" lon="1.920101906853517"><ele>119.0</ele><time>2026-04-24T16:46:26.999Z</time></trkpt><trkpt lat="48.886420751404586" lon="1.920232122735513"><ele>119.0</ele><time>2026-04-24T16:46:27.999Z</time></trkpt><trkpt lat="48.886423251798846" lon="1.9203633347274784"><ele>118.99999999999999</ele><time>2026-04-24T16:46:28.999Z</time></trkpt><trkpt lat="48.886423946992466" lon="1.9204958821213483"><ele>119.0</ele><time>2026-04-24T16:46:29.999Z</time></trkpt><trkpt lat="48.88642548230427" lon="1.920627579024113"><ele>118.83333333333333</ele><time>2026-04-24T16:46:30.999Z</time></trkpt><trkpt lat="48.88642246617541" lon="1.9207526904594971"><ele>118.66666666666666</ele><time>2026-04-24T16:46:31.999Z</time></trkpt><trkpt lat="48.88641741224767" lon="1.9208756958274507"><ele>118.5</ele><time>2026-04-24T16:46:32.999Z</time></trkpt><trkpt lat="48.886416039303874" lon="1.921005089628927"><ele>118.33333333333334</ele><time>2026-04-24T16:46:33.999Z</time></trkpt><trkpt lat="48.88641552254673" lon="1.9211282405144268"><ele>118.16666666666667</ele><time>2026-04-24T16:46:34.999Z</time></trkpt><trkpt lat="48.886412612545854" lon="1.9212476124537867"><ele>118.0</ele><time>2026-04-24T16:46:35.999Z</time></trkpt><trkpt lat="48.88640962079114" lon="1.9213672437220242"><ele>118.00000000000001</ele><time>2026-04-24T16:46:36.999Z</time></trkpt><trkpt lat="48.886406725200985" lon="1.9214880285308384"><ele>118.0</ele><time>2026-04-24T16:46:37.999Z</time></trkpt><trkpt lat="48.88640343867224" lon="1.9216068600927603"><ele>118.0</ele><time>2026-04-24T16:46:38.999Z</time></trkpt><trkpt lat="48.88639962005856" lon="1.9217292482798216"><ele>118.0</ele><time>2026-04-24T16:46:39.999Z</time></trkpt><trkpt lat="48.88639531748954" lon="1.921847654853118"><ele>118.00000000000001</ele><time>2026-04-24T16:46:40.999Z</time></trkpt><trkpt lat="48.88638895403785" lon="1.9219707377652855"><ele>118.0</ele><time>2026-04-24T16:46:41.999Z</time></trkpt><trkpt lat="48.886387779858936" lon="1.9220907387198427"><ele>118.16666666666667</ele><time>2026-04-24T16:46:42.999Z</time></trkpt><trkpt lat="48.88638562240092" lon="1.922214726898071"><ele>118.33333333333334</ele><time>2026-04-24T16:46:43.999Z</time></trkpt><trkpt lat="48.88638338848039" lon="1.922340268143051"><ele>118.5</ele><time>2026-04-24T16:46:44.999Z</time></trkpt><trkpt lat="48.88637826858133" lon="1.9224664742090594"><ele>118.66666666666666</ele><time>2026-04-24T16:46:45.999Z</time></trkpt><trkpt lat="48.88637182998984" lon="1.9225853984066363"><ele>118.83333333333333</ele><time>2026-04-24T16:46:46.999Z</time></trkpt><trkpt lat="48.88636587711321" lon="1.9227110632858329"><ele>119.0</ele><time>2026-04-24T16:46:47.999Z</time></trkpt><trkpt lat="48.886368289729084" lon="1.9228452351294685"><ele>118.66666666666666</ele><time>2026-04-24T16:46:48.999Z</time></trkpt><trkpt lat="48.886360023260025" lon="1.9229623339612718"><ele>118.33333333333333</ele><time>2026-04-24T16:46:49.999Z</time></trkpt><trkpt lat="48.88635822520844" lon="1.923082390039817"><ele>118.0</ele><time>2026-04-24T16:46:50.999Z</time></trkpt><trkpt lat="48.88635161410925" lon="1.9231980002755156"><ele>117.66666666666666</ele><time>2026-04-24T16:46:51.999Z</time></trkpt><trkpt lat="48.88634631523032" lon="1.9233164086298125"><ele>117.33333333333333</ele><time>2026-04-24T16:46:52.999Z</time></trkpt><trkpt lat="48.88634062622231" lon="1.9234359074490306"><ele>117.0</ele><time>2026-04-24T16:46:53.999Z</time></trkpt><trkpt lat="48.88634452468323" lon="1.9235538255985547"><ele>117.0</ele><time>2026-04-24T16:46:54.999Z</time></trkpt><trkpt lat="48.88634055725101" lon="1.9236733842861602"><ele>117.0</ele><time>2026-04-24T16:46:55.999Z</time></trkpt><trkpt lat="48.886335298970444" lon="1.9237884880315632"><ele>117.0</ele><time>2026-04-24T16:46:56.999Z</time></trkpt><trkpt lat="48.886332220963965" lon="1.9239088124978696"><ele>117.0</ele><time>2026-04-24T16:46:57.999Z</time></trkpt><trkpt lat="48.88632889510094" lon="1.9240208984144846"><ele>117.0</ele><time>2026-04-24T16:46:58.999Z</time></trkpt><trkpt lat="48.88632641338759" lon="1.9241394163008652"><ele>117.0</ele><time>2026-04-24T16:46:59.999Z</time></trkpt><trkpt lat="48.886317112050975" lon="1.924245712304125"><ele>117.33333333333333</ele><time>2026-04-24T16:47:00.999Z</time></trkpt><trkpt lat="48.88631469740293" lon="1.9243541140329932"><ele>117.66666666666666</ele><time>2026-04-24T16:47:01.999Z</time></trkpt><trkpt lat="48.88630641072525" lon="1.9244614976001786"><ele>118.0</ele><time>2026-04-24T16:47:02.999Z</time></trkpt><trkpt lat="48.886299969413834" lon="1.9245651729499218"><ele>118.33333333333333</ele><time>2026-04-24T16:47:03.999Z</time></trkpt><trkpt lat="48.88629411164042" lon="1.9246655501083827"><ele>118.66666666666666</ele><time>2026-04-24T16:47:04.999Z</time></trkpt><trkpt lat="48.886287488185296" lon="1.9248578032919803"><ele>119.0</ele><time>2026-04-24T16:47:06.999Z</time></trkpt><trkpt lat="48.88628323420808" lon="1.925044006668041"><ele>119.75</ele><time>2026-04-24T16:47:08.999Z</time></trkpt><trkpt lat="48.88626709774835" lon="1.9252263823775062"><ele>120.5</ele><time>2026-04-24T16:47:10.999Z</time></trkpt><trkpt lat="48.88624619948439" lon="1.9253996809455245"><ele>121.25</ele><time>2026-04-24T16:47:12.999Z</time></trkpt><trkpt lat="48.88620994325733" lon="1.9255722402168691"><ele>122.0</ele><time>2026-04-24T16:47:15Z</time></trkpt><trkpt lat="48.88616393862566" lon="1.9257410984377341"><ele>121.75</ele><time>2026-04-24T16:47:17Z</time></trkpt><trkpt lat="48.88611175621681" lon="1.925908162121924"><ele>121.5</ele><time>2026-04-24T16:47:19Z</time></trkpt><trkpt lat="48.88605115706655" lon="1.9260622615348042"><ele>121.25</ele><time>2026-04-24T16:47:21Z</time></trkpt><trkpt lat="48.88598099890061" lon="1.9262169546959833"><ele>121.0</ele><time>2026-04-24T16:47:23Z</time></trkpt><trkpt lat="48.88590882673181" lon="1.9263640592950442"><ele>120.66666666666667</ele><time>2026-04-24T16:47:25Z</time></trkpt><trkpt lat="48.88584078703453" lon="1.926513308449483"><ele>120.33333333333334</ele><time>2026-04-24T16:47:27Z</time></trkpt><trkpt lat="48.88580409272668" lon="1.9265975598018736"><ele>120.0</ele><time>2026-04-24T16:47:28Z</time></trkpt><trkpt lat="48.88573257720459" lon="1.9267406791761628"><ele>119.66666666666666</ele><time>2026-04-24T16:47:30Z</time></trkpt><trkpt lat="48.88569575697912" lon="1.926818361156573"><ele>119.33333333333333</ele><time>2026-04-24T16:47:31Z</time></trkpt><trkpt lat="48.88565803309352" lon="1.9269016330104363"><ele>119.0</ele><time>2026-04-24T16:47:32Z</time></trkpt><trkpt lat="48.885618425032476" lon="1.9269812419918333"><ele>118.71428571428572</ele><time>2026-04-24T16:47:33Z</time></trkpt><trkpt lat="48.88557599296445" lon="1.927061442027728"><ele>118.42857142857143</ele><time>2026-04-24T16:47:34Z</time></trkpt><trkpt lat="48.88553470410734" lon="1.9271478116307614"><ele>118.14285714285714</ele><time>2026-04-24T16:47:35Z</time></trkpt><trkpt lat="48.88549654508865" lon="1.92723259658941"><ele>117.85714285714286</ele><time>2026-04-24T16:47:36Z</time></trkpt><trkpt lat="48.88545859544296" lon="1.9273212607156305"><ele>117.57142857142858</ele><time>2026-04-24T16:47:37Z</time></trkpt><trkpt lat="48.88541618178554" lon="1.9274078556158711"><ele>117.28571428571429</ele><time>2026-04-24T16:47:38Z</time></trkpt><trkpt lat="48.885377479091126" lon="1.9274963985673828"><ele>117.0</ele><time>2026-04-24T16:47:39Z</time></trkpt><trkpt lat="48.88533408272138" lon="1.9275844641019908"><ele>116.66666666666667</ele><time>2026-04-24T16:47:40Z</time></trkpt><trkpt lat="48.885288554453716" lon="1.9276791761311984"><ele>116.33333333333334</ele><time>2026-04-24T16:47:41Z</time></trkpt><trkpt lat="48.88524299940212" lon="1.927783801011952"><ele>116.0</ele><time>2026-04-24T16:47:42Z</time></trkpt><trkpt lat="48.88519459247945" lon="1.9278828330518036"><ele>115.66666666666667</ele><time>2026-04-24T16:47:43Z</time></trkpt><trkpt lat="48.88514654625471" lon="1.9279892439815032"><ele>115.33333333333334</ele><time>2026-04-24T16:47:44Z</time></trkpt><trkpt lat="48.885096195497454" lon="1.9280959080799565"><ele>115.0</ele><time>2026-04-24T16:47:45Z</time></trkpt><trkpt lat="48.88504705956014" lon="1.9282065228280245"><ele>115.00000000000001</ele><time>2026-04-24T16:47:46Z</time></trkpt><trkpt lat="48.884997798244534" lon="1.9283163046667229"><ele>115.0</ele><time>2026-04-24T16:47:47Z</time></trkpt><trkpt lat="48.88495189697186" lon="1.9284245876859631"><ele>115.0</ele><time>2026-04-24T16:47:48Z</time></trkpt><trkpt lat="48.884902829591404" lon="1.9285326526853102"><ele>115.0</ele><time>2026-04-24T16:47:49Z</time></trkpt><trkpt lat="48.884854317693204" lon="1.9286348514874332"><ele>115.00000000000001</ele><time>2026-04-24T16:47:50Z</time></trkpt><trkpt lat="48.88480754624538" lon="1.928735946512093"><ele>115.0</ele><time>2026-04-24T16:47:51Z</time></trkpt><trkpt lat="48.884761883217664" lon="1.9288359214495354"><ele>114.99999999999999</ele><time>2026-04-24T16:47:52Z</time></trkpt><trkpt lat="48.88472243565745" lon="1.9289300977455477"><ele>115.0</ele><time>2026-04-24T16:47:53Z</time></trkpt><trkpt lat="48.88468034739733" lon="1.9290185045534303"><ele>114.99999999999999</ele><time>2026-04-24T16:47:54Z</time></trkpt><trkpt lat="48.884632487689686" lon="1.9291142186276038"><ele>114.99999999999999</ele><time>2026-04-24T16:47:55Z</time></trkpt><trkpt lat="48.88458929501537" lon="1.92921014875312"><ele>115.0</ele><time>2026-04-24T16:47:56Z</time></trkpt><trkpt lat="48.884545011274405" lon="1.929301392212845"><ele>114.99999999999999</ele><time>2026-04-24T16:47:57Z</time></trkpt><trkpt lat="48.88450943301463" lon="1.9293814394159257"><ele>114.99999999999999</ele><time>2026-04-24T16:47:58Z</time></trkpt><trkpt lat="48.884468130726006" lon="1.9294614229559282"><ele>115.2</ele><time>2026-04-24T16:47:59Z</time></trkpt><trkpt lat="48.88443199254589" lon="1.9295445054803184"><ele>115.4</ele><time>2026-04-24T16:48:00Z</time></trkpt><trkpt lat="48.88439598709899" lon="1.929625010627434"><ele>115.6</ele><time>2026-04-24T16:48:01Z</time></trkpt><trkpt lat="48.88433688438614" lon="1.929776068110301"><ele>115.8</ele><time>2026-04-24T16:48:03Z</time></trkpt><trkpt lat="48.88427240010284" lon="1.9299240917449323"><ele>116.0</ele><time>2026-04-24T16:48:05Z</time></trkpt><trkpt lat="48.884215343566844" lon="1.9300628005154818"><ele>117.0</ele><time>2026-04-24T16:48:07Z</time></trkpt><trkpt lat="48.88415346199458" lon="1.930201972285542"><ele>118.0</ele><time>2026-04-24T16:48:09Z</time></trkpt><trkpt lat="48.88408696644623" lon="1.9303444449602842"><ele>119.0</ele><time>2026-04-24T16:48:11Z</time></trkpt><trkpt lat="48.88401520303694" lon="1.9304810788918911"><ele>120.0</ele><time>2026-04-24T16:48:13Z</time></trkpt><trkpt lat="48.883943716872075" lon="1.930615024218793"><ele>120.0</ele><time>2026-04-24T16:48:15Z</time></trkpt><trkpt lat="48.88387854043225" lon="1.93075833989796"><ele>120.0</ele><time>2026-04-24T16:48:16.999Z</time></trkpt><trkpt lat="48.88381695650388" lon="1.9308954110174215"><ele>120.0</ele><time>2026-04-24T16:48:18.999Z</time></trkpt><trkpt lat="48.88377816611637" lon="1.9309732437893625"><ele>120.0</ele><time>2026-04-24T16:48:19.999Z</time></trkpt><trkpt lat="48.88370598538449" lon="1.931132956069349"><ele>120.0</ele><time>2026-04-24T16:48:21.999Z</time></trkpt><trkpt lat="48.88366746113559" lon="1.9312214844103448"><ele>119.71428571428572</ele><time>2026-04-24T16:48:22.999Z</time></trkpt><trkpt lat="48.88362840983764" lon="1.9313159471100791"><ele>119.42857142857142</ele><time>2026-04-24T16:48:23.999Z</time></trkpt><trkpt lat="48.88358373443107" lon="1.9314033032308366"><ele>119.14285714285714</ele><time>2026-04-24T16:48:24.999Z</time></trkpt><trkpt lat="48.88354313447063" lon="1.9314978791076713"><ele>118.85714285714286</ele><time>2026-04-24T16:48:25.999Z</time></trkpt><trkpt lat="48.8835016516394" lon="1.9316005536762075"><ele>118.57142857142858</ele><time>2026-04-24T16:48:26.999Z</time></trkpt><trkpt lat="48.883458530399565" lon="1.9316852297369467"><ele>118.28571428571428</ele><time>2026-04-24T16:48:27.999Z</time></trkpt><trkpt lat="48.88341559956713" lon="1.9317750585966824"><ele>118.0</ele><time>2026-04-24T16:48:28.999Z</time></trkpt><trkpt lat="48.88337328452626" lon="1.9318679585643057"><ele>117.71428571428571</ele><time>2026-04-24T16:48:29.999Z</time></trkpt><trkpt lat="48.88333217268028" lon="1.9319564969176368"><ele>117.42857142857144</ele><time>2026-04-24T16:48:30.999Z</time></trkpt><trkpt lat="48.88329531885269" lon="1.932039983293392"><ele>117.14285714285715</ele><time>2026-04-24T16:48:31.999Z</time></trkpt><trkpt lat="48.883252266103334" lon="1.932129295651233"><ele>116.85714285714286</ele><time>2026-04-24T16:48:32.999Z</time></trkpt><trkpt lat="48.88321226997391" lon="1.9322142580038189"><ele>116.57142857142858</ele><time>2026-04-24T16:48:33.999Z</time></trkpt><trkpt lat="48.883172201632334" lon="1.9322983863243992"><ele>116.2857142857143</ele><time>2026-04-24T16:48:34.999Z</time></trkpt><trkpt lat="48.8831325875714" lon="1.93237551527356"><ele>116.00000000000001</ele><time>2026-04-24T16:48:35.999Z</time></trkpt><trkpt lat="48.883090566790244" lon="1.9324642006396906"><ele>115.99999999999999</ele><time>2026-04-24T16:48:36.999Z</time></trkpt><trkpt lat="48.883049163094555" lon="1.9325494012964932"><ele>116.0</ele><time>2026-04-24T16:48:37.999Z</time></trkpt><trkpt lat="48.88301290752573" lon="1.9326335763898579"><ele>116.0</ele><time>2026-04-24T16:48:38.999Z</time></trkpt><trkpt lat="48.88297465951138" lon="1.9327178735272679"><ele>116.0</ele><time>2026-04-24T16:48:39.999Z</time></trkpt><trkpt lat="48.882936896831836" lon="1.9327996855856584"><ele>115.99999999999999</ele><time>2026-04-24T16:48:40.999Z</time></trkpt><trkpt lat="48.88289397302621" lon="1.932880781359791"><ele>116.0</ele><time>2026-04-24T16:48:41.999Z</time></trkpt><trkpt lat="48.882822913014365" lon="1.9330342657668098"><ele>116.4</ele><time>2026-04-24T16:48:43.999Z</time></trkpt><trkpt lat="48.882749873780725" lon="1.9331978719588654"><ele>116.8</ele><time>2026-04-24T16:48:45.999Z</time></trkpt><trkpt lat="48.88271169035715" lon="1.9332772012078632"><ele>117.20000000000002</ele><time>2026-04-24T16:48:46.999Z</time></trkpt><trkpt lat="48.88267255008562" lon="1.933354138378006"><ele>117.60000000000001</ele><time>2026-04-24T16:48:47.999Z</time></trkpt><trkpt lat="48.88263855049738" lon="1.9334375462772326"><ele>118.0</ele><time>2026-04-24T16:48:48.999Z</time></trkpt><trkpt lat="48.882567793057994" lon="1.9335967191632204"><ele>118.80000000000001</ele><time>2026-04-24T16:48:50.999Z</time></trkpt><trkpt lat="48.88252722868829" lon="1.9336763288475516"><ele>119.60000000000001</ele><time>2026-04-24T16:48:51.999Z</time></trkpt><trkpt lat="48.88245669680287" lon="1.9338339011451826"><ele>120.39999999999999</ele><time>2026-04-24T16:48:53.999Z</time></trkpt><trkpt lat="48.88238334472203" lon="1.9339890555783978"><ele>121.19999999999999</ele><time>2026-04-24T16:48:55.999Z</time></trkpt><trkpt lat="48.882311067796934" lon="1.9341458381258874"><ele>122.0</ele><time>2026-04-24T16:48:57.999Z</time></trkpt><trkpt lat="48.88227442843593" lon="1.9342280973088146"><ele>122.16666666666666</ele><time>2026-04-24T16:48:58.999Z</time></trkpt><trkpt lat="48.88223810481373" lon="1.9343094568671084"><ele>122.33333333333333</ele><time>2026-04-24T16:48:59.999Z</time></trkpt><trkpt lat="48.88219917929361" lon="1.9343961694605865"><ele>122.5</ele><time>2026-04-24T16:49:00.999Z</time></trkpt><trkpt lat="48.88216378905257" lon="1.9344793159046545"><ele>122.66666666666666</ele><time>2026-04-24T16:49:01.999Z</time></trkpt><trkpt lat="48.88212771477268" lon="1.934560938326255"><ele>122.83333333333333</ele><time>2026-04-24T16:49:02.999Z</time></trkpt><trkpt lat="48.88205078801118" lon="1.9347151397603262"><ele>123.0</ele><time>2026-04-24T16:49:04.999Z</time></trkpt><trkpt lat="48.88201089532538" lon="1.934801012145366"><ele>123.0</ele><time>2026-04-24T16:49:05.999Z</time></trkpt><trkpt lat="48.88193876079375" lon="1.9349649438947074"><ele>123.0</ele><time>2026-04-24T16:49:07.999Z</time></trkpt><trkpt lat="48.88189606548897" lon="1.9350427828412504"><ele>123.0</ele><time>2026-04-24T16:49:08.999Z</time></trkpt><trkpt lat="48.88185927814991" lon="1.9351241596908715"><ele>123.0</ele><time>2026-04-24T16:49:09.999Z</time></trkpt><trkpt lat="48.88181990074953" lon="1.9352094288779131"><ele>123.0</ele><time>2026-04-24T16:49:10.999Z</time></trkpt><trkpt lat="48.88178105076975" lon="1.9352936726727408"><ele>123.0</ele><time>2026-04-24T16:49:11.999Z</time></trkpt><trkpt lat="48.8817473221873" lon="1.935376042549047"><ele>123.33333333333333</ele><time>2026-04-24T16:49:12.999Z</time></trkpt><trkpt lat="48.88170892723858" lon="1.9354553831258514"><ele>123.66666666666666</ele><time>2026-04-24T16:49:13.999Z</time></trkpt><trkpt lat="48.88163493409716" lon="1.935609953451655"><ele>124.0</ele><time>2026-04-24T16:49:15.999Z</time></trkpt><trkpt lat="48.88159669873662" lon="1.9356863315933293"><ele>124.33333333333333</ele><time>2026-04-24T16:49:16.999Z</time></trkpt><trkpt lat="48.88156040251574" lon="1.9357666774213993"><ele>124.66666666666666</ele><time>2026-04-24T16:49:17.999Z</time></trkpt><trkpt lat="48.88152553170969" lon="1.9358509254316936"><ele>125.0</ele><time>2026-04-24T16:49:18.999Z</time></trkpt><trkpt lat="48.88148871256567" lon="1.9359370422141402"><ele>125.33333333333333</ele><time>2026-04-24T16:49:19.999Z</time></trkpt><trkpt lat="48.8814477166784" lon="1.9360146867604355"><ele>125.66666666666666</ele><time>2026-04-24T16:49:21Z</time></trkpt><trkpt lat="48.881408608884534" lon="1.9360947830690767"><ele>126.0</ele><time>2026-04-24T16:49:22Z</time></trkpt><trkpt lat="48.8813720576422" lon="1.9361750019519188"><ele>126.33333333333334</ele><time>2026-04-24T16:49:23Z</time></trkpt><trkpt lat="48.88133607020272" lon="1.9362562119904565"><ele>126.66666666666667</ele><time>2026-04-24T16:49:24Z</time></trkpt><trkpt lat="48.88126144306015" lon="1.936402512175074"><ele>127.0</ele><time>2026-04-24T16:49:26Z</time></trkpt><trkpt lat="48.88119134500913" lon="1.936552346643485"><ele>127.0</ele><time>2026-04-24T16:49:28Z</time></trkpt><trkpt lat="48.88112344883706" lon="1.936696093526269"><ele>127.0</ele><time>2026-04-24T16:49:30Z</time></trkpt><trkpt lat="48.8810563337158" lon="1.936846955172128"><ele>127.0</ele><time>2026-04-24T16:49:32Z</time></trkpt><trkpt lat="48.88098677675709" lon="1.9369925954143232"><ele>127.0</ele><time>2026-04-24T16:49:34Z</time></trkpt><trkpt lat="48.88091962923623" lon="1.9371462550913559"><ele>127.0</ele><time>2026-04-24T16:49:36Z</time></trkpt><trkpt lat="48.88084697850716" lon="1.9372900671049331"><ele>127.0</ele><time>2026-04-24T16:49:38Z</time></trkpt><trkpt lat="48.88077823546283" lon="1.9374419167491888"><ele>127.0</ele><time>2026-04-24T16:49:40Z</time></trkpt><trkpt lat="48.88070692720061" lon="1.9375946799420243"><ele>127.0</ele><time>2026-04-24T16:49:42Z</time></trkpt><trkpt lat="48.880639378255516" lon="1.9377456750915407"><ele>126.83333333333334</ele><time>2026-04-24T16:49:44Z</time></trkpt><trkpt lat="48.88060202841997" lon="1.9378265848821266"><ele>126.66666666666667</ele><time>2026-04-24T16:49:45Z</time></trkpt><trkpt lat="48.88052775438241" lon="1.9379784769482262"><ele>126.5</ele><time>2026-04-24T16:49:47Z</time></trkpt><trkpt lat="48.88049052602891" lon="1.9380571551798425"><ele>126.33333333333334</ele><time>2026-04-24T16:49:48Z</time></trkpt><trkpt lat="48.88045166810018" lon="1.9381382634824502"><ele>126.16666666666667</ele><time>2026-04-24T16:49:49Z</time></trkpt><trkpt lat="48.88038218075329" lon="1.9382971973821794"><ele>126.0</ele><time>2026-04-24T16:49:51Z</time></trkpt><trkpt lat="48.88034503332248" lon="1.938377175662654"><ele>125.83333333333333</ele><time>2026-04-24T16:49:52Z</time></trkpt><trkpt lat="48.8802744858585" lon="1.9385313547764575"><ele>125.66666666666666</ele><time>2026-04-24T16:49:54Z</time></trkpt><trkpt lat="48.88023817124756" lon="1.9386120651924443"><ele>125.5</ele><time>2026-04-24T16:49:55Z</time></trkpt><trkpt lat="48.88016630463706" lon="1.938769437614913"><ele>125.33333333333333</ele><time>2026-04-24T16:49:57Z</time></trkpt><trkpt lat="48.88012729040766" lon="1.938848510627989"><ele>125.16666666666666</ele><time>2026-04-24T16:49:58Z</time></trkpt><trkpt lat="48.88008830691919" lon="1.938934460812578"><ele>125.0</ele><time>2026-04-24T16:49:59Z</time></trkpt><trkpt lat="48.880048311011045" lon="1.9390296416339479"><ele>124.83333333333333</ele><time>2026-04-24T16:50:00Z</time></trkpt><trkpt lat="48.88000497540096" lon="1.9391233452258567"><ele>124.66666666666666</ele><time>2026-04-24T16:50:01Z</time></trkpt><trkpt lat="48.87995950447755" lon="1.939219231397485"><ele>124.5</ele><time>2026-04-24T16:50:02Z</time></trkpt><trkpt lat="48.87991424842628" lon="1.9393169768369882"><ele>124.33333333333334</ele><time>2026-04-24T16:50:03Z</time></trkpt><trkpt lat="48.87986547740917" lon="1.9394230895188938"><ele>124.16666666666667</ele><time>2026-04-24T16:50:04Z</time></trkpt><trkpt lat="48.87981565664864" lon="1.939529323863765"><ele>124.0</ele><time>2026-04-24T16:50:05Z</time></trkpt><trkpt lat="48.879766990723915" lon="1.9396388565098541"><ele>123.4</ele><time>2026-04-24T16:50:06Z</time></trkpt><trkpt lat="48.87971769044383" lon="1.9397481711583613"><ele>122.80000000000001</ele><time>2026-04-24T16:50:07Z</time></trkpt><trkpt lat="48.87966291239507" lon="1.939860467566215"><ele>122.19999999999999</ele><time>2026-04-24T16:50:08Z</time></trkpt><trkpt lat="48.87961018191493" lon="1.939976500711525"><ele>121.6</ele><time>2026-04-24T16:50:09Z</time></trkpt><trkpt lat="48.879558500331854" lon="1.940097946006245"><ele>121.0</ele><time>2026-04-24T16:50:10Z</time></trkpt><trkpt lat="48.87950521173637" lon="1.940218528830957"><ele>120.8</ele><time>2026-04-24T16:50:11Z</time></trkpt><trkpt lat="48.87944418231294" lon="1.9403403908205215"><ele>120.6</ele><time>2026-04-24T16:50:12Z</time></trkpt><trkpt lat="48.87938462192777" lon="1.940463197043177"><ele>120.4</ele><time>2026-04-24T16:50:13Z</time></trkpt><trkpt lat="48.879323330623485" lon="1.940591103870707"><ele>120.2</ele><time>2026-04-24T16:50:14Z</time></trkpt><trkpt lat="48.8792653842492" lon="1.9407210590049087"><ele>120.0</ele><time>2026-04-24T16:50:15Z</time></trkpt><trkpt lat="48.87920286310649" lon="1.9408521599354676"><ele>118.6</ele><time>2026-04-24T16:50:16Z</time></trkpt><trkpt lat="48.87914167564235" lon="1.9409835541129494"><ele>117.2</ele><time>2026-04-24T16:50:17Z</time></trkpt><trkpt lat="48.87907800523511" lon="1.9411184112586979"><ele>115.80000000000001</ele><time>2026-04-24T16:50:18Z</time></trkpt><trkpt lat="48.879018124241924" lon="1.9412598969507386"><ele>114.4</ele><time>2026-04-24T16:50:19Z</time></trkpt><trkpt lat="48.87895325382701" lon="1.9413998974428963"><ele>113.0</ele><time>2026-04-24T16:50:19.999Z</time></trkpt><trkpt lat="48.87888795476377" lon="1.9415444933064159"><ele>113.0</ele><time>2026-04-24T16:50:20.999Z</time></trkpt><trkpt lat="48.878821827797644" lon="1.9416900617845012"><ele>113.0</ele><time>2026-04-24T16:50:21.999Z</time></trkpt><trkpt lat="48.87875050899795" lon="1.9418365813112977"><ele>113.0</ele><time>2026-04-24T16:50:22.999Z</time></trkpt><trkpt lat="48.878681947844136" lon="1.9419865092760973"><ele>113.0</ele><time>2026-04-24T16:50:23.999Z</time></trkpt><trkpt lat="48.87861555361294" lon="1.9421417591235026"><ele>113.0</ele><time>2026-04-24T16:50:24.999Z</time></trkpt><trkpt lat="48.878545534150724" lon="1.9422851729121027"><ele>113.00000000000001</ele><time>2026-04-24T16:50:25.999Z</time></trkpt><trkpt lat="48.8784787844923" lon="1.942428082726189"><ele>113.00000000000001</ele><time>2026-04-24T16:50:26.999Z</time></trkpt><trkpt lat="48.87841331787381" lon="1.9425624615681725"><ele>113.0</ele><time>2026-04-24T16:50:27.999Z</time></trkpt><trkpt lat="48.87835391908134" lon="1.9426877129609608"><ele>113.0</ele><time>2026-04-24T16:50:28.999Z</time></trkpt><trkpt lat="48.87829880465495" lon="1.9428077152402294"><ele>112.99999999999999</ele><time>2026-04-24T16:50:29.999Z</time></trkpt><trkpt lat="48.87824423948107" lon="1.9429280842285037"><ele>113.0</ele><time>2026-04-24T16:50:30.999Z</time></trkpt><trkpt lat="48.8781982225646" lon="1.943040339070518"><ele>113.0</ele><time>2026-04-24T16:50:31.999Z</time></trkpt><trkpt lat="48.87815141954685" lon="1.9431445495696862"><ele>113.0</ele><time>2026-04-24T16:50:32.999Z</time></trkpt><trkpt lat="48.87809859226548" lon="1.9432365174981312"><ele>112.99999999999999</ele><time>2026-04-24T16:50:33.999Z</time></trkpt><trkpt lat="48.878048431862396" lon="1.943330346333435"><ele>113.0</ele><time>2026-04-24T16:50:34.999Z</time></trkpt><trkpt lat="48.878004648941506" lon="1.9434222144798887"><ele>113.14285714285714</ele><time>2026-04-24T16:50:35.999Z</time></trkpt><trkpt lat="48.8779608434168" lon="1.9435113565715803"><ele>113.28571428571428</ele><time>2026-04-24T16:50:36.999Z</time></trkpt><trkpt lat="48.877915082832935" lon="1.943597320308957"><ele>113.42857142857142</ele><time>2026-04-24T16:50:37.999Z</time></trkpt><trkpt lat="48.87787263493587" lon="1.9436855234891657"><ele>113.57142857142857</ele><time>2026-04-24T16:50:38.999Z</time></trkpt><trkpt lat="48.877831374246334" lon="1.9437753500824986"><ele>113.7142857142857</ele><time>2026-04-24T16:50:39.999Z</time></trkpt><trkpt lat="48.87779308428912" lon="1.9438635102739064"><ele>113.85714285714285</ele><time>2026-04-24T16:50:40.999Z</time></trkpt><trkpt lat="48.877755840044266" lon="1.9439531568381059"><ele>114.0</ele><time>2026-04-24T16:50:41.999Z</time></trkpt><trkpt lat="48.8777156306133" lon="1.9440399176484588"><ele>114.0</ele><time>2026-04-24T16:50:42.999Z</time></trkpt><trkpt lat="48.877672856431346" lon="1.9441224602816014"><ele>113.99999999999999</ele><time>2026-04-24T16:50:43.999Z</time></trkpt><trkpt lat="48.877632459501854" lon="1.9442037162024284"><ele>114.0</ele><time>2026-04-24T16:50:44.999Z</time></trkpt><trkpt lat="48.87759744463522" lon="1.9442871952044494"><ele>114.0</ele><time>2026-04-24T16:50:45.999Z</time></trkpt><trkpt lat="48.87755765324795" lon="1.944374443884459"><ele>113.99999999999999</ele><time>2026-04-24T16:50:46.999Z</time></trkpt><trkpt lat="48.87751955762272" lon="1.9444596273964705"><ele>114.0</ele><time>2026-04-24T16:50:47.999Z</time></trkpt><trkpt lat="48.87748216816893" lon="1.9445423700605324"><ele>114.0</ele><time>2026-04-24T16:50:48.999Z</time></trkpt><trkpt lat="48.87744263272897" lon="1.944627008862144"><ele>114.0</ele><time>2026-04-24T16:50:49.999Z</time></trkpt><trkpt lat="48.87740396734498" lon="1.9447142085181093"><ele>113.99999999999999</ele><time>2026-04-24T16:50:50.999Z</time></trkpt><trkpt lat="48.87736036956903" lon="1.944799534818498"><ele>114.0</ele><time>2026-04-24T16:50:51.999Z</time></trkpt><trkpt lat="48.87732108726329" lon="1.9448862770317623"><ele>114.0</ele><time>2026-04-24T16:50:52.999Z</time></trkpt><trkpt lat="48.877282799084384" lon="1.944968677390208"><ele>113.99999999999999</ele><time>2026-04-24T16:50:53.999Z</time></trkpt><trkpt lat="48.87724126663432" lon="1.9450561374366477"><ele>114.0</ele><time>2026-04-24T16:50:54.999Z</time></trkpt><trkpt lat="48.87720078634298" lon="1.9451419549151236"><ele>114.0</ele><time>2026-04-24T16:50:55.999Z</time></trkpt><trkpt lat="48.87716236739791" lon="1.945234509264365"><ele>114.16666666666667</ele><time>2026-04-24T16:50:56.999Z</time></trkpt><trkpt lat="48.877120635340006" lon="1.9453249452367682"><ele>114.33333333333334</ele><time>2026-04-24T16:50:57.999Z</time></trkpt><trkpt lat="48.87707451550948" lon="1.9454191492822759"><ele>114.5</ele><time>2026-04-24T16:50:58.999Z</time></trkpt><trkpt lat="48.87703283537315" lon="1.9455171847633856"><ele>114.66666666666667</ele><time>2026-04-24T16:50:59.999Z</time></trkpt><trkpt lat="48.876995056777126" lon="1.9456183932699946"><ele>114.83333333333334</ele><time>2026-04-24T16:51:00.999Z</time></trkpt><trkpt lat="48.87695419330979" lon="1.9457192322567671"><ele>115.0</ele><time>2026-04-24T16:51:01.999Z</time></trkpt><trkpt lat="48.8769093666996" lon="1.9458186508687885"><ele>114.83333333333334</ele><time>2026-04-24T16:51:02.999Z</time></trkpt><trkpt lat="48.8768647108059" lon="1.9459204726773494"><ele>114.66666666666667</ele><time>2026-04-24T16:51:03.999Z</time></trkpt><trkpt lat="48.87681683827016" lon="1.9460190536154882"><ele>114.5</ele><time>2026-04-24T16:51:04.999Z</time></trkpt><trkpt lat="48.876773023433124" lon="1.9461188027102614"><ele>114.33333333333334</ele><time>2026-04-24T16:51:05.999Z</time></trkpt><trkpt lat="48.876723160717766" lon="1.9462175085775304"><ele>114.16666666666667</ele><time>2026-04-24T16:51:06.999Z</time></trkpt><trkpt lat="48.87668043024986" lon="1.9463133606821466"><ele>114.0</ele><time>2026-04-24T16:51:07.999Z</time></trkpt><trkpt lat="48.876637847924" lon="1.9464095779243795"><ele>113.5</ele><time>2026-04-24T16:51:08.999Z</time></trkpt><trkpt lat="48.876594393512676" lon="1.9465062764600545"><ele>113.0</ele><time>2026-04-24T16:51:09.999Z</time></trkpt><trkpt lat="48.876548584481114" lon="1.946599152903461"><ele>112.5</ele><time>2026-04-24T16:51:10.999Z</time></trkpt><trkpt lat="48.87649954527997" lon="1.9466937585966684"><ele>112.0</ele><time>2026-04-24T16:51:11.999Z</time></trkpt><trkpt lat="48.87645459293148" lon="1.9467881013456414"><ele>111.5</ele><time>2026-04-24T16:51:12.999Z</time></trkpt><trkpt lat="48.87641246057947" lon="1.9468811652527331"><ele>111.0</ele><time>2026-04-24T16:51:13.999Z</time></trkpt><trkpt lat="48.876368139603265" lon="1.9469735503010248"><ele>111.0</ele><time>2026-04-24T16:51:14.999Z</time></trkpt><trkpt lat="48.87632713659519" lon="1.947066524938392"><ele>111.0</ele><time>2026-04-24T16:51:15.999Z</time></trkpt><trkpt lat="48.8762842161058" lon="1.9471605752122432"><ele>111.0</ele><time>2026-04-24T16:51:16.999Z</time></trkpt><trkpt lat="48.87624396349684" lon="1.9472476506423906"><ele>111.0</ele><time>2026-04-24T16:51:17.999Z</time></trkpt><trkpt lat="48.876202085402674" lon="1.9473350212188123"><ele>111.0</ele><time>2026-04-24T16:51:18.999Z</time></trkpt><trkpt lat="48.87616064612551" lon="1.9474257679622182"><ele>111.0</ele><time>2026-04-24T16:51:19.999Z</time></trkpt><trkpt lat="48.87611529217855" lon="1.9475185060754954"><ele>111.0</ele><time>2026-04-24T16:51:20.999Z</time></trkpt><trkpt lat="48.876076759398835" lon="1.9476042770438498"><ele>111.0</ele><time>2026-04-24T16:51:21.999Z</time></trkpt><trkpt lat="48.876037762512" lon="1.947696510565572"><ele>111.0</ele><time>2026-04-24T16:51:22.999Z</time></trkpt><trkpt lat="48.875997363311" lon="1.9477818535345544"><ele>111.0</ele><time>2026-04-24T16:51:23.999Z</time></trkpt><trkpt lat="48.875957917774144" lon="1.9478700836903122"><ele>111.0</ele><time>2026-04-24T16:51:24.999Z</time></trkpt><trkpt lat="48.875916047246015" lon="1.947957412308002"><ele>111.0</ele><time>2026-04-24T16:51:25.999Z</time></trkpt><trkpt lat="48.875876181648565" lon="1.9480429268057817"><ele>111.0</ele><time>2026-04-24T16:51:27Z</time></trkpt><trkpt lat="48.875834371140435" lon="1.9481325565294105"><ele>111.0</ele><time>2026-04-24T16:51:28Z</time></trkpt><trkpt lat="48.875790932508764" lon="1.9482226918991006"><ele>111.42857142857142</ele><time>2026-04-24T16:51:29Z</time></trkpt><trkpt lat="48.8757544944831" lon="1.94830704395091"><ele>111.85714285714286</ele><time>2026-04-24T16:51:30Z</time></trkpt><trkpt lat="48.87571638080054" lon="1.9483916742552303"><ele>112.28571428571428</ele><time>2026-04-24T16:51:31Z</time></trkpt><trkpt lat="48.875678730307506" lon="1.9484764607100211"><ele>112.71428571428571</ele><time>2026-04-24T16:51:32Z</time></trkpt><trkpt lat="48.87563406667277" lon="1.948560896949238"><ele>113.14285714285714</ele><time>2026-04-24T16:51:33Z</time></trkpt><trkpt lat="48.87559582598171" lon="1.9486413044501143"><ele>113.57142857142857</ele><time>2026-04-24T16:51:34Z</time></trkpt><trkpt lat="48.87556165300553" lon="1.9487235962949556"><ele>114.0</ele><time>2026-04-24T16:51:35Z</time></trkpt><trkpt lat="48.875521584754296" lon="1.9488095433308938"><ele>114.33333333333333</ele><time>2026-04-24T16:51:36Z</time></trkpt><trkpt lat="48.87548483428458" lon="1.9488888447333865"><ele>114.66666666666666</ele><time>2026-04-24T16:51:37Z</time></trkpt><trkpt lat="48.87544619390333" lon="1.9489694326652902"><ele>115.0</ele><time>2026-04-24T16:51:38Z</time></trkpt><trkpt lat="48.875410528382346" lon="1.9490524587557196"><ele>115.33333333333333</ele><time>2026-04-24T16:51:39Z</time></trkpt><trkpt lat="48.875370526397276" lon="1.9491331750121654"><ele>115.66666666666666</ele><time>2026-04-24T16:51:40Z</time></trkpt><trkpt lat="48.875333299392885" lon="1.949213694086112"><ele>116.0</ele><time>2026-04-24T16:51:41Z</time></trkpt><trkpt lat="48.87526189505784" lon="1.9493755075574162"><ele>116.25</ele><time>2026-04-24T16:51:43Z</time></trkpt><trkpt lat="48.87519430796765" lon="1.9495231409627054"><ele>116.5</ele><time>2026-04-24T16:51:45Z</time></trkpt><trkpt lat="48.875123438940925" lon="1.9496668857843762"><ele>116.75</ele><time>2026-04-24T16:51:47Z</time></trkpt><trkpt lat="48.875057811490315" lon="1.9498059813061668"><ele>117.0</ele><time>2026-04-24T16:51:49Z</time></trkpt><trkpt lat="48.87499721339837" lon="1.9499380346940938"><ele>117.19999999999999</ele><time>2026-04-24T16:51:51Z</time></trkpt><trkpt lat="48.87493291758618" lon="1.9500718603755527"><ele>117.39999999999999</ele><time>2026-04-24T16:51:53Z</time></trkpt><trkpt lat="48.874871332979126" lon="1.9502035432676723"><ele>117.60000000000001</ele><time>2026-04-24T16:51:55Z</time></trkpt><trkpt lat="48.87480850726097" lon="1.9503394897216597"><ele>117.80000000000001</ele><time>2026-04-24T16:51:57Z</time></trkpt><trkpt lat="48.874747681150595" lon="1.9504753544857303"><ele>118.0</ele><time>2026-04-24T16:51:59Z</time></trkpt><trkpt lat="48.87468383383956" lon="1.9506183257867014"><ele>118.0</ele><time>2026-04-24T16:52:01Z</time></trkpt><trkpt lat="48.874612235898745" lon="1.9507653757305774"><ele>118.0</ele><time>2026-04-24T16:52:03Z</time></trkpt><trkpt lat="48.87454188757933" lon="1.9509159049686902"><ele>118.0</ele><time>2026-04-24T16:52:05Z</time></trkpt><trkpt lat="48.874466914892345" lon="1.951065836630775"><ele>118.0</ele><time>2026-04-24T16:52:07Z</time></trkpt><trkpt lat="48.87439515723013" lon="1.951228789321408"><ele>118.14285714285714</ele><time>2026-04-24T16:52:09Z</time></trkpt><trkpt lat="48.87435834261956" lon="1.9513104613168704"><ele>118.28571428571429</ele><time>2026-04-24T16:52:10Z</time></trkpt><trkpt lat="48.87432234443507" lon="1.9513927642371378"><ele>118.42857142857143</ele><time>2026-04-24T16:52:11Z</time></trkpt><trkpt lat="48.874284931832726" lon="1.9514751422511245"><ele>118.57142857142857</ele><time>2026-04-24T16:52:12Z</time></trkpt><trkpt lat="48.87424454608832" lon="1.9515572411565367"><ele>118.71428571428572</ele><time>2026-04-24T16:52:13Z</time></trkpt><trkpt lat="48.87420687161137" lon="1.9516402603784533"><ele>118.85714285714286</ele><time>2026-04-24T16:52:14Z</time></trkpt><trkpt lat="48.874168599858194" lon="1.9517195287609361"><ele>119.0</ele><time>2026-04-24T16:52:15Z</time></trkpt><trkpt lat="48.874132208722216" lon="1.9518034278780774"><ele>119.0</ele><time>2026-04-24T16:52:16Z</time></trkpt><trkpt lat="48.8740962228461" lon="1.9518887744635935"><ele>119.0</ele><time>2026-04-24T16:52:17Z</time></trkpt><trkpt lat="48.87402017430517" lon="1.952044957637693"><ele>119.0</ele><time>2026-04-24T16:52:19Z</time></trkpt><trkpt lat="48.87394812075185" lon="1.9522013448302042"><ele>119.0</ele><time>2026-04-24T16:52:21Z</time></trkpt><trkpt lat="48.87387868478685" lon="1.9523592278892812"><ele>119.0</ele><time>2026-04-24T16:52:23Z</time></trkpt><trkpt lat="48.873805134659584" lon="1.9525137770454501"><ele>119.0</ele><time>2026-04-24T16:52:25Z</time></trkpt><trkpt lat="48.87376703357" lon="1.9525905394270502"><ele>119.0</ele><time>2026-04-24T16:52:26Z</time></trkpt><trkpt lat="48.87370157789714" lon="1.9527486130659737"><ele>119.0</ele><time>2026-04-24T16:52:27.999Z</time></trkpt><trkpt lat="48.873631722099525" lon="1.9528978618849349"><ele>119.0</ele><time>2026-04-24T16:52:29.999Z</time></trkpt><trkpt lat="48.87356197866841" lon="1.9530523197861107"><ele>119.0</ele><time>2026-04-24T16:52:31.999Z</time></trkpt><trkpt lat="48.87352366880288" lon="1.9531347851186747"><ele>119.0</ele><time>2026-04-24T16:52:32.999Z</time></trkpt><trkpt lat="48.87348798091508" lon="1.9532154500157708"><ele>119.0</ele><time>2026-04-24T16:52:33.999Z</time></trkpt><trkpt lat="48.873445142441746" lon="1.953300683829965"><ele>119.0</ele><time>2026-04-24T16:52:34.999Z</time></trkpt><trkpt lat="48.8734045169367" lon="1.9533823915108837"><ele>119.0</ele><time>2026-04-24T16:52:35.999Z</time></trkpt><trkpt lat="48.87336500629371" lon="1.9534644564953536"><ele>119.0</ele><time>2026-04-24T16:52:36.999Z</time></trkpt><trkpt lat="48.87332438161164" lon="1.953548842940728"><ele>119.0</ele><time>2026-04-24T16:52:37.999Z</time></trkpt><trkpt lat="48.873284793675545" lon="1.9536291075200822"><ele>119.0</ele><time>2026-04-24T16:52:38.999Z</time></trkpt><trkpt lat="48.8732483368335" lon="1.9537111788336712"><ele>118.71428571428572</ele><time>2026-04-24T16:52:39.999Z</time></trkpt><trkpt lat="48.87320528612669" lon="1.9537946136577036"><ele>118.42857142857143</ele><time>2026-04-24T16:52:40.999Z</time></trkpt><trkpt lat="48.87316665406679" lon="1.9538769181176885"><ele>118.14285714285714</ele><time>2026-04-24T16:52:41.999Z</time></trkpt><trkpt lat="48.87312662722628" lon="1.9539582535181195"><ele>117.85714285714286</ele><time>2026-04-24T16:52:42.999Z</time></trkpt><trkpt lat="48.873087411409884" lon="1.9540394546207343"><ele>117.57142857142858</ele><time>2026-04-24T16:52:43.999Z</time></trkpt><trkpt lat="48.873048632696765" lon="1.9541265817635305"><ele>117.28571428571429</ele><time>2026-04-24T16:52:44.999Z</time></trkpt><trkpt lat="48.8730130030062" lon="1.9542074933725757"><ele>117.0</ele><time>2026-04-24T16:52:45.999Z</time></trkpt><trkpt lat="48.87293733420527" lon="1.9543626831004182"><ele>117.0</ele><time>2026-04-24T16:52:47.999Z</time></trkpt><trkpt lat="48.872898201126844" lon="1.9544468332257747"><ele>116.99999999999999</ele><time>2026-04-24T16:52:48.999Z</time></trkpt><trkpt lat="48.87283124043654" lon="1.9546051233028772"><ele>116.99999999999999</ele><time>2026-04-24T16:52:50.999Z</time></trkpt><trkpt lat="48.87278630053643" lon="1.9546932556920702"><ele>117.0</ele><time>2026-04-24T16:52:51.999Z</time></trkpt><trkpt lat="48.872749100402494" lon="1.9547720991765223"><ele>117.0</ele><time>2026-04-24T16:52:52.999Z</time></trkpt><trkpt lat="48.8726740347993" lon="1.9549367442184427"><ele>117.0</ele><time>2026-04-24T16:52:54.999Z</time></trkpt><trkpt lat="48.87263647876698" lon="1.955022471569012"><ele>117.00000000000001</ele><time>2026-04-24T16:52:55.999Z</time></trkpt><trkpt lat="48.87259868617915" lon="1.955107370068396"><ele>117.0</ele><time>2026-04-24T16:52:56.999Z</time></trkpt><trkpt lat="48.872559172455325" lon="1.9551888329379077"><ele>117.0</ele><time>2026-04-24T16:52:57.999Z</time></trkpt><trkpt lat="48.872519245249386" lon="1.9552779771108098"><ele>117.00000000000001</ele><time>2026-04-24T16:52:58.999Z</time></trkpt><trkpt lat="48.872478519589265" lon="1.9553661094012234"><ele>117.0</ele><time>2026-04-24T16:52:59.999Z</time></trkpt><trkpt lat="48.87243820026289" lon="1.9554503903723592"><ele>117.0</ele><time>2026-04-24T16:53:00.999Z</time></trkpt><trkpt lat="48.87239622237839" lon="1.9555387577576926"><ele>117.14285714285715</ele><time>2026-04-24T16:53:01.999Z</time></trkpt><trkpt lat="48.87236049682556" lon="1.9556270470518353"><ele>117.2857142857143</ele><time>2026-04-24T16:53:02.999Z</time></trkpt><trkpt lat="48.87231760607909" lon="1.955712964966691"><ele>117.42857142857143</ele><time>2026-04-24T16:53:03.999Z</time></trkpt><trkpt lat="48.872273561101345" lon="1.9558052929264944"><ele>117.57142857142858</ele><time>2026-04-24T16:53:04.999Z</time></trkpt><trkpt lat="48.87224153396595" lon="1.9558897442071235"><ele>117.71428571428572</ele><time>2026-04-24T16:53:05.999Z</time></trkpt><trkpt lat="48.87220165757378" lon="1.9559734122153638"><ele>117.85714285714286</ele><time>2026-04-24T16:53:06.999Z</time></trkpt><trkpt lat="48.872164105470105" lon="1.9560550178849445"><ele>118.0</ele><time>2026-04-24T16:53:07.999Z</time></trkpt><trkpt lat="48.87212924083824" lon="1.9561366007358911"><ele>118.00000000000001</ele><time>2026-04-24T16:53:08.999Z</time></trkpt><trkpt lat="48.872088704528075" lon="1.9562206252907126"><ele>118.0</ele><time>2026-04-24T16:53:09.999Z</time></trkpt><trkpt lat="48.872051448041816" lon="1.9562989953433607"><ele>118.0</ele><time>2026-04-24T16:53:10.999Z</time></trkpt><trkpt lat="48.8719805784906" lon="1.9564612943919741"><ele>118.0</ele><time>2026-04-24T16:53:12.999Z</time></trkpt><trkpt lat="48.87193974022506" lon="1.9565417038791673"><ele>118.00000000000001</ele><time>2026-04-24T16:53:13.999Z</time></trkpt><trkpt lat="48.87190260409109" lon="1.9566236003508748"><ele>118.0</ele><time>2026-04-24T16:53:14.999Z</time></trkpt><trkpt lat="48.87186305401478" lon="1.9567084113995867"><ele>118.0</ele><time>2026-04-24T16:53:15.999Z</time></trkpt><trkpt lat="48.87182909902374" lon="1.9567927225688533"><ele>118.0</ele><time>2026-04-24T16:53:16.999Z</time></trkpt><trkpt lat="48.8717907642541" lon="1.956873911588689"><ele>118.0</ele><time>2026-04-24T16:53:17.999Z</time></trkpt><trkpt lat="48.87174996520175" lon="1.9569551849404436"><ele>118.0</ele><time>2026-04-24T16:53:18.999Z</time></trkpt><trkpt lat="48.87171008742721" lon="1.9570384486565018"><ele>118.0</ele><time>2026-04-24T16:53:19.999Z</time></trkpt><trkpt lat="48.87167210971638" lon="1.9571244088972641"><ele>118.0</ele><time>2026-04-24T16:53:20.999Z</time></trkpt><trkpt lat="48.87163681960897" lon="1.9572073940539136"><ele>118.0</ele><time>2026-04-24T16:53:21.999Z</time></trkpt><trkpt lat="48.871596413685836" lon="1.95729521867818"><ele>117.85714285714286</ele><time>2026-04-24T16:53:22.999Z</time></trkpt><trkpt lat="48.8715570164405" lon="1.9573836855317113"><ele>117.71428571428572</ele><time>2026-04-24T16:53:23.999Z</time></trkpt><trkpt lat="48.87151476106362" lon="1.9574740482132318"><ele>117.57142857142858</ele><time>2026-04-24T16:53:24.999Z</time></trkpt><trkpt lat="48.8714740364214" lon="1.9575628453144274"><ele>117.42857142857143</ele><time>2026-04-24T16:53:25.999Z</time></trkpt><trkpt lat="48.87143238470085" lon="1.9576533002648917"><ele>117.2857142857143</ele><time>2026-04-24T16:53:26.999Z</time></trkpt><trkpt lat="48.87139061397932" lon="1.9577442194523473"><ele>117.14285714285715</ele><time>2026-04-24T16:53:27.999Z</time></trkpt><trkpt lat="48.871347989418034" lon="1.9578332313440634"><ele>117.0</ele><time>2026-04-24T16:53:28.999Z</time></trkpt><trkpt lat="48.87130504571548" lon="1.9579267857098988"><ele>116.71428571428572</ele><time>2026-04-24T16:53:29.999Z</time></trkpt><trkpt lat="48.871261876421585" lon="1.9580183269247762"><ele>116.42857142857144</ele><time>2026-04-24T16:53:30.999Z</time></trkpt><trkpt lat="48.871218383235636" lon="1.9581080960596005"><ele>116.14285714285714</ele><time>2026-04-24T16:53:31.999Z</time></trkpt><trkpt lat="48.87117580163283" lon="1.958201674080874"><ele>115.85714285714286</ele><time>2026-04-24T16:53:33Z</time></trkpt><trkpt lat="48.87113182102193" lon="1.958287614527782"><ele>115.57142857142857</ele><time>2026-04-24T16:53:34Z</time></trkpt><trkpt lat="48.87109304955371" lon="1.958377449046286"><ele>115.28571428571428</ele><time>2026-04-24T16:53:35Z</time></trkpt><trkpt lat="48.87104993517191" lon="1.9584689716223984"><ele>114.99999999999999</ele><time>2026-04-24T16:53:36Z</time></trkpt><trkpt lat="48.87101194669598" lon="1.9585571215634188"><ele>114.99999999999999</ele><time>2026-04-24T16:53:37Z</time></trkpt><trkpt lat="48.870969534109875" lon="1.9586495292049775"><ele>115.0</ele><time>2026-04-24T16:53:38Z</time></trkpt><trkpt lat="48.87092746200951" lon="1.958737900246768"><ele>114.99999999999999</ele><time>2026-04-24T16:53:39Z</time></trkpt><trkpt lat="48.87088378840084" lon="1.9588294438796887"><ele>114.99999999999999</ele><time>2026-04-24T16:53:40Z</time></trkpt><trkpt lat="48.87084497091506" lon="1.9589196906442266"><ele>115.0</ele><time>2026-04-24T16:53:41Z</time></trkpt><trkpt lat="48.87080422209983" lon="1.9590108876064956"><ele>114.99999999999999</ele><time>2026-04-24T16:53:42Z</time></trkpt><trkpt lat="48.87076729011724" lon="1.959101888751275"><ele>114.99999999999999</ele><time>2026-04-24T16:53:43Z</time></trkpt><trkpt lat="48.87072754406477" lon="1.959189727258941"><ele>114.85714285714283</ele><time>2026-04-24T16:53:44Z</time></trkpt><trkpt lat="48.870687183417616" lon="1.9592741917513061"><ele>114.71428571428571</ele><time>2026-04-24T16:53:45Z</time></trkpt><trkpt lat="48.87064467192253" lon="1.9593581562079985"><ele>114.57142857142856</ele><time>2026-04-24T16:53:46Z</time></trkpt><trkpt lat="48.87060446605969" lon="1.9594396918266237"><ele>114.42857142857142</ele><time>2026-04-24T16:53:47Z</time></trkpt><trkpt lat="48.87056618268559" lon="1.9595222329140558"><ele>114.28571428571428</ele><time>2026-04-24T16:53:48Z</time></trkpt><trkpt lat="48.87053227132109" lon="1.9596037938209288"><ele>114.14285714285714</ele><time>2026-04-24T16:53:49Z</time></trkpt><trkpt lat="48.87049602528105" lon="1.9596850807021726"><ele>114.0</ele><time>2026-04-24T16:53:50Z</time></trkpt><trkpt lat="48.87045354467229" lon="1.9597716848362579"><ele>114.0</ele><time>2026-04-24T16:53:51Z</time></trkpt><trkpt lat="48.87041341963508" lon="1.9598527088270872"><ele>113.99999999999999</ele><time>2026-04-24T16:53:52Z</time></trkpt><trkpt lat="48.870368095149054" lon="1.9599399304087506"><ele>114.0</ele><time>2026-04-24T16:53:53Z</time></trkpt><trkpt lat="48.8703340544441" lon="1.9600305583385147"><ele>114.0</ele><time>2026-04-24T16:53:54Z</time></trkpt><trkpt lat="48.870286770057035" lon="1.9601282090836851"><ele>113.99999999999999</ele><time>2026-04-24T16:53:55Z</time></trkpt><trkpt lat="48.870243846377" lon="1.9602241599344408"><ele>114.0</ele><time>2026-04-24T16:53:56Z</time></trkpt><trkpt lat="48.870199131733976" lon="1.9603258527395209"><ele>114.0</ele><time>2026-04-24T16:53:57Z</time></trkpt><trkpt lat="48.870154442250325" lon="1.9604241315499014"><ele>114.16666666666667</ele><time>2026-04-24T16:53:58Z</time></trkpt><trkpt lat="48.870108561061016" lon="1.9605209982023604"><ele>114.33333333333334</ele><time>2026-04-24T16:53:59Z</time></trkpt><trkpt lat="48.87006222545538" lon="1.9606240422930168"><ele>114.5</ele><time>2026-04-24T16:54:00Z</time></trkpt><trkpt lat="48.8700142763617" lon="1.9607261354037864"><ele>114.66666666666667</ele><time>2026-04-24T16:54:01Z</time></trkpt><trkpt lat="48.86996278565449" lon="1.9608263347371002"><ele>114.83333333333334</ele><time>2026-04-24T16:54:02Z</time></trkpt><trkpt lat="48.86991527634974" lon="1.9609308708830986"><ele>115.0</ele><time>2026-04-24T16:54:03Z</time></trkpt><trkpt lat="48.86986631312328" lon="1.9610339126591139"><ele>115.16666666666667</ele><time>2026-04-24T16:54:04Z</time></trkpt><trkpt lat="48.869819978698494" lon="1.9611308844735391"><ele>115.33333333333334</ele><time>2026-04-24T16:54:05Z</time></trkpt><trkpt lat="48.86977658253185" lon="1.9612381864404411"><ele>115.5</ele><time>2026-04-24T16:54:06Z</time></trkpt><trkpt lat="48.869728690940036" lon="1.9613361248050696"><ele>115.66666666666666</ele><time>2026-04-24T16:54:07Z</time></trkpt><trkpt lat="48.86968054276461" lon="1.9614383396679276"><ele>115.83333333333333</ele><time>2026-04-24T16:54:08Z</time></trkpt><trkpt lat="48.869638209774" lon="1.9615347090520021"><ele>116.0</ele><time>2026-04-24T16:54:09Z</time></trkpt><trkpt lat="48.869593053383035" lon="1.9616323417349057"><ele>115.85714285714288</ele><time>2026-04-24T16:54:10Z</time></trkpt><trkpt lat="48.86954930115408" lon="1.9617227291512895"><ele>115.71428571428572</ele><time>2026-04-24T16:54:11Z</time></trkpt><trkpt lat="48.86950454113838" lon="1.9618068753933338"><ele>115.57142857142857</ele><time>2026-04-24T16:54:12Z</time></trkpt><trkpt lat="48.8694631826161" lon="1.9618913459006238"><ele>115.42857142857143</ele><time>2026-04-24T16:54:13Z</time></trkpt><trkpt lat="48.869424753120725" lon="1.9619761196069185"><ele>115.28571428571428</ele><time>2026-04-24T16:54:14Z</time></trkpt><trkpt lat="48.869386033704394" lon="1.9620573294890908"><ele>115.14285714285712</ele><time>2026-04-24T16:54:15Z</time></trkpt><trkpt lat="48.86934556251592" lon="1.9621344715519886"><ele>114.99999999999999</ele><time>2026-04-24T16:54:16Z</time></trkpt><trkpt lat="48.86927789982611" lon="1.9622857908854716"><ele>115.5</ele><time>2026-04-24T16:54:18Z</time></trkpt><trkpt lat="48.86920875154318" lon="1.9624322436486654"><ele>116.0</ele><time>2026-04-24T16:54:20Z</time></trkpt><trkpt lat="48.869140895673375" lon="1.9625747333559551"><ele>116.5</ele><time>2026-04-24T16:54:22Z</time></trkpt><trkpt lat="48.8690763921992" lon="1.9627152150236802"><ele>117.0</ele><time>2026-04-24T16:54:24Z</time></trkpt><trkpt lat="48.86899472390657" lon="1.962845961906121"><ele>117.19999999999999</ele><time>2026-04-24T16:54:26Z</time></trkpt><trkpt lat="48.86889333549763" lon="1.9629485388896502"><ele>117.39999999999999</ele><time>2026-04-24T16:54:28Z</time></trkpt><trkpt lat="48.86879560761778" lon="1.9630222446033108"><ele>117.60000000000001</ele><time>2026-04-24T16:54:30Z</time></trkpt><trkpt lat="48.86873799875142" lon="1.9631530366984427"><ele>117.80000000000001</ele><time>2026-04-24T16:54:32Z</time></trkpt><trkpt lat="48.868773842352866" lon="1.9633086835853628"><ele>118.0</ele><time>2026-04-24T16:54:34Z</time></trkpt><trkpt lat="48.868733785370374" lon="1.9634627307411086"><ele>118.5</ele><time>2026-04-24T16:54:35.999Z</time></trkpt><trkpt lat="48.86871581928094" lon="1.963583909897114"><ele>119.0</ele><time>2026-04-24T16:54:37.999Z</time></trkpt><trkpt lat="48.86864170871441" lon="1.963669060692146"><ele>119.5</ele><time>2026-04-24T16:54:39.999Z</time></trkpt><trkpt lat="48.86851593538958" lon="1.96392339614432"><ele>120.0</ele><time>2026-04-24T16:54:42.999Z</time></trkpt><trkpt lat="48.868459965089556" lon="1.9640743615134493"><ele>120.75</ele><time>2026-04-24T16:54:44.999Z</time></trkpt><trkpt lat="48.86839272966417" lon="1.964210046207608"><ele>121.5</ele><time>2026-04-24T16:54:46.999Z</time></trkpt><trkpt lat="48.86832472510523" lon="1.9643678989956403"><ele>122.25</ele><time>2026-04-24T16:54:48.999Z</time></trkpt><trkpt lat="48.868257386410754" lon="1.964510199176532"><ele>123.0</ele><time>2026-04-24T16:54:50.999Z</time></trkpt><trkpt lat="48.86818345719861" lon="1.9646620398669703"><ele>123.00000000000001</ele><time>2026-04-24T16:54:52.999Z</time></trkpt><trkpt lat="48.868149956290324" lon="1.9647459660697175"><ele>123.0</ele><time>2026-04-24T16:54:53.999Z</time></trkpt><trkpt lat="48.868106270482" lon="1.964818486447778"><ele>123.00000000000001</ele><time>2026-04-24T16:54:54.999Z</time></trkpt><trkpt lat="48.8680687023867" lon="1.964896209855958"><ele>123.00000000000001</ele><time>2026-04-24T16:54:55.999Z</time></trkpt><trkpt lat="48.8680281890626" lon="1.9649765934859396"><ele>123.0</ele><time>2026-04-24T16:54:56.999Z</time></trkpt><trkpt lat="48.86798659592713" lon="1.9650587145927827"><ele>123.00000000000001</ele><time>2026-04-24T16:54:57.999Z</time></trkpt><trkpt lat="48.86795266843574" lon="1.965141548632971"><ele>123.00000000000001</ele><time>2026-04-24T16:54:58.999Z</time></trkpt><trkpt lat="48.86790855825048" lon="1.96521590638303"><ele>123.33333333333333</ele><time>2026-04-24T16:54:59.999Z</time></trkpt><trkpt lat="48.86784250180371" lon="1.965379280043313"><ele>123.66666666666666</ele><time>2026-04-24T16:55:01.999Z</time></trkpt><trkpt lat="48.86780206131808" lon="1.9654538798388266"><ele>124.0</ele><time>2026-04-24T16:55:02.999Z</time></trkpt><trkpt lat="48.86776153171968" lon="1.9655372305277838"><ele>124.33333333333333</ele><time>2026-04-24T16:55:03.999Z</time></trkpt><trkpt lat="48.86768859154631" lon="1.9656899374466554"><ele>124.66666666666666</ele><time>2026-04-24T16:55:05.999Z</time></trkpt><trkpt lat="48.867652778003745" lon="1.9657688802967894"><ele>125.0</ele><time>2026-04-24T16:55:06.999Z</time></trkpt><trkpt lat="48.86758684484757" lon="1.9659219057553377"><ele>125.2</ele><time>2026-04-24T16:55:08.999Z</time></trkpt><trkpt lat="48.86752722207423" lon="1.9660674924758585"><ele>125.4</ele><time>2026-04-24T16:55:10.999Z</time></trkpt><trkpt lat="48.86748854898077" lon="1.96615113646928"><ele>125.6</ele><time>2026-04-24T16:55:11.999Z</time></trkpt><trkpt lat="48.86742899085824" lon="1.966299127813231"><ele>125.8</ele><time>2026-04-24T16:55:13.999Z</time></trkpt><trkpt lat="48.867362098322936" lon="1.966445286101385"><ele>126.0</ele><time>2026-04-24T16:55:15.999Z</time></trkpt><trkpt lat="48.867301916420175" lon="1.9665934415725845"><ele>125.75</ele><time>2026-04-24T16:55:17.999Z</time></trkpt><trkpt lat="48.867237808573165" lon="1.9667405413589907"><ele>125.5</ele><time>2026-04-24T16:55:19.999Z</time></trkpt><trkpt lat="48.86718000743276" lon="1.966886757743401"><ele>125.25</ele><time>2026-04-24T16:55:21.999Z</time></trkpt><trkpt lat="48.86712301222195" lon="1.9670293396335836"><ele>125.0</ele><time>2026-04-24T16:55:23.999Z</time></trkpt><trkpt lat="48.867068740633734" lon="1.9671799441360707"><ele>125.0</ele><time>2026-04-24T16:55:25.999Z</time></trkpt><trkpt lat="48.86703317267768" lon="1.9673428680738037"><ele>125.0</ele><time>2026-04-24T16:55:27.999Z</time></trkpt><trkpt lat="48.86700664922793" lon="1.9675102226246943"><ele>125.0</ele><time>2026-04-24T16:55:29.999Z</time></trkpt><trkpt lat="48.866978104868814" lon="1.9676898355673842"><ele>125.0</ele><time>2026-04-24T16:55:31.999Z</time></trkpt><trkpt lat="48.866951508918085" lon="1.9678681356555605"><ele>125.16666666666666</ele><time>2026-04-24T16:55:33.999Z</time></trkpt><trkpt lat="48.86692903377864" lon="1.9680527289872376"><ele>125.33333333333333</ele><time>2026-04-24T16:55:35.999Z</time></trkpt><trkpt lat="48.866896730202804" lon="1.968237293648019"><ele>125.5</ele><time>2026-04-24T16:55:37.999Z</time></trkpt><trkpt lat="48.86689288749185" lon="1.9683347520426568"><ele>125.66666666666666</ele><time>2026-04-24T16:55:39Z</time></trkpt><trkpt lat="48.86687456373552" lon="1.9684334188235018"><ele>125.83333333333333</ele><time>2026-04-24T16:55:40Z</time></trkpt><trkpt lat="48.86686018124114" lon="1.9685316053336488"><ele>126.0</ele><time>2026-04-24T16:55:41Z</time></trkpt><trkpt lat="48.866844676993175" lon="1.9686285367551672"><ele>126.0</ele><time>2026-04-24T16:55:42Z</time></trkpt><trkpt lat="48.86682785962842" lon="1.968727844499212"><ele>126.0</ele><time>2026-04-24T16:55:43Z</time></trkpt><trkpt lat="48.8668106443873" lon="1.9688290831503552"><ele>126.0</ele><time>2026-04-24T16:55:44Z</time></trkpt><trkpt lat="48.866797770961234" lon="1.9689299240650466"><ele>126.0</ele><time>2026-04-24T16:55:45Z</time></trkpt><trkpt lat="48.86678724630008" lon="1.9690323623433112"><ele>126.0</ele><time>2026-04-24T16:55:46Z</time></trkpt><trkpt lat="48.86676593377994" lon="1.9691403814429225"><ele>126.0</ele><time>2026-04-24T16:55:47Z</time></trkpt><trkpt lat="48.866753159922524" lon="1.969241698761252"><ele>126.0</ele><time>2026-04-24T16:55:48Z</time></trkpt><trkpt lat="48.86673888113285" lon="1.9693507461389321"><ele>126.0</ele><time>2026-04-24T16:55:49Z</time></trkpt><trkpt lat="48.86672622003332" lon="1.969459034870989"><ele>126.0</ele><time>2026-04-24T16:55:50Z</time></trkpt><trkpt lat="48.866706147951874" lon="1.969559917888909"><ele>126.0</ele><time>2026-04-24T16:55:51Z</time></trkpt><trkpt lat="48.86668990141825" lon="1.9696685799572697"><ele>126.0</ele><time>2026-04-24T16:55:52Z</time></trkpt><trkpt lat="48.86667308913242" lon="1.9697730742698913"><ele>126.0</ele><time>2026-04-24T16:55:53Z</time></trkpt><trkpt lat="48.8666564552946" lon="1.9698797017451846"><ele>126.0</ele><time>2026-04-24T16:55:54Z</time></trkpt><trkpt lat="48.86664991732666" lon="1.9699877815021127"><ele>126.0</ele><time>2026-04-24T16:55:55Z</time></trkpt><trkpt lat="48.866636635874244" lon="1.9700835829860397"><ele>126.0</ele><time>2026-04-24T16:55:56Z</time></trkpt><trkpt lat="48.86660164222928" lon="1.9702379492734616"><ele>126.0</ele><time>2026-04-24T16:55:58Z</time></trkpt><trkpt lat="48.86659041217697" lon="1.9703406056714028"><ele>126.0</ele><time>2026-04-24T16:56:00Z</time></trkpt><trkpt lat="48.866557796878965" lon="1.9704896173085442"><ele>126.0</ele><time>2026-04-24T16:57:07.999Z</time></trkpt><trkpt lat="48.866552246043305" lon="1.970648284566574"><ele>126.0</ele><time>2026-04-24T16:57:09.999Z</time></trkpt><trkpt lat="48.86652241849547" lon="1.9708375977377484"><ele>125.85714285714286</ele><time>2026-04-24T16:57:11.999Z</time></trkpt><trkpt lat="48.86650344822205" lon="1.9709443585743016"><ele>125.71428571428572</ele><time>2026-04-24T16:57:12.999Z</time></trkpt><trkpt lat="48.866483932219936" lon="1.9710490980607371"><ele>125.57142857142857</ele><time>2026-04-24T16:57:13.999Z</time></trkpt><trkpt lat="48.866471289379085" lon="1.9711529418654232"><ele>125.42857142857143</ele><time>2026-04-24T16:57:14.999Z</time></trkpt><trkpt lat="48.866454782373914" lon="1.9712625061325408"><ele>125.28571428571429</ele><time>2026-04-24T16:57:15.999Z</time></trkpt><trkpt lat="48.86643681485223" lon="1.9713772573613386"><ele>125.14285714285714</ele><time>2026-04-24T16:57:16.999Z</time></trkpt><trkpt lat="48.86641660036429" lon="1.9714931240613212"><ele>125.0</ele><time>2026-04-24T16:57:17.999Z</time></trkpt><trkpt lat="48.866398984541156" lon="1.9716036002952322"><ele>124.99999999999999</ele><time>2026-04-24T16:57:18.999Z</time></trkpt><trkpt lat="48.86638169345725" lon="1.971719318022058"><ele>125.0</ele><time>2026-04-24T16:57:19.999Z</time></trkpt><trkpt lat="48.86636699366385" lon="1.9718277387055416"><ele>125.0</ele><time>2026-04-24T16:57:20.999Z</time></trkpt><trkpt lat="48.86634761547439" lon="1.9719431012047113"><ele>125.0</ele><time>2026-04-24T16:57:21.999Z</time></trkpt><trkpt lat="48.86633176449055" lon="1.972056586586395"><ele>124.99999999999999</ele><time>2026-04-24T16:57:22.999Z</time></trkpt><trkpt lat="48.86631500786291" lon="1.9721710351446822"><ele>125.0</ele><time>2026-04-24T16:57:23.999Z</time></trkpt><trkpt lat="48.866299451878035" lon="1.972285799945262"><ele>124.99999999999999</ele><time>2026-04-24T16:57:24.999Z</time></trkpt><trkpt lat="48.8662813346628" lon="1.9724119222644703"><ele>125.0</ele><time>2026-04-24T16:57:25.999Z</time></trkpt><trkpt lat="48.86626532821669" lon="1.9725348467962982"><ele>125.0</ele><time>2026-04-24T16:57:26.999Z</time></trkpt><trkpt lat="48.86624666715827" lon="1.9726587466971082"><ele>125.0</ele><time>2026-04-24T16:57:27.999Z</time></trkpt><trkpt lat="48.8662303576648" lon="1.9727827909575395"><ele>124.99999999999999</ele><time>2026-04-24T16:57:28.999Z</time></trkpt><trkpt lat="48.866209906189226" lon="1.9729135669089168"><ele>125.0</ele><time>2026-04-24T16:57:29.999Z</time></trkpt><trkpt lat="48.8661918344686" lon="1.9730411992615167"><ele>125.0</ele><time>2026-04-24T16:57:30.999Z</time></trkpt><trkpt lat="48.86617281567891" lon="1.973173454285111"><ele>125.0</ele><time>2026-04-24T16:57:31.999Z</time></trkpt><trkpt lat="48.86615738205164" lon="1.9733038984198774"><ele>125.0</ele><time>2026-04-24T16:57:32.999Z</time></trkpt><trkpt lat="48.86614089239344" lon="1.973437844052215"><ele>125.0</ele><time>2026-04-24T16:57:33.999Z</time></trkpt><trkpt lat="48.86611723400814" lon="1.9735746370962104"><ele>125.0</ele><time>2026-04-24T16:57:34.999Z</time></trkpt><trkpt lat="48.86609833347586" lon="1.973710622330901"><ele>124.4</ele><time>2026-04-24T16:57:35.999Z</time></trkpt><trkpt lat="48.86607760891084" lon="1.9738527524181249"><ele>123.8</ele><time>2026-04-24T16:57:36.999Z</time></trkpt><trkpt lat="48.86605669000941" lon="1.9739920821058496"><ele>123.19999999999999</ele><time>2026-04-24T16:57:37.999Z</time></trkpt><trkpt lat="48.86603299424043" lon="1.9741272584772327"><ele>122.6</ele><time>2026-04-24T16:57:38.999Z</time></trkpt><trkpt lat="48.86601558964111" lon="1.974275669530514"><ele>122.0</ele><time>2026-04-24T16:57:39.999Z</time></trkpt><trkpt lat="48.86598903871632" lon="1.974420032359558"><ele>121.6</ele><time>2026-04-24T16:57:40.999Z</time></trkpt><trkpt lat="48.86597028684271" lon="1.9745679278429664"><ele>121.19999999999999</ele><time>2026-04-24T16:57:41.999Z</time></trkpt><trkpt lat="48.865948841112214" lon="1.9747162713751225"><ele>120.8</ele><time>2026-04-24T16:57:42.999Z</time></trkpt><trkpt lat="48.86592688023422" lon="1.9748650239653283"><ele>120.4</ele><time>2026-04-24T16:57:43.999Z</time></trkpt><trkpt lat="48.865901403288646" lon="1.9750142984113643"><ele>120.0</ele><time>2026-04-24T16:57:45Z</time></trkpt><trkpt lat="48.86587992273985" lon="1.9751625750653643"><ele>119.4</ele><time>2026-04-24T16:57:46Z</time></trkpt><trkpt lat="48.86585855994197" lon="1.9753110488956425"><ele>118.8</ele><time>2026-04-24T16:57:47Z</time></trkpt><trkpt lat="48.86584059630529" lon="1.9754615283401253"><ele>118.19999999999999</ele><time>2026-04-24T16:57:48Z</time></trkpt><trkpt lat="48.86581920395629" lon="1.975614385103007"><ele>117.6</ele><time>2026-04-24T16:57:49Z</time></trkpt><trkpt lat="48.865800803122795" lon="1.9757672937937543"><ele>117.0</ele><time>2026-04-24T16:57:50Z</time></trkpt><trkpt lat="48.86578024970381" lon="1.9759198641847668"><ele>116.6</ele><time>2026-04-24T16:57:51Z</time></trkpt><trkpt lat="48.86575891457987" lon="1.9760657284669123"><ele>116.19999999999999</ele><time>2026-04-24T16:57:52Z</time></trkpt><trkpt lat="48.86573439831795" lon="1.9762260758150167"><ele>115.8</ele><time>2026-04-24T16:57:53Z</time></trkpt><trkpt lat="48.86570816826318" lon="1.9763761842629932"><ele>115.4</ele><time>2026-04-24T16:57:54Z</time></trkpt><trkpt lat="48.865677612352066" lon="1.9765289219716864"><ele>115.0</ele><time>2026-04-24T16:57:55Z</time></trkpt><trkpt lat="48.865658614544586" lon="1.9766940227041179"><ele>114.8</ele><time>2026-04-24T16:57:56Z</time></trkpt><trkpt lat="48.86563660722197" lon="1.9768523449800368"><ele>114.6</ele><time>2026-04-24T16:57:57Z</time></trkpt><trkpt lat="48.86560759768156" lon="1.9770135849582715"><ele>114.4</ele><time>2026-04-24T16:57:58Z</time></trkpt><trkpt lat="48.8655863110751" lon="1.9771748300386534"><ele>114.2</ele><time>2026-04-24T16:57:59Z</time></trkpt><trkpt lat="48.86556256095898" lon="1.9773195745326884"><ele>114.0</ele><time>2026-04-24T16:58:00Z</time></trkpt><trkpt lat="48.865536280904536" lon="1.9774757908968126"><ele>114.0</ele><time>2026-04-24T16:58:01Z</time></trkpt><trkpt lat="48.86551151715539" lon="1.9776184703522373"><ele>114.0</ele><time>2026-04-24T16:58:02Z</time></trkpt><trkpt lat="48.86548580302356" lon="1.9777629422737135"><ele>114.0</ele><time>2026-04-24T16:58:03Z</time></trkpt><trkpt lat="48.865463309842006" lon="1.977896076992464"><ele>114.0</ele><time>2026-04-24T16:58:04Z</time></trkpt><trkpt lat="48.8654457183893" lon="1.9780261410699247"><ele>114.0</ele><time>2026-04-24T16:58:05Z</time></trkpt><trkpt lat="48.86543537372654" lon="1.9781492122887316"><ele>114.0</ele><time>2026-04-24T16:58:06Z</time></trkpt><trkpt lat="48.86540952779316" lon="1.978266336564894"><ele>113.99999999999999</ele><time>2026-04-24T16:58:07Z</time></trkpt><trkpt lat="48.86539706746116" lon="1.9783687549012092"><ele>114.0</ele><time>2026-04-24T16:58:08Z</time></trkpt><trkpt lat="48.86536719906907" lon="1.9784757124210213"><ele>114.0</ele><time>2026-04-24T16:58:09Z</time></trkpt><trkpt lat="48.86533801326156" lon="1.9785646834508201"><ele>113.99999999999999</ele><time>2026-04-24T16:58:10Z</time></trkpt><trkpt lat="48.86531596762845" lon="1.978655870851335"><ele>114.0</ele><time>2026-04-24T16:58:11Z</time></trkpt><trkpt lat="48.86530278916151" lon="1.9787559496018243"><ele>114.0</ele><time>2026-04-24T16:58:12Z</time></trkpt><trkpt lat="48.86529309272074" lon="1.978854809352135"><ele>114.0</ele><time>2026-04-24T16:58:13Z</time></trkpt><trkpt lat="48.86527706291561" lon="1.9789490931699707"><ele>114.0</ele><time>2026-04-24T16:58:14Z</time></trkpt><trkpt lat="48.865249489445894" lon="1.979127489142687"><ele>114.0</ele><time>2026-04-24T16:58:16Z</time></trkpt><trkpt lat="48.8652261777597" lon="1.979317091080035"><ele>114.0</ele><time>2026-04-24T16:58:18Z</time></trkpt><trkpt lat="48.865202475072955" lon="1.979506818257742"><ele>114.0</ele><time>2026-04-24T16:58:20Z</time></trkpt><trkpt lat="48.8651895723955" lon="1.9796038347653597"><ele>114.42857142857142</ele><time>2026-04-24T16:58:21Z</time></trkpt><trkpt lat="48.86517376596561" lon="1.9796964980001335"><ele>114.85714285714285</ele><time>2026-04-24T16:58:22Z</time></trkpt><trkpt lat="48.86515493533458" lon="1.9797950395260746"><ele>115.28571428571428</ele><time>2026-04-24T16:58:23Z</time></trkpt><trkpt lat="48.86514509669648" lon="1.9798936299322087"><ele>115.71428571428572</ele><time>2026-04-24T16:58:24Z</time></trkpt><trkpt lat="48.86513191112275" lon="1.9799966002087064"><ele>116.14285714285715</ele><time>2026-04-24T16:58:25Z</time></trkpt><trkpt lat="48.86511215854152" lon="1.9800985078883664"><ele>116.57142857142858</ele><time>2026-04-24T16:58:26Z</time></trkpt><trkpt lat="48.86510294399293" lon="1.9801947572102019"><ele>117.0</ele><time>2026-04-24T16:58:27Z</time></trkpt><trkpt lat="48.86508894950154" lon="1.980301913993046"><ele>117.19999999999999</ele><time>2026-04-24T16:58:28Z</time></trkpt><trkpt lat="48.865073724477135" lon="1.9804039999342211"><ele>117.39999999999999</ele><time>2026-04-24T16:58:29Z</time></trkpt><trkpt lat="48.86505545645316" lon="1.980498832807313"><ele>117.60000000000001</ele><time>2026-04-24T16:58:30Z</time></trkpt><trkpt lat="48.865042303844554" lon="1.9806049685866065"><ele>117.80000000000001</ele><time>2026-04-24T16:58:31Z</time></trkpt><trkpt lat="48.86501149218877" lon="1.9807922532968105"><ele>118.0</ele><time>2026-04-24T16:58:33Z</time></trkpt><trkpt lat="48.86498001943184" lon="1.9809674281866003"><ele>118.2</ele><time>2026-04-24T16:58:35Z</time></trkpt><trkpt lat="48.86495446990328" lon="1.981140082685499"><ele>118.4</ele><time>2026-04-24T16:58:37Z</time></trkpt><trkpt lat="48.86492962836002" lon="1.9813073027051114"><ele>118.60000000000001</ele><time>2026-04-24T16:58:39Z</time></trkpt><trkpt lat="48.86490225679646" lon="1.9814700299203634"><ele>118.80000000000001</ele><time>2026-04-24T16:58:41Z</time></trkpt><trkpt lat="48.86488245275803" lon="1.98162065793408"><ele>119.0</ele><time>2026-04-24T16:58:42.999Z</time></trkpt><trkpt lat="48.86487628490915" lon="1.9817725142918887"><ele>119.33333333333333</ele><time>2026-04-24T16:58:44.999Z</time></trkpt><trkpt lat="48.864843518446946" lon="1.9819129618311973"><ele>119.66666666666666</ele><time>2026-04-24T16:58:46.999Z</time></trkpt><trkpt lat="48.86482420043059" lon="1.9820289146270633"><ele>120.0</ele><time>2026-04-24T16:58:48.999Z</time></trkpt><trkpt lat="48.86481090349135" lon="1.9821406097849052"><ele>120.33333333333334</ele><time>2026-04-24T16:58:50.999Z</time></trkpt><trkpt lat="48.86479462915182" lon="1.982271740603694"><ele>120.66666666666667</ele><time>2026-04-24T16:58:52.999Z</time></trkpt><trkpt lat="48.86476166186264" lon="1.9824251787833516"><ele>121.0</ele><time>2026-04-24T16:58:54.999Z</time></trkpt><trkpt lat="48.864726857801976" lon="1.9825773644741762"><ele>121.4</ele><time>2026-04-24T16:58:56.999Z</time></trkpt><trkpt lat="48.864696360809816" lon="1.9827394978238386"><ele>121.8</ele><time>2026-04-24T16:58:58.999Z</time></trkpt><trkpt lat="48.86465831781101" lon="1.9829084036813716"><ele>122.20000000000002</ele><time>2026-04-24T16:59:00.999Z</time></trkpt><trkpt lat="48.864621666254855" lon="1.983078583478254"><ele>122.60000000000001</ele><time>2026-04-24T16:59:02.999Z</time></trkpt><trkpt lat="48.864587768029864" lon="1.9832198787982014"><ele>123.0</ele><time>2026-04-24T16:59:04.999Z</time></trkpt><trkpt lat="48.86455781855439" lon="1.983346628094921"><ele>122.80000000000001</ele><time>2026-04-24T16:59:07.999Z</time></trkpt><trkpt lat="48.864531829978446" lon="1.9834561263490134"><ele>122.60000000000001</ele><time>2026-04-24T16:59:09.999Z</time></trkpt><trkpt lat="48.86458044964535" lon="1.983645413672601"><ele>122.39999999999999</ele><time>2026-04-24T16:59:11.999Z</time></trkpt><trkpt lat="48.864550100892124" lon="1.9837699217397138"><ele>122.19999999999999</ele><time>2026-04-24T16:59:13.999Z</time></trkpt><trkpt lat="48.86452383694647" lon="1.9839270369827953"><ele>122.0</ele><time>2026-04-24T16:59:15.999Z</time></trkpt><trkpt lat="48.86447722085522" lon="1.984094608017825"><ele>122.0</ele><time>2026-04-24T16:59:17.999Z</time></trkpt><trkpt lat="48.86437392969484" lon="1.9841278946264358"><ele>121.99999999999999</ele><time>2026-04-24T16:59:18.999Z</time></trkpt><trkpt lat="48.86435269607261" lon="1.984219195864938"><ele>121.99999999999999</ele><time>2026-04-24T16:59:19.999Z</time></trkpt><trkpt lat="48.864314980783824" lon="1.9843811598119188"><ele>122.0</ele><time>2026-04-24T16:59:21.999Z</time></trkpt><trkpt lat="48.86427837265798" lon="1.9845373988467518"><ele>122.0</ele><time>2026-04-24T16:59:23.999Z</time></trkpt><trkpt lat="48.864242557450936" lon="1.984690253717883"><ele>121.6</ele><time>2026-04-24T16:59:25.999Z</time></trkpt><trkpt lat="48.86420716848594" lon="1.9848412895528653"><ele>121.19999999999999</ele><time>2026-04-24T16:59:27.999Z</time></trkpt><trkpt lat="48.86417069283896" lon="1.984996963313022"><ele>120.8</ele><time>2026-04-24T16:59:29.999Z</time></trkpt><trkpt lat="48.86413458989583" lon="1.985151261184369"><ele>120.4</ele><time>2026-04-24T16:59:31.999Z</time></trkpt><trkpt lat="48.864095903560155" lon="1.9853167507281226"><ele>120.0</ele><time>2026-04-24T16:59:33.999Z</time></trkpt><trkpt lat="48.8640743895621" lon="1.9854087815867036"><ele>119.85714285714286</ele><time>2026-04-24T16:59:34.999Z</time></trkpt><trkpt lat="48.86405224495323" lon="1.9855035100886573"><ele>119.71428571428571</ele><time>2026-04-24T16:59:35.999Z</time></trkpt><trkpt lat="48.86403017286937" lon="1.9855979283169904"><ele>119.57142857142857</ele><time>2026-04-24T16:59:36.999Z</time></trkpt><trkpt lat="48.86400694652235" lon="1.985697284244872"><ele>119.42857142857143</ele><time>2026-04-24T16:59:37.999Z</time></trkpt><trkpt lat="48.863982708995266" lon="1.9858009656496"><ele>119.28571428571428</ele><time>2026-04-24T16:59:38.999Z</time></trkpt><trkpt lat="48.86395897384785" lon="1.9859024980038669"><ele>119.14285714285714</ele><time>2026-04-24T16:59:39.999Z</time></trkpt><trkpt lat="48.86393338445928" lon="1.9860122332199301"><ele>119.0</ele><time>2026-04-24T16:59:40.999Z</time></trkpt><trkpt lat="48.86390954570753" lon="1.9861145441076393"><ele>119.0</ele><time>2026-04-24T16:59:41.999Z</time></trkpt><trkpt lat="48.86388605075363" lon="1.9862153796960385"><ele>119.0</ele><time>2026-04-24T16:59:42.999Z</time></trkpt><trkpt lat="48.86386214112817" lon="1.9863179951613406"><ele>119.0</ele><time>2026-04-24T16:59:43.999Z</time></trkpt><trkpt lat="48.86383678373644" lon="1.9864268237033298"><ele>119.0</ele><time>2026-04-24T16:59:44.999Z</time></trkpt><trkpt lat="48.86381309459456" lon="1.9865284928413782"><ele>119.0</ele><time>2026-04-24T16:59:45.999Z</time></trkpt><trkpt lat="48.86378904474644" lon="1.9866317101798454"><ele>119.0</ele><time>2026-04-24T16:59:46.999Z</time></trkpt><trkpt lat="48.863764484039514" lon="1.9867371667200195"><ele>119.0</ele><time>2026-04-24T16:59:47.999Z</time></trkpt><trkpt lat="48.86374012250058" lon="1.9868417620542551"><ele>118.83333333333333</ele><time>2026-04-24T16:59:48.999Z</time></trkpt><trkpt lat="48.863714998523825" lon="1.9869496309180674"><ele>118.66666666666666</ele><time>2026-04-24T16:59:49.999Z</time></trkpt><trkpt lat="48.86368972679746" lon="1.9870581341253775"><ele>118.5</ele><time>2026-04-24T16:59:51Z</time></trkpt><trkpt lat="48.8636648485014" lon="1.9871649481446039"><ele>118.33333333333334</ele><time>2026-04-24T16:59:52Z</time></trkpt><trkpt lat="48.86364030184133" lon="1.9872703383221197"><ele>118.16666666666667</ele><time>2026-04-24T16:59:53Z</time></trkpt><trkpt lat="48.86361523713544" lon="1.9873779526964583"><ele>118.0</ele><time>2026-04-24T16:59:54Z</time></trkpt><trkpt lat="48.863590092467426" lon="1.98748591038025"><ele>118.14285714285714</ele><time>2026-04-24T16:59:55Z</time></trkpt><trkpt lat="48.8635659475208" lon="1.9875911640273571"><ele>118.28571428571429</ele><time>2026-04-24T16:59:56Z</time></trkpt><trkpt lat="48.86354160389678" lon="1.987697573057195"><ele>118.42857142857143</ele><time>2026-04-24T16:59:57Z</time></trkpt><trkpt lat="48.86351835862332" lon="1.9877991810115887"><ele>118.57142857142857</ele><time>2026-04-24T16:59:58Z</time></trkpt><trkpt lat="48.863495164109054" lon="1.9879005671420515"><ele>118.71428571428572</ele><time>2026-04-24T16:59:59Z</time></trkpt><trkpt lat="48.86347102666011" lon="1.988006099702692"><ele>118.85714285714286</ele><time>2026-04-24T17:00:00Z</time></trkpt><trkpt lat="48.86344773605379" lon="1.9881081403005068"><ele>119.0</ele><time>2026-04-24T17:00:01Z</time></trkpt><trkpt lat="48.8634240595986" lon="1.988211871408109"><ele>118.85714285714286</ele><time>2026-04-24T17:00:02Z</time></trkpt><trkpt lat="48.86340128631979" lon="1.9883116454955743"><ele>118.71428571428572</ele><time>2026-04-24T17:00:03Z</time></trkpt><trkpt lat="48.86337790398707" lon="1.988414088022699"><ele>118.57142857142857</ele><time>2026-04-24T17:00:04Z</time></trkpt><trkpt lat="48.86335549969229" lon="1.9885122455207935"><ele>118.42857142857143</ele><time>2026-04-24T17:00:05Z</time></trkpt><trkpt lat="48.86333266554062" lon="1.988612266133555"><ele>118.28571428571429</ele><time>2026-04-24T17:00:06Z</time></trkpt><trkpt lat="48.86330953422533" lon="1.9887135873426494"><ele>118.14285714285714</ele><time>2026-04-24T17:00:07Z</time></trkpt><trkpt lat="48.8632871081762" lon="1.988811819263362"><ele>118.0</ele><time>2026-04-24T17:00:08Z</time></trkpt><trkpt lat="48.8632632723496" lon="1.9889168151821506"><ele>118.00000000000001</ele><time>2026-04-24T17:00:09Z</time></trkpt><trkpt lat="48.86324055946344" lon="1.989016905865847"><ele>118.0</ele><time>2026-04-24T17:00:10Z</time></trkpt><trkpt lat="48.86321532051808" lon="1.989128128344091"><ele>118.0</ele><time>2026-04-24T17:00:11Z</time></trkpt><trkpt lat="48.86319027880473" lon="1.9892370715656988"><ele>118.0</ele><time>2026-04-24T17:00:12Z</time></trkpt><trkpt lat="48.863164519563874" lon="1.9893486239998734"><ele>118.00000000000001</ele><time>2026-04-24T17:00:13Z</time></trkpt><trkpt lat="48.86313702900789" lon="1.9894676740466555"><ele>118.0</ele><time>2026-04-24T17:00:14Z</time></trkpt><trkpt lat="48.863109127661104" lon="1.9895885029198914"><ele>118.00000000000001</ele><time>2026-04-24T17:00:15Z</time></trkpt><trkpt lat="48.863081229669824" lon="1.9897093174097171"><ele>118.0</ele><time>2026-04-24T17:00:16Z</time></trkpt><trkpt lat="48.86305220054182" lon="1.9898350303456898"><ele>118.0</ele><time>2026-04-24T17:00:17Z</time></trkpt><trkpt lat="48.863024291788584" lon="1.9899553669535162"><ele>118.0</ele><time>2026-04-24T17:00:18Z</time></trkpt><trkpt lat="48.86299433404357" lon="1.9900840618487456"><ele>118.00000000000001</ele><time>2026-04-24T17:00:19Z</time></trkpt><trkpt lat="48.86296438472011" lon="1.9902127205330227"><ele>118.0</ele><time>2026-04-24T17:00:20Z</time></trkpt><trkpt lat="48.86293321645678" lon="1.9903466156603593"><ele>117.60000000000001</ele><time>2026-04-24T17:00:21Z</time></trkpt><trkpt lat="48.86290360213311" lon="1.990474812366754"><ele>117.20000000000002</ele><time>2026-04-24T17:00:22Z</time></trkpt><trkpt lat="48.86287142699131" lon="1.990614116897003"><ele>116.8</ele><time>2026-04-24T17:00:23Z</time></trkpt><trkpt lat="48.86284113100294" lon="1.990745285559461"><ele>116.4</ele><time>2026-04-24T17:00:24Z</time></trkpt><trkpt lat="48.86280990409307" lon="1.9908804847139048"><ele>116.0</ele><time>2026-04-24T17:00:25Z</time></trkpt><trkpt lat="48.8627767110923" lon="1.9910241961524409"><ele>115.4</ele><time>2026-04-24T17:00:26Z</time></trkpt><trkpt lat="48.86274440701178" lon="1.991164058970809"><ele>114.8</ele><time>2026-04-24T17:00:27Z</time></trkpt><trkpt lat="48.86271193973148" lon="1.991304628368145"><ele>114.20000000000002</ele><time>2026-04-24T17:00:28Z</time></trkpt><trkpt lat="48.862678979341325" lon="1.991446704641117"><ele>113.60000000000001</ele><time>2026-04-24T17:00:29Z</time></trkpt><trkpt lat="48.86264632936179" lon="1.9915868776752257"><ele>113.0</ele><time>2026-04-24T17:00:30Z</time></trkpt><trkpt lat="48.86261365914705" lon="1.9917261780915214"><ele>113.0</ele><time>2026-04-24T17:00:31Z</time></trkpt><trkpt lat="48.862580596129284" lon="1.9918671533725933"><ele>113.00000000000001</ele><time>2026-04-24T17:00:32Z</time></trkpt><trkpt lat="48.86254966230136" lon="1.9919986627726725"><ele>113.00000000000001</ele><time>2026-04-24T17:00:33Z</time></trkpt><trkpt lat="48.862518161431" lon="1.9921325821119984"><ele>113.0</ele><time>2026-04-24T17:00:34Z</time></trkpt><trkpt lat="48.86251449597348" lon="1.9922676268498298"><ele>113.0</ele><time>2026-04-24T17:00:35Z</time></trkpt><trkpt lat="48.86249320923044" lon="1.992397623046173"><ele>112.99999999999999</ele><time>2026-04-24T17:00:36Z</time></trkpt><trkpt lat="48.86243183702152" lon="1.992503831006313"><ele>113.0</ele><time>2026-04-24T17:00:37Z</time></trkpt><trkpt lat="48.8624038091142" lon="1.9926244805579445"><ele>113.0</ele><time>2026-04-24T17:00:38Z</time></trkpt><trkpt lat="48.86237672363041" lon="1.992741072502214"><ele>113.0</ele><time>2026-04-24T17:00:39Z</time></trkpt><trkpt lat="48.86235063589711" lon="1.9928533700996223"><ele>112.99999999999999</ele><time>2026-04-24T17:00:40Z</time></trkpt><trkpt lat="48.86232422889809" lon="1.9929670411966462"><ele>113.0</ele><time>2026-04-24T17:00:41Z</time></trkpt><trkpt lat="48.86229964002942" lon="1.9930728861967664"><ele>113.0</ele><time>2026-04-24T17:00:42Z</time></trkpt><trkpt lat="48.8622756797167" lon="1.9931760256749476"><ele>113.0</ele><time>2026-04-24T17:00:43Z</time></trkpt><trkpt lat="48.8622516791772" lon="1.9932803902032261"><ele>113.0</ele><time>2026-04-24T17:00:44Z</time></trkpt><trkpt lat="48.8622280904757" lon="1.9933830269255859"><ele>113.0</ele><time>2026-04-24T17:00:45Z</time></trkpt><trkpt lat="48.86220508049029" lon="1.9934830445248044"><ele>113.0</ele><time>2026-04-24T17:00:46Z</time></trkpt><trkpt lat="48.86218241541863" lon="1.9935815685375695"><ele>113.0</ele><time>2026-04-24T17:00:47Z</time></trkpt><trkpt lat="48.86215988887415" lon="1.993679489435848"><ele>113.0</ele><time>2026-04-24T17:00:48Z</time></trkpt><trkpt lat="48.86213644039073" lon="1.9937814178759372"><ele>113.28571428571429</ele><time>2026-04-24T17:00:48.999Z</time></trkpt><trkpt lat="48.86211408196819" lon="1.9938778523810066"><ele>113.57142857142856</ele><time>2026-04-24T17:00:49.999Z</time></trkpt><trkpt lat="48.86209105215176" lon="1.9939767706629328"><ele>113.85714285714285</ele><time>2026-04-24T17:00:50.999Z</time></trkpt><trkpt lat="48.862069265771176" lon="1.9940703479686868"><ele>114.14285714285714</ele><time>2026-04-24T17:00:51.999Z</time></trkpt><trkpt lat="48.86204808427135" lon="1.9941613275492087"><ele>114.42857142857142</ele><time>2026-04-24T17:00:52.999Z</time></trkpt><trkpt lat="48.86202699699103" lon="1.9942519020599105"><ele>114.7142857142857</ele><time>2026-04-24T17:00:53.999Z</time></trkpt><trkpt lat="48.86200584093583" lon="1.994342772087036"><ele>114.99999999999999</ele><time>2026-04-24T17:00:54.999Z</time></trkpt><trkpt lat="48.861984510232155" lon="1.99443439222622"><ele>115.5</ele><time>2026-04-24T17:00:55.999Z</time></trkpt><trkpt lat="48.86194432740007" lon="1.9946069866165175"><ele>116.0</ele><time>2026-04-24T17:00:57.999Z</time></trkpt><trkpt lat="48.861903318710695" lon="1.9947831281813178"><ele>116.5</ele><time>2026-04-24T17:00:59.999Z</time></trkpt><trkpt lat="48.86186385607605" lon="1.9949526291400574"><ele>117.0</ele><time>2026-04-24T17:01:01.999Z</time></trkpt><trkpt lat="48.86182643440883" lon="1.9951133637681309"><ele>117.19999999999999</ele><time>2026-04-24T17:01:03.999Z</time></trkpt><trkpt lat="48.86179365778711" lon="1.9952563846264946"><ele>117.39999999999999</ele><time>2026-04-24T17:01:05.999Z</time></trkpt><trkpt lat="48.86175831382966" lon="1.9954111090702493"><ele>117.60000000000001</ele><time>2026-04-24T17:01:07.999Z</time></trkpt><trkpt lat="48.86172337976785" lon="1.9955640394577399"><ele>117.80000000000001</ele><time>2026-04-24T17:01:09.999Z</time></trkpt><trkpt lat="48.86168944220465" lon="1.9957126074356881"><ele>118.0</ele><time>2026-04-24T17:01:11.999Z</time></trkpt><trkpt lat="48.861655853304626" lon="1.9958596490640486"><ele>118.4</ele><time>2026-04-24T17:01:13.999Z</time></trkpt><trkpt lat="48.861630143717164" lon="1.995972197674921"><ele>118.80000000000001</ele><time>2026-04-24T17:01:15.999Z</time></trkpt><trkpt lat="48.861604032987806" lon="1.9960865021385188"><ele>119.2</ele><time>2026-04-24T17:01:17.999Z</time></trkpt><trkpt lat="48.86157738084544" lon="1.9962031768370887"><ele>119.6</ele><time>2026-04-24T17:01:20.999Z</time></trkpt><trkpt lat="48.86155213429375" lon="1.9963136983711396"><ele>120.0</ele><time>2026-04-24T17:01:22.999Z</time></trkpt><trkpt lat="48.861463913363835" lon="1.9966999013527866"><ele>120.6</ele><time>2026-04-24T17:01:24.999Z</time></trkpt><trkpt lat="48.86142763246964" lon="1.9968587280538017"><ele>121.2</ele><time>2026-04-24T17:01:26.999Z</time></trkpt><trkpt lat="48.861395026959045" lon="1.997001464683408"><ele>121.80000000000001</ele><time>2026-04-24T17:01:28.999Z</time></trkpt><trkpt lat="48.861359368482354" lon="1.9971574778042027"><ele>122.4</ele><time>2026-04-24T17:01:30.999Z</time></trkpt><trkpt lat="48.86132447642142" lon="1.9973096320839152"><ele>123.0</ele><time>2026-04-24T17:01:32.999Z</time></trkpt><trkpt lat="48.861289025049665" lon="1.9974642253074713"><ele>123.60000000000001</ele><time>2026-04-24T17:01:34.999Z</time></trkpt><trkpt lat="48.86125480275602" lon="1.9976134588464416"><ele>124.20000000000002</ele><time>2026-04-24T17:01:36.999Z</time></trkpt><trkpt lat="48.86121987302563" lon="1.9977657774175486"><ele>124.8</ele><time>2026-04-24T17:01:38.999Z</time></trkpt><trkpt lat="48.86118622474513" lon="1.9979125079001512"><ele>125.4</ele><time>2026-04-24T17:01:40.999Z</time></trkpt><trkpt lat="48.86115212462109" lon="1.9980608597714973"><ele>126.0</ele><time>2026-04-24T17:01:42.999Z</time></trkpt><trkpt lat="48.861119050028755" lon="1.9982039754784773"><ele>126.4</ele><time>2026-04-24T17:01:44.999Z</time></trkpt><trkpt lat="48.861082508132874" lon="1.9983620943932099"><ele>126.8</ele><time>2026-04-24T17:01:46.999Z</time></trkpt><trkpt lat="48.86104625002562" lon="1.9985189853125886"><ele>127.20000000000002</ele><time>2026-04-24T17:01:48.999Z</time></trkpt><trkpt lat="48.861013508176335" lon="1.9986606612244358"><ele>127.60000000000001</ele><time>2026-04-24T17:01:50.999Z</time></trkpt><trkpt lat="48.860978756227986" lon="1.998811034873599"><ele>128.0</ele><time>2026-04-24T17:01:52.999Z</time></trkpt><trkpt lat="48.860947880703414" lon="1.9989446351217175"><ele>128.0</ele><time>2026-04-24T17:01:55.999Z</time></trkpt><trkpt lat="48.86092101374283" lon="1.9990608899980256"><ele>128.0</ele><time>2026-04-24T17:01:59Z</time></trkpt><trkpt lat="48.86089257618549" lon="1.9991839409881238"><ele>128.0</ele><time>2026-04-24T17:02:02Z</time></trkpt><trkpt lat="48.86076901746596" lon="1.999722916035523"><ele>128.5</ele><time>2026-04-24T17:02:05Z</time></trkpt><trkpt lat="48.86073335870163" lon="1.999878404527383"><ele>129.0</ele><time>2026-04-24T17:02:07Z</time></trkpt><trkpt lat="48.86069551160797" lon="2.0000433019832182"><ele>129.5</ele><time>2026-04-24T17:02:09Z</time></trkpt><trkpt lat="48.86065497647031" lon="2.0002199110425867"><ele>130.0</ele><time>2026-04-24T17:02:11Z</time></trkpt><trkpt lat="48.860613844604664" lon="2.0003983170336395"><ele>130.0</ele><time>2026-04-24T17:02:13Z</time></trkpt><trkpt lat="48.86059272670151" lon="2.000489775164824"><ele>130.0</ele><time>2026-04-24T17:02:14Z</time></trkpt><trkpt lat="48.860571229549286" lon="2.0005825491387252"><ele>130.0</ele><time>2026-04-24T17:02:15Z</time></trkpt><trkpt lat="48.860548942993375" lon="2.0006787294399495"><ele>130.0</ele><time>2026-04-24T17:02:16Z</time></trkpt><trkpt lat="48.86061300172007" lon="2.0008326697354506"><ele>130.0</ele><time>2026-04-24T17:02:17Z</time></trkpt><trkpt lat="48.860586113422585" lon="2.0009306046351245"><ele>130.0</ele><time>2026-04-24T17:02:18Z</time></trkpt><trkpt lat="48.860476646385976" lon="2.0009891482483853"><ele>130.0</ele><time>2026-04-24T17:02:19Z</time></trkpt><trkpt lat="48.860450961948956" lon="2.001098171203621"><ele>130.0</ele><time>2026-04-24T17:02:20Z</time></trkpt><trkpt lat="48.860425132656985" lon="2.0012078092683665"><ele>130.0</ele><time>2026-04-24T17:02:21Z</time></trkpt><trkpt lat="48.86039911809795" lon="2.001318233663602"><ele>130.0</ele><time>2026-04-24T17:02:22Z</time></trkpt><trkpt lat="48.86037282693673" lon="2.001429832034119"><ele>130.0</ele><time>2026-04-24T17:02:23Z</time></trkpt><trkpt lat="48.86032480361989" lon="2.001633677170356"><ele>129.8</ele><time>2026-04-24T17:02:25Z</time></trkpt><trkpt lat="48.86029597124152" lon="2.001756062345842"><ele>129.6</ele><time>2026-04-24T17:02:26Z</time></trkpt><trkpt lat="48.86024977683119" lon="2.00195214445994"><ele>129.4</ele><time>2026-04-24T17:02:28Z</time></trkpt><trkpt lat="48.86021948277576" lon="2.0020830499720117"><ele>129.2</ele><time>2026-04-24T17:02:29Z</time></trkpt><trkpt lat="48.86019026237641" lon="2.002211679986678"><ele>129.0</ele><time>2026-04-24T17:02:30Z</time></trkpt><trkpt lat="48.86016242678914" lon="2.002335498812651"><ele>129.0</ele><time>2026-04-24T17:02:31Z</time></trkpt><trkpt lat="48.8601347946603" lon="2.002459762033146"><ele>129.0</ele><time>2026-04-24T17:02:32Z</time></trkpt><trkpt lat="48.86010708638477" lon="2.00258423833325"><ele>129.0</ele><time>2026-04-24T17:02:33Z</time></trkpt><trkpt lat="48.860079630105865" lon="2.0027036513403047"><ele>129.0</ele><time>2026-04-24T17:02:34Z</time></trkpt><trkpt lat="48.860051627016965" lon="2.0028211709956287"><ele>129.0</ele><time>2026-04-24T17:02:35Z</time></trkpt><trkpt lat="48.86002220192325" lon="2.002938959396373"><ele>129.0</ele><time>2026-04-24T17:02:36Z</time></trkpt><trkpt lat="48.85999248724219" lon="2.0030572361741896"><ele>128.33333333333334</ele><time>2026-04-24T17:02:37Z</time></trkpt><trkpt lat="48.859962339118916" lon="2.003173515697186"><ele>127.66666666666666</ele><time>2026-04-24T17:02:38Z</time></trkpt><trkpt lat="48.85993328341143" lon="2.0032855818511095"><ele>127.0</ele><time>2026-04-24T17:02:39Z</time></trkpt><trkpt lat="48.859904546379155" lon="2.0033944898402956"><ele>126.33333333333333</ele><time>2026-04-24T17:02:40Z</time></trkpt><trkpt lat="48.85987460387889" lon="2.0035073499006586"><ele>125.66666666666666</ele><time>2026-04-24T17:02:41Z</time></trkpt><trkpt lat="48.85984417928186" lon="2.003622027169017"><ele>125.0</ele><time>2026-04-24T17:02:42Z</time></trkpt><trkpt lat="48.859816412709016" lon="2.00372544541578"><ele>124.49999999999999</ele><time>2026-04-24T17:02:43Z</time></trkpt><trkpt lat="48.85979014231172" lon="2.0038224989948943"><ele>124.0</ele><time>2026-04-24T17:02:44Z</time></trkpt><trkpt lat="48.859761087934174" lon="2.0039298379310515"><ele>123.5</ele><time>2026-04-24T17:02:45Z</time></trkpt><trkpt lat="48.859728722009706" lon="2.0040452310554935"><ele>123.0</ele><time>2026-04-24T17:02:46Z</time></trkpt><trkpt lat="48.85969598085755" lon="2.004162237876454"><ele>122.49999999999999</ele><time>2026-04-24T17:02:47Z</time></trkpt><trkpt lat="48.8596644251486" lon="2.004273564938094"><ele>122.0</ele><time>2026-04-24T17:02:48Z</time></trkpt><trkpt lat="48.85963041874907" lon="2.0043905505431914"><ele>121.66666666666666</ele><time>2026-04-24T17:02:49Z</time></trkpt><trkpt lat="48.85959562571553" lon="2.0045102340369816"><ele>121.33333333333333</ele><time>2026-04-24T17:02:50Z</time></trkpt><trkpt lat="48.859560361791466" lon="2.0046314452966514"><ele>121.0</ele><time>2026-04-24T17:02:51Z</time></trkpt><trkpt lat="48.85952410136541" lon="2.0047560818471117"><ele>120.66666666666666</ele><time>2026-04-24T17:02:52Z</time></trkpt><trkpt lat="48.85948764008719" lon="2.0048814090029845"><ele>120.33333333333333</ele><time>2026-04-24T17:02:53Z</time></trkpt><trkpt lat="48.85945094411412" lon="2.005007542596522"><ele>120.0</ele><time>2026-04-24T17:02:54Z</time></trkpt><trkpt lat="48.85941343120099" lon="2.0051364843909525"><ele>119.6</ele><time>2026-04-24T17:02:55Z</time></trkpt><trkpt lat="48.85937692899803" lon="2.0052619520831376"><ele>119.2</ele><time>2026-04-24T17:02:56Z</time></trkpt><trkpt lat="48.85934039228315" lon="2.0053875381886237"><ele>118.80000000000001</ele><time>2026-04-24T17:02:57Z</time></trkpt><trkpt lat="48.85930341374" lon="2.0055159775080655"><ele>118.4</ele><time>2026-04-24T17:02:58Z</time></trkpt><trkpt lat="48.859265581745355" lon="2.0056475908877744"><ele>118.0</ele><time>2026-04-24T17:02:59Z</time></trkpt><trkpt lat="48.859228390675796" lon="2.0057823926085554"><ele>116.60000000000001</ele><time>2026-04-24T17:03:00Z</time></trkpt><trkpt lat="48.859196903021726" lon="2.0059111352599803"><ele>115.20000000000002</ele><time>2026-04-24T17:03:01Z</time></trkpt><trkpt lat="48.859167057856354" lon="2.0060331647023957"><ele>113.8</ele><time>2026-04-24T17:03:02Z</time></trkpt><trkpt lat="48.85909300469404" lon="2.0062100558049893"><ele>112.4</ele><time>2026-04-24T17:03:03.999Z</time></trkpt><trkpt lat="48.85901487441222" lon="2.0063347597929515"><ele>111.0</ele><time>2026-04-24T17:03:05.999Z</time></trkpt><trkpt lat="48.858970830858915" lon="2.006418120525936"><ele>112.0</ele><time>2026-04-24T17:03:06.999Z</time></trkpt><trkpt lat="48.85912861789913" lon="2.006857129982957"><ele>113.0</ele><time>2026-04-24T17:03:08.999Z</time></trkpt><trkpt lat="48.85907533095327" lon="2.007001045330194"><ele>114.0</ele><time>2026-04-24T17:03:10.999Z</time></trkpt><trkpt lat="48.85871582524139" lon="2.0068083708744777"><ele>114.0</ele><time>2026-04-24T17:03:12.999Z</time></trkpt><trkpt lat="48.85893607863581" lon="2.0072368593283776"><ele>114.0</ele><time>2026-04-24T17:03:14.999Z</time></trkpt><trkpt lat="48.85895721233231" lon="2.0074074422864476"><ele>114.0</ele><time>2026-04-24T17:03:16.999Z</time></trkpt><trkpt lat="48.858939651702165" lon="2.0075493190690974"><ele>114.0</ele><time>2026-04-24T17:03:18.999Z</time></trkpt><trkpt lat="48.8589099145034" lon="2.007712255110732"><ele>114.0</ele><time>2026-04-24T17:03:20.999Z</time></trkpt><trkpt lat="48.858870545051346" lon="2.0078693008524984"><ele>114.0</ele><time>2026-04-24T17:03:22.999Z</time></trkpt><trkpt lat="48.85883192257256" lon="2.008036802378344"><ele>114.0</ele><time>2026-04-24T17:03:24.999Z</time></trkpt><trkpt lat="48.858791662063894" lon="2.0082049273489906"><ele>114.33333333333333</ele><time>2026-04-24T17:03:26.999Z</time></trkpt><trkpt lat="48.85874899889245" lon="2.008378680099835"><ele>114.66666666666666</ele><time>2026-04-24T17:03:28.999Z</time></trkpt><trkpt lat="48.858707067665144" lon="2.008556511032199"><ele>115.0</ele><time>2026-04-24T17:03:30.999Z</time></trkpt><trkpt lat="48.858686038360474" lon="2.0086487792650365"><ele>115.33333333333333</ele><time>2026-04-24T17:03:31.999Z</time></trkpt><trkpt lat="48.858665361569564" lon="2.00873950072272"><ele>115.66666666666666</ele><time>2026-04-24T17:03:32.999Z</time></trkpt><trkpt lat="48.85863133114151" lon="2.0088228395220082"><ele>116.0</ele><time>2026-04-24T17:03:33.999Z</time></trkpt><trkpt lat="48.858593204231354" lon="2.0090064409652055"><ele>116.00000000000001</ele><time>2026-04-24T17:03:35.999Z</time></trkpt><trkpt lat="48.85859111842234" lon="2.009107282983484"><ele>116.0</ele><time>2026-04-24T17:03:36.999Z</time></trkpt><trkpt lat="48.858546065880134" lon="2.0091890913150605"><ele>116.00000000000001</ele><time>2026-04-24T17:03:37.999Z</time></trkpt><trkpt lat="48.858519445113934" lon="2.0092858764941823"><ele>116.00000000000001</ele><time>2026-04-24T17:03:38.999Z</time></trkpt><trkpt lat="48.858509594898635" lon="2.0093871178442178"><ele>116.0</ele><time>2026-04-24T17:03:39.999Z</time></trkpt><trkpt lat="48.858485952945244" lon="2.009483458866573"><ele>116.00000000000001</ele><time>2026-04-24T17:03:40.999Z</time></trkpt><trkpt lat="48.85844906270024" lon="2.0095690105854467"><ele>116.00000000000001</ele><time>2026-04-24T17:03:41.999Z</time></trkpt><trkpt lat="48.858410570612975" lon="2.00975149443823"><ele>116.8</ele><time>2026-04-24T17:03:43.999Z</time></trkpt><trkpt lat="48.858371323757396" lon="2.0099313391038205"><ele>117.6</ele><time>2026-04-24T17:03:45.999Z</time></trkpt><trkpt lat="48.858332124119585" lon="2.0101040680852464"><ele>118.4</ele><time>2026-04-24T17:03:47.999Z</time></trkpt><trkpt lat="48.8582947243871" lon="2.010279075455586"><ele>119.2</ele><time>2026-04-24T17:03:49.999Z</time></trkpt><trkpt lat="48.85827083788373" lon="2.010374066178206"><ele>120.0</ele><time>2026-04-24T17:03:50.999Z</time></trkpt><trkpt lat="48.858229813515536" lon="2.010553236303956"><ele>120.33333333333333</ele><time>2026-04-24T17:03:52.999Z</time></trkpt><trkpt lat="48.858185315012506" lon="2.0107308057945064"><ele>120.66666666666666</ele><time>2026-04-24T17:03:54.999Z</time></trkpt><trkpt lat="48.85816139229047" lon="2.0108196657798034"><ele>121.0</ele><time>2026-04-24T17:03:55.999Z</time></trkpt><trkpt lat="48.858136216251516" lon="2.010911679894331"><ele>121.33333333333333</ele><time>2026-04-24T17:03:56.999Z</time></trkpt><trkpt lat="48.85810427847037" lon="2.0110948953638568"><ele>121.66666666666666</ele><time>2026-04-24T17:03:58.999Z</time></trkpt><trkpt lat="48.85807965054262" lon="2.0111843286317166"><ele>122.0</ele><time>2026-04-24T17:03:59.999Z</time></trkpt><trkpt lat="48.858037155022714" lon="2.011363873387338"><ele>122.49999999999999</ele><time>2026-04-24T17:04:01.999Z</time></trkpt><trkpt lat="48.85801633467786" lon="2.0114582164645314"><ele>123.0</ele><time>2026-04-24T17:04:03Z</time></trkpt><trkpt lat="48.85797902181467" lon="2.0116412465436624"><ele>123.5</ele><time>2026-04-24T17:04:05Z</time></trkpt><trkpt lat="48.857960441242135" lon="2.0117327771937292"><ele>124.0</ele><time>2026-04-24T17:04:06Z</time></trkpt><trkpt lat="48.857938321412675" lon="2.0118233372980643"><ele>124.49999999999999</ele><time>2026-04-24T17:04:07Z</time></trkpt><trkpt lat="48.85791304200539" lon="2.01200280078384"><ele>125.0</ele><time>2026-04-24T17:04:09Z</time></trkpt><trkpt lat="48.85788020516316" lon="2.0121819894480955"><ele>125.5</ele><time>2026-04-24T17:04:11Z</time></trkpt><trkpt lat="48.857838237359566" lon="2.0123584387350264"><ele>126.0</ele><time>2026-04-24T17:04:13Z</time></trkpt><trkpt lat="48.85779702306512" lon="2.012530971759242"><ele>126.5</ele><time>2026-04-24T17:04:15Z</time></trkpt><trkpt lat="48.857763769828885" lon="2.01269970708099"><ele>127.0</ele><time>2026-04-24T17:04:17Z</time></trkpt><trkpt lat="48.85773074939659" lon="2.012857572112117"><ele>127.5</ele><time>2026-04-24T17:04:19Z</time></trkpt><trkpt lat="48.85769694830012" lon="2.013015555449955"><ele>128.0</ele><time>2026-04-24T17:04:21Z</time></trkpt><trkpt lat="48.85765655716828" lon="2.01319114747328"><ele>128.5</ele><time>2026-04-24T17:04:23Z</time></trkpt><trkpt lat="48.85760307426432" lon="2.0133542616121876"><ele>129.0</ele><time>2026-04-24T17:04:25Z</time></trkpt><trkpt lat="48.85756653927951" lon="2.013518570323733"><ele>129.8</ele><time>2026-04-24T17:04:27Z</time></trkpt><trkpt lat="48.85752513084356" lon="2.013681333169636"><ele>130.60000000000002</ele><time>2026-04-24T17:04:29Z</time></trkpt><trkpt lat="48.85749396364532" lon="2.0138466733190397"><ele>131.4</ele><time>2026-04-24T17:04:31Z</time></trkpt><trkpt lat="48.85746506745951" lon="2.0140081822758056"><ele>132.20000000000002</ele><time>2026-04-24T17:04:33Z</time></trkpt><trkpt lat="48.85742564647909" lon="2.0141650413442873"><ele>133.0</ele><time>2026-04-24T17:04:35Z</time></trkpt><trkpt lat="48.85738664321852" lon="2.0143086367972676"><ele>133.4</ele><time>2026-04-24T17:04:37Z</time></trkpt><trkpt lat="48.85735251707482" lon="2.0144526165893044"><ele>133.8</ele><time>2026-04-24T17:04:39Z</time></trkpt><trkpt lat="48.85732493060799" lon="2.0145820833383956"><ele>134.2</ele><time>2026-04-24T17:04:41Z</time></trkpt><trkpt lat="48.857296623953445" lon="2.014728940487419"><ele>134.6</ele><time>2026-04-24T17:04:43Z</time></trkpt><trkpt lat="48.857265522464644" lon="2.014862927810564"><ele>135.0</ele><time>2026-04-24T17:04:45Z</time></trkpt><trkpt lat="48.857232016639124" lon="2.0149924166601187"><ele>135.0</ele><time>2026-04-24T17:04:47Z</time></trkpt><trkpt lat="48.85720451183229" lon="2.0151183147854015"><ele>135.0</ele><time>2026-04-24T17:04:49Z</time></trkpt><trkpt lat="48.85717452963814" lon="2.0152576088627385"><ele>135.0</ele><time>2026-04-24T17:04:51Z</time></trkpt><trkpt lat="48.857145149619875" lon="2.0153945678805307"><ele>135.0</ele><time>2026-04-24T17:04:53Z</time></trkpt><trkpt lat="48.857117897395376" lon="2.0155345326126066"><ele>135.0</ele><time>2026-04-24T17:04:55Z</time></trkpt><trkpt lat="48.85709118031613" lon="2.015665669345603"><ele>135.0</ele><time>2026-04-24T17:04:57Z</time></trkpt><trkpt lat="48.8570585553548" lon="2.015793261925358"><ele>135.0</ele><time>2026-04-24T17:04:59Z</time></trkpt><trkpt lat="48.85702878082371" lon="2.015925762115469"><ele>135.0</ele><time>2026-04-24T17:05:01Z</time></trkpt><trkpt lat="48.856991391079525" lon="2.016064481739393"><ele>135.0</ele><time>2026-04-24T17:05:03Z</time></trkpt><trkpt lat="48.856964601269375" lon="2.0162072917325333"><ele>135.0</ele><time>2026-04-24T17:05:05Z</time></trkpt><trkpt lat="48.856923445937745" lon="2.016343716540772"><ele>135.4</ele><time>2026-04-24T17:05:06.999Z</time></trkpt><trkpt lat="48.85689817981799" lon="2.0164791583250388"><ele>135.8</ele><time>2026-04-24T17:05:08.999Z</time></trkpt><trkpt lat="48.856854237104216" lon="2.016604131842219"><ele>136.2</ele><time>2026-04-24T17:05:10.999Z</time></trkpt><trkpt lat="48.85679572346541" lon="2.0167118511092785"><ele>136.6</ele><time>2026-04-24T17:05:12.999Z</time></trkpt><trkpt lat="48.85674526323347" lon="2.016831576636208"><ele>137.0</ele><time>2026-04-24T17:05:14.999Z</time></trkpt><trkpt lat="48.8566802052223" lon="2.0169317385576693"><ele>137.4</ele><time>2026-04-24T17:05:16.999Z</time></trkpt><trkpt lat="48.85660670760024" lon="2.017028423742188"><ele>137.79999999999998</ele><time>2026-04-24T17:05:18.999Z</time></trkpt><trkpt lat="48.85654394612011" lon="2.0171345741390785"><ele>138.2</ele><time>2026-04-24T17:05:20.999Z</time></trkpt><trkpt lat="48.856467536379256" lon="2.01722664347777"><ele>138.6</ele><time>2026-04-24T17:05:22.999Z</time></trkpt><trkpt lat="48.85639140576031" lon="2.017308207185914"><ele>139.0</ele><time>2026-04-24T17:05:24.999Z</time></trkpt><trkpt lat="48.85631657353204" lon="2.0174039472606773"><ele>139.0</ele><time>2026-04-24T17:05:26.999Z</time></trkpt><trkpt lat="48.85625119135706" lon="2.017491920163111"><ele>139.0</ele><time>2026-04-24T17:05:29.999Z</time></trkpt><trkpt lat="48.85617753321569" lon="2.017560090810553"><ele>139.0</ele><time>2026-04-24T17:05:31.999Z</time></trkpt><trkpt lat="48.85612869103734" lon="2.0176444907595736"><ele>139.0</ele><time>2026-04-24T17:05:33.999Z</time></trkpt><trkpt lat="48.85608156018266" lon="2.0177912630190646"><ele>139.0</ele><time>2026-04-24T17:05:35.999Z</time></trkpt><trkpt lat="48.856037625242" lon="2.017927205061958"><ele>139.0</ele><time>2026-04-24T17:05:37.999Z</time></trkpt><trkpt lat="48.856005947941476" lon="2.018065117034092"><ele>139.0</ele><time>2026-04-24T17:05:39.999Z</time></trkpt><trkpt lat="48.85597394345784" lon="2.0182228314020674"><ele>139.0</ele><time>2026-04-24T17:05:41.999Z</time></trkpt><trkpt lat="48.855940152881175" lon="2.018366311297288"><ele>139.0</ele><time>2026-04-24T17:05:43.999Z</time></trkpt><trkpt lat="48.85590527053332" lon="2.0184550080435626"><ele>139.0</ele><time>2026-04-24T17:05:45.999Z</time></trkpt><trkpt lat="48.855881484193155" lon="2.0185611884479924"><ele>139.0</ele><time>2026-04-24T17:05:48.999Z</time></trkpt><trkpt lat="48.85587044402208" lon="2.018661698192051"><ele>138.83333333333334</ele><time>2026-04-24T17:05:53.999Z</time></trkpt><trkpt lat="48.85584830195261" lon="2.018752946170129"><ele>138.66666666666669</ele><time>2026-04-24T17:05:59.999Z</time></trkpt><trkpt lat="48.85583333428339" lon="2.0188928950055045"><ele>138.5</ele><time>2026-04-24T17:06:11Z</time></trkpt><trkpt lat="48.855821398805666" lon="2.019031144702455"><ele>138.33333333333334</ele><time>2026-04-24T17:06:13Z</time></trkpt><trkpt lat="48.85587566605016" lon="2.0191912655503255"><ele>138.16666666666666</ele><time>2026-04-24T17:06:15Z</time></trkpt><trkpt lat="48.85591656608562" lon="2.0192666503969368"><ele>138.0</ele><time>2026-04-24T17:06:16Z</time></trkpt><trkpt lat="48.85595176036461" lon="2.019347229586005"><ele>138.66666666666666</ele><time>2026-04-24T17:06:17Z</time></trkpt><trkpt lat="48.856052854727885" lon="2.0194658296297194"><ele>139.33333333333334</ele><time>2026-04-24T17:06:19Z</time></trkpt><trkpt lat="48.85610434634561" lon="2.019525952468505"><ele>140.0</ele><time>2026-04-24T17:06:20Z</time></trkpt><trkpt lat="48.856159929397236" lon="2.019579061568001"><ele>140.66666666666669</ele><time>2026-04-24T17:06:21Z</time></trkpt><trkpt lat="48.85621452005354" lon="2.0196287952353016"><ele>141.33333333333334</ele><time>2026-04-24T17:06:22Z</time></trkpt><trkpt lat="48.85627227274445" lon="2.0196847945971728"><ele>142.0</ele><time>2026-04-24T17:06:23Z</time></trkpt><trkpt lat="48.85632502908265" lon="2.019740796165774"><ele>142.0</ele><time>2026-04-24T17:06:24Z</time></trkpt><trkpt lat="48.85638031426474" lon="2.0197949932305117"><ele>142.0</ele><time>2026-04-24T17:06:25Z</time></trkpt><trkpt lat="48.856465294123055" lon="2.0199015764907173"><ele>142.0</ele><time>2026-04-24T17:06:27Z</time></trkpt><trkpt lat="48.85652297868423" lon="2.01996121343469"><ele>142.0</ele><time>2026-04-24T17:06:28Z</time></trkpt><trkpt lat="48.85657461854067" lon="2.020020373135317"><ele>142.0</ele><time>2026-04-24T17:06:29Z</time></trkpt><trkpt lat="48.856624201953885" lon="2.0200811277405704"><ele>142.0</ele><time>2026-04-24T17:06:30Z</time></trkpt><trkpt lat="48.856675256411734" lon="2.02014074642989"><ele>142.0</ele><time>2026-04-24T17:06:31Z</time></trkpt><trkpt lat="48.8567764324285" lon="2.020249942945774"><ele>142.4</ele><time>2026-04-24T17:06:33Z</time></trkpt><trkpt lat="48.85686992160727" lon="2.0203405076795056"><ele>142.79999999999998</ele><time>2026-04-24T17:06:35Z</time></trkpt><trkpt lat="48.85692008845838" lon="2.0204145359415806"><ele>143.2</ele><time>2026-04-24T17:06:36Z</time></trkpt><trkpt lat="48.85696680743659" lon="2.0204788394853046"><ele>143.6</ele><time>2026-04-24T17:06:37Z</time></trkpt><trkpt lat="48.857065896682656" lon="2.020589696866457"><ele>144.0</ele><time>2026-04-24T17:06:39Z</time></trkpt><trkpt lat="48.85716189402426" lon="2.020701268080506"><ele>143.8</ele><time>2026-04-24T17:06:41Z</time></trkpt><trkpt lat="48.857241873573656" lon="2.0208390419614357"><ele>143.60000000000002</ele><time>2026-04-24T17:06:43Z</time></trkpt><trkpt lat="48.85732820943319" lon="2.0209554264048335"><ele>143.4</ele><time>2026-04-24T17:06:45Z</time></trkpt><trkpt lat="48.857396622671274" lon="2.020963772917178"><ele>143.20000000000002</ele><time>2026-04-24T17:06:46Z</time></trkpt><trkpt lat="48.85749735395484" lon="2.0210681523616882"><ele>143.0</ele><time>2026-04-24T17:06:48Z</time></trkpt><trkpt lat="48.85754825998025" lon="2.0211263051948336"><ele>142.99999999999997</ele><time>2026-04-24T17:06:49Z</time></trkpt><trkpt lat="48.85759789956459" lon="2.0211886248182407"><ele>143.0</ele><time>2026-04-24T17:06:50Z</time></trkpt><trkpt lat="48.85765234606672" lon="2.0212437511424497"><ele>143.0</ele><time>2026-04-24T17:06:51Z</time></trkpt><trkpt lat="48.85770644880402" lon="2.0213103658127465"><ele>143.0</ele><time>2026-04-24T17:06:52Z</time></trkpt><trkpt lat="48.8577594080849" lon="2.021375549292713"><ele>143.0</ele><time>2026-04-24T17:06:53Z</time></trkpt><trkpt lat="48.8578148912578" lon="2.021443060250924"><ele>142.99999999999997</ele><time>2026-04-24T17:06:54Z</time></trkpt><trkpt lat="48.85787104159336" lon="2.02150816622291"><ele>143.0</ele><time>2026-04-24T17:06:55Z</time></trkpt><trkpt lat="48.857925450980154" lon="2.0215660871879115"><ele>142.83333333333331</ele><time>2026-04-24T17:06:56Z</time></trkpt><trkpt lat="48.858023115458515" lon="2.021688124187642"><ele>142.66666666666666</ele><time>2026-04-24T17:06:58Z</time></trkpt><trkpt lat="48.858081937430065" lon="2.0217499182185596"><ele>142.5</ele><time>2026-04-24T17:06:59Z</time></trkpt><trkpt lat="48.85813586689286" lon="2.0218095015571325"><ele>142.33333333333334</ele><time>2026-04-24T17:07:00Z</time></trkpt><trkpt lat="48.85819213459638" lon="2.0218646912399776"><ele>142.16666666666669</ele><time>2026-04-24T17:07:01Z</time></trkpt><trkpt lat="48.8582504113575" lon="2.0219226441226255"><ele>142.0</ele><time>2026-04-24T17:07:02Z</time></trkpt><trkpt lat="48.858307628574295" lon="2.021985955238425"><ele>142.0</ele><time>2026-04-24T17:07:03Z</time></trkpt><trkpt lat="48.85836982282198" lon="2.0220594481025453"><ele>142.0</ele><time>2026-04-24T17:07:04Z</time></trkpt><trkpt lat="48.85843074459714" lon="2.022130906618955"><ele>142.0</ele><time>2026-04-24T17:07:05Z</time></trkpt><trkpt lat="48.85848228724051" lon="2.02220279655903"><ele>142.0</ele><time>2026-04-24T17:07:06Z</time></trkpt><trkpt lat="48.858588938613515" lon="2.0223002041344027"><ele>142.0</ele><time>2026-04-24T17:07:08Z</time></trkpt><trkpt lat="48.85864469920836" lon="2.0223641918221293"><ele>142.0</ele><time>2026-04-24T17:07:09Z</time></trkpt><trkpt lat="48.858692504879514" lon="2.0224390331919397"><ele>141.66666666666669</ele><time>2026-04-24T17:07:10Z</time></trkpt><trkpt lat="48.85873781748853" lon="2.0225295412277995"><ele>141.33333333333334</ele><time>2026-04-24T17:07:11Z</time></trkpt><trkpt lat="48.858788110115604" lon="2.0226021737381066"><ele>141.0</ele><time>2026-04-24T17:07:12Z</time></trkpt><trkpt lat="48.858857953331686" lon="2.0226499115288328"><ele>140.66666666666666</ele><time>2026-04-24T17:07:13Z</time></trkpt><trkpt lat="48.858975537599264" lon="2.022752733059055"><ele>140.33333333333331</ele><time>2026-04-24T17:07:14.999Z</time></trkpt><trkpt lat="48.859027177011654" lon="2.022828983874185"><ele>140.0</ele><time>2026-04-24T17:07:15.999Z</time></trkpt><trkpt lat="48.859080847242964" lon="2.022894878550909"><ele>140.0</ele><time>2026-04-24T17:07:16.999Z</time></trkpt><trkpt lat="48.85917705737142" lon="2.0230038371056276"><ele>140.0</ele><time>2026-04-24T17:07:18.999Z</time></trkpt><trkpt lat="48.85927721007327" lon="2.023102805452106"><ele>140.0</ele><time>2026-04-24T17:07:20.999Z</time></trkpt><trkpt lat="48.8593450046992" lon="2.0231853175482684"><ele>140.0</ele><time>2026-04-24T17:07:22.999Z</time></trkpt><trkpt lat="48.85941170390591" lon="2.0232617563613697"><ele>140.0</ele><time>2026-04-24T17:07:28.999Z</time></trkpt><trkpt lat="48.859467128400325" lon="2.0233241277256493"><ele>140.25</ele><time>2026-04-24T17:07:32.999Z</time></trkpt><trkpt lat="48.859530332978515" lon="2.023353666521255"><ele>140.5</ele><time>2026-04-24T17:07:36.999Z</time></trkpt><trkpt lat="48.85970716725164" lon="2.023077470693586"><ele>140.75</ele><time>2026-04-24T17:07:38.999Z</time></trkpt><trkpt lat="48.8597616363644" lon="2.022954304122679"><ele>141.0</ele><time>2026-04-24T17:07:41.999Z</time></trkpt><trkpt lat="48.85980372033683" lon="2.0228709855083062"><ele>139.0</ele><time>2026-04-24T17:07:43.999Z</time></trkpt><trkpt lat="48.859841082340274" lon="2.022790988043349"><ele>139.0</ele><time>2026-04-24T17:07:46.999Z</time></trkpt><trkpt lat="48.85988379379447" lon="2.0227011496077894"><ele>139.0</ele><time>2026-04-24T17:07:49.999Z</time></trkpt><trkpt lat="48.85993134464502" lon="2.022599532379211"><ele>139.0</ele><time>2026-04-24T17:07:51.999Z</time></trkpt></trkseg><trkseg><trkpt lat="48.85968859627585" lon="2.023505296107086"><ele>141.0</ele><time>2026-04-24T17:29:46Z</time></trkpt><trkpt lat="48.859748366231706" lon="2.0236198371314575"><ele>141.0</ele><time>2026-04-24T17:29:49Z</time></trkpt><trkpt lat="48.85983649051862" lon="2.0237186095848902"><ele>141.0</ele><time>2026-04-24T17:29:51Z</time></trkpt><trkpt lat="48.85990501985895" lon="2.0237786734384366"><ele>141.0</ele><time>2026-04-24T17:29:53Z</time></trkpt><trkpt lat="48.85998308346647" lon="2.0238712216438226"><ele>141.0</ele><time>2026-04-24T17:29:55Z</time></trkpt><trkpt lat="48.860066906436" lon="2.023977386046998"><ele>140.8</ele><time>2026-04-24T17:29:57Z</time></trkpt><trkpt lat="48.86011673527446" lon="2.024044668950531"><ele>140.6</ele><time>2026-04-24T17:29:58Z</time></trkpt><trkpt lat="48.86021203953313" lon="2.02417229883979"><ele>140.4</ele><time>2026-04-24T17:30:00Z</time></trkpt><trkpt lat="48.86029774973246" lon="2.0242694663128136"><ele>140.2</ele><time>2026-04-24T17:30:02Z</time></trkpt><trkpt lat="48.86038546763862" lon="2.0243445631154913"><ele>140.0</ele><time>2026-04-24T17:30:04Z</time></trkpt><trkpt lat="48.86043969424128" lon="2.024435309214831"><ele>140.4</ele><time>2026-04-24T17:30:05Z</time></trkpt><trkpt lat="48.86053655806566" lon="2.024544669075954"><ele>140.8</ele><time>2026-04-24T17:30:07Z</time></trkpt><trkpt lat="48.860594205798805" lon="2.0246097542706387"><ele>141.2</ele><time>2026-04-24T17:30:08Z</time></trkpt><trkpt lat="48.86064499186844" lon="2.0246674519839853"><ele>141.6</ele><time>2026-04-24T17:30:09Z</time></trkpt><trkpt lat="48.86070542288157" lon="2.0247362041809063"><ele>142.0</ele><time>2026-04-24T17:30:10Z</time></trkpt><trkpt lat="48.86081196644824" lon="2.024857418273352"><ele>142.0</ele><time>2026-04-24T17:30:12Z</time></trkpt><trkpt lat="48.86091204738994" lon="2.024949569271766"><ele>142.0</ele><time>2026-04-24T17:30:14Z</time></trkpt><trkpt lat="48.860964758326546" lon="2.025034233352002"><ele>142.0</ele><time>2026-04-24T17:30:15Z</time></trkpt><trkpt lat="48.861046438051766" lon="2.0251152921795312"><ele>142.0</ele><time>2026-04-24T17:30:17Z</time></trkpt><trkpt lat="48.861131877971125" lon="2.025240879484533"><ele>142.0</ele><time>2026-04-24T17:30:19Z</time></trkpt><trkpt lat="48.86118367458957" lon="2.025298066499663"><ele>142.2</ele><time>2026-04-24T17:30:20Z</time></trkpt><trkpt lat="48.861235537255894" lon="2.0253670650184583"><ele>142.39999999999998</ele><time>2026-04-24T17:30:21Z</time></trkpt><trkpt lat="48.86129423795372" lon="2.0254270809752626"><ele>142.60000000000002</ele><time>2026-04-24T17:30:22Z</time></trkpt><trkpt lat="48.86138810491125" lon="2.025527461552783"><ele>142.8</ele><time>2026-04-24T17:30:24Z</time></trkpt><trkpt lat="48.86148487966873" lon="2.0256281867150188"><ele>143.0</ele><time>2026-04-24T17:30:26Z</time></trkpt><trkpt lat="48.861591310004115" lon="2.0257340722685897"><ele>143.4</ele><time>2026-04-24T17:30:27.999Z</time></trkpt><trkpt lat="48.86168901288326" lon="2.025839107340314"><ele>143.8</ele><time>2026-04-24T17:30:29.999Z</time></trkpt><trkpt lat="48.861739316969306" lon="2.025897674907494"><ele>144.2</ele><time>2026-04-24T17:30:30.999Z</time></trkpt><trkpt lat="48.86181940743758" lon="2.0260219633907353"><ele>144.6</ele><time>2026-04-24T17:30:32.999Z</time></trkpt><trkpt lat="48.8619123850365" lon="2.0261097979369653"><ele>145.0</ele><time>2026-04-24T17:30:34.999Z</time></trkpt><trkpt lat="48.86198777183307" lon="2.026248200203301"><ele>145.0</ele><time>2026-04-24T17:30:36.999Z</time></trkpt><trkpt lat="48.86208766575986" lon="2.0263623274228024"><ele>145.0</ele><time>2026-04-24T17:30:38.999Z</time></trkpt><trkpt lat="48.86216321180479" lon="2.026494850674717"><ele>145.0</ele><time>2026-04-24T17:30:40.999Z</time></trkpt><trkpt lat="48.862237651586646" lon="2.026633058075446"><ele>145.0</ele><time>2026-04-24T17:30:42.999Z</time></trkpt><trkpt lat="48.86231128736267" lon="2.0267806923278213"><ele>145.0</ele><time>2026-04-24T17:30:44.999Z</time></trkpt><trkpt lat="48.86235357443281" lon="2.026860441452463"><ele>145.0</ele><time>2026-04-24T17:30:45.999Z</time></trkpt><trkpt lat="48.86241793081838" lon="2.026998460211434"><ele>145.0</ele><time>2026-04-24T17:30:47.999Z</time></trkpt><trkpt lat="48.86249318821691" lon="2.027140350157615"><ele>145.0</ele><time>2026-04-24T17:30:49.999Z</time></trkpt><trkpt lat="48.86253025467411" lon="2.027227887874792"><ele>145.0</ele><time>2026-04-24T17:30:50.999Z</time></trkpt><trkpt lat="48.862595344767406" lon="2.027368557391368"><ele>144.75</ele><time>2026-04-24T17:30:52.999Z</time></trkpt><trkpt lat="48.86266796757212" lon="2.0275044251899583"><ele>144.5</ele><time>2026-04-24T17:30:54.999Z</time></trkpt><trkpt lat="48.8627456084155" lon="2.027656978049415"><ele>144.25</ele><time>2026-04-24T17:30:56.999Z</time></trkpt><trkpt lat="48.86282743134576" lon="2.027794726434329"><ele>144.0</ele><time>2026-04-24T17:30:58.999Z</time></trkpt><trkpt lat="48.86289931804819" lon="2.027901490442164"><ele>144.0</ele><time>2026-04-24T17:31:00.999Z</time></trkpt><trkpt lat="48.862932625735695" lon="2.0279828106623152"><ele>144.0</ele><time>2026-04-24T17:31:01.999Z</time></trkpt><trkpt lat="48.86299816079801" lon="2.0281190286105053"><ele>144.0</ele><time>2026-04-24T17:31:03.999Z</time></trkpt><trkpt lat="48.863066573232054" lon="2.028263197340931"><ele>144.0</ele><time>2026-04-24T17:31:05.999Z</time></trkpt><trkpt lat="48.86312528298506" lon="2.0283799254530295"><ele>144.0</ele><time>2026-04-24T17:31:07.999Z</time></trkpt><trkpt lat="48.86319177003193" lon="2.0285059059461097"><ele>144.6</ele><time>2026-04-24T17:31:09.999Z</time></trkpt><trkpt lat="48.86325862962813" lon="2.028635825833931"><ele>145.2</ele><time>2026-04-24T17:31:11.999Z</time></trkpt><trkpt lat="48.86332415841593" lon="2.028774128917074"><ele>145.79999999999998</ele><time>2026-04-24T17:31:13.999Z</time></trkpt><trkpt lat="48.86340163073338" lon="2.0289078032555317"><ele>146.4</ele><time>2026-04-24T17:31:15.999Z</time></trkpt><trkpt lat="48.86345289594977" lon="2.029034465508489"><ele>147.0</ele><time>2026-04-24T17:31:17.999Z</time></trkpt><trkpt lat="48.86351330087384" lon="2.029156343714437"><ele>148.4</ele><time>2026-04-24T17:31:19.999Z</time></trkpt><trkpt lat="48.86357644160364" lon="2.0292810130920493"><ele>149.79999999999998</ele><time>2026-04-24T17:31:21.999Z</time></trkpt><trkpt lat="48.86365687473845" lon="2.0294083711922166"><ele>151.2</ele><time>2026-04-24T17:31:23.999Z</time></trkpt><trkpt lat="48.86372216686963" lon="2.029514716310649"><ele>152.6</ele><time>2026-04-24T17:31:25.999Z</time></trkpt><trkpt lat="48.863775662174945" lon="2.0296272856529614"><ele>154.0</ele><time>2026-04-24T17:31:27.999Z</time></trkpt><trkpt lat="48.863833642922145" lon="2.029737340101497"><ele>154.0</ele><time>2026-04-24T17:31:29.999Z</time></trkpt><trkpt lat="48.86389092460278" lon="2.0298620759688113"><ele>154.0</ele><time>2026-04-24T17:31:31.999Z</time></trkpt><trkpt lat="48.86395343165566" lon="2.029982493861777"><ele>154.0</ele><time>2026-04-24T17:31:34Z</time></trkpt><trkpt lat="48.864011785425866" lon="2.030103686603423"><ele>154.0</ele><time>2026-04-24T17:31:36Z</time></trkpt><trkpt lat="48.86406619406339" lon="2.0302173202083664"><ele>154.0</ele><time>2026-04-24T17:31:38Z</time></trkpt><trkpt lat="48.86410818284113" lon="2.030319269121078"><ele>154.16666666666669</ele><time>2026-04-24T17:31:40Z</time></trkpt><trkpt lat="48.864179361156026" lon="2.030422602897063"><ele>154.33333333333334</ele><time>2026-04-24T17:31:44Z</time></trkpt><trkpt lat="48.86421612028786" lon="2.0305094409809405"><ele>154.5</ele><time>2026-04-24T17:31:46Z</time></trkpt><trkpt lat="48.86425437948329" lon="2.0305900712609595"><ele>154.66666666666666</ele><time>2026-04-24T17:31:47Z</time></trkpt><trkpt lat="48.86433043143933" lon="2.0307226815976422"><ele>154.83333333333331</ele><time>2026-04-24T17:31:49Z</time></trkpt><trkpt lat="48.8643902088876" lon="2.030833261206122"><ele>155.0</ele><time>2026-04-24T17:31:51Z</time></trkpt><trkpt lat="48.8644596293611" lon="2.0309492394174233"><ele>156.66666666666666</ele><time>2026-04-24T17:31:53Z</time></trkpt><trkpt lat="48.86450965561644" lon="2.0310814736788867"><ele>158.33333333333331</ele><time>2026-04-24T17:31:55Z</time></trkpt><trkpt lat="48.864561268195764" lon="2.0311542042622643"><ele>160.0</ele><time>2026-04-24T17:31:57Z</time></trkpt><trkpt lat="48.86462157180564" lon="2.031236246625431"><ele>161.66666666666666</ele><time>2026-04-24T17:31:59Z</time></trkpt><trkpt lat="48.864679941757544" lon="2.031297645711131"><ele>163.33333333333334</ele><time>2026-04-24T17:32:01Z</time></trkpt><trkpt lat="48.86474195773833" lon="2.03138173449291"><ele>165.0</ele><time>2026-04-24T17:32:03Z</time></trkpt><trkpt lat="48.86479608649775" lon="2.0314793547790573"><ele>165.0</ele><time>2026-04-24T17:32:05Z</time></trkpt><trkpt lat="48.86485380828945" lon="2.031539435871883"><ele>165.0</ele><time>2026-04-24T17:32:07Z</time></trkpt><trkpt lat="48.86491737150296" lon="2.0316417962016056"><ele>165.0</ele><time>2026-04-24T17:32:09Z</time></trkpt><trkpt lat="48.86497950866618" lon="2.031715701908733"><ele>165.0</ele><time>2026-04-24T17:32:11Z</time></trkpt><trkpt lat="48.865055760580994" lon="2.031783268376458"><ele>165.0</ele><time>2026-04-24T17:32:13Z</time></trkpt><trkpt lat="48.865131282403766" lon="2.0318918147539984"><ele>165.0</ele><time>2026-04-24T17:32:15Z</time></trkpt><trkpt lat="48.86518781832332" lon="2.032000979537027"><ele>165.5</ele><time>2026-04-24T17:32:17Z</time></trkpt><trkpt lat="48.86525520409437" lon="2.0320847211844963"><ele>166.0</ele><time>2026-04-24T17:32:19Z</time></trkpt><trkpt lat="48.86532468996316" lon="2.032159370216443"><ele>166.5</ele><time>2026-04-24T17:32:21Z</time></trkpt><trkpt lat="48.8653865636693" lon="2.0322598964397027"><ele>167.0</ele><time>2026-04-24T17:32:23Z</time></trkpt><trkpt lat="48.86543411435735" lon="2.0323632201106907"><ele>167.5</ele><time>2026-04-24T17:32:25Z</time></trkpt><trkpt lat="48.865461835123995" lon="2.0324746463332333"><ele>168.0</ele><time>2026-04-24T17:32:27Z</time></trkpt><trkpt lat="48.86553719948436" lon="2.032549820524204"><ele>168.0</ele><time>2026-04-24T17:32:29Z</time></trkpt><trkpt lat="48.86559515203282" lon="2.0326271796456594"><ele>168.0</ele><time>2026-04-24T17:32:31Z</time></trkpt><trkpt lat="48.86562835340349" lon="2.0327230013296846"><ele>168.0</ele><time>2026-04-24T17:32:32.999Z</time></trkpt><trkpt lat="48.86565649856379" lon="2.0328138124911033"><ele>168.0</ele><time>2026-04-24T17:32:34.999Z</time></trkpt><trkpt lat="48.8656746828603" lon="2.0329309054762015"><ele>168.0</ele><time>2026-04-24T17:32:37.999Z</time></trkpt><trkpt lat="48.86567352149124" lon="2.0330474765325746"><ele>168.0</ele><time>2026-04-24T17:32:40.999Z</time></trkpt><trkpt lat="48.86565735873692" lon="2.0331414235697642"><ele>168.0</ele><time>2026-04-24T17:32:43.999Z</time></trkpt><trkpt lat="48.86564530702054" lon="2.0332639590442945"><ele>168.16666666666666</ele><time>2026-04-24T17:32:45.999Z</time></trkpt><trkpt lat="48.86565963584915" lon="2.0333995984384967"><ele>168.33333333333334</ele><time>2026-04-24T17:32:47.999Z</time></trkpt><trkpt lat="48.86569029677214" lon="2.03351922211651"><ele>168.5</ele><time>2026-04-24T17:32:49.999Z</time></trkpt><trkpt lat="48.86573582185216" lon="2.033607717744789"><ele>168.66666666666669</ele><time>2026-04-24T17:32:51.999Z</time></trkpt><trkpt lat="48.865846586076216" lon="2.0336037089733425"><ele>168.83333333333334</ele><time>2026-04-24T17:32:54.999Z</time></trkpt><trkpt lat="48.86592037444026" lon="2.033630285150172"><ele>169.0</ele><time>2026-04-24T17:32:56.999Z</time></trkpt><trkpt lat="48.86599439579633" lon="2.0336676548093053"><ele>170.6</ele><time>2026-04-24T17:32:58.999Z</time></trkpt><trkpt lat="48.866078921122984" lon="2.0337328312453384"><ele>172.2</ele><time>2026-04-24T17:33:00.999Z</time></trkpt><trkpt lat="48.86615879190074" lon="2.0337887144861018"><ele>173.79999999999998</ele><time>2026-04-24T17:33:03.999Z</time></trkpt><trkpt lat="48.86622054382446" lon="2.033840930436565"><ele>175.39999999999998</ele><time>2026-04-24T17:33:06.999Z</time></trkpt><trkpt lat="48.86629873328813" lon="2.034021970996649"><ele>177.0</ele><time>2026-04-24T17:33:09.999Z</time></trkpt><trkpt lat="48.866361429811406" lon="2.034165203619797"><ele>177.33333333333334</ele><time>2026-04-24T17:33:11.999Z</time></trkpt><trkpt lat="48.866440209147264" lon="2.034233688041392"><ele>177.66666666666666</ele><time>2026-04-24T17:33:14.999Z</time></trkpt><trkpt lat="48.866486193283315" lon="2.0343182076144366"><ele>178.0</ele><time>2026-04-24T17:33:17.999Z</time></trkpt><trkpt lat="48.86654834807903" lon="2.034373457753513"><ele>178.33333333333331</ele><time>2026-04-24T17:33:21.999Z</time></trkpt><trkpt lat="48.86660070801003" lon="2.0344365232673645"><ele>178.66666666666666</ele><time>2026-04-24T17:33:23.999Z</time></trkpt><trkpt lat="48.866632083982445" lon="2.0345973116403444"><ele>179.0</ele><time>2026-04-24T17:33:24.999Z</time></trkpt><trkpt lat="48.86671470915176" lon="2.034665204954983"><ele>179.0</ele><time>2026-04-24T17:33:25.999Z</time></trkpt><trkpt lat="48.866757597586734" lon="2.0347514105837896"><ele>179.0</ele><time>2026-04-24T17:33:26.999Z</time></trkpt><trkpt lat="48.866821897600055" lon="2.0348509256525182"><ele>179.0</ele><time>2026-04-24T17:33:28.999Z</time></trkpt><trkpt lat="48.86688107687003" lon="2.034931877666372"><ele>179.0</ele><time>2026-04-24T17:33:30.999Z</time></trkpt><trkpt lat="48.86693721572714" lon="2.035007338699929"><ele>179.0</ele><time>2026-04-24T17:33:32.999Z</time></trkpt><trkpt lat="48.86699536081226" lon="2.035105118173556"><ele>179.0</ele><time>2026-04-24T17:33:34.999Z</time></trkpt><trkpt lat="48.867040604287325" lon="2.0351810891338658"><ele>180.39999999999998</ele><time>2026-04-24T17:33:36.999Z</time></trkpt><trkpt lat="48.86709449094718" lon="2.035271821818264"><ele>181.8</ele><time>2026-04-24T17:33:39Z</time></trkpt><trkpt lat="48.867152772308216" lon="2.0353704992313983"><ele>183.2</ele><time>2026-04-24T17:33:40Z</time></trkpt><trkpt lat="48.86720034363879" lon="2.035451043315234"><ele>184.60000000000002</ele><time>2026-04-24T17:33:41Z</time></trkpt><trkpt lat="48.86727884659063" lon="2.0355828934436238"><ele>186.0</ele><time>2026-04-24T17:33:44Z</time></trkpt><trkpt lat="48.86734595565021" lon="2.0356954938967866"><ele>186.0</ele><time>2026-04-24T17:33:46Z</time></trkpt><trkpt lat="48.86740200475211" lon="2.0357895368673846"><ele>186.0</ele><time>2026-04-24T17:33:48Z</time></trkpt><trkpt lat="48.86742844680792" lon="2.0358793785841294"><ele>186.0</ele><time>2026-04-24T17:33:50Z</time></trkpt><trkpt lat="48.86746364670579" lon="2.036015657899986"><ele>186.0</ele><time>2026-04-24T17:33:51Z</time></trkpt><trkpt lat="48.8676057811198" lon="2.036150328293879"><ele>186.0</ele><time>2026-04-24T17:33:53Z</time></trkpt><trkpt lat="48.867631803499755" lon="2.0363166836365947"><ele>185.0</ele><time>2026-04-24T17:33:54Z</time></trkpt><trkpt lat="48.86733011578425" lon="2.0364812811310387"><ele>184.0</ele><time>2026-04-24T17:33:56Z</time></trkpt><trkpt lat="48.86737889330231" lon="2.0366047528983913"><ele>183.0</ele><time>2026-04-24T17:33:58Z</time></trkpt><trkpt lat="48.86741922700813" lon="2.0367320961323916"><ele>182.60000000000002</ele><time>2026-04-24T17:34:00Z</time></trkpt><trkpt lat="48.86741265099408" lon="2.0368674527779835"><ele>182.20000000000002</ele><time>2026-04-24T17:34:02Z</time></trkpt><trkpt lat="48.86735166135191" lon="2.036982611811737"><ele>181.8</ele><time>2026-04-24T17:34:04Z</time></trkpt><trkpt lat="48.867290713784776" lon="2.0371340811347682"><ele>181.4</ele><time>2026-04-24T17:34:06Z</time></trkpt><trkpt lat="48.86725669942567" lon="2.0372896938399374"><ele>181.0</ele><time>2026-04-24T17:34:08Z</time></trkpt><trkpt lat="48.86718419087284" lon="2.0373955580312773"><ele>181.8</ele><time>2026-04-24T17:34:10Z</time></trkpt><trkpt lat="48.86712239257932" lon="2.037528360864477"><ele>182.60000000000002</ele><time>2026-04-24T17:34:12Z</time></trkpt><trkpt lat="48.867092249954105" lon="2.037613004623213"><ele>183.4</ele><time>2026-04-24T17:34:13Z</time></trkpt><trkpt lat="48.86702711110502" lon="2.037791102244734"><ele>184.2</ele><time>2026-04-24T17:34:15Z</time></trkpt><trkpt lat="48.86694172434274" lon="2.037932587155487"><ele>185.0</ele><time>2026-04-24T17:34:17Z</time></trkpt><trkpt lat="48.866904634879255" lon="2.0380292422390407"><ele>185.0</ele><time>2026-04-24T17:34:18Z</time></trkpt><trkpt lat="48.86686202916528" lon="2.0381130453485237"><ele>185.0</ele><time>2026-04-24T17:34:19Z</time></trkpt><trkpt lat="48.86681773108297" lon="2.0381915972105027"><ele>185.0</ele><time>2026-04-24T17:34:20Z</time></trkpt><trkpt lat="48.86677566058213" lon="2.0382792469614097"><ele>185.0</ele><time>2026-04-24T17:34:21Z</time></trkpt><trkpt lat="48.86670912064717" lon="2.038372657466805"><ele>185.0</ele><time>2026-04-24T17:34:22Z</time></trkpt><trkpt lat="48.866658218805135" lon="2.038469036078045"><ele>185.0</ele><time>2026-04-24T17:34:23Z</time></trkpt><trkpt lat="48.8666117717002" lon="2.038556980014429"><ele>185.0</ele><time>2026-04-24T17:34:24Z</time></trkpt><trkpt lat="48.86656628092766" lon="2.0386786715577188"><ele>185.0</ele><time>2026-04-24T17:34:25Z</time></trkpt><trkpt lat="48.86650473766113" lon="2.038782119185621"><ele>185.0</ele><time>2026-04-24T17:34:26Z</time></trkpt><trkpt lat="48.86644566674974" lon="2.0388945488159034"><ele>185.0</ele><time>2026-04-24T17:34:27Z</time></trkpt><trkpt lat="48.86637494285857" lon="2.039005396724064"><ele>185.0</ele><time>2026-04-24T17:34:28Z</time></trkpt><trkpt lat="48.86631262846717" lon="2.039122343464477"><ele>185.2</ele><time>2026-04-24T17:34:29Z</time></trkpt><trkpt lat="48.86625172004198" lon="2.039235579037889"><ele>185.4</ele><time>2026-04-24T17:34:30Z</time></trkpt><trkpt lat="48.8661884682512" lon="2.0393524306406747"><ele>185.60000000000002</ele><time>2026-04-24T17:34:31Z</time></trkpt><trkpt lat="48.86613308232943" lon="2.0394812219941154"><ele>185.8</ele><time>2026-04-24T17:34:32Z</time></trkpt><trkpt lat="48.866069861869875" lon="2.0395898940975075"><ele>186.0</ele><time>2026-04-24T17:34:33Z</time></trkpt><trkpt lat="48.86600846216999" lon="2.0396995156067566"><ele>186.0</ele><time>2026-04-24T17:34:34Z</time></trkpt><trkpt lat="48.86595377031791" lon="2.039806973367345"><ele>186.0</ele><time>2026-04-24T17:34:35Z</time></trkpt><trkpt lat="48.86589742921924" lon="2.0399068870112784"><ele>186.0</ele><time>2026-04-24T17:34:36Z</time></trkpt><trkpt lat="48.86584205926636" lon="2.0399998742713796"><ele>186.0</ele><time>2026-04-24T17:34:37Z</time></trkpt><trkpt lat="48.86579211827536" lon="2.040100174839626"><ele>186.0</ele><time>2026-04-24T17:34:38Z</time></trkpt><trkpt lat="48.86574501844166" lon="2.040193779800748"><ele>186.0</ele><time>2026-04-24T17:34:39Z</time></trkpt><trkpt lat="48.865694461389005" lon="2.0402827597314954"><ele>186.0</ele><time>2026-04-24T17:34:40Z</time></trkpt><trkpt lat="48.86564153262638" lon="2.040369728970407"><ele>186.0</ele><time>2026-04-24T17:34:41Z</time></trkpt><trkpt lat="48.86560580009978" lon="2.0404639568351794"><ele>186.0</ele><time>2026-04-24T17:34:42Z</time></trkpt><trkpt lat="48.865536072997834" lon="2.0406259027496962"><ele>186.0</ele><time>2026-04-24T17:34:43.999Z</time></trkpt><trkpt lat="48.86552675349634" lon="2.040743073809679"><ele>186.0</ele><time>2026-04-24T17:34:44.999Z</time></trkpt><trkpt lat="48.86550931065175" lon="2.040850245986024"><ele>186.0</ele><time>2026-04-24T17:34:45.999Z</time></trkpt><trkpt lat="48.86549602338469" lon="2.0409626345048406"><ele>185.83333333333334</ele><time>2026-04-24T17:34:46.999Z</time></trkpt><trkpt lat="48.865481786622844" lon="2.041076046818858"><ele>185.66666666666666</ele><time>2026-04-24T17:34:47.999Z</time></trkpt><trkpt lat="48.86546838568349" lon="2.041182800839845"><ele>185.5</ele><time>2026-04-24T17:34:48.999Z</time></trkpt><trkpt lat="48.8654536511476" lon="2.041300178504552"><ele>185.33333333333331</ele><time>2026-04-24T17:34:49.999Z</time></trkpt><trkpt lat="48.8654401243791" lon="2.0414169161033175"><ele>185.16666666666666</ele><time>2026-04-24T17:34:50.999Z</time></trkpt><trkpt lat="48.86542839834708" lon="2.0415265516132424"><ele>185.0</ele><time>2026-04-24T17:34:51.999Z</time></trkpt><trkpt lat="48.86541564975661" lon="2.0416457477854157"><ele>184.8</ele><time>2026-04-24T17:34:52.999Z</time></trkpt><trkpt lat="48.86540113818149" lon="2.041778327047736"><ele>184.6</ele><time>2026-04-24T17:34:53.999Z</time></trkpt><trkpt lat="48.86538754234484" lon="2.041896765002257"><ele>184.39999999999998</ele><time>2026-04-24T17:34:54.999Z</time></trkpt><trkpt lat="48.86537201710629" lon="2.0420283026577883"><ele>184.2</ele><time>2026-04-24T17:34:55.999Z</time></trkpt><trkpt lat="48.86534974951095" lon="2.0421677587036435"><ele>184.0</ele><time>2026-04-24T17:34:56.999Z</time></trkpt><trkpt lat="48.86531773058141" lon="2.04232096214955"><ele>184.0</ele><time>2026-04-24T17:34:57.999Z</time></trkpt><trkpt lat="48.8652823248553" lon="2.0424662623744596"><ele>184.0</ele><time>2026-04-24T17:34:58.999Z</time></trkpt><trkpt lat="48.86527830757016" lon="2.0426158935842906"><ele>184.0</ele><time>2026-04-24T17:34:59.999Z</time></trkpt><trkpt lat="48.86525590249991" lon="2.0427411986124935"><ele>184.0</ele><time>2026-04-24T17:35:00.999Z</time></trkpt><trkpt lat="48.865234399786765" lon="2.042888190560992"><ele>184.0</ele><time>2026-04-24T17:35:01.999Z</time></trkpt><trkpt lat="48.86522401794713" lon="2.0430199637128643"><ele>184.0</ele><time>2026-04-24T17:35:02.999Z</time></trkpt><trkpt lat="48.86523807661869" lon="2.043132806967298"><ele>184.0</ele><time>2026-04-24T17:35:03.999Z</time></trkpt><trkpt lat="48.86521675722578" lon="2.0432594763377"><ele>184.0</ele><time>2026-04-24T17:35:04.999Z</time></trkpt><trkpt lat="48.865219288772245" lon="2.0433984764617685"><ele>184.0</ele><time>2026-04-24T17:35:05.999Z</time></trkpt><trkpt lat="48.86524785989971" lon="2.043523888958761"><ele>184.0</ele><time>2026-04-24T17:35:06.999Z</time></trkpt><trkpt lat="48.8652635792465" lon="2.043641093051996"><ele>184.0</ele><time>2026-04-24T17:35:07.999Z</time></trkpt><trkpt lat="48.86528447520381" lon="2.0437637156204027"><ele>182.79999999999998</ele><time>2026-04-24T17:35:08.999Z</time></trkpt><trkpt lat="48.865318116515816" lon="2.043898868891284"><ele>181.6</ele><time>2026-04-24T17:35:09.999Z</time></trkpt><trkpt lat="48.86536081311265" lon="2.044012552084035"><ele>180.4</ele><time>2026-04-24T17:35:10.999Z</time></trkpt><trkpt lat="48.865388561886625" lon="2.044144996227501"><ele>179.2</ele><time>2026-04-24T17:35:11.999Z</time></trkpt><trkpt lat="48.86542144902117" lon="2.044277056499083"><ele>178.0</ele><time>2026-04-24T17:35:12.999Z</time></trkpt><trkpt lat="48.8654635607692" lon="2.0444116333518427"><ele>177.2</ele><time>2026-04-24T17:35:13.999Z</time></trkpt><trkpt lat="48.865501550375114" lon="2.044552260458248"><ele>176.4</ele><time>2026-04-24T17:35:14.999Z</time></trkpt><trkpt lat="48.86554858466574" lon="2.044699713410062"><ele>175.6</ele><time>2026-04-24T17:35:15.999Z</time></trkpt><trkpt lat="48.86558488528148" lon="2.0448512471771862"><ele>174.79999999999998</ele><time>2026-04-24T17:35:16.999Z</time></trkpt><trkpt lat="48.865642121009465" lon="2.044992428356967"><ele>174.0</ele><time>2026-04-24T17:35:17.999Z</time></trkpt><trkpt lat="48.86566834224182" lon="2.04515794618946"><ele>173.75</ele><time>2026-04-24T17:35:18.999Z</time></trkpt><trkpt lat="48.86570128673598" lon="2.0453273491590642"><ele>173.5</ele><time>2026-04-24T17:35:19.999Z</time></trkpt><trkpt lat="48.86575317388725" lon="2.04547934216211"><ele>173.25</ele><time>2026-04-24T17:35:20.999Z</time></trkpt><trkpt lat="48.8657991042122" lon="2.045643851983546"><ele>173.0</ele><time>2026-04-24T17:35:21.999Z</time></trkpt><trkpt lat="48.865840614658005" lon="2.0458119180671837"><ele>172.75</ele><time>2026-04-24T17:35:22.999Z</time></trkpt><trkpt lat="48.86587402447974" lon="2.045988226071625"><ele>172.5</ele><time>2026-04-24T17:35:23.999Z</time></trkpt><trkpt lat="48.865919671652485" lon="2.0461570811174754"><ele>172.25</ele><time>2026-04-24T17:35:24.999Z</time></trkpt><trkpt lat="48.86597869485327" lon="2.0463216976924543"><ele>172.0</ele><time>2026-04-24T17:35:25.999Z</time></trkpt><trkpt lat="48.86601798517145" lon="2.046496555206955"><ele>169.0</ele><time>2026-04-24T17:35:26.999Z</time></trkpt><trkpt lat="48.866081209238416" lon="2.0466522816686727"><ele>166.0</ele><time>2026-04-24T17:35:27.999Z</time></trkpt><trkpt lat="48.86610956201503" lon="2.046827225655147"><ele>163.0</ele><time>2026-04-24T17:35:28.999Z</time></trkpt><trkpt lat="48.8661680508348" lon="2.046995443355969"><ele>160.0</ele><time>2026-04-24T17:35:29.999Z</time></trkpt><trkpt lat="48.86621312464642" lon="2.047176706538563"><ele>160.0</ele><time>2026-04-24T17:35:30.999Z</time></trkpt><trkpt lat="48.86625895521083" lon="2.047348944750501"><ele>160.0</ele><time>2026-04-24T17:35:31.999Z</time></trkpt><trkpt lat="48.86630622713176" lon="2.047530930609658"><ele>160.0</ele><time>2026-04-24T17:35:32.999Z</time></trkpt><trkpt lat="48.866349399291906" lon="2.0477120706915874"><ele>160.0</ele><time>2026-04-24T17:35:33.999Z</time></trkpt><trkpt lat="48.8663896361913" lon="2.047896899170122"><ele>158.75</ele><time>2026-04-24T17:35:34.999Z</time></trkpt><trkpt lat="48.86643654356521" lon="2.048075304956258"><ele>157.5</ele><time>2026-04-24T17:35:35.999Z</time></trkpt><trkpt lat="48.866478097491076" lon="2.0482550476137176"><ele>156.25</ele><time>2026-04-24T17:35:36.999Z</time></trkpt><trkpt lat="48.866524281137046" lon="2.0484347969531744"><ele>155.0</ele><time>2026-04-24T17:35:37.999Z</time></trkpt><trkpt lat="48.86656738760146" lon="2.0485993198412658"><ele>154.2</ele><time>2026-04-24T17:35:38.999Z</time></trkpt><trkpt lat="48.86660146414095" lon="2.0487389401634366"><ele>153.4</ele><time>2026-04-24T17:35:39.999Z</time></trkpt><trkpt lat="48.86663971756823" lon="2.0488782848583114"><ele>152.6</ele><time>2026-04-24T17:35:40.999Z</time></trkpt><trkpt lat="48.86667904923481" lon="2.049018750538898"><ele>151.8</ele><time>2026-04-24T17:35:41.999Z</time></trkpt><trkpt lat="48.86671567747775" lon="2.0491712610469697"><ele>151.0</ele><time>2026-04-24T17:35:42.999Z</time></trkpt><trkpt lat="48.866754490271866" lon="2.0493264945893537"><ele>149.2</ele><time>2026-04-24T17:35:43.999Z</time></trkpt><trkpt lat="48.86680460760036" lon="2.0494611005339767"><ele>147.39999999999998</ele><time>2026-04-24T17:35:45Z</time></trkpt><trkpt lat="48.86683394971987" lon="2.0496062997011317"><ele>145.6</ele><time>2026-04-24T17:35:46Z</time></trkpt><trkpt lat="48.866847061435955" lon="2.0497477126922408"><ele>143.79999999999998</ele><time>2026-04-24T17:35:47Z</time></trkpt><trkpt lat="48.8668617711728" lon="2.0498826650344975"><ele>142.0</ele><time>2026-04-24T17:35:48Z</time></trkpt><trkpt lat="48.866833168092185" lon="2.0500078295760598"><ele>142.66666666666669</ele><time>2026-04-24T17:35:49Z</time></trkpt><trkpt lat="48.86677685244366" lon="2.050109829372865"><ele>143.33333333333334</ele><time>2026-04-24T17:35:50Z</time></trkpt><trkpt lat="48.86672773370239" lon="2.0502141002908982"><ele>144.0</ele><time>2026-04-24T17:35:51Z</time></trkpt><trkpt lat="48.866699058186384" lon="2.050330359599574"><ele>144.66666666666666</ele><time>2026-04-24T17:35:52Z</time></trkpt><trkpt lat="48.86669494182603" lon="2.0504355552846216"><ele>145.33333333333331</ele><time>2026-04-24T17:35:53Z</time></trkpt><trkpt lat="48.866694793565394" lon="2.0505388819297403"><ele>146.0</ele><time>2026-04-24T17:35:54Z</time></trkpt><trkpt lat="48.86670021075565" lon="2.050644991616185"><ele>146.0</ele><time>2026-04-24T17:35:55Z</time></trkpt><trkpt lat="48.86668955787683" lon="2.0507496326506995"><ele>146.0</ele><time>2026-04-24T17:35:56Z</time></trkpt><trkpt lat="48.86669238412077" lon="2.0508575332621803"><ele>146.0</ele><time>2026-04-24T17:35:57Z</time></trkpt><trkpt lat="48.866705190305545" lon="2.050965452001694"><ele>146.0</ele><time>2026-04-24T17:35:58Z</time></trkpt><trkpt lat="48.866710641646776" lon="2.0510650259444483"><ele>146.0</ele><time>2026-04-24T17:35:59Z</time></trkpt><trkpt lat="48.866721787169844" lon="2.0511672457982386"><ele>146.0</ele><time>2026-04-24T17:36:00Z</time></trkpt><trkpt lat="48.8667561262528" lon="2.051250334117904"><ele>146.0</ele><time>2026-04-24T17:36:01Z</time></trkpt><trkpt lat="48.86692114048114" lon="2.051183474336091"><ele>144.28571428571428</ele><time>2026-04-24T17:36:03Z</time></trkpt><trkpt lat="48.86699482718838" lon="2.051141483645113"><ele>142.57142857142858</ele><time>2026-04-24T17:36:04Z</time></trkpt><trkpt lat="48.867062407657514" lon="2.0511190839331057"><ele>140.85714285714286</ele><time>2026-04-24T17:36:05Z</time></trkpt><trkpt lat="48.867128089394214" lon="2.0510718479560235"><ele>139.14285714285714</ele><time>2026-04-24T17:36:06Z</time></trkpt><trkpt lat="48.86719159684234" lon="2.051026667831882"><ele>137.42857142857142</ele><time>2026-04-24T17:36:07Z</time></trkpt><trkpt lat="48.86725741660946" lon="2.050981955849452"><ele>135.71428571428572</ele><time>2026-04-24T17:36:08Z</time></trkpt><trkpt lat="48.867326350305945" lon="2.0509489007317705"><ele>134.0</ele><time>2026-04-24T17:36:09Z</time></trkpt><trkpt lat="48.867460223708136" lon="2.0509214248509218"><ele>134.0</ele><time>2026-04-24T17:36:11Z</time></trkpt><trkpt lat="48.86753647540573" lon="2.050882538239549"><ele>134.0</ele><time>2026-04-24T17:36:12Z</time></trkpt><trkpt lat="48.867609902053246" lon="2.0508925432217127"><ele>134.0</ele><time>2026-04-24T17:36:13Z</time></trkpt><trkpt lat="48.86771779092549" lon="2.0509160425844932"><ele>134.0</ele><time>2026-04-24T17:36:15Z</time></trkpt><trkpt lat="48.86777389694647" lon="2.0510504046869986"><ele>134.0</ele><time>2026-04-24T17:36:17Z</time></trkpt><trkpt lat="48.86775925807946" lon="2.051155397213169"><ele>134.0</ele><time>2026-04-24T17:36:18Z</time></trkpt><trkpt lat="48.867768692384956" lon="2.0513314771077353"><ele>133.4</ele><time>2026-04-24T17:36:20Z</time></trkpt><trkpt lat="48.86777445440084" lon="2.051479914947383"><ele>132.8</ele><time>2026-04-24T17:36:22Z</time></trkpt><trkpt lat="48.86778807463176" lon="2.0516448474702704"><ele>132.2</ele><time>2026-04-24T17:36:24Z</time></trkpt><trkpt lat="48.86780226665591" lon="2.0518024971625746"><ele>131.6</ele><time>2026-04-24T17:36:26Z</time></trkpt><trkpt lat="48.867803926166474" lon="2.051978983016256"><ele>131.0</ele><time>2026-04-24T17:36:28Z</time></trkpt><trkpt lat="48.86782505139203" lon="2.052169330353879"><ele>130.16666666666666</ele><time>2026-04-24T17:36:30Z</time></trkpt><trkpt lat="48.867837460816695" lon="2.052265068301951"><ele>129.33333333333331</ele><time>2026-04-24T17:36:31Z</time></trkpt><trkpt lat="48.86783509563577" lon="2.0524278894579187"><ele>128.5</ele><time>2026-04-24T17:36:33Z</time></trkpt><trkpt lat="48.8678665056462" lon="2.052512480899268"><ele>127.66666666666666</ele><time>2026-04-24T17:36:34Z</time></trkpt><trkpt lat="48.86797799147723" lon="2.05261835553805"><ele>126.83333333333333</ele><time>2026-04-24T17:36:36Z</time></trkpt><trkpt lat="48.868035546216746" lon="2.052658523724302"><ele>126.0</ele><time>2026-04-24T17:36:37Z</time></trkpt><trkpt lat="48.86813415098936" lon="2.0527351450861904"><ele>126.0</ele><time>2026-04-24T17:36:38.999Z</time></trkpt><trkpt lat="48.86825377955906" lon="2.0527684631247216"><ele>126.0</ele><time>2026-04-24T17:36:40.999Z</time></trkpt><trkpt lat="48.86832104346951" lon="2.0527666424330038"><ele>126.0</ele><time>2026-04-24T17:36:41.999Z</time></trkpt><trkpt lat="48.868388784395634" lon="2.052761071321311"><ele>126.0</ele><time>2026-04-24T17:36:42.999Z</time></trkpt><trkpt lat="48.86845736822489" lon="2.052735988099586"><ele>126.0</ele><time>2026-04-24T17:36:43.999Z</time></trkpt><trkpt lat="48.86853106605994" lon="2.0527231078175574"><ele>126.0</ele><time>2026-04-24T17:36:44.999Z</time></trkpt><trkpt lat="48.86860808571239" lon="2.052722352131059"><ele>125.28571428571428</ele><time>2026-04-24T17:36:45.999Z</time></trkpt><trkpt lat="48.868685566997804" lon="2.0527166427899872"><ele>124.57142857142857</ele><time>2026-04-24T17:36:46.999Z</time></trkpt><trkpt lat="48.868765724271825" lon="2.052733015449742"><ele>123.85714285714286</ele><time>2026-04-24T17:36:47.999Z</time></trkpt><trkpt lat="48.868834326024086" lon="2.052735441589224"><ele>123.14285714285714</ele><time>2026-04-24T17:36:48.999Z</time></trkpt><trkpt lat="48.86890206478949" lon="2.0527561578700064"><ele>122.42857142857142</ele><time>2026-04-24T17:36:49.999Z</time></trkpt><trkpt lat="48.868962122772714" lon="2.052799707944379"><ele>121.71428571428571</ele><time>2026-04-24T17:36:50.999Z</time></trkpt><trkpt lat="48.86902041625077" lon="2.0528744822921863"><ele>121.0</ele><time>2026-04-24T17:36:51.999Z</time></trkpt><trkpt lat="48.86906928669255" lon="2.052941167935669"><ele>121.00000000000001</ele><time>2026-04-24T17:36:52.999Z</time></trkpt><trkpt lat="48.86912864694567" lon="2.053008293636955"><ele>121.0</ele><time>2026-04-24T17:36:53.999Z</time></trkpt><trkpt lat="48.86916619495687" lon="2.0531266107679698"><ele>121.0</ele><time>2026-04-24T17:36:54.999Z</time></trkpt><trkpt lat="48.86916315493002" lon="2.0532576857422984"><ele>121.0</ele><time>2026-04-24T17:36:55.999Z</time></trkpt><trkpt lat="48.86918184157153" lon="2.0533891351826647"><ele>121.00000000000001</ele><time>2026-04-24T17:36:56.999Z</time></trkpt><trkpt lat="48.869202586582425" lon="2.0535282388826794"><ele>121.0</ele><time>2026-04-24T17:36:57.999Z</time></trkpt><trkpt lat="48.86922604317148" lon="2.0536719635088887"><ele>120.6</ele><time>2026-04-24T17:36:58.999Z</time></trkpt><trkpt lat="48.86925030109292" lon="2.0538187508874177"><ele>120.19999999999999</ele><time>2026-04-24T17:36:59.999Z</time></trkpt><trkpt lat="48.869279826720785" lon="2.0539712793267952"><ele>119.80000000000001</ele><time>2026-04-24T17:37:00.999Z</time></trkpt><trkpt lat="48.86931252095747" lon="2.05412477189943"><ele>119.4</ele><time>2026-04-24T17:37:01.999Z</time></trkpt><trkpt lat="48.86933494814541" lon="2.0542795957483255"><ele>119.0</ele><time>2026-04-24T17:37:02.999Z</time></trkpt><trkpt lat="48.86935742884763" lon="2.0544378773509675"><ele>118.80000000000001</ele><time>2026-04-24T17:37:03.999Z</time></trkpt><trkpt lat="48.86937150616209" lon="2.0545982306111457"><ele>118.60000000000001</ele><time>2026-04-24T17:37:04.999Z</time></trkpt><trkpt lat="48.869390292344725" lon="2.0547562383775637"><ele>118.4</ele><time>2026-04-24T17:37:05.999Z</time></trkpt><trkpt lat="48.86940861725811" lon="2.054904258070716"><ele>118.2</ele><time>2026-04-24T17:37:06.999Z</time></trkpt><trkpt lat="48.8694227597131" lon="2.0550505599463533"><ele>118.0</ele><time>2026-04-24T17:37:07.999Z</time></trkpt><trkpt lat="48.86943637838245" lon="2.055193100096331"><ele>117.4</ele><time>2026-04-24T17:37:08.999Z</time></trkpt><trkpt lat="48.86944839485325" lon="2.055332281218638"><ele>116.80000000000001</ele><time>2026-04-24T17:37:09.999Z</time></trkpt><trkpt lat="48.86946230681353" lon="2.0554678934696207"><ele>116.2</ele><time>2026-04-24T17:37:10.999Z</time></trkpt><trkpt lat="48.8694722467334" lon="2.0556068882331577"><ele>115.6</ele><time>2026-04-24T17:37:11.999Z</time></trkpt><trkpt lat="48.869486965196224" lon="2.055747554697668"><ele>115.0</ele><time>2026-04-24T17:37:12.999Z</time></trkpt><trkpt lat="48.869500042649385" lon="2.0558867207148737"><ele>115.0</ele><time>2026-04-24T17:37:13.999Z</time></trkpt><trkpt lat="48.86951562725095" lon="2.0560256092436937"><ele>115.0</ele><time>2026-04-24T17:37:14.999Z</time></trkpt><trkpt lat="48.8695336724119" lon="2.056157340773887"><ele>115.0</ele><time>2026-04-24T17:37:15.999Z</time></trkpt><trkpt lat="48.86955048169686" lon="2.0562905178535447"><ele>115.0</ele><time>2026-04-24T17:37:16.999Z</time></trkpt><trkpt lat="48.86956633353685" lon="2.056424730732556"><ele>115.0</ele><time>2026-04-24T17:37:17.999Z</time></trkpt><trkpt lat="48.869579696430506" lon="2.056562037561268"><ele>114.50000000000001</ele><time>2026-04-24T17:37:18.999Z</time></trkpt><trkpt lat="48.86959604043197" lon="2.0566940755676115"><ele>114.0</ele><time>2026-04-24T17:37:19.999Z</time></trkpt><trkpt lat="48.869610661534765" lon="2.056816298302579"><ele>113.5</ele><time>2026-04-24T17:37:20.999Z</time></trkpt><trkpt lat="48.86962006444924" lon="2.05694912377077"><ele>113.0</ele><time>2026-04-24T17:37:21.999Z</time></trkpt><trkpt lat="48.86963456813991" lon="2.0570754239024946"><ele>112.50000000000001</ele><time>2026-04-24T17:37:22.999Z</time></trkpt><trkpt lat="48.86964860908804" lon="2.057198286541249"><ele>112.0</ele><time>2026-04-24T17:37:23.999Z</time></trkpt><trkpt lat="48.869658448753434" lon="2.05731786167484"><ele>112.00000000000001</ele><time>2026-04-24T17:37:24.999Z</time></trkpt><trkpt lat="48.86967542963151" lon="2.057437301785823"><ele>112.0</ele><time>2026-04-24T17:37:25.999Z</time></trkpt><trkpt lat="48.86968951262075" lon="2.0575559034500315"><ele>112.0</ele><time>2026-04-24T17:37:26.999Z</time></trkpt><trkpt lat="48.86970543302374" lon="2.0576736235626605"><ele>112.0</ele><time>2026-04-24T17:37:27.999Z</time></trkpt><trkpt lat="48.86971929215027" lon="2.057784100525344"><ele>112.00000000000001</ele><time>2026-04-24T17:37:28.999Z</time></trkpt><trkpt lat="48.86972578191349" lon="2.0578928477594554"><ele>112.0</ele><time>2026-04-24T17:37:29.999Z</time></trkpt><trkpt lat="48.86973818285176" lon="2.0579952524340164"><ele>111.50000000000001</ele><time>2026-04-24T17:37:30.999Z</time></trkpt><trkpt lat="48.869728188249425" lon="2.0580966871298885"><ele>111.0</ele><time>2026-04-24T17:37:31.999Z</time></trkpt><trkpt lat="48.86981582483267" lon="2.058175741841573"><ele>110.5</ele><time>2026-04-24T17:37:32.999Z</time></trkpt><trkpt lat="48.86986291868487" lon="2.0582449305384642"><ele>110.0</ele><time>2026-04-24T17:37:33.999Z</time></trkpt><trkpt lat="48.86990798669147" lon="2.058331613406325"><ele>109.50000000000001</ele><time>2026-04-24T17:37:34.999Z</time></trkpt><trkpt lat="48.869988395884896" lon="2.0584471597391505"><ele>109.0</ele><time>2026-04-24T17:37:36.999Z</time></trkpt><trkpt lat="48.870017587778335" lon="2.058542892330676"><ele>108.6</ele><time>2026-04-24T17:37:37.999Z</time></trkpt><trkpt lat="48.87007125446661" lon="2.058647141411375"><ele>108.2</ele><time>2026-04-24T17:37:39.999Z</time></trkpt><trkpt lat="48.87012971805234" lon="2.058762449610989"><ele>107.79999999999998</ele><time>2026-04-24T17:37:42.999Z</time></trkpt><trkpt lat="48.87019194217191" lon="2.0589053416707723"><ele>107.39999999999999</ele><time>2026-04-24T17:37:44.999Z</time></trkpt><trkpt lat="48.870246384479884" lon="2.0590426736939897"><ele>107.0</ele><time>2026-04-24T17:37:46.999Z</time></trkpt><trkpt lat="48.870290077723425" lon="2.0591884992535805"><ele>109.0</ele><time>2026-04-24T17:37:48.999Z</time></trkpt><trkpt lat="48.87031104278168" lon="2.0593529325111217"><ele>110.99999999999999</ele><time>2026-04-24T17:37:51Z</time></trkpt><trkpt lat="48.870317626216156" lon="2.0595221811213515"><ele>112.99999999999999</ele><time>2026-04-24T17:37:53Z</time></trkpt><trkpt lat="48.87029096300393" lon="2.059631535195785"><ele>115.0</ele><time>2026-04-24T17:37:55Z</time></trkpt><trkpt lat="48.8702762747065" lon="2.059766593343755"><ele>117.0</ele><time>2026-04-24T17:37:58Z</time></trkpt><trkpt lat="48.87026122416842" lon="2.059869954167446"><ele>117.8</ele><time>2026-04-24T17:38:00Z</time></trkpt><trkpt lat="48.870247565847414" lon="2.0599729840146432"><ele>118.6</ele><time>2026-04-24T17:38:02Z</time></trkpt><trkpt lat="48.870223145425086" lon="2.0601083089544066"><ele>119.39999999999999</ele><time>2026-04-24T17:38:05Z</time></trkpt><trkpt lat="48.87021549071807" lon="2.0602069845987065"><ele>120.19999999999999</ele><time>2026-04-24T17:38:06Z</time></trkpt><trkpt lat="48.870281294361625" lon="2.0603737283691026"><ele>121.0</ele><time>2026-04-24T17:38:09Z</time></trkpt><trkpt lat="48.87027505680275" lon="2.0605339491156704"><ele>121.00000000000001</ele><time>2026-04-24T17:38:11Z</time></trkpt><trkpt lat="48.87027617477082" lon="2.060648131988094"><ele>121.0</ele><time>2026-04-24T17:38:13Z</time></trkpt><trkpt lat="48.87030106259258" lon="2.0607627551681817"><ele>121.0</ele><time>2026-04-24T17:38:15Z</time></trkpt><trkpt lat="48.87029681305486" lon="2.060883186380214"><ele>121.0</ele><time>2026-04-24T17:38:17Z</time></trkpt><trkpt lat="48.870300459334175" lon="2.0610322144123954"><ele>121.00000000000001</ele><time>2026-04-24T17:38:20Z</time></trkpt><trkpt lat="48.87029535022261" lon="2.0611653686490308"><ele>121.0</ele><time>2026-04-24T17:38:22Z</time></trkpt><trkpt lat="48.87031540631045" lon="2.0613115990573"><ele>121.6</ele><time>2026-04-24T17:38:24Z</time></trkpt><trkpt lat="48.87033073179786" lon="2.0614555461842983"><ele>122.19999999999999</ele><time>2026-04-24T17:38:26Z</time></trkpt><trkpt lat="48.87037397343552" lon="2.0616071426456988"><ele>122.80000000000001</ele><time>2026-04-24T17:38:28Z</time></trkpt><trkpt lat="48.87037135865121" lon="2.0617620500021707"><ele>123.4</ele><time>2026-04-24T17:38:30Z</time></trkpt><trkpt lat="48.87037836859933" lon="2.061963347210214"><ele>124.0</ele><time>2026-04-24T17:38:32Z</time></trkpt><trkpt lat="48.87037529896231" lon="2.0620895845069955"><ele>124.0</ele><time>2026-04-24T17:38:33Z</time></trkpt><trkpt lat="48.870369056638" lon="2.0621988938876465"><ele>124.00000000000001</ele><time>2026-04-24T17:38:34Z</time></trkpt><trkpt lat="48.87037322150095" lon="2.0622995904384522"><ele>124.0</ele><time>2026-04-24T17:38:35Z</time></trkpt><trkpt lat="48.870363364292466" lon="2.062403611259257"><ele>124.0</ele><time>2026-04-24T17:38:36Z</time></trkpt><trkpt lat="48.87036229770501" lon="2.062508508487501"><ele>124.00000000000001</ele><time>2026-04-24T17:38:37Z</time></trkpt><trkpt lat="48.87035650491696" lon="2.062609891538805"><ele>124.0</ele><time>2026-04-24T17:38:38Z</time></trkpt><trkpt lat="48.87035393708672" lon="2.062712002461217"><ele>124.0</ele><time>2026-04-24T17:38:39Z</time></trkpt><trkpt lat="48.870351386323556" lon="2.0628229196167855"><ele>123.66666666666667</ele><time>2026-04-24T17:38:40Z</time></trkpt><trkpt lat="48.87036230761378" lon="2.0629918668322227"><ele>123.33333333333334</ele><time>2026-04-24T17:38:42Z</time></trkpt><trkpt lat="48.870344729771304" lon="2.06312475975028"><ele>123.0</ele><time>2026-04-24T17:38:44Z</time></trkpt><trkpt lat="48.87036149625604" lon="2.063219657197562"><ele>122.66666666666666</ele><time>2026-04-24T17:38:46Z</time></trkpt><trkpt lat="48.87036713633287" lon="2.0633270914459887"><ele>122.33333333333333</ele><time>2026-04-24T17:38:47.999Z</time></trkpt><trkpt lat="48.87037788269168" lon="2.0634354563666095"><ele>122.0</ele><time>2026-04-24T17:38:50.999Z</time></trkpt><trkpt lat="48.87039924930871" lon="2.063539867254295"><ele>121.99999999999999</ele><time>2026-04-24T17:38:53.999Z</time></trkpt><trkpt lat="48.870421854033005" lon="2.063647032356863"><ele>122.0</ele><time>2026-04-24T17:38:56.999Z</time></trkpt><trkpt lat="48.87046519390022" lon="2.063770274586383"><ele>122.0</ele><time>2026-04-24T17:38:59.999Z</time></trkpt><trkpt lat="48.870483257688996" lon="2.0638927658205146"><ele>122.0</ele><time>2026-04-24T17:39:01.999Z</time></trkpt><trkpt lat="48.8704996520546" lon="2.0640138365107705"><ele>121.99999999999999</ele><time>2026-04-24T17:39:03.999Z</time></trkpt><trkpt lat="48.87051588238616" lon="2.0641883342038505"><ele>122.0</ele><time>2026-04-24T17:39:05.999Z</time></trkpt><trkpt lat="48.87053392393231" lon="2.0643456671376894"><ele>121.83333333333333</ele><time>2026-04-24T17:39:07.999Z</time></trkpt><trkpt lat="48.870548469260534" lon="2.06454516974177"><ele>121.66666666666666</ele><time>2026-04-24T17:39:09.999Z</time></trkpt><trkpt lat="48.87057092580074" lon="2.0646581699995727"><ele>121.5</ele><time>2026-04-24T17:39:10.999Z</time></trkpt><trkpt lat="48.87058429876757" lon="2.0647799623983314"><ele>121.33333333333334</ele><time>2026-04-24T17:39:11.999Z</time></trkpt><trkpt lat="48.87059706139966" lon="2.0648991676709127"><ele>121.16666666666667</ele><time>2026-04-24T17:39:12.999Z</time></trkpt><trkpt lat="48.87060836536676" lon="2.065010474138926"><ele>121.0</ele><time>2026-04-24T17:39:13.999Z</time></trkpt><trkpt lat="48.87062627649935" lon="2.06512867488583"><ele>120.83333333333334</ele><time>2026-04-24T17:39:14.999Z</time></trkpt><trkpt lat="48.87064605345769" lon="2.065246158246198"><ele>120.66666666666667</ele><time>2026-04-24T17:39:15.999Z</time></trkpt><trkpt lat="48.87066368014046" lon="2.0653429722422763"><ele>120.5</ele><time>2026-04-24T17:39:16.999Z</time></trkpt><trkpt lat="48.87068510662532" lon="2.0654513769194516"><ele>120.33333333333334</ele><time>2026-04-24T17:39:17.999Z</time></trkpt><trkpt lat="48.87069960609607" lon="2.0655545729576"><ele>120.16666666666667</ele><time>2026-04-24T17:39:18.999Z</time></trkpt><trkpt lat="48.870727196109264" lon="2.0657268875000634"><ele>120.0</ele><time>2026-04-24T17:39:20.999Z</time></trkpt><trkpt lat="48.870761064175454" lon="2.065902246336148"><ele>119.83333333333333</ele><time>2026-04-24T17:39:22.999Z</time></trkpt><trkpt lat="48.87081726151043" lon="2.0660592917844975"><ele>119.66666666666666</ele><time>2026-04-24T17:39:24.999Z</time></trkpt><trkpt lat="48.87083516322066" lon="2.066151844513292"><ele>119.5</ele><time>2026-04-24T17:39:25.999Z</time></trkpt><trkpt lat="48.870899945392246" lon="2.0662674511345593"><ele>119.33333333333333</ele><time>2026-04-24T17:39:27.999Z</time></trkpt><trkpt lat="48.8709174068362" lon="2.0663677473097795"><ele>119.16666666666666</ele><time>2026-04-24T17:39:28.999Z</time></trkpt><trkpt lat="48.87095313508912" lon="2.0664583953586577"><ele>119.0</ele><time>2026-04-24T17:39:29.999Z</time></trkpt><trkpt lat="48.87097921899179" lon="2.066558554023005"><ele>119.49999999999999</ele><time>2026-04-24T17:39:30.999Z</time></trkpt><trkpt lat="48.871013278405385" lon="2.0666568528023683"><ele>120.0</ele><time>2026-04-24T17:39:31.999Z</time></trkpt><trkpt lat="48.871053467892544" lon="2.0667614766116156"><ele>120.5</ele><time>2026-04-24T17:39:32.999Z</time></trkpt><trkpt lat="48.87109853876203" lon="2.0668533181991244"><ele>121.0</ele><time>2026-04-24T17:39:33.999Z</time></trkpt><trkpt lat="48.871133363139236" lon="2.066956026306224"><ele>121.49999999999999</ele><time>2026-04-24T17:39:34.999Z</time></trkpt><trkpt lat="48.871186098202315" lon="2.067058303286644"><ele>122.0</ele><time>2026-04-24T17:39:35.999Z</time></trkpt><trkpt lat="48.87122160016041" lon="2.0671598769605017"><ele>121.99999999999999</ele><time>2026-04-24T17:39:36.999Z</time></trkpt><trkpt lat="48.87130167364979" lon="2.0673293110153783"><ele>122.0</ele><time>2026-04-24T17:39:38.999Z</time></trkpt><trkpt lat="48.871343558700055" lon="2.0674390258127566"><ele>122.0</ele><time>2026-04-24T17:39:39.999Z</time></trkpt><trkpt lat="48.87138067749345" lon="2.0675413633021384"><ele>122.0</ele><time>2026-04-24T17:39:40.999Z</time></trkpt><trkpt lat="48.871409028693634" lon="2.0676323150886526"><ele>121.99999999999999</ele><time>2026-04-24T17:39:41.999Z</time></trkpt><trkpt lat="48.87144278706623" lon="2.067733598904273"><ele>122.0</ele><time>2026-04-24T17:39:42.999Z</time></trkpt><trkpt lat="48.8714950388819" lon="2.067799614927277"><ele>121.16666666666666</ele><time>2026-04-24T17:39:43.999Z</time></trkpt><trkpt lat="48.87152492661926" lon="2.067894631161235"><ele>120.33333333333333</ele><time>2026-04-24T17:39:44.999Z</time></trkpt><trkpt lat="48.871591723335634" lon="2.0680340043469316"><ele>119.5</ele><time>2026-04-24T17:39:46.999Z</time></trkpt><trkpt lat="48.87163433001607" lon="2.068104461951282"><ele>118.66666666666666</ele><time>2026-04-24T17:39:47.999Z</time></trkpt><trkpt lat="48.87166946873125" lon="2.068184180458064"><ele>117.83333333333333</ele><time>2026-04-24T17:39:48.999Z</time></trkpt><trkpt lat="48.8717050905342" lon="2.0682661005326994"><ele>117.0</ele><time>2026-04-24T17:39:49.999Z</time></trkpt><trkpt lat="48.87176525169626" lon="2.068345747390143"><ele>117.0</ele><time>2026-04-24T17:39:51.999Z</time></trkpt><trkpt lat="48.871798821363484" lon="2.0684600944483704"><ele>117.0</ele><time>2026-04-24T17:39:53.999Z</time></trkpt><trkpt lat="48.8717973007401" lon="2.068584525599295"><ele>117.0</ele><time>2026-04-24T17:39:55.999Z</time></trkpt><trkpt lat="48.871747971354345" lon="2.0687077783690304"><ele>117.0</ele><time>2026-04-24T17:39:58Z</time></trkpt><trkpt lat="48.87171024255991" lon="2.0688181368404455"><ele>117.0</ele><time>2026-04-24T17:40:00Z</time></trkpt><trkpt lat="48.87167121006903" lon="2.0689460520039313"><ele>117.0</ele><time>2026-04-24T17:40:03Z</time></trkpt><trkpt lat="48.87185765021335" lon="2.069005951170095"><ele>117.0</ele><time>2026-04-24T17:40:06Z</time></trkpt><trkpt lat="48.87196424048034" lon="2.0689842856027845"><ele>117.0</ele><time>2026-04-24T17:40:08Z</time></trkpt><trkpt lat="48.87203555582259" lon="2.06890758999108"><ele>117.0</ele><time>2026-04-24T17:40:10Z</time></trkpt><trkpt lat="48.872092910488064" lon="2.068829725060782"><ele>117.0</ele><time>2026-04-24T17:40:12Z</time></trkpt><trkpt lat="48.872135085783434" lon="2.0687584672376125"><ele>117.0</ele><time>2026-04-24T17:40:14Z</time></trkpt><trkpt lat="48.87218689587373" lon="2.068669595978431"><ele>117.0</ele><time>2026-04-24T17:40:17Z</time></trkpt><trkpt lat="48.87223338864867" lon="2.0685914122577076"><ele>117.0</ele><time>2026-04-24T17:40:19Z</time></trkpt><trkpt lat="48.87228736819525" lon="2.0685130077922502"><ele>117.00000000000001</ele><time>2026-04-24T17:40:21Z</time></trkpt><trkpt lat="48.87230567055355" lon="2.068403862786255"><ele>117.0</ele><time>2026-04-24T17:40:23Z</time></trkpt><trkpt lat="48.87231816706727" lon="2.068303818449061"><ele>117.0</ele><time>2026-04-24T17:40:25Z</time></trkpt><trkpt lat="48.87231445302232" lon="2.0681838207129433"><ele>117.00000000000001</ele><time>2026-04-24T17:40:28Z</time></trkpt><trkpt lat="48.872250401093446" lon="2.068186239531991"><ele>117.0</ele><time>2026-04-24T17:40:33Z</time></trkpt><trkpt lat="48.87218770782667" lon="2.0682183354773063"><ele>117.0</ele><time>2026-04-24T17:41:07.999Z</time></trkpt><trkpt lat="48.87216973654174" lon="2.068121871399481"><ele>117.0</ele><time>2026-04-24T17:41:29.017Z</time></trkpt><trkpt lat="48.87176541294881" lon="2.06837446260323"><ele>117.0</ele><time>2026-04-24T17:44:08.942Z</time></trkpt><trkpt lat="48.87184596093113" lon="2.068285493738376"><ele>118.66666666666666</ele><time>2026-04-24T17:44:16.668Z</time></trkpt><trkpt lat="48.87210871261556" lon="2.0681145930588807"><ele>120.33333333333333</ele><time>2026-04-24T17:44:17.986Z</time></trkpt><trkpt lat="48.87221834479764" lon="2.0682186369043314"><ele>122.0</ele><time>2026-04-24T17:46:51.999Z</time></trkpt><trkpt lat="48.87213597639961" lon="2.068215394345154"><ele>122.0</ele><time>2026-04-24T17:51:17.999Z</time></trkpt><trkpt lat="48.872116014175866" lon="2.0683085778349906"><ele>117.0</ele><time>2026-04-24T17:51:21Z</time></trkpt><trkpt lat="48.872092906753274" lon="2.0684369620351473"><ele>117.0</ele><time>2026-04-24T17:51:25Z</time></trkpt><trkpt lat="48.87212961760963" lon="2.068305200714156"><ele>117.0</ele><time>2026-04-24T17:51:39Z</time></trkpt></trkseg></trk></gpx>